MPMG - Transparência

Contra-cheque - Remuneração de todos os servidores ativos - Pré Resolução CNMP 200/2019

Período: 2019 - Maio

Ordem Matrícula Nome Cargo Efetivo Situação Unidade Administrativa Rendimentos Descontos Rendimento Líquido Total Indenizações Outras Remunerações Retroativas/Temporárias Data de Referência
Remuneração Básica Remuneração Eventual ou Temporária Total de Rendimentos Brutos Obrigatórios/Legais Total de Descontos
Remuneração do Cargo Efetivo Outras Verbas Remuneratórias Função de Confiança ou Cargo em Comissão Gratificação Natalina Férias Abono de Permanência Contribuição Previdenciária Imposto de Renda Retenção por Teto Constitucional
1 498900 ABDON MARCIO BARBOSA DA SILVA OFICIAL DO MP ATIVO ABRE CAMPO - COMARCA; ABRE CAMPO-PJ-01PJ 4.995,72 499,57 0,00 0,00 0,00 0,00 5.495,29 672,67 378,99 0,00 1.051,66 4.443,63 1.550,00 619,94 31/05/2019
2 177800 ADALBERTO MENEZES FARIA SAMORA OFICIAL DO MP ATIVO BELO HORIZONTE - COMARCA; DIR ESTRUTURA E PROCESSOS ORGANIZACIONAIS 13.283,29 3.984,99 0,00 0,00 0,00 0,00 17.268,28 1.980,79 3.252,78 0,00 5.233,57 12.034,71 1.552,48 738,96 31/05/2019
3 306400 ADALBERTO MOREIRA GONCALVES ANALISTA DO MP ATIVO BELO HORIZONTE - COMARCA; BH-24PJ JUIZO REGIONAL DO BARREIRO 13.715,83 4.114,75 0,00 0,00 0,00 0,00 17.830,58 2.034,57 3.494,68 0,00 5.529,25 12.301,33 1.558,14 672,33 31/05/2019
4 179300 ADENISE AUXILIADORA SOUZA SAD OFICIAL DO MP ATIVO BARBACENA - COMARCA; BARBACENA-PJ-06PJ 12.065,98 3.619,79 0,00 0,00 0,00 0,00 15.685,77 1.795,20 2.865,46 0,00 4.660,66 11.025,11 1.550,00 634,28 31/05/2019
5 272200 ADILSON BATISTA ORNELAS OFICIAL DO MP ATIVO LAVRAS - COMARCA; LAVRAS-PJ-SECRETARIA 4.763,08 952,62 0,00 0,00 0,00 0,00 5.715,70 653,38 425,28 0,00 1.078,66 4.637,04 1.550,00 224,06 31/05/2019
6 380100 ADILSON GONCALVES DE MELO JUNIOR ANALISTA DO MP ATIVO ARAXÁ - COMARCA; ARAXA-PJ-05PJ 9.337,87 1.867,57 0,00 0,00 0,00 0,00 11.205,44 1.280,92 1.768,90 0,00 3.049,82 8.155,62 2.249,00 439,26 31/05/2019
7 148800 ADILSON JANUARIO OFICIAL DO MP ATIVO BELO HORIZONTE - COMARCA; BH-22PJ PES COM DEF E IDOSOS-SECRETARIA 14.941,94 10.459,36 0,00 0,00 0,00 0,00 25.401,30 3.005,92 5.243,33 0,00 8.249,25 17.152,05 7.015,30 2.390,88 31/05/2019
8 322601 ADMILSON SILVEIRA ANALISTA DO MP ATIVO SAO JOAO DO PARAISO COMARCA; SAO JOAO DO PARAISO-PJ-UNPJ 7.576,76 454,61 0,00 0,00 0,00 0,00 8.031,37 944,85 1.096,32 0,00 2.041,17 5.990,20 1.550,00 558,16 31/05/2019
9 333700 ADRIANA ABRITTA TEIXEIRA OFICIAL DO MP ATIVO BELO HORIZONTE - COMARCA; DIRET DE PESSOAL DO MINISTERIO PUBLICO - DPMP 8.482,22 1.696,44 0,00 0,00 0,00 0,00 10.178,66 1.197,46 1.621,87 0,00 2.819,33 7.359,33 1.550,00 707,46 31/05/2019
10 468500 ADRIANA APARECIDA FIRMINO ANALISTA DO MP ATIVO CARATINGA - COMARCA; CARATINGA-PJ-04PJ 9.337,87 933,79 0,00 0,00 0,00 0,00 10.271,66 1.174,18 1.592,49 0,00 2.766,67 7.504,99 2.249,00 402,65 31/05/2019
11 326100 ADRIANA AUGUSTA AMARAL BELO OFICIAL DO MP ATIVO BARBACENA - COMARCA; BARBACENA-PJ-08PJ 8.482,22 1.696,44 0,00 0,00 0,00 0,00 10.178,66 1.197,46 1.517,59 0,00 2.715,05 7.463,61 1.550,00 707,46 31/05/2019
12 605700 ADRIANA COSTA LIRA ASSESSOR/OFICIAL ATIVO BELO HORIZONTE - COMARCA; SUPRIN DE FORMACAO E APERFEICOAMENTO-SFA/CEAF 0,00 757,68 7.576,76 0,00 0,00 0,00 8.334,44 657,21 1.247,49 0,00 1.904,70 6.429,74 1.550,00 314,83 31/05/2019
13 541100 ADRIANA CRISTINA DE OLIVEIRA OFICIAL DO MP ATIVO GUAPÉ - COMARCA; GUAPE-PJ-UNPJ 4.467,49 446,75 0,00 0,00 0,00 0,00 4.914,24 561,76 305,29 0,00 867,05 4.047,19 2.249,00 192,64 31/05/2019
14 254800 ADRIANA DAS GRACAS FERNANDES ANALISTA DO MP ATIVO UBERABA - COMARCA; UBERABA-PJ-07PJ 15.533,57 10.873,50 0,00 0,00 0,00 0,00 26.407,07 3.265,06 5.541,63 0,00 8.806,69 17.600,38 1.550,00 3.262,41 31/05/2019
15 217400 ADRIANA DE CARVALHO CATAO BRAGA ASSESSOR ATIVO BELO HORIZONTE - COMARCA; EXTINTA - DIRETORIA DE CONTRATOS E CONVÊNIOS 0,00 2.273,03 7.576,76 0,00 0,00 0,00 9.849,79 642,34 1.965,19 0,00 2.607,53 7.242,26 1.550,00 386,11 31/05/2019
16 434600 ADRIANA FERREIRA DA SILVA ANALISTA DO MP ATIVO BELO HORIZONTE - COMARCA; BH-14PJ DEFESA CONSUMIDOR-GAB 112PJ 10.279,98 1.028,00 0,00 0,00 0,00 0,00 11.307,98 1.294,18 1.898,27 0,00 3.192,45 8.115,53 1.550,00 457,25 31/05/2019
17 499800 ADRIANA FERREIRA TIAGO OFICIAL DO MP ATIVO SALINAS - COMARCA; SALINAS-PJ-02PJ 6.054,65 605,47 0,00 0,00 2.220,04 0,00 8.880,16 783,53 1.371,22 0,00 2.154,75 6.725,41 1.550,00 462,90 31/05/2019
18 543400 ADRIANA GUIMARAES NUNES DE PAULA ANALISTA DO MP ATIVO PATROCÍNIO - COMARCA; PATROCINIO-PJ-01PJ 7.576,76 757,68 0,00 0,00 0,00 0,00 8.334,44 952,73 1.170,49 0,00 2.123,22 6.211,22 1.550,00 326,71 31/05/2019
19 471500 ADRIANA HORTA DE CARVALHO RODRIGUES DE SOUSA ANALISTA DO MP ATIVO BELO HORIZONTE - COMARCA; GRUPO ESP PROM PROC JUST DEF PROB ADM PAT PUB 9.337,87 933,79 0,00 0,00 0,00 0,00 10.271,66 1.174,18 1.592,49 0,00 2.766,67 7.504,99 2.249,00 402,65 31/05/2019
20 86400 ADRIANA MOREIRA CALDEIRA BRANT OFICIAL DO MP ATIVO BELO HORIZONTE - COMARCA; EXTINTA-TUTELA DAS FUNDACOES-21 PJ- GABINETE 13.283,29 9.298,31 0,00 0,00 0,00 0,00 22.581,60 2.762,88 4.657,49 0,00 7.420,37 15.161,23 1.550,00 2.535,46 31/05/2019
21 480700 ADRIANA MOREIRA DE AVELLAR CEZILIO OFICIAL DO MP ATIVO BELO HORIZONTE - COMARCA; EXTINTA - DIVISAO DE MATERIAL DE CONSUMO 5.158,42 515,84 0,00 0,00 0,00 0,00 5.674,26 667,55 415,14 0,00 1.082,69 4.591,57 1.550,00 394,39 31/05/2019
22 326000 ADRIANA PEREIRA CARNEIRO RESENDE OFICIAL DO MP ATIVO BELO HORIZONTE - COMARCA; BH-25PJ DEFESA DA EDUCAÇÃO 7.955,66 1.591,13 0,00 0,00 0,00 0,00 9.546,79 1.108,08 1.467,22 0,00 2.575,30 6.971,49 2.313,74 596,64 31/05/2019
23 502200 ADRIANA PETRUCCI DAVINA OFICIAL DO MP ATIVO PATROCÍNIO - COMARCA; PATROCINIO-PJ-01PJ 6.251,74 625,17 0,00 0,00 0,00 0,00 6.876,91 809,03 813,76 0,00 1.622,79 5.254,12 2.249,00 477,88 31/05/2019
24 201900 ADRIANA REIS PIMENTA OFICIAL DO MP ATIVO TEÓFILO OTONI - COMARCA; TEOFILO OTONI-PJ-03PJ 12.065,98 4.826,39 0,00 0,00 0,00 0,00 16.892,37 1.927,93 3.265,05 0,00 5.192,98 11.699,39 1.555,43 634,28 31/05/2019
25 278700 ADRIANA RODRIGUES PINTO COELHO AMARAL ANALISTA DO MP ATIVO BELO HORIZONTE - COMARCA; ASSESS TECNICA DA CORREGEDORIA-GERAL DO MP 14.162,21 4.248,66 0,00 0,00 0,00 0,00 18.410,87 2.155,09 3.584,56 0,00 5.739,65 12.671,22 2.286,43 1.248,37 31/05/2019
26 468000 ADRIANA SANTOS DE SANTANA MOREIRA ANALISTA DO MP ATIVO ARAÇUAÍ - COMARCA; ARACUAI-PJ-02PJ 9.337,87 2.801,36 0,00 0,00 0,00 0,00 12.139,23 1.387,67 1.997,44 0,00 3.385,11 8.754,12 2.249,00 475,86 31/05/2019
27 194700 ADRIANA TSUKIDE OFICIAL DO MP ATIVO UBERABA - COMARCA; COORD REG BACIAS PARANAIBA BAIXO RIO GRANDE 12.065,98 3.619,79 0,00 0,00 0,00 0,00 15.685,77 1.795,20 2.917,60 0,00 4.712,80 10.972,97 1.577,70 634,28 31/05/2019
28 465500 ADRIANO CASSIANO MATOS ANALISTA DO MP ATIVO ARAXÁ - COMARCA; ARAXA-PJ-02PJ 9.337,87 933,79 0,00 0,00 0,00 0,00 10.271,66 1.174,18 1.644,63 0,00 2.818,81 7.452,85 1.550,00 402,65 31/05/2019
29 500500 ADRIANO DE ALMEIDA SILVA OFICIAL DO MP ATIVO UBERABA - COMARCA; UBERABA-PJ-12PJ 6.251,74 625,17 0,00 0,00 0,00 0,00 6.876,91 809,03 813,76 0,00 1.622,79 5.254,12 2.249,00 477,88 31/05/2019
30 187200 ADRIANO DE FREITAS MARON OFICIAL DO MP ATIVO PONTE NOVA - COMARCA; PONTE NOVA-PJ-03PJ 10.279,98 8.223,98 0,00 0,00 0,00 2.035,44 20.539,40 2.176,88 4.219,23 0,00 6.396,11 14.143,29 2.290,16 1.495,13 31/05/2019
31 477900 ADRIANO FERREIRA DE ALMEIDA OFICIAL DO MP ATIVO TAIOBEIRAS - COMARCA; TAIOBEIRAS-PJ-UNPJ 6.251,74 625,17 0,00 0,00 0,00 0,00 6.876,91 787,06 709,49 0,00 1.496,55 5.380,36 2.642,48 278,08 31/05/2019
32 269101 ADRIANO PEREIRA SILVA ANALISTA DO MP ATIVO UBERABA - COMARCA; UBERABA-PJ-02PJ 9.337,87 933,79 0,00 0,00 0,00 0,00 10.271,66 1.174,18 1.488,22 0,00 2.662,40 7.609,26 2.249,00 402,65 31/05/2019
33 414200 ADRIANO RODRIGUES FERNANDES ANALISTA DO MP ATIVO CARANDAÍ - COMARCA; CARANDAI-PJ-UNPJ 9.043,46 1.808,69 0,00 0,00 0,00 0,00 10.852,15 1.269,79 1.630,29 0,00 2.900,08 7.952,07 1.550,00 691,28 31/05/2019
34 536700 ADRIELLE COSTA MARIA MOURAO FIGUEIREDO OFICIAL DO MP ATIVO SERRO - COMARCA; SERRO-PJ-SECRETARIA 4.467,49 446,75 0,00 0,00 1.638,08 0,00 6.552,32 561,76 783,87 0,00 1.345,63 5.206,69 2.249,00 192,64 31/05/2019
35 514300 ADRIENE DAMASCENO BRAGA ANALISTA DO MP ATIVO ALFENAS - COMARCA; ALFENAS-PJ-03PJ 9.337,87 933,79 0,00 0,00 0,00 0,00 10.271,66 1.273,65 1.644,63 0,00 2.918,28 7.353,38 2.249,00 1.306,96 31/05/2019
36 254600 ADRIENE DOMINGUES COSTA ANALISTA DO MP ATIVO BELO HORIZONTE - COMARCA; SUPERINTENDENCIA DE RECURSOS HUMANOS 13.283,29 3.984,99 0,00 0,00 0,00 0,00 17.268,28 2.141,23 3.357,05 0,00 5.498,28 11.770,00 0,00 2.197,40 31/05/2019
37 252001 ADRIENE GOMES BARRETO ANALISTA DO MP ATIVO BELO HORIZONTE - COMARCA; BH-19PJ SAUDE-SECRETARIA 150PJ 11.685,57 4.674,23 0,00 0,00 0,00 0,00 16.359,80 1.924,64 3.134,70 0,00 5.059,34 11.300,46 1.550,00 1.136,89 31/05/2019
38 645000 AFONSO CELSO GUIMARAES JUNIOR OFICIAL DO MP ATIVO PIRAPORA - COMARCA; PIRAPORA-PJ-01PJ 3.569,91 214,19 0,00 0,00 0,00 0,00 3.784,10 455,20 178,97 0,00 634,17 3.149,93 1.550,00 358,54 31/05/2019
39 118100 AGENOR ALCIR RODRIGUES DA SILVA OFICIAL DO MP ATIVO SÃO JOÃO NEPOMUCENO - COMARCA; SAO JOAO NEPOMUCENO-PJ-01PJ 15.533,57 12.426,86 0,00 0,00 0,00 0,00 27.960,43 3.308,76 5.973,95 0,00 9.282,71 18.677,72 7.481,17 2.631,86 31/05/2019
40 302500 AGENOR JOSE DA SILVA JUNIOR ANALISTA DO MP ATIVO JUIZ DE FORA - COMARCA; JUIZ DE FORA-PJ-07PJ 13.715,83 2.743,17 0,00 0,00 0,00 0,00 16.459,00 1.883,70 3.054,71 0,00 4.938,41 11.520,59 1.550,81 665,55 31/05/2019
41 357500 AILSON WAGNER DE ALENCAR SILVA OFICIAL DO MP ATIVO BELO HORIZONTE - COMARCA; BH-12PJ JUIZO CRIMINAL-SECRETARIA 8.214,70 3.285,88 0,00 0,00 0,00 0,00 11.500,58 1.346,70 1.789,00 0,00 3.135,70 8.364,88 1.550,00 742,17 31/05/2019
42 366400 AILTON ALEXSSANDRO ALVES OFICIAL DO MP ATIVO PARÁ DE MINAS - COMARCA; PARA DE MINAS-PJ-05PJ 7.823,48 2.347,04 0,00 0,00 0,00 0,00 10.170,52 1.196,51 1.619,87 0,00 2.816,38 7.354,14 1.550,00 706,83 31/05/2019
43 318900 AILTON DE CASTRO RIBEIRO JUNIOR OFICIAL DO MP ATIVO ITAJUBA - COMARCA; ITAJUBA-PJ-01PJ 8.482,22 1.696,44 0,00 0,00 0,00 0,00 10.178,66 1.197,46 1.413,32 0,00 2.610,78 7.567,88 2.249,00 707,46 31/05/2019
44 464400 ALAN MONTEIRO GASPAR ANALISTA DO MP ATIVO SETE LAGOAS - COMARCA; SETE LAGOAS-PJ-03PJ 9.337,87 933,79 0,00 0,00 0,00 0,00 10.271,66 1.174,18 1.644,63 0,00 2.818,81 7.452,85 1.550,00 402,65 31/05/2019
45 492000 ALANA DE CASTRO FREITAS OFICIAL DO MP ATIVO ITUMIRIM - COMARCA; ITUMIRIM-PJ-SECRETARIA 5.678,79 567,88 0,00 0,00 0,00 0,00 6.246,67 734,87 659,51 0,00 1.394,38 4.852,29 1.550,00 434,06 31/05/2019
46 306700 ALANA MARCIA DE OLIVEIRA OFICIAL DO MP ATIVO BELO HORIZONTE - COMARCA; DIRETORIA DE ADMINISTRACAO FINANCEIRA 7.955,66 2.386,70 0,00 0,00 0,00 0,00 10.342,36 1.267,02 1.856,65 0,00 3.123,67 7.218,69 1.550,00 1.176,03 31/05/2019
47 324500 ALANMAR COUTINHO COSTA OFICIAL DO MP ATIVO LEOPOLDINA - COMARCA; LEOPOLDINA-PJ-02PJ 8.214,70 1.642,94 0,00 0,00 0,00 0,00 9.857,64 1.130,14 1.439,02 0,00 2.569,16 7.288,48 1.550,00 416,43 31/05/2019
48 508200 ALBERTO DA SILVA VIEIRA ASSESSOR ATIVO BELO HORIZONTE - COMARCA; ASSESS TECNICA DA CORREGEDORIA-GERAL DO MP 0,00 0,00 10.614,65 0,00 0,00 0,00 10.614,65 642,34 2.123,39 0,00 2.765,73 7.848,92 1.550,00 416,10 31/05/2019
49 407300 ALBERTO LUIZ SOARES DE OLIVEIRA ANALISTA DO MP ATIVO BELO HORIZONTE - COMARCA; DIRETORIA DE PROJETOS DE EDIFICACOES 10.279,98 2.056,00 0,00 0,00 0,00 0,00 12.335,98 1.407,26 2.149,87 0,00 3.557,13 8.778,85 1.550,00 461,91 31/05/2019
50 118200 ALBERTO PEREIRA DA COSTA OFICIAL DO MP ATIVO DORES DO INDAIÁ - COMARCA; DORES DO INDAIA-PJ-UNPJ 13.715,83 10.972,66 0,00 0,00 0,00 2.715,73 27.404,22 2.825,54 5.815,70 0,00 8.641,24 18.762,98 6.693,47 1.560,76 31/05/2019
51 282400 ALCILENE MARISE DE ARAUJO ANALISTA DO MP ATIVO BELO HORIZONTE - COMARCA; BH-23PJ INF-FISC MED SOC FEC 14.162,21 4.248,66 0,00 0,00 0,00 0,00 18.410,87 2.155,09 3.532,42 0,00 5.687,51 12.723,36 7.082,91 1.653,41 31/05/2019
52 112600 ALCIONE DA MOTA JARDIM OFICIAL DO MP ATIVO BELO HORIZONTE - COMARCA; CAO-CRIANCAS E ADOLESCENTES-SECRETARIA 11.317,16 5.658,58 0,00 0,00 0,00 0,00 16.975,74 1.997,11 3.233,32 0,00 5.230,43 11.745,31 1.550,00 1.179,81 31/05/2019
53 396400 ALCIONE DE FREITAS E SILVA ANALISTA DO MP ATIVO BELO HORIZONTE - COMARCA; ASSESS JUR DO CONS SUPERIOR DO MINISTERIO PUB 11.685,57 4.674,23 0,00 0,00 0,00 0,00 16.359,80 1.915,70 3.134,70 0,00 5.050,40 11.309,40 1.550,00 1.055,67 31/05/2019
54 657400 ALCIONE MARIA FERREIRA ASSESSOR ATIVO BELO HORIZONTE - COMARCA; PROC JUST RECURSOS ESP E EXTRAORD CRIMINAIS 0,00 0,00 9.641,94 0,00 0,00 0,00 9.641,94 642,34 1.908,03 0,00 2.550,37 7.091,57 1.550,00 377,97 31/05/2019
55 161600 ALCIONE NERY SOUZA ASSESSOR ATIVO BELO HORIZONTE - COMARCA; BH-18PJ DIREITOS HUMANOS-SECRETARIA 0,00 3.788,38 7.576,76 0,00 0,00 0,00 11.365,14 642,34 2.381,91 0,00 3.024,25 8.340,89 1.550,00 415,82 31/05/2019
56 376000 ALDA GOMES LANA OFICIAL DO MP ATIVO BELO HORIZONTE - COMARCA; BH-18PJ VIOLENCIA DOMESTICA-SECRETARIA 7.337,85 1.467,57 0,00 0,00 0,00 0,00 8.805,42 1.007,67 1.181,49 0,00 2.189,16 6.616,26 1.550,00 355,16 31/05/2019
57 148000 ALDA MARTINS SIMOES OFICIAL DO MP ATIVO BELO HORIZONTE - COMARCA; BH-23PJ CIVEL- FISC ENT AB POL 14.162,21 7.081,11 0,00 0,00 0,00 0,00 21.243,32 2.488,31 4.329,94 0,00 6.818,25 14.425,07 1.550,00 1.377,67 31/05/2019
58 318400 ALDO CREPALDI JUNIOR OFICIAL DO MP ATIVO BELO HORIZONTE - COMARCA; EXTINTA - DIVISAO DE MATERIAL DE CONSUMO 7.955,66 1.591,13 0,00 0,00 0,00 0,00 9.546,79 1.108,08 1.415,08 0,00 2.523,16 7.023,63 1.550,00 526,63 31/05/2019
59 604500 ALENIZE APARECIDA RODRIGUES HENRIQUE OFICIAL DO MP ATIVO RIO NOVO - COMARCA; RIO NOVO-PJ-UNPJ 4.467,49 446,75 0,00 0,00 0,00 0,00 4.914,24 606,86 347,95 0,00 954,81 3.959,43 1.550,00 602,64 31/05/2019
60 197900 ALESSA DE SOUSA E SILVA OFICIAL DO MP ATIVO OLIVEIRA - COMARCA; OLIVEIRA-PJ-02PJ 13.283,29 3.984,99 0,00 0,00 0,00 0,00 17.268,28 1.980,79 3.252,78 0,00 5.233,57 12.034,71 1.702,48 738,96 31/05/2019
61 428500 ALESSANDRA ALVES DINIZ OFICIAL DO MP ATIVO BELO HORIZONTE - COMARCA; CENTRAL DE APOIO TECNICO-SECRETARIA 5.158,42 2.579,21 0,00 0,00 0,00 0,00 7.737,63 882,28 1.024,42 0,00 1.906,70 5.830,93 1.550,00 283,10 31/05/2019
62 286801 ALESSANDRA BOTELHO JUNQUEIRA DE MENEZES ANALISTA DO MP ATIVO PASSOS - COMARCA; PASSOS-PJ-05PJ 11.317,16 3.395,15 0,00 0,00 0,00 0,00 14.712,31 1.687,60 2.522,93 0,00 4.210,53 10.501,78 3.578,77 683,52 31/05/2019
63 307000 ALESSANDRA CRISTINA SANTOS MENDES ANALISTA DO MP ATIVO BELO HORIZONTE - COMARCA; BH-18PJ VIOLENCIA DOMESTICA 9.955,90 2.986,77 0,00 0,00 0,00 0,00 12.942,67 1.586,35 2.489,89 0,00 4.076,24 8.866,43 1.550,00 1.478,70 31/05/2019
64 264400 ALESSANDRA DE SOUZA SANTOS ANALISTA DO MP ATIVO BELO HORIZONTE - COMARCA; CENTRO DE ESTUDOS E APERFEICOAMENTO FUNCIONAL 15.533,57 6.213,43 0,00 0,00 0,00 0,00 21.747,00 2.688,87 4.453,22 0,00 7.142,09 14.604,91 1.550,00 2.697,25 31/05/2019
65 441500 ALESSANDRA DRUMMOND DE FIGUEIREDO ROSSI ANALISTA DO MP ATIVO BELO HORIZONTE - COMARCA; DIRETORIA DE PROJETOS DE EDIFICACOES 9.337,87 933,79 0,00 0,00 0,00 0,00 10.271,66 1.241,55 1.644,63 0,00 2.886,18 7.385,48 1.550,00 1.015,12 31/05/2019
66 524000 ALESSANDRA LUCIOLI DE BARROS GUERRA ANALISTA DO MP ATIVO BELO HORIZONTE - COMARCA; BH-19PJ SAUDE--SECRETARIA 8.482,22 848,22 0,00 0,00 0,00 0,00 9.330,44 1.066,59 1.257,85 0,00 2.324,44 7.006,00 1.550,00 365,76 31/05/2019
67 479900 ALESSANDRA MARA ANDRADE DE FARIA OFICIAL DO MP ATIVO UBERABA - COMARCA; UBERABA-PJ-09PJ 6.251,74 625,17 0,00 0,00 0,00 0,00 6.876,91 787,06 813,76 0,00 1.600,82 5.276,09 1.550,00 278,08 31/05/2019
68 226700 ALESSANDRA MARA VASCONCELOS REZENDE OFICIAL DO MP ATIVO CONSELHEIRO LAFAIETE - COMARCA; CONSELHEIRO LAFAIETE-PJ-07PJ 8.482,22 2.544,67 0,00 0,00 0,00 0,00 11.026,89 1.262,01 1.829,47 0,00 3.091,48 7.935,41 1.550,00 450,43 31/05/2019
69 112100 ALESSANDRA MARCIA FERREIRA OFICIAL DO MP ATIVO BELO HORIZONTE - COMARCA; BELO HORIZONTE- SECRETARIA DAS PROMOTORIAS 9.337,87 4.668,94 0,00 0,00 0,00 0,00 14.006,81 1.601,16 2.558,81 0,00 4.159,97 9.846,84 1.550,00 549,07 31/05/2019
70 196500 ALESSANDRA MARIA RIBEIRO LUCIANO OFICIAL DO MP ATIVO RIO PARANAÍBA - COMARCA; RIO PARANAIBA-PJ-UNPJ 13.283,29 5.313,32 0,00 0,00 0,00 0,00 18.596,61 2.305,94 3.577,89 0,00 5.883,83 12.712,78 2.249,00 2.366,43 31/05/2019
71 91400 ALESSANDRA MENDES VASCONCELOS DE SOUZA OFICIAL DO MP ATIVO BELO HORIZONTE - COMARCA; BH-23PJ INF-FISC MED SOC AB 17.452,52 12.216,76 0,00 0,00 0,00 3.263,62 32.932,90 3.510,99 7.289,69 0,00 10.800,68 22.132,22 1.550,00 2.496,11 31/05/2019
72 651700 ALESSANDRA PROFIRIO SOUZA OFICIAL DO MP ATIVO NOVA ERA - COMARCA; NOVA ERA-PJ-UNPJ 3.569,91 0,00 0,00 0,00 0,00 0,00 3.569,91 419,98 93,34 0,00 513,32 3.056,59 1.550,00 248,07 31/05/2019
73 384900 ALESSANDRA RODRIGUES ANALISTA DO MP ATIVO VISCONDE DO RIO BRANCO - COMARCA; VISCONDE DO RIO BRANCO-PJ-03PJ 11.685,57 2.337,11 0,00 0,00 0,00 0,00 14.022,68 1.649,68 2.406,28 0,00 4.055,96 9.966,72 2.249,00 974,48 31/05/2019
74 390000 ALESSANDRA SPADANO MASSARA VASCONCELOS OFICIAL DO MP ATIVO BETIM - COMARCA; BETIM-PJ-10PJ 7.337,85 1.467,57 0,00 0,00 2.935,14 0,00 11.740,56 1.035,91 2.092,93 0,00 3.128,84 8.611,72 1.550,00 611,92 31/05/2019
75 426500 ALESSANDRO CAMPOS DE PAIVA ANALISTA DO MP ATIVO BELO HORIZONTE - COMARCA; DIRETORIA DE PUBLICIDADE INSTITUCIONAL 11.317,16 2.263,43 0,00 0,00 0,00 0,00 13.580,59 1.668,12 2.454,49 0,00 4.122,61 9.457,98 1.550,00 1.584,17 31/05/2019
76 623400 ALESSANDRO DE OLIVEIRA REZENDE ANALISTA DO MP ATIVO BELO HORIZONTE - COMARCA; DIRET DE INFORMACAO E CONHECIMENTO-DINC/CEAF 6.882,47 412,95 0,00 0,00 0,00 0,00 7.295,42 858,27 2.279,52 0,00 3.137,79 4.157,63 1.550,00 5.464,60 31/05/2019
77 420600 ALESSANDRO SILVA OFICIAL DO MP ATIVO VISCONDE DO RIO BRANCO - COMARCA; VISCONDE DO RIO BRANCO-PJ-02PJ 6.882,47 2.064,74 0,00 0,00 0,00 0,00 8.947,21 1.023,99 841,66 0,00 1.865,65 7.081,56 1.550,00 361,80 31/05/2019
78 375301 ALETHEIA PATRICIA ASSIS MORAIS MOREIRA ANALISTA DO MP ATIVO ITABIRA - COMARCA; ITABIRA-PJ-02PJ 8.214,70 821,47 0,00 0,00 3.012,06 0,00 12.048,23 1.032,94 2.118,42 0,00 3.151,36 8.896,87 2.948,00 354,22 31/05/2019
79 382300 ALEX CARVALHO LIMA ANALISTA DO MP ATIVO UBERLÂNDIA - COMARCA; UBERLANDIA-PJ-14PJ 11.685,57 2.337,11 0,00 0,00 0,00 0,00 14.022,68 1.649,68 2.398,02 0,00 4.047,70 9.974,98 1.550,00 974,48 31/05/2019
80 195201 ALEX DE CASTRO PEREIRA ANALISTA DO MP ATIVO UBERABA - COMARCA; UBERABA-PJ-09PJ 14.162,21 4.248,66 0,00 0,00 0,00 0,00 18.410,87 2.165,91 3.636,70 0,00 5.802,61 12.608,26 2.286,43 1.346,77 31/05/2019
81 358900 ALEX DE PAULA LANZA ASSESSOR ATIVO BELO HORIZONTE - COMARCA; DIRETORIA DE IMPRENSA 0,00 0,00 9.641,94 0,00 1.894,19 0,00 11.536,13 642,34 2.788,62 0,00 3.430,96 8.105,17 7.931,57 2.224,86 31/05/2019
82 178400 ALEX RODRIGO SALDANHA GUIMARAES OFICIAL DO MP ATIVO BELO HORIZONTE - COMARCA; DIRETORIA DE SISTEMAS DE INFORMACAO 5.678,79 1.703,64 0,00 0,00 0,00 0,00 7.382,43 843,91 937,49 0,00 1.781,40 5.601,03 1.550,00 289,39 31/05/2019
83 413500 ALEX VILELA OLIVEIRA ANALISTA DO MP ATIVO GOVERNADOR VALADARES - COMARCA; COORD REG PJ DEF EDU DIR CRIANCA ADOL RIODOCE 11.317,16 2.263,43 0,00 0,00 0,00 0,00 13.580,59 1.552,46 2.454,49 0,00 4.006,95 9.573,64 1.550,00 532,72 31/05/2019
84 264300 ALEXANDRA FATIMA SARAIVA SOARES ANALISTA DO MP ATIVO BELO HORIZONTE - COMARCA; CENTRAL DE APOIO TECN-SETOR DE MEIO AMBIENTE 15.533,57 4.660,07 0,00 0,00 0,00 0,00 20.193,64 2.496,81 4.073,03 0,00 6.569,84 13.623,80 1.550,00 2.504,59 31/05/2019
85 488000 ALEXANDRA LARA PAIS DE CARVALHO ANALISTA DO MP ATIVO SABINÓPOLIS - COMARCA; SABINOPOLIS-PJ-UNPJ 8.482,22 848,22 0,00 0,00 0,00 0,00 9.330,44 1.143,16 1.257,85 0,00 2.401,01 6.929,43 2.249,00 1.061,95 31/05/2019
86 256300 ALEXANDRA SANTOS GOMES OFICIAL DO MP ATIVO BELO HORIZONTE - COMARCA; EXTINTA - DIRETORIA DE COMPRAS E LICITAÇÕES 8.214,70 2.464,41 0,00 0,00 0,00 0,00 10.679,11 1.222,09 1.744,35 0,00 2.966,44 7.712,67 1.550,00 430,82 31/05/2019
87 403300 ALEXANDRE AUGUSTO RODRIGUES ANALISTA DO MP ATIVO ÁGUAS FORMOSAS - COMARCA; AGUAS FORMOSAS-PJ-UNPJ 9.337,87 1.867,57 0,00 0,00 0,00 0,00 11.205,44 1.276,90 1.873,17 0,00 3.150,07 8.055,37 2.784,90 402,65 31/05/2019
88 640900 ALEXANDRE BARBOSA MASCARENHAS ANALISTA DO MP ATIVO BETIM - COMARCA; BETIM-PJ-02PJ 5.499,78 0,00 0,00 0,00 0,00 0,00 5.499,78 628,69 337,23 0,00 965,92 4.533,86 1.550,00 215,59 31/05/2019
89 311700 ALEXANDRE BARCELOS RESENDE OFICIAL DO MP ATIVO BELO HORIZONTE - COMARCA; BH-07PJ 03 TRIBUNAL DO JURI-GAB 109PJ 6.882,47 1.376,49 0,00 0,00 0,00 0,00 8.258,96 1.024,09 1.152,02 0,00 2.176,11 6.082,85 1.550,00 1.050,94 31/05/2019
90 285600 ALEXANDRE CAMPOS DE OLIVEIRA OFICIAL DO MP ATIVO UBERABA - COMARCA; COORD REG BACIAS PARANAIBA BAIXO RIO GRANDE 9.337,87 2.801,36 0,00 0,00 0,00 0,00 12.139,23 1.492,16 1.945,30 0,00 3.437,46 8.701,77 3.977,85 1.648,33 31/05/2019
91 509200 ALEXANDRE CAPUANO DE REZENDE ANALISTA DO MP ATIVO BELO HORIZONTE - COMARCA; GABINETE DE PROCURADOR DE JUSTIÇA - SALA 715 9.337,87 933,79 0,00 0,00 0,00 0,00 10.271,66 1.273,65 1.592,49 0,00 2.866,14 7.405,52 1.550,00 1.306,96 31/05/2019
92 229400 ALEXANDRE CARLOS BOTREL DIRETOR/OFICIAL ATIVO BELO HORIZONTE - COMARCA; SUPERINTENDENCIA DOS ORGAOS COLEGIADOS 0,00 4.844,55 16.148,50 0,00 0,00 0,00 20.993,05 1.687,60 4.457,08 0,00 6.144,68 14.848,37 2.422,64 899,91 31/05/2019
93 411900 ALEXANDRE CARVALHO SANTOS RIBEIRO ANALISTA DO MP ATIVO OLIVEIRA - COMARCA; OLIVEIRA-PJ-02PJ 11.317,16 2.263,43 0,00 0,00 0,00 0,00 13.580,59 1.668,12 2.454,49 0,00 4.122,61 9.457,98 2.948,00 1.584,17 31/05/2019
94 641600 ALEXANDRE DA SILVA ASSUNCAO OFICIAL DO MP ATIVO BELO HORIZONTE - COMARCA; SERVICO MEDICO-DEPTO PERIC MEDICA SAUDE OCUP 3.930,12 235,81 0,00 0,00 0,00 0,00 4.165,93 513,26 201,35 0,00 714,61 3.451,32 1.550,00 500,15 31/05/2019
95 201200 ALEXANDRE DE ALENCAR CORDEIRO OFICIAL DO MP ATIVO ÁGUAS FORMOSAS - COMARCA; AGUAS FORMOSAS-PJ-UNPJ 5.678,79 2.839,40 0,00 0,00 0,00 0,00 8.518,19 971,29 1.215,47 0,00 2.186,76 6.331,43 1.550,00 311,65 31/05/2019
96 288200 ALEXANDRE DE VASCONCELOS COSTA KER ANALISTA DO MP ATIVO BELO HORIZONTE - COMARCA; BH-03PJ EMPRESARIAL-SECRETARIA 13.715,83 4.114,75 0,00 0,00 0,00 0,00 17.830,58 2.139,10 3.666,98 0,00 5.806,08 12.024,50 1.550,00 1.615,77 31/05/2019
97 445000 ALEXANDRE DIOGENES OLIVEIRA ANALISTA DO MP ATIVO SALINAS - COMARCA; SALINAS-PJ-02PJ 9.337,87 933,79 0,00 0,00 0,00 0,00 10.271,66 1.174,18 1.644,63 0,00 2.818,81 7.452,85 2.249,00 402,65 31/05/2019
98 463400 ALEXANDRE LEAL WINKELSTROTER ANALISTA DO MP ATIVO TEÓFILO OTONI - COMARCA; TEOFILO OTONI-PJ-04PJ 8.758,36 875,84 0,00 0,00 0,00 0,00 9.634,20 1.133,41 1.436,47 0,00 2.569,88 7.064,32 1.550,00 669,50 31/05/2019
99 615700 ALEXANDRE LUIZ DE CASTRO MACIEL ANALISTA DO MP ATIVO IBIRITÉ - COMARCA; IBIRITE-PJ-02PJ 6.882,47 688,25 0,00 0,00 0,00 0,00 7.570,72 895,51 1.050,95 0,00 1.946,46 5.624,26 1.550,00 668,65 31/05/2019
100 356900 ALEXANDRE MOISES MENDONCA E ARAUJO OFICIAL DO MP ATIVO UBERABA - COMARCA; UBERABA-PJ-13PJ 6.054,65 1.210,93 0,00 0,00 0,00 0,00 7.265,58 854,76 908,89 0,00 1.763,65 5.501,93 1.550,00 504,97 31/05/2019
101 633300 ALEXANDRE NONATO MARTINS OFICIAL DO MP ATIVO IGARAPÉ - COMARCA; IGARAPE-PJ-02PJ 3.930,12 235,81 0,00 0,00 0,00 0,00 4.165,93 476,22 172,91 0,00 649,13 3.516,80 1.550,00 163,30 31/05/2019
102 469900 ALEXANDRE PEREIRA GUEDES ANALISTA DO MP ATIVO CATAGUASES - COMARCA; CATAGUASES-PJ-03PJ 9.337,87 933,79 0,00 0,00 0,00 0,00 10.271,66 1.174,18 1.644,63 0,00 2.818,81 7.452,85 1.550,00 402,65 31/05/2019
103 208700 ALEXANDRE RESENDE FRAGA ANALISTA DO MP ATIVO BELO HORIZONTE - COMARCA; BH-19PJ SAUDE 17.452,52 5.235,76 0,00 0,00 0,00 0,00 22.688,28 2.593,55 4.527,19 0,00 7.120,74 15.567,54 1.550,00 889,40 31/05/2019
104 216401 ALEXANDRE RIBEIRO DE LIMA MAIORINO ANALISTA DO MP ATIVO UBERABA - COMARCA; UBERABA-PJ-03PJ 13.715,83 4.114,75 0,00 0,00 0,00 0,00 17.830,58 2.040,66 3.442,54 0,00 5.483,20 12.347,38 1.550,88 728,36 31/05/2019
105 475100 ALEXANDRE TEOTONIO COSTA ANALISTA DO MP ATIVO ARAGUARI - COMARCA; ARAGUARI-PJ-01PJ 9.337,87 933,79 0,00 0,00 0,00 0,00 10.271,66 1.174,18 1.540,36 0,00 2.714,54 7.557,12 1.550,00 402,65 31/05/2019
106 339000 ALEXANDRE VITOR CARDOSO OFICIAL DO MP ATIVO BELO HORIZONTE - COMARCA; PROMOT ESTADUAL DE DEF PATRI CULT E TUR DE MG 5.678,79 1.135,76 0,00 0,00 0,00 0,00 6.814,55 778,99 642,09 0,00 1.421,08 5.393,47 1.550,00 267,13 31/05/2019
107 623100 ALEXSANDER BATISTA AGUIAR ANALISTA DO MP ATIVO BELO HORIZONTE - COMARCA; DIRETORIA DE SUPORTE E MANUTENCAO 6.882,47 412,95 0,00 0,00 0,00 0,00 7.295,42 858,27 759,78 0,00 1.618,05 5.677,37 2.249,00 676,05 31/05/2019
108 513300 ALFSON MIRANDA BRAGA ANALISTA DO MP ATIVO BELO HORIZONTE - COMARCA; BH-12PJ JUIZO CRIMINAL-GAB 092PJ 9.337,87 933,79 0,00 0,00 0,00 0,00 10.271,66 1.273,65 1.644,63 0,00 2.918,28 7.353,38 1.550,00 1.306,96 31/05/2019
109 618400 ALICE MAGALHAES MACEDO DE CARVALHO ANALISTA DO MP ATIVO AÇUCENA - COMARCA; ACUCENA-PJ-UNPJ 6.882,47 412,95 0,00 0,00 0,00 0,00 7.295,42 858,27 916,19 0,00 1.774,46 5.520,96 2.249,00 507,04 31/05/2019
110 471000 ALICE TITONELI MOREIRA ANALISTA DO MP ATIVO MIRADOURO - COMARCA; MIRADOURO-PJ-UNPJ 9.337,87 933,79 0,00 0,00 0,00 0,00 10.271,66 1.174,18 1.592,49 0,00 2.766,67 7.504,99 2.249,00 402,65 31/05/2019
111 622400 ALINE BALBINO PORTUGAL LOPES ANALISTA DO MP ATIVO TRÊS PONTAS - COMARCA; TRES PONTAS-PJ-03PJ 6.882,47 412,95 0,00 0,00 2.431,81 0,00 9.727,23 858,27 1.584,94 0,00 2.443,21 7.284,02 2.435,40 507,04 31/05/2019
112 373000 ALINE BOTELHO RESENDE OFICIAL DO MP ATIVO JUIZ DE FORA - COMARCA; JUIZ DE FORA-PJ-13PJ 7.576,76 1.515,35 0,00 0,00 0,00 0,00 9.092,11 1.042,62 1.355,93 0,00 2.398,55 6.693,56 1.550,00 386,35 31/05/2019
113 407700 ALINE CRISTINA RODRIGUES PEREIRA COORDENADOR/ANALISTA ATIVO BELO HORIZONTE - COMARCA; DIRETORIA DE PROJETOS DE EDIFICACOES 0,00 2.491,77 12.458,83 0,00 0,00 0,00 14.950,60 1.276,90 2.903,09 0,00 4.179,99 10.770,61 2.249,00 537,23 31/05/2019
114 193100 ALINE CRISTINA SENA OLIVEIRA OFICIAL DO MP ATIVO UBERLÂNDIA - COMARCA; UBERLANDIA-PJ-03PJ 12.065,98 3.619,79 0,00 0,00 0,00 0,00 15.685,77 1.845,34 2.917,60 0,00 4.762,94 10.922,83 1.550,00 1.090,02 31/05/2019
115 554200 ALINE CRISTINA SILVA SOUZA OFICIAL DO MP ATIVO TIROS - COMARCA; TIROS-PJ-UNPJ 4.838,22 483,82 0,00 0,00 0,00 0,00 5.322,04 649,06 433,21 0,00 1.082,27 4.239,77 1.550,00 578,58 31/05/2019
116 505500 ALINE DA CUNHA MARREIROS OLIVEIRA ANALISTA DO MP ATIVO CARANGOLA - COMARCA; CARANGOLA-PJ-03PJ 9.337,87 933,79 0,00 0,00 0,00 0,00 10.271,66 1.273,65 1.592,49 0,00 2.866,14 7.405,52 2.249,00 1.306,96 31/05/2019
117 433500 ALINE DE MELO QUEIROZ ASSESSOR/OFICIAL ATIVO BELO HORIZONTE - COMARCA; ASSESSORIA TECNICA DO PROCON-MG 0,00 964,19 9.641,94 0,00 0,00 0,00 10.606,13 920,76 1.803,10 0,00 2.723,86 7.882,27 1.550,00 415,77 31/05/2019
118 542700 ALINE DE SOUSA ALBINO ANALISTA DO MP ATIVO CARMO DO PARANAÍBA - COMARCA; CARMO DO PARANAIBA-PJ-01PJ 7.576,76 757,68 0,00 0,00 0,00 0,00 8.334,44 952,73 1.170,49 0,00 2.123,22 6.211,22 1.550,00 326,71 31/05/2019
119 330000 ALINE DIORIO MAYRINK OFICIAL DO MP ATIVO BELO HORIZONTE - COMARCA; BH-19PJ SAUDE-SECRETARIA 129PJ 6.251,74 1.250,35 0,00 0,00 0,00 0,00 7.502,09 946,57 1.119,79 0,00 2.066,36 5.435,73 1.550,00 1.103,05 31/05/2019
120 499000 ALINE FERREIRA LOPES ANALISTA DO MP ATIVO TEÓFILO OTONI - COMARCA; COORD. DE DEF. DO PAT. PUBLICO-JEQUIT./MUCURI 9.337,87 933,79 0,00 0,00 0,00 0,00 10.271,66 1.273,65 1.644,63 0,00 2.918,28 7.353,38 2.249,00 1.306,96 31/05/2019
121 405300 ALINE LAIA CARDOZO DIRETOR/ANALISTA ATIVO BELO HORIZONTE - COMARCA; EXTINTA - DIRETORIA SERVIÇOS GERAIS E TRANS 0,00 3.229,70 16.148,50 0,00 0,00 0,00 19.378,20 1.640,75 4.035,46 0,00 5.676,21 13.701,99 1.550,00 990,94 31/05/2019
122 278200 ALINE MARCIA FARIA BARBOSA FERNANDES OFICIAL DO MP ATIVO BARBACENA - COMARCA; BARBACENA-PJ-SECRETARIA 6.054,65 1.816,40 0,00 0,00 0,00 0,00 7.871,05 921,37 900,67 0,00 1.822,04 6.049,01 1.691,38 504,97 31/05/2019
123 389000 ALINE NERI NOBRE ANALISTA DO MP ATIVO MONTES CLAROS - COMARCA; COORD REG PJ DEF EDUC DIR CRIANCA ADOL NORTE 11.685,57 3.505,67 0,00 0,00 0,00 0,00 15.191,24 1.738,61 2.848,70 0,00 4.587,31 10.603,93 2.186,73 669,97 31/05/2019
124 294600 ALINE PATRICIA SILVA VIEIRA OFICIAL DO MP ATIVO UBERLÂNDIA - COMARCA; UBERLANDIA-PJ-03PJ 9.337,87 2.801,36 0,00 0,00 0,00 0,00 12.139,23 1.492,16 2.366,01 0,00 3.858,17 8.281,06 1.806,30 2.818,57 31/05/2019
125 420000 ALINE RODRIGUES CAMOROPIN ANALISTA DO MP ATIVO SABARÁ - COMARCA; SABARA-PJ-02PJ 11.317,16 2.263,43 0,00 0,00 0,00 0,00 13.580,59 1.668,12 2.454,49 0,00 4.122,61 9.457,98 7.525,46 2.131,92 31/05/2019
126 408300 ALINE SILVA ARAUJO DE PAULA ANALISTA DO MP ATIVO SÃO SEBASTIÃO DO PARAÍSO - COMARCA; SAO SEBASTIAO DO PARAISO-PJ-02PJ 11.317,16 2.263,43 0,00 0,00 0,00 0,00 13.580,59 1.552,46 2.454,49 0,00 4.006,95 9.573,64 2.272,26 532,72 31/05/2019
127 425400 ALINE TRINDADE DE FREITAS CAMPOS OFICIAL DO MP ATIVO BELO HORIZONTE - COMARCA; BH-14PJ DEFESA CONSUMIDOR-SECRETARIA 7.106,49 1.421,30 0,00 0,00 0,00 0,00 8.527,79 972,82 1.217,82 0,00 2.190,64 6.337,15 1.550,00 319,32 31/05/2019
128 517200 ALISSOM PEREIRA DA SILVA ANALISTA DO MP ATIVO BORDA DA MATA - COMARCA; BORDA DA MATA-PJ-UNPJ 9.337,87 933,79 0,00 0,00 0,00 0,00 10.271,66 1.273,65 1.644,63 0,00 2.918,28 7.353,38 1.550,00 1.742,62 31/05/2019
129 442400 ALISSON LABRE ANALISTA DO MP ATIVO VARGINHA - COMARCA; VARGINHA-PJ-02PJ 9.337,87 933,79 0,00 0,00 0,00 0,00 10.271,66 1.174,18 1.644,63 0,00 2.818,81 7.452,85 2.249,00 402,65 31/05/2019
130 643800 ALLAN PAUL FONSECA DE CASTRO OFICIAL DO MP ATIVO CONTAGEM - COMARCA; CONTAGEM-PJ-06PJ 3.930,12 235,81 0,00 0,00 0,00 0,00 4.165,93 475,20 201,35 0,00 676,55 3.489,38 2.249,00 154,06 31/05/2019
131 612900 ALLAN VINICIUS VIEIRA ARAUJO OFICIAL DO MP ATIVO BELO HORIZONTE - COMARCA; BH-09PJ AUDITORIA MILITAR-SECRETARIA 4.467,49 446,75 0,00 0,00 0,00 0,00 4.914,24 560,99 347,95 0,00 908,94 4.005,30 1.550,00 185,64 31/05/2019
132 349000 ALLEC RODRIGUES VIEIRA OFICIAL DO MP ATIVO BELO HORIZONTE - COMARCA; COORD DE INCLUSAO E MOBILIZACAO SOCIAIS 8.214,70 1.642,94 0,00 0,00 0,00 0,00 9.857,64 1.257,40 1.817,35 0,00 3.074,75 6.782,89 1.550,00 1.573,27 31/05/2019
133 297300 ALLYSON SALIBA MONTEIRO LAIZO ANALISTA DO MP ATIVO CONSELHEIRO LAFAIETE - COMARCA; CONSELHEIRO LAFAIETE-PJ-03PJ 14.941,94 4.482,58 0,00 0,00 0,00 0,00 19.424,52 2.286,19 3.884,79 0,00 6.170,98 13.253,54 2.249,00 1.358,97 31/05/2019
134 303700 ALMIR LOPES LOURES ANALISTA DO MP ATIVO BELO HORIZONTE - COMARCA; CENTRAL DE APOIO TECN-SETOR DE MEIO AMBIENTE 14.941,94 4.482,58 0,00 0,00 0,00 0,00 19.424,52 2.216,96 3.884,79 0,00 6.101,75 13.322,77 1.551,07 729,65 31/05/2019
135 515900 ALTAIR NEVES JUNIOR OFICIAL DO MP ATIVO BELO HORIZONTE - COMARCA; BH-03PJ EMPRESARIAL-SECRETARIA 6.054,65 605,47 0,00 0,00 0,00 0,00 6.660,12 783,53 760,71 0,00 1.544,24 5.115,88 1.550,00 462,90 31/05/2019
136 233300 ALVARINDO BATISTA ANALISTA DO MP ATIVO BELO HORIZONTE - COMARCA; DIVISAO DE MULTIMIDIA 17.452,52 5.162,69 0,00 0,00 0,00 0,00 22.615,21 2.593,55 4.611,37 0,00 7.204,92 15.410,29 2.249,00 975,33 31/05/2019
137 274100 ALYSSON CARVALHO VIDAL DE LACERDA OFICIAL DO MP ATIVO MANHUAÇU - COMARCA; MANHUACU-PJ-01PJ 9.337,87 2.801,36 0,00 0,00 0,00 0,00 12.139,23 1.457,14 2.101,72 0,00 3.558,86 8.580,37 1.550,00 1.107,41 31/05/2019
138 621000 AMANDA BASTOS ALVES ANALISTA DO MP ATIVO BELO HORIZONTE - COMARCA; ASSESS TECNICO-JUR JUNTO AS PROC. DE JUST 6.882,47 412,95 0,00 0,00 0,00 0,00 7.295,42 858,27 916,19 0,00 1.774,46 5.520,96 1.550,00 507,04 31/05/2019
139 521700 AMANDA CRISTINA AGUIAR MACHADO OFICIAL DO MP ATIVO CONGONHAS - COMARCA; CONGONHAS-PJ-01PJ 4.612,94 461,29 0,00 0,00 0,00 0,00 5.074,23 580,05 337,33 0,00 917,38 4.156,85 1.550,00 198,91 31/05/2019
140 613400 AMANDA DE ASSIS IUNES SANTOS ANALISTA DO MP ATIVO CONGONHAS - COMARCA; CONGONHAS-PJ-01PJ 6.882,47 688,25 0,00 0,00 0,00 0,00 7.570,72 864,24 983,57 0,00 1.847,81 5.722,91 2.249,00 285,99 31/05/2019
141 520800 AMANDA DE SOUZA MACHADO ANALISTA DO MP ATIVO BAEPENDI - COMARCA; BAEPENDI-PJ-UNPJ 8.482,22 848,22 0,00 0,00 0,00 0,00 9.330,44 1.066,59 1.309,99 0,00 2.376,58 6.953,86 1.550,00 365,76 31/05/2019
142 663900 AMANDA DENISE GONCALVES DA SILVA ASSESSOR ATIVO BELO HORIZONTE - COMARCA; DIRET DE FORMACAO, APERFEIC. E POS-GRADUACAO 0,00 0,00 2.852,73 0,00 0,00 0,00 2.852,73 434,80 172,89 0,00 607,69 2.245,04 1.550,00 0,00 31/05/2019
143 543100 AMANDA VIEIRA FREITAS BRESSANE ANALISTA DO MP ATIVO PARAGUAÇU - COMARCA; PARAGUACU-PJ-UNPJ 7.576,76 757,68 0,00 0,00 0,00 0,00 8.334,44 952,73 1.170,49 0,00 2.123,22 6.211,22 1.550,00 326,71 31/05/2019
144 434400 AMARILIS ASSIS SIMAO CURCIO ANALISTA DO MP ATIVO MANHUAÇU - COMARCA; MANHUACU-PJ-01PJ 9.337,87 933,79 0,00 0,00 0,00 0,00 10.271,66 1.174,18 1.644,63 0,00 2.818,81 7.452,85 1.550,00 402,65 31/05/2019
145 652000 AMAURI SILVA ALVES OFICIAL DO MP ATIVO BELO HORIZONTE - COMARCA; BH-23PJ INFRACIONAL-SEC EXP 3.569,91 0,00 0,00 0,00 0,00 0,00 3.569,91 419,98 121,78 0,00 541,76 3.028,15 1.550,00 248,07 31/05/2019
146 273700 AMBROLINA CARNEIRO DE VASCONCELOS OFICIAL DO MP ATIVO FRUTAL - COMARCA; FRUTAL-PJ-01PJ 9.641,94 6.749,35 0,00 0,00 0,00 0,00 16.391,29 1.962,13 3.090,27 0,00 5.052,40 11.338,89 1.550,00 1.446,22 31/05/2019
147 58000 AMELIA GUARIZE DE CASTRO OFICIAL DO MP ATIVO JUIZ DE FORA - COMARCA; JUIZ DE FORA-PJ-SECRETARIA 6.251,74 6.251,74 0,00 0,00 0,00 1.375,38 13.878,86 1.429,30 2.569,10 0,00 3.998,40 9.880,46 1.550,00 544,07 31/05/2019
148 324301 AMERICA SUELI FERREIRA DA SILVA ANALISTA DO MP ATIVO MONTE CARMELO - COMARCA; MONTE CARMELO-PJ-02PJ 9.337,87 933,79 0,00 0,00 0,00 0,00 10.271,66 1.174,18 1.592,49 0,00 2.766,67 7.504,99 2.249,00 402,65 31/05/2019
149 273300 AMUJACY DE BRITO ASSIZ OFICIAL DO MP ATIVO BELO HORIZONTE - COMARCA; BH-12PJ JUIZO CRIMINAL-SECRETARIA 8.758,36 2.627,51 0,00 0,00 0,00 0,00 11.385,87 1.299,20 1.708,78 0,00 3.007,98 8.377,89 2.249,00 424,99 31/05/2019
150 482200 ANA ALICE LOPES ACHTSCHIN ANALISTA DO MP ATIVO BELO HORIZONTE - COMARCA; PROC JUST RECURSOS ESP E EXTRAORD CRIMINAIS 9.337,87 933,79 0,00 0,00 0,00 0,00 10.271,66 1.174,18 1.644,63 0,00 2.818,81 7.452,85 1.550,00 402,65 31/05/2019
151 490400 ANA AMELIA PAULINO GARCIA OFICIAL DO MP ATIVO CONTAGEM - COMARCA; CONTAGEM-PJ-13PJ 6.251,74 625,17 0,00 0,00 0,00 0,00 6.876,91 809,03 813,76 0,00 1.622,79 5.254,12 1.550,00 477,88 31/05/2019
152 279100 ANA CAROLINA ARAUJO PEREIRA ANALISTA DO MP ATIVO BELO HORIZONTE - COMARCA; DIRETORIA DE PROJETOS DE EDIFICACOES 14.941,94 4.482,58 0,00 0,00 0,00 0,00 19.424,52 2.286,19 3.832,65 0,00 6.118,84 13.305,68 2.249,00 1.358,97 31/05/2019
153 653300 ANA CAROLINA CYRNE DINIZ ASSESSOR ATIVO BELO HORIZONTE - COMARCA; CENTRAL DE APOIO TECNICO-SETOR CONTABIL 0,00 0,00 7.576,76 0,00 0,00 0,00 7.576,76 642,34 1.340,11 0,00 1.982,45 5.594,31 1.550,00 297,01 31/05/2019
154 359400 ANA CAROLINA DE ABREU FARIA ASSESSOR ATIVO BELO HORIZONTE - COMARCA; SUPERINTENDÊNCIA DE ENGENHARIA E ARQUITETURA 0,00 0,00 9.641,94 0,00 0,00 0,00 9.641,94 642,34 1.908,03 0,00 2.550,37 7.091,57 1.550,00 297,01 31/05/2019
155 408500 ANA CAROLINA DE CASTRO CARVALHO ANALISTA DO MP ATIVO BARBACENA - COMARCA; BARBACENA - SECRETARIA DAS PJS CRIMINAIS 11.317,16 2.263,43 0,00 0,00 0,00 0,00 13.580,59 1.552,46 2.454,49 0,00 4.006,95 9.573,64 1.550,00 532,72 31/05/2019
156 420200 ANA CAROLINA FERNANDES SILVA ANALISTA DO MP ATIVO BELO HORIZONTE - COMARCA; GABINETE DE PROCURADOR DE JUSTIÇA - SALA 708 10.279,98 2.056,00 0,00 0,00 0,00 0,00 12.335,98 1.443,39 2.149,87 0,00 3.593,26 8.742,72 1.550,00 785,80 31/05/2019
157 522100 ANA CAROLINA FERNANDINO VIDAL PEREIRA SANTOS OFICIAL DO MP ATIVO BELO HORIZONTE - COMARCA; SECRETARIA DO PROCON-MG 6.054,65 605,47 0,00 0,00 0,00 0,00 6.660,12 783,53 760,71 0,00 1.544,24 5.115,88 1.550,00 462,90 31/05/2019
158 502400 ANA CAROLINA GONCALVES FERNANDES ANALISTA DO MP ATIVO GRAO MOGOL - COMARCA; GRAO MOGOL-PJ-UNPJ 9.337,87 933,79 0,00 0,00 0,00 0,00 10.271,66 1.273,65 1.644,63 0,00 2.918,28 7.353,38 2.249,00 1.306,96 31/05/2019
159 529900 ANA CAROLINA GONCALVES PECANHA CHEQUER ANALISTA DO MP ATIVO MANHUAÇU - COMARCA; MANHUACU-PJ-04PJ 7.576,76 757,68 0,00 0,00 0,00 0,00 8.334,44 952,73 1.170,49 0,00 2.123,22 6.211,22 2.249,00 326,71 31/05/2019
160 431900 ANA CAROLINA MOTTA GUATIMOSIM ANALISTA DO MP ATIVO BELO HORIZONTE - COMARCA; GABINETE DE PROCURADOR DE JUSTIÇA - SALA 404 10.279,98 1.028,00 0,00 0,00 0,00 0,00 11.307,98 1.330,31 1.898,27 0,00 3.228,58 8.079,40 1.550,00 785,80 31/05/2019
161 490600 ANA CAROLINA XAVIER GODOY ANALISTA DO MP ATIVO BELO HORIZONTE - COMARCA; ASSESS TECNICO-JUR JUNTO AS PROC. DE JUST 9.337,87 933,79 0,00 0,00 0,00 0,00 10.271,66 1.273,65 1.644,63 0,00 2.918,28 7.353,38 1.550,00 1.306,96 31/05/2019
162 600300 ANA CAROLINE PEREIRA DINIZ ANALISTA DO MP ATIVO BELO HORIZONTE - COMARCA; COMB CRIMES PRAT POR AG POL MUN-SECRETARIA 7.576,76 757,68 0,00 0,00 0,00 0,00 8.334,44 1.029,20 1.170,49 0,00 2.199,69 6.134,75 2.948,00 1.021,94 31/05/2019
163 615800 ANA CAROLINE PEREIRA OLIVEIRA OFICIAL DO MP ATIVO ALFENAS - COMARCA; ALFENAS-PJ-06PJ 4.467,49 446,75 0,00 0,00 0,00 0,00 4.914,24 581,28 383,73 0,00 965,01 3.949,23 1.550,00 370,19 31/05/2019
164 324800 ANA CECILIA MENDES DA SILVA OFICIAL DO MP ATIVO OURO FINO - COMARCA; OURO FINO-PJ-01PJ 8.482,22 2.544,67 0,00 0,00 0,00 0,00 11.026,89 1.297,27 1.777,33 0,00 3.074,60 7.952,29 1.550,00 766,42 31/05/2019
165 441300 ANA CLAUDIA ALKIMIM MIRANDA BOMTEMPO ANALISTA DO MP ATIVO MONTES CLAROS - COMARCA; MONTES CLAROS-PJ-11PJ 10.279,98 1.028,00 0,00 0,00 0,00 0,00 11.307,98 1.330,31 1.793,99 0,00 3.124,30 8.183,68 1.550,00 785,80 31/05/2019
166 642500 ANA CLAUDIA DA COSTA NAVES OFICIAL DO MP ATIVO MONTE CARMELO - COMARCA; MONTE CARMELO-PJ-02PJ 3.569,91 214,19 0,00 0,00 0,00 0,00 3.784,10 431,64 150,38 0,00 582,02 3.202,08 2.249,00 139,94 31/05/2019
167 604900 ANA CLAUDIA OLIVEIRA DE MIRANDA OFICIAL DO MP ATIVO PONTE NOVA - COMARCA; PONTE NOVA-PJ-04PJ 4.467,49 268,05 0,00 0,00 0,00 0,00 4.735,54 587,20 269,50 0,00 856,70 3.878,84 1.550,00 602,64 31/05/2019
168 379300 ANA CRISTINA ALVES FLAVIO ANALISTA DO MP ATIVO SÃO GOTARDO - COMARCA; SAO GOTARDO-PJ-01PJ 11.685,57 2.337,11 0,00 0,00 0,00 0,00 14.022,68 1.649,68 2.510,56 0,00 4.160,24 9.862,44 8.557,07 1.488,64 31/05/2019
169 461200 ANA CRISTINA ALVES PASCHOAL ANALISTA DO MP ATIVO SANTA LUZIA - COMARCA; SANTA LUZIA-PJ-03PJ 9.337,87 933,79 0,00 0,00 0,00 0,00 10.271,66 1.174,18 1.592,49 0,00 2.766,67 7.504,99 1.550,00 402,65 31/05/2019
170 514100 ANA CRISTINA ARAUJO ASSUNCAO ANALISTA DO MP ATIVO BELO HORIZONTE - COMARCA; ASSESS JUR DO CONS SUPERIOR DO MINISTERIO PUB 9.337,87 933,79 0,00 0,00 0,00 0,00 10.271,66 1.273,65 1.592,49 0,00 2.866,14 7.405,52 2.948,00 1.306,96 31/05/2019
171 113400 ANA CRISTINA BRAGA ALBUQUERQUE ASSESSOR/ANALISTA ATIVO BELO HORIZONTE - COMARCA; ASSESS ESP ADM E FINANCEIRA DO PGJ ADJ ADM 27.903,47 13.951,74 0,00 0,00 0,00 0,00 41.855,21 3.900,84 7.810,02 6.392,99 18.103,85 23.751,36 7.223,95 520,12 31/05/2019
172 233800 ANA CRISTINA BRAGA SOARES RIOS OFICIAL DO MP ATIVO CONTAGEM - COMARCA; CONTAGEM-PJ-SECRETARIA 9.337,87 2.801,36 0,00 0,00 0,00 0,00 12.139,23 1.392,47 2.101,72 0,00 3.494,19 8.645,04 1.550,00 519,46 31/05/2019
173 186400 ANA CRISTINA DE AZEVEDO LOPES OFICIAL DO MP ATIVO UBÁ - COMARCA; UBA-PJ-01PJ 12.065,98 3.619,79 0,00 0,00 0,00 0,00 15.685,77 1.795,20 2.969,73 0,00 4.764,93 10.920,84 1.550,00 634,28 31/05/2019
174 465100 ANA CRISTINA DE OLIVEIRA GUIMARAES ANALISTA DO MP ATIVO BRASÓPOLIS - COMARCA; BRASOPOLIS-PJ-UNPJ 9.337,87 933,79 0,00 0,00 0,00 0,00 10.271,66 1.174,18 1.540,36 0,00 2.714,54 7.557,12 2.901,40 402,65 31/05/2019
175 500600 ANA CRISTINA LATADO SUDARIO ANALISTA DO MP ATIVO UBERLÂNDIA - COMARCA; UBERLANDIA-PJ-09PJ 9.337,87 933,79 0,00 0,00 0,00 0,00 10.271,66 1.273,65 1.644,63 0,00 2.918,28 7.353,38 1.550,00 1.306,96 31/05/2019
176 331400 ANA CRISTINA RIBEIRO ALVES OFICIAL DO MP ATIVO BAMBUÍ - COMARCA; BAMBUI-PJ-UNPJ 7.955,66 1.591,13 0,00 0,00 0,00 0,00 9.546,79 1.094,52 1.415,08 0,00 2.509,60 7.037,19 1.550,00 412,99 31/05/2019
177 249300 ANA ELOINA MARTINS OFICIAL DO MP ATIVO BETIM - COMARCA; SECRETARIA DAS PJS CRIMINAIS DE BETIM 10.279,98 4.111,99 0,00 0,00 0,00 0,00 14.391,97 1.693,13 2.653,07 0,00 4.346,20 10.045,77 1.550,00 1.000,10 31/05/2019
178 257400 ANA FLAVIA CAMBRAIA ANALISTA DO MP ATIVO BELO HORIZONTE - COMARCA; BH-19PJ SAUDE-SECRETARIA 150PJ 15.533,57 4.660,07 0,00 0,00 0,00 0,00 20.193,64 2.496,81 4.020,90 0,00 6.517,71 13.675,93 1.550,00 2.504,59 31/05/2019
179 248201 ANA FLAVIA DE MORAIS SOUZA ANALISTA DO MP ATIVO DIVINÓPOLIS - COMARCA; DIVINOPOLIS-PJ-01PJ 9.337,87 2.801,36 0,00 0,00 0,00 0,00 12.139,23 1.387,67 1.997,44 0,00 3.385,11 8.754,12 2.948,00 475,86 31/05/2019
180 621100 ANA FLAVIA DINIZ TEODORO OFICIAL DO MP ATIVO SANTA LUZIA - COMARCA; SANTA LUZIA-PJ-06PJ 4.467,49 268,05 0,00 0,00 0,00 0,00 4.735,54 557,12 312,16 0,00 869,28 3.866,26 1.550,00 329,13 31/05/2019
181 238600 ANA FLAVIA FRANCO OFICIAL DO MP ATIVO BELO HORIZONTE - COMARCA; DIRETORIA DE PESSOAL ADMINISTRATIVO - DPAD 11.317,16 3.395,15 0,00 0,00 0,00 0,00 14.712,31 1.824,30 2.731,48 0,00 4.555,78 10.156,53 1.550,00 1.872,19 31/05/2019
182 402900 ANA FLAVIA PORTES DE CARVALHO ANALISTA DO MP ATIVO BELO HORIZONTE - COMARCA; DIRET DE PLANOS PROJETOS E PROGRAMAS INST 11.685,57 2.337,11 0,00 0,00 0,00 0,00 14.022,68 1.640,75 2.510,56 0,00 4.151,31 9.871,37 1.550,00 893,26 31/05/2019
183 382700 ANA KARENINA SALDANHA GONTIJO ANALISTA DO MP ATIVO BELO HORIZONTE - COMARCA; ASSESS TECNICO-JUR JUNTO AS PROC. DE JUST 11.317,16 2.263,43 0,00 0,00 0,00 0,00 13.580,59 1.597,68 2.454,49 0,00 4.052,17 9.528,42 2.948,00 943,85 31/05/2019
184 620500 ANA KARINE DE ANDRADE OLIVEIRA ANALISTA DO MP ATIVO RIBEIRÃO DAS NEVES - COMARCA; SEC PJ EXECUCAO PENAL RIBEIRAO NEVES 6.251,74 375,10 0,00 0,00 0,00 0,00 6.626,84 779,61 752,56 0,00 1.532,17 5.094,67 1.550,00 460,50 31/05/2019
185 462200 ANA LUCIA ANDRADE TOMICH OTTONI ANALISTA DO MP ATIVO TEÓFILO OTONI - COMARCA; TEOFILO OTONI-PJ-06PJ 9.337,87 933,79 0,00 0,00 0,00 0,00 10.271,66 1.174,18 1.540,36 0,00 2.714,54 7.557,12 1.550,00 402,65 31/05/2019
186 504100 ANA LUCIA CATAO DE CARVALHO OFICIAL DO MP ATIVO BELO HORIZONTE - COMARCA; BH-09PJ AUDITORIA MILITAR-SECRETARIA 6.251,74 625,17 0,00 0,00 0,00 0,00 6.876,91 809,03 761,63 0,00 1.570,66 5.306,25 2.249,00 477,88 31/05/2019
187 274700 ANA LUCIA DE ALENCAR BRAGATO OFICIAL DO MP ATIVO UBERABA - COMARCA; UBERABA-PJ-07PJ 9.043,46 2.713,04 0,00 0,00 0,00 0,00 11.756,50 1.341,50 2.008,04 0,00 3.349,54 8.406,96 1.550,00 438,82 31/05/2019
188 220000 ANA LUCIA DE AMORIM OFICIAL DO MP ATIVO MARTINHO CAMPOS - COMARCA; MARTINHO CAMPOS-PJ-SECRETARIA 10.279,98 7.195,99 0,00 0,00 0,00 0,00 17.475,97 1.999,82 3.407,88 0,00 5.407,70 12.068,27 1.550,00 704,13 31/05/2019
189 509400 ANA LUCIA DORNELAS MALLOSTO ANALISTA DO MP ATIVO JUIZ DE FORA - COMARCA; JUIZ DE FORA-PJ-18PJ 8.482,22 848,22 0,00 0,00 0,00 0,00 9.330,44 1.143,16 1.362,13 0,00 2.505,29 6.825,15 1.550,00 1.061,95 31/05/2019
190 302600 ANA LUCIA LOPES SANTOS OFICIAL DO MP ATIVO BELO HORIZONTE - COMARCA; DIVISÃO DE FISCALIZAÇÃO DAS RELAÇÕES DE CONSU 8.482,22 2.544,67 0,00 0,00 0,00 0,00 11.026,89 1.290,77 2.631,72 0,00 3.922,49 7.104,40 1.550,00 3.866,85 31/05/2019
191 493400 ANA LUISA NOGUEIRA MOREIRA ANALISTA DO MP ATIVO BELO HORIZONTE - COMARCA; BH-19PJ SAUDE 9.337,87 933,79 0,00 0,00 0,00 0,00 10.271,66 1.273,65 1.644,63 0,00 2.918,28 7.353,38 1.550,00 1.306,96 31/05/2019
192 389300 ANA LUISA REUTER LIMA ANALISTA DO MP ATIVO BELO HORIZONTE - COMARCA; DIRETORIA DE SISTEMAS DE INFORMACAO 9.641,94 1.928,39 0,00 0,00 0,00 0,00 11.570,33 1.361,20 1.962,48 0,00 3.323,68 8.246,65 1.550,00 804,14 31/05/2019
193 480600 ANA LUIZA FERNANDES FRAGA E GRECO OFICIAL DO MP ATIVO BELO HORIZONTE - COMARCA; BH-23PJ CIVEL-SEC EXP CIVEIS 6.054,65 605,47 0,00 0,00 0,00 0,00 6.660,12 783,53 760,71 0,00 1.544,24 5.115,88 1.550,00 462,90 31/05/2019
194 517800 ANA LUIZA MAGALHAES CIRINO PIOTO DE MELO OFICIAL DO MP ATIVO BELO HORIZONTE - COMARCA; DIVISAO DE MANUTENCAO PREDIAL 4.467,49 446,75 0,00 0,00 0,00 0,00 4.914,24 561,67 347,95 0,00 909,62 4.004,62 2.249,00 191,83 31/05/2019
195 481400 ANA MARCIA CANDIDA FERREIRA OFICIAL DO MP ATIVO BRUMADINHO - COMARCA; BRUMADINHO-PJ-02PJ 5.158,42 515,84 0,00 0,00 0,00 0,00 5.674,26 667,55 519,41 0,00 1.186,96 4.487,30 1.550,00 394,39 31/05/2019
196 643100 ANA MARIA LOPES MIRANDA ANALISTA DO MP ATIVO BELO HORIZONTE - COMARCA; CAO-TS-TERCEIRO SETOR 6.054,65 363,28 0,00 0,00 0,00 0,00 6.417,93 642,34 718,93 0,00 1.361,27 5.056,66 2.249,00 237,35 31/05/2019
197 556400 ANA MARIA OLIVEIRA SOUZA OFICIAL DO MP ATIVO ITAPECERICA - COMARCA; ITAPECERICA-PJ-UNPJ 4.838,22 483,82 0,00 0,00 0,00 0,00 5.322,04 649,06 433,21 0,00 1.082,27 4.239,77 1.550,00 578,58 31/05/2019
198 409600 ANA OLIVIA FARIA ROSENBURG ANALISTA DO MP ATIVO BELO HORIZONTE - COMARCA; DIRETORIA DO COLEGIO E DA CAMARA DE PJ 11.317,16 3.395,15 0,00 0,00 0,00 0,00 14.712,31 1.687,16 2.731,48 0,00 4.418,64 10.293,67 1.550,00 625,52 31/05/2019
199 461500 ANA PAULA ALVES CARVALHO ANALISTA DO MP ATIVO UBERLÂNDIA - COMARCA; UBERLANDIA-PJ-25PJ 9.337,87 933,79 0,00 0,00 0,00 0,00 10.271,66 1.174,18 1.644,63 0,00 2.818,81 7.452,85 2.249,00 402,65 31/05/2019
200 523200 ANA PAULA ALVES DA SILVA OFICIAL DO MP ATIVO GOVERNADOR VALADARES - COMARCA; GOVERNADOR VALADARES-PJ-10PJ 6.054,65 605,47 0,00 0,00 0,00 0,00 6.660,12 783,53 656,43 0,00 1.439,96 5.220,16 2.948,00 617,19 31/05/2019
201 381200 ANA PAULA BARROS PEREIRA ANALISTA DO MP ATIVO BELO HORIZONTE - COMARCA; PROC JUST RECURSOS ESP E EXTRAORD CRIMINAIS 11.685,57 2.337,11 0,00 0,00 0,00 0,00 14.022,68 1.649,68 2.510,56 0,00 4.160,24 9.862,44 2.249,00 974,48 31/05/2019
202 227200 ANA PAULA DA SILVA CAMPOLINA ANALISTA DO MP ATIVO BELO HORIZONTE - COMARCA; DIRETORIA DE ORCAMENTO-DIOR/SPC 17.452,52 6.981,01 0,00 0,00 0,00 0,00 24.433,53 2.793,05 5.110,75 0,00 7.903,80 16.529,73 6.628,27 1.405,76 31/05/2019
203 84200 ANA PAULA DE SOUZA ROCHA OFICIAL DO MP ATIVO BELO HORIZONTE - COMARCA; DIRETORIA DE CONTABILIDADE 26.225,59 13.112,80 0,00 0,00 0,00 0,00 39.338,39 3.900,84 7.810,02 3.876,17 15.587,03 23.751,36 7.223,95 520,11 31/05/2019
204 278500 ANA PAULA DIAS CAPANEMA OFICIAL DO MP ATIVO BELO HORIZONTE - COMARCA; GABINETE DE SEGURANCA E INTELIGENCIA 9.043,46 2.713,04 0,00 0,00 0,00 0,00 11.756,50 1.341,54 2.007,62 0,00 3.349,16 8.407,34 1.550,00 586,07 31/05/2019
205 327300 ANA PAULA GARCIA MAXIMO OFICIAL DO MP ATIVO UNAÍ - COMARCA; UNAI-PJ-01PJ 9.641,94 3.856,78 0,00 0,00 0,00 0,00 13.498,72 1.575,65 2.278,04 0,00 3.853,69 9.645,03 1.550,00 825,38 31/05/2019
206 270000 ANA PAULA GOULART CRUZ DE MAGALHAES ANALISTA DO MP ATIVO BELO HORIZONTE - COMARCA; COMB CRIMES PRAT POR AG POL MUN-ASSESSORIA 12.065,98 3.619,79 0,00 0,00 0,00 0,00 15.685,77 1.928,09 2.969,73 0,00 4.897,82 10.787,95 1.550,00 1.842,43 31/05/2019
207 262100 ANA PAULA KOMATSUZAKI ABIJAUDI ANALISTA DO MP ATIVO BELO HORIZONTE - COMARCA; BH-17PJ PATRIMONIO PUBLICO-SECRETARIA 15.533,57 6.213,43 0,00 0,00 0,00 0,00 21.747,00 2.688,87 4.348,94 0,00 7.037,81 14.709,19 1.550,00 2.697,25 31/05/2019
208 278900 ANA PAULA MOREIRA GURGEL ANALISTA DO MP ATIVO BELO HORIZONTE - COMARCA; DIRETORIA-GERAL 14.941,94 5.976,78 0,00 0,00 0,00 0,00 20.918,72 2.394,45 4.250,50 0,00 6.644,95 14.273,77 2.588,20 925,72 31/05/2019
209 425701 ANA PAULA ROCHA ANALISTA DO MP ATIVO BELO HORIZONTE - COMARCA; SUPERINTENDENCIA DE COMUNICACAO INTEGRADA 7.337,85 440,27 0,00 0,00 0,00 0,00 7.778,12 889,13 1.034,34 0,00 1.923,47 5.854,65 2.249,00 304,91 31/05/2019
210 395601 ANA PAULA SALGE OLIVEIRA ANALISTA DO MP ATIVO UBERABA - COMARCA; COORD REG PP TRIANGULO MINEIRO UBERABA 9.337,87 2.801,36 0,00 0,00 0,00 0,00 12.139,23 1.505,23 2.101,72 0,00 3.606,95 8.532,28 1.550,00 1.544,59 31/05/2019
211 473200 ANA PAULA SCOTTON BRASIL ANALISTA DO MP ATIVO JUIZ DE FORA - COMARCA; JUIZ DE FORA-PJ-03PJ 9.337,87 933,79 0,00 0,00 0,00 0,00 10.271,66 1.174,18 1.644,63 0,00 2.818,81 7.452,85 2.249,00 402,65 31/05/2019
212 633600 ANA PAULA SILVA FERNANDES OFICIAL DO MP ATIVO CATAGUASES - COMARCA; CATAGUASES-PJ-04PJ 3.930,12 235,81 0,00 0,00 0,00 0,00 4.165,93 476,22 201,35 0,00 677,57 3.488,36 1.550,00 163,30 31/05/2019
213 470900 ANA PAULA VALADARES ANALISTA DO MP ATIVO PITANGUI - COMARCA; PITANGUI-PJ-01PJ 9.337,87 933,79 0,00 0,00 0,00 0,00 10.271,66 1.174,18 1.540,36 0,00 2.714,54 7.557,12 1.550,00 402,65 31/05/2019
214 447000 ANA PAULA VALENTIM DE ARAUJO ANALISTA DO MP ATIVO BELO HORIZONTE - COMARCA; COMB CRIMES PRAT POR AG POL MUN-ASSESSORIA 9.337,87 933,79 0,00 0,00 0,00 0,00 10.271,66 1.174,18 1.644,63 0,00 2.818,81 7.452,85 1.550,00 402,65 31/05/2019
215 604200 ANA PAULA VIANA E SILVA OFICIAL DO MP ATIVO BELO HORIZONTE - COMARCA; BH-17PJ PATRIMONIO PUBLICO-SECRETARIA 4.838,22 483,82 0,00 0,00 0,00 0,00 5.322,04 649,06 433,21 0,00 1.082,27 4.239,77 2.249,00 578,58 31/05/2019
216 505400 ANA PAULA VIEIRA SOUTO OFICIAL DO MP ATIVO ALMENARA - COMARCA; COORD. PAT. PUBLICO-MUCURI/JEQUIT - ALMENARA 4.995,72 1.498,72 0,00 0,00 0,00 0,00 6.494,44 794,98 668,02 0,00 1.463,00 5.031,44 1.550,00 732,66 31/05/2019
217 280200 ANA RACHEL BRANDAO LADEIRA ROLAND DIRETOR/ANALISTA ATIVO BELO HORIZONTE - COMARCA; SUPRIN DE FORMACAO E APERFEICOAMENTO-SFA/CEAF 14.162,21 7.478,36 0,00 0,00 0,00 0,00 21.640,57 2.155,09 4.524,87 0,00 6.679,96 14.960,61 1.550,00 1.307,47 31/05/2019
218 601200 ANA REGINA RIBEIRO COORDENADOR/ANALISTA ATIVO BELO HORIZONTE - COMARCA; EXTINTA - DIVISAO DE SERVICOS GERAIS 0,00 1.096,03 10.960,26 0,00 0,00 0,00 12.056,29 934,90 2.217,11 0,00 3.152,01 8.904,28 1.550,00 928,33 31/05/2019
219 384700 ANA RODRIGUES PEREIRA MARRA ANALISTA DO MP ATIVO COROMANDEL - COMARCA; COROMANDEL-PJ-SECRETARIA 9.043,46 1.808,69 0,00 0,00 0,00 0,00 10.852,15 1.240,54 1.682,43 0,00 2.922,97 7.929,18 2.249,00 425,41 31/05/2019
220 232700 ANA SILVIA SEMBLANO NAKAMURA ASSESSOR/OFICIAL ATIVO BELO HORIZONTE - COMARCA; CENT DE APOIO TEC-SETOR DEF,IDOSO E INFANC 0,00 2.892,58 9.641,94 0,00 0,00 0,00 12.534,52 1.390,92 2.209,53 0,00 3.600,45 8.934,07 1.550,00 491,36 31/05/2019
221 602100 ANACLETO FRANCISCO MARCIER PIMENTA OFICIAL DO MP ATIVO SÃO JOÃO DEL REI - COMARCA; SAO JOAO DEL REI-PJ-03PJ 4.467,49 446,75 0,00 0,00 0,00 0,00 4.914,24 606,86 187,50 0,00 794,36 4.119,88 2.948,00 602,64 31/05/2019
222 310400 ANADEJE DO CARMO DINIZ ARAUJO OFICIAL DO MP ATIVO BELO HORIZONTE - COMARCA; DIRETORIA DE PESSOAL ADMINISTRATIVO - DPAD 8.214,70 1.642,94 0,00 0,00 0,00 0,00 9.857,64 1.128,18 1.543,30 0,00 2.671,48 7.186,16 1.550,00 398,61 31/05/2019
223 337000 ANAILDES MARIA MENDES OFICIAL DO MP ATIVO JANAÚBA - COMARCA; JANAUBA-PJ-02PJ 8.214,70 1.642,94 0,00 0,00 0,00 0,00 9.857,64 1.130,14 1.543,30 0,00 2.673,44 7.184,20 2.249,00 426,43 31/05/2019
224 192900 ANATALIA CERQUEIRA LIMA PERES OFICIAL DO MP ATIVO UBERABA - COMARCA; COORD REG SAUDE MACROR SANIT TRIANGULO SUL 9.641,94 2.892,58 0,00 0,00 0,00 0,00 12.534,52 1.432,85 2.198,46 0,00 3.631,31 8.903,21 4.056,90 721,16 31/05/2019
225 377400 ANDEIRSON DA MATTA BARBOSA ANALISTA DO MP ATIVO POUSO ALEGRE - COMARCA; POUSO ALEGRE-PJ-01PJ 9.337,87 1.867,57 0,00 0,00 0,00 0,00 11.205,44 1.280,92 1.873,17 0,00 3.154,09 8.051,35 1.550,00 439,26 31/05/2019
226 317400 ANDERSON DA SILVA BICALHO OFICIAL DO MP ATIVO CONTAGEM - COMARCA; COORD REG DEF ORDEM ECONOMICA TRIB CONTAGEM 7.576,76 1.515,35 0,00 0,00 0,00 0,00 9.092,11 1.040,57 1.199,52 0,00 2.240,09 6.852,02 2.249,00 367,65 31/05/2019
227 506900 ANDERSON DE SOUZA DAMIANI ANALISTA DO MP ATIVO BELO HORIZONTE - COMARCA; DIRETORIA DE PAGAMENTO DE PESSOAL-DPAG 9.337,87 2.801,36 0,00 0,00 0,00 0,00 12.139,23 1.505,23 1.997,44 0,00 3.502,67 8.636,56 2.249,00 1.544,59 31/05/2019
228 410000 ANDERSON DE SOUZA NETO ASSESSOR ATIVO BELO HORIZONTE - COMARCA; DIRETORIA DE ADMINISTRACAO FINANCEIRA 0,00 0,00 4.763,08 0,00 0,00 0,00 4.763,08 642,34 566,34 0,00 1.208,68 3.554,40 1.550,00 186,72 31/05/2019
229 181900 ANDERSON FLAVIO DE OLIVEIRA OFICIAL DO MP ATIVO ITAGUARA - COMARCA; ITAGUARA-PJ-SECRETARIA 11.317,16 3.395,15 0,00 0,00 0,00 0,00 14.712,31 1.687,60 2.731,48 0,00 4.419,08 10.293,23 1.550,00 629,58 31/05/2019
230 119500 ANDERSON FUNGHI DE AZEVEDO ROCHA OFICIAL DO MP ATIVO BELO HORIZONTE - COMARCA; GABINETE DE SEGURANCA E INTELIGENCIA 14.372,91 11.498,32 0,00 0,00 0,00 2.845,84 28.717,07 2.965,86 6.245,23 0,00 9.211,09 19.505,98 6.936,31 1.685,39 31/05/2019
231 333200 ANDERSON JOSE DE FREITAS OFICIAL DO MP ATIVO IPATINGA - COMARCA; IPATINGA-PJ-07PJ 8.214,70 1.642,94 0,00 0,00 0,00 0,00 9.857,64 1.130,14 1.755,45 0,00 2.885,59 6.972,05 1.550,00 1.809,22 31/05/2019
232 462100 ANDERSON LUIZ GUIMARAES CARDOSO ANALISTA DO MP ATIVO BARBACENA - COMARCA; BARBACENA-PJ-02PJ 9.337,87 933,79 0,00 0,00 0,00 0,00 10.271,66 1.174,18 1.644,63 0,00 2.818,81 7.452,85 1.550,00 402,65 31/05/2019
233 429700 ANDERSON MELO DE SOUZA ASSESSOR/OFICIAL ATIVO BELO HORIZONTE - COMARCA; DIRET DE ESTAGIOS E CONVENIOS ACADEMICOS 0,00 1.928,39 9.641,94 0,00 0,00 0,00 11.570,33 885,07 2.355,24 0,00 3.240,31 8.330,02 1.550,00 1.463,61 31/05/2019
234 545600 ANDERSON MENDES PROCOPIO FERREIRA ANALISTA DO MP ATIVO BELO HORIZONTE - COMARCA; BH-12PJ JUIZO CRIMINAL-GAB 089PJ 7.576,76 757,68 0,00 0,00 0,00 0,00 8.334,44 952,73 1.170,49 0,00 2.123,22 6.211,22 1.550,00 326,71 31/05/2019
235 519900 ANDERSON MOREIRA DOEHLER ANALISTA DO MP ATIVO TEÓFILO OTONI - COMARCA; TEOFILO OTONI-PJ-07PJ 8.482,22 2.544,67 0,00 0,00 0,00 0,00 11.026,89 1.351,01 1.829,47 0,00 3.180,48 7.846,41 1.550,00 1.255,04 31/05/2019
236 103000 ANDERSON TADEU DE DEUS ASSESSOR ATIVO BELO HORIZONTE - COMARCA; BH-23PJ DEF DIR CRIAN ADOL 0,00 3.334,16 4.763,08 0,00 0,00 0,00 8.097,24 642,34 1.483,24 0,00 2.125,58 5.971,66 1.550,00 317,42 31/05/2019
237 309200 ANDITYAS SOARES DE MOURA COSTA MATOS ANALISTA DO MP ATIVO BELO HORIZONTE - COMARCA; GABINETE DE PROCURADOR DE JUSTIÇA - SALA 304 12.065,98 3.619,79 0,00 0,00 0,00 0,00 15.685,77 1.850,38 2.969,73 0,00 4.820,11 10.865,66 1.550,00 1.135,83 31/05/2019
238 519200 ANDRE BORJA LANA COORDENADOR/ANALISTA ATIVO BELO HORIZONTE - COMARCA; DIRETORIA DE IMPRENSA 0,00 1.245,88 12.458,83 0,00 0,00 0,00 13.704,71 1.277,87 2.559,09 0,00 3.836,96 9.867,75 1.550,00 537,23 31/05/2019
239 637200 ANDRE FERNANDES DA CUNHA OFICIAL DO MP ATIVO MORADA NOVA DE MINAS - COMARCA; MORADA NOVA DE MINAS-PJ-UNPJ 4.326,60 259,60 0,00 0,00 0,00 0,00 4.586,20 524,26 282,26 0,00 806,52 3.779,68 1.550,00 179,79 31/05/2019
240 651500 ANDRE GONCALVES MARANHAO OFICIAL DO MP ATIVO JACINTO - COMARCA; JACINTO-PJ-SECRETARIA 3.569,91 0,00 0,00 0,00 0,00 0,00 3.569,91 419,98 121,78 0,00 541,76 3.028,15 1.550,00 248,07 31/05/2019
241 521900 ANDRE LUIS GOMES SILVA ANALISTA DO MP ATIVO FORMIGA - COMARCA; FORMIGA-PJ-02PJ 8.482,22 848,22 0,00 0,00 0,00 0,00 9.330,44 1.066,59 962,42 0,00 2.029,01 7.301,43 1.550,00 365,76 31/05/2019
242 304300 ANDRE LUIZ AVELAR ANALISTA DO MP ATIVO BELO HORIZONTE - COMARCA; DIRETORIA DE REDES E BANCOS DE DADOS 7.823,48 2.347,04 0,00 0,00 0,00 0,00 10.170,52 1.159,24 1.619,87 0,00 2.779,11 7.391,41 1.550,00 368,02 31/05/2019
243 397400 ANDRE PATARO MYRRHA DE PAULA E SILVA ANALISTA DO MP ATIVO BELO HORIZONTE - COMARCA; ASSESSORIA JURIDICO-ADMINISTRATIVA 11.685,57 2.337,11 0,00 0,00 0,00 0,00 14.022,68 1.654,56 2.562,69 0,00 4.217,25 9.805,43 2.249,00 1.018,84 31/05/2019
244 650100 ANDRE THOME VARGAS OFICIAL DO MP ATIVO LEOPOLDINA - COMARCA; LEOPOLDINA-PJ-04PJ 3.930,12 0,00 0,00 0,00 0,00 0,00 3.930,12 462,36 169,87 0,00 632,23 3.297,89 1.550,00 273,16 31/05/2019
245 548500 ANDRE VINICIUS CARVALHO MEIRA ANALISTA DO MP ATIVO JUIZ DE FORA - COMARCA; JUIZ DE FORA-PJ-25PJ 7.576,76 757,68 0,00 0,00 0,00 0,00 8.334,44 1.037,52 1.170,49 0,00 2.208,01 6.126,43 7.522,13 1.620,62 31/05/2019
246 297200 ANDRE WILLE ROSARIO ANALISTA DO MP ATIVO BELO HORIZONTE - COMARCA; ASSESSORIA ESPECIAL DO PGJ 14.162,21 4.248,66 0,00 0,00 0,00 0,00 18.410,87 2.265,93 3.764,16 0,00 6.030,09 12.380,78 1.550,00 2.188,50 31/05/2019
247 423600 ANDREA COSTA GUALBERTO ANALISTA DO MP ATIVO GOVERNADOR VALADARES - COMARCA; COORD REG PJ DEF EDU DIR CRIANCA ADOL RIODOCE 10.279,98 7.195,99 0,00 0,00 0,00 0,00 17.475,97 1.999,82 3.355,75 0,00 5.355,57 12.120,40 1.550,00 704,13 31/05/2019
248 198600 ANDREA CRISTINA ANDRADE COSTA E SOUZA OFICIAL DO MP ATIVO MONTES CLAROS - COMARCA; MONTES CLAROS-PJ-15PJ 13.283,29 3.984,99 0,00 0,00 0,00 0,00 17.268,28 2.141,23 3.304,91 0,00 5.446,14 11.822,14 1.550,00 2.197,40 31/05/2019
249 467300 ANDREA DE CASSIA PENNA ALVERNAZ ANALISTA DO MP ATIVO PONTE NOVA - COMARCA; PONTE NOVA-PJ-01PJ 9.337,87 933,79 0,00 0,00 0,00 0,00 10.271,66 1.174,18 1.592,49 0,00 2.766,67 7.504,99 1.550,00 402,65 31/05/2019
250 308000 ANDREA DE CASSIA SANTOS OLIVEIRA ANALISTA DO MP ATIVO BELO HORIZONTE - COMARCA; ASSESS TECNICO-JUR JUNTO AS PROC. DE JUST 13.715,83 4.114,75 0,00 0,00 0,00 0,00 17.830,58 2.185,45 3.778,23 0,00 5.963,68 11.866,90 3.731,11 2.172,92 31/05/2019
251 349500 ANDREA DE OLIVEIRA OFICIAL DO MP ATIVO IGUATAMA - COMARCA; IGUATAMA-PJ-UNPJ 7.955,66 1.591,13 0,00 0,00 0,00 0,00 9.546,79 1.108,08 1.415,08 0,00 2.523,16 7.023,63 1.550,00 526,63 31/05/2019
252 254700 ANDREA EMISE REIS DE AZEVEDO OFICIAL DO MP ATIVO BELO HORIZONTE - COMARCA; SUPERINTENDENCIA DE RECURSOS HUMANOS 9.641,94 2.892,58 0,00 0,00 0,00 0,00 12.534,52 1.516,63 2.198,04 0,00 3.714,67 8.819,85 1.550,00 1.238,87 31/05/2019
253 287900 ANDREA FERNANDES PENA MARTINS OFICIAL DO MP ATIVO MONTES CLAROS - COMARCA; MONTES CLAROS-PJ-09PJ 9.337,87 2.801,36 0,00 0,00 0,00 0,00 12.139,23 1.492,16 1.997,44 0,00 3.489,60 8.649,63 1.550,00 1.425,78 31/05/2019
254 300800 ANDREA FERREIRA ANALISTA DO MP ATIVO LAVRAS - COMARCA; LAVRAS-PJ-04PJ 13.283,29 3.984,99 0,00 0,00 0,00 0,00 17.268,28 1.974,55 3.357,05 0,00 5.331,60 11.936,68 7.275,80 1.188,65 31/05/2019
255 316700 ANDREA FRANCISCA DIAS DE SOUZA ASSESSOR ATIVO BELO HORIZONTE - COMARCA; ASSESSORIA TECNICA DO PROCON-MG 0,00 0,00 2.852,73 0,00 0,00 0,00 2.852,73 447,10 171,04 0,00 618,14 2.234,59 2.249,00 111,83 31/05/2019
256 395100 ANDREA LANNA MENDES NOVAIS ANALISTA DO MP ATIVO BELO HORIZONTE - COMARCA; PROMOT ESTADUAL DE DEF PATRI CULT E TUR DE MG 11.685,57 2.337,11 0,00 0,00 0,00 0,00 14.022,68 1.604,71 2.510,56 0,00 4.115,27 9.907,41 1.550,00 565,59 31/05/2019
257 67300 ANDREA LEAO MAGALHAES ROQUE ASSESSOR ATIVO BELO HORIZONTE - COMARCA; PROCURADOR-GERAL ADJ INSTITUCIONAL- GABINETE 0,00 6.749,36 9.641,94 0,00 0,00 0,00 16.391,30 642,34 3.711,97 0,00 4.354,31 12.036,99 1.550,00 642,55 31/05/2019
258 335700 ANDREA LOPES PEREIRA ANALISTA DO MP ATIVO GOVERNADOR VALADARES - COMARCA; COORD REG DO MA DA BACIA DO RIO DOCE 13.715,83 2.743,17 0,00 0,00 0,00 0,00 16.459,00 1.936,33 3.158,98 0,00 5.095,31 11.363,69 1.595,75 1.143,90 31/05/2019
259 389200 ANDREA TUPINI DOS SANTOS TRISTAO DA ROCHA COORDENADOR/OFICIAL ATIVO BELO HORIZONTE - COMARCA; BH-13ª PJ JUÍZO DE TÓXICOS-SECRETARIA 0,00 2.192,05 10.960,26 0,00 0,00 0,00 13.152,31 1.582,24 2.542,75 0,00 4.124,99 9.027,32 1.550,00 1.417,70 31/05/2019
260 419000 ANDREIA BARBOSA DE ALMEIDA ANALISTA DO MP ATIVO BELO HORIZONTE - COMARCA; GABINETE DE PROCURADOR DE JUSTIÇA - SALA 705 10.279,98 2.056,00 0,00 0,00 0,00 0,00 12.335,98 1.407,26 2.149,87 0,00 3.557,13 8.778,85 2.249,00 457,25 31/05/2019
261 281501 ANDREIA CARLA COSTA FILGUEIRAS ANALISTA DO MP ATIVO VISCONDE DO RIO BRANCO - COMARCA; VISCONDE DO RIO BRANCO-PJ-02PJ 11.317,16 2.263,43 0,00 0,00 0,00 0,00 13.580,59 1.552,46 2.454,49 0,00 4.006,95 9.573,64 1.550,00 532,72 31/05/2019
262 643600 ANDREIA CRISTINA SILVA OFICIAL DO MP ATIVO PARACATU - COMARCA; PARACATU-PJ-01PJ 3.569,91 214,19 0,00 0,00 0,00 0,00 3.784,10 431,64 150,38 0,00 582,02 3.202,08 1.550,00 139,94 31/05/2019
263 477100 ANDREIA DE ALMEIDA RIBEIRO MELO OFICIAL DO MP ATIVO CONTAGEM - COMARCA; CONTAGEM-PJ-07PJ 6.251,74 1.250,35 0,00 0,00 0,00 0,00 7.502,09 882,58 966,78 0,00 1.849,36 5.652,73 1.550,00 521,33 31/05/2019
264 619000 ANDREIA FERREIRA NORONHA COORDENADOR/OFICIAL ATIVO BELO HORIZONTE - COMARCA; DIRETORIA DE SERVICO CRIMINAL 0,00 747,53 12.458,83 0,00 0,00 0,00 13.206,36 557,11 2.614,62 0,00 3.171,73 10.034,63 1.550,00 517,69 31/05/2019
265 424000 ANDREIA LUCIA COUTO ANALISTA DO MP ATIVO BELO HORIZONTE - COMARCA; BH-18PJ DIREITOS HUMANOS 11.317,16 2.263,43 0,00 0,00 0,00 0,00 13.580,59 1.632,05 2.625,42 0,00 4.257,47 9.323,12 1.550,00 1.256,22 31/05/2019
266 370100 ANDREIA MARIA SILVA PINTO OFICIAL DO MP ATIVO CORONEL FABRICIANO - COMARCA; CORONEL FABRICIANO-PJ-01PJ 7.955,66 1.591,13 0,00 0,00 0,00 0,00 9.546,79 1.169,67 1.467,22 0,00 2.636,89 6.909,90 1.550,00 1.086,54 31/05/2019
267 382100 ANDREIA NATALI PEREIRA OFICIAL DO MP ATIVO PRADOS - COMARCA; PRADOS-PJ-UNPJ 7.337,85 1.467,57 0,00 0,00 0,00 0,00 8.805,42 1.007,67 1.285,77 0,00 2.293,44 6.511,98 1.550,00 355,16 31/05/2019
268 275200 ANDREIA RIBEIRO FREITAS OFICIAL DO MP ATIVO VIÇOSA - COMARCA; VICOSA-PJ-03PJ 9.043,46 2.713,04 0,00 0,00 0,00 0,00 11.756,50 1.345,52 1.955,90 0,00 3.301,42 8.455,08 1.550,00 475,39 31/05/2019
269 352200 ANDREIA XAVIER PEREIRA OFICIAL DO MP ATIVO CLÁUDIO - COMARCA; CLAUDIO-PJ-UNPJ 7.955,66 1.591,13 0,00 0,00 0,00 0,00 9.546,79 1.108,08 1.467,22 0,00 2.575,30 6.971,49 1.550,00 526,63 31/05/2019
270 638500 ANDRESA ALVES FEITOSA CASAGRANDE ANALISTA DO MP ATIVO PERDÕES - COMARCA; PERDOES-PJ-UNPJ 6.665,41 399,92 0,00 0,00 0,00 0,00 7.065,33 642,34 896,96 0,00 1.539,30 5.526,03 2.249,00 848,11 31/05/2019
271 383700 ANDRESSA EDUARDO SOUZA ANALISTA DO MP ATIVO OURO BRANCO - COMARCA; OURO BRANCO-PJ-SECRETARIA 11.685,57 2.337,11 0,00 0,00 0,00 0,00 14.022,68 1.649,68 2.562,69 0,00 4.212,37 9.810,31 2.948,00 974,48 31/05/2019
272 426200 ANDRESSA MENDES CASAL OFICIAL DO MP ATIVO BELO HORIZONTE - COMARCA; DIR ESTRUTURA E PROCESSOS ORGANIZACIONAIS 6.054,65 1.210,93 0,00 0,00 0,00 0,00 7.265,58 828,84 908,89 0,00 1.737,73 5.527,85 1.550,00 269,31 31/05/2019
273 390100 ANDRESSA RIBEIRO PUCCI OFICIAL DO MP ATIVO UBERABA - COMARCA; UBERABA-PJ-14PJ 5.863,71 586,37 0,00 0,00 0,00 0,00 6.450,08 737,32 709,30 0,00 1.446,62 5.003,46 1.550,00 252,85 31/05/2019
274 462500 ANDREZA APARECIDA COSTA E SILVA ANALISTA DO MP ATIVO CONSELHEIRO LAFAIETE - COMARCA; CONSELHEIRO LAFAIETE-PJ-02PJ 9.337,87 933,79 0,00 0,00 0,00 0,00 10.271,66 1.174,18 1.644,63 0,00 2.818,81 7.452,85 1.550,00 402,65 31/05/2019
275 537800 ANDREZZA LUZIA DE OLIVEIRA ALVES ANALISTA DO MP ATIVO PATOS DE MINAS - COMARCA; COORD REG PJ DEF EDU DIR CRI ADO AL PAR NOROE 7.576,76 757,68 0,00 0,00 0,00 0,00 8.334,44 952,73 1.066,22 0,00 2.018,95 6.315,49 1.550,00 326,71 31/05/2019
276 491600 ANE PATRICIA RIBEIRO ANALISTA DO MP ATIVO SETE LAGOAS - COMARCA; SETE LAGOAS-PJ-11PJ 9.337,87 933,79 0,00 0,00 0,00 0,00 10.271,66 1.273,65 1.592,49 0,00 2.866,14 7.405,52 1.550,00 1.306,96 31/05/2019
277 465800 ANELISE GAMA ASSESSOR ATIVO BELO HORIZONTE - COMARCA; BH-18PJ VIOLENCIA DOMESTICA-SECRETARIA 0,00 0,00 7.576,76 0,00 0,00 0,00 7.576,76 642,34 1.340,11 0,00 1.982,45 5.594,31 1.550,00 186,72 31/05/2019
278 535200 ANELIZE FERNANDA ALVES VILARINHO OFICIAL DO MP ATIVO CAPINÓPOLIS - COMARCA; CAPINOPOLIS-PJ-UNPJ 4.467,49 446,75 0,00 0,00 0,00 0,00 4.914,24 561,76 347,95 0,00 909,71 4.004,53 2.249,00 192,64 31/05/2019
279 197200 ANGELA COELHO SALDANHA OFICIAL DO MP ATIVO PARÁ DE MINAS - COMARCA; PARA DE MINAS-PJ-03PJ 13.283,29 5.313,32 0,00 0,00 0,00 0,00 18.596,61 2.126,91 3.682,16 0,00 5.809,07 12.787,54 2.296,34 807,15 31/05/2019
280 307400 ANGELA CRISTINA GONCALVES MUNIZ ANALISTA DO MP ATIVO UBERLÂNDIA - COMARCA; UBERLANDIA-PJ-SEC FAMILIA 14.162,21 4.248,66 0,00 0,00 0,00 0,00 18.410,87 2.165,91 3.584,56 0,00 5.750,47 12.660,40 2.249,00 1.279,26 31/05/2019
281 191800 ANGELA MARIA DE OLIVEIRA OFICIAL DO MP ATIVO GUARANÉSIA - COMARCA; GUARANESIA-PJ-SECRETARIA 13.283,29 6.641,65 0,00 0,00 0,00 0,00 19.924,94 2.285,01 3.955,13 0,00 6.240,14 13.684,80 7.359,20 1.359,28 31/05/2019
282 69900 ANGELA MARIA DE PAULA CUNHA OFICIAL DO MP ATIVO JUIZ DE FORA - COMARCA; JUIZ DE FORA-PJ-01PJ 13.715,83 9.601,08 0,00 0,00 0,00 2.564,86 25.881,77 2.668,57 5.542,79 0,00 8.211,36 17.670,41 6.410,03 1.474,05 31/05/2019
283 497400 ANGELA MARIA HENRIQUES ANALISTA DO MP ATIVO BELO HORIZONTE - COMARCA; COORD REG BACIAS RIO VELHAS E PARAOPEBA 9.337,87 933,79 0,00 0,00 0,00 0,00 10.271,66 1.273,65 1.644,63 0,00 2.918,28 7.353,38 1.550,00 1.306,96 31/05/2019
284 260700 ANGELICA CRISTINA AZEVEDO MOREIRA MOUCO OFICIAL DO MP ATIVO UBÁ - COMARCA; UBA-PJ-05PJ 10.279,98 3.083,99 0,00 0,00 0,00 0,00 13.363,97 1.572,19 2.401,47 0,00 3.973,66 9.390,31 1.550,00 928,66 31/05/2019
285 334600 ANGELICA PANISSA DE FREITAS OFICIAL DO MP ATIVO GUAXUPÉ - COMARCA; GUAXUPE-PJ-02PJ 8.482,22 2.544,67 0,00 0,00 0,00 0,00 11.026,89 1.297,27 1.829,47 0,00 3.126,74 7.900,15 1.550,00 766,42 31/05/2019
286 521100 ANGELICA SALES MOREIRA OFICIAL DO MP ATIVO BELO HORIZONTE - COMARCA; BH-02PJ FAMILIA-SECRETARIA 6.054,65 605,47 0,00 0,00 0,00 0,00 6.660,12 783,53 760,71 0,00 1.544,24 5.115,88 1.550,00 462,90 31/05/2019
287 466500 ANGELLO MARQUES AGRELLI ANALISTA DO MP ATIVO MAR DE ESPANHA - COMARCA; MAR DE ESPANHA-PJ-UNPJ 9.337,87 933,79 0,00 0,00 0,00 0,00 10.271,66 1.174,18 1.644,63 0,00 2.818,81 7.452,85 2.214,00 402,65 31/05/2019
288 363300 ANGELO VERDOLIN HENRIQUES ANALISTA DO MP ATIVO SETE LAGOAS - COMARCA; SETE LAGOAS-PJ-04PJ 13.283,29 5.313,32 0,00 0,00 0,00 0,00 18.596,61 2.287,35 3.682,16 0,00 5.969,51 12.627,10 2.249,00 2.197,40 31/05/2019
289 250900 ANISIO APARECIDO SANTOS OFICIAL DO MP ATIVO MARIANA - COMARCA; MARIANA-PJ-02PJ 5.678,79 1.703,64 0,00 0,00 0,00 0,00 7.382,43 843,91 352,24 0,00 1.196,15 6.186,28 1.550,00 289,39 31/05/2019
290 651200 ANITA MARIA SANT ANA DE MATTOS FONTES OFICIAL DO MP ATIVO ERVÁLIA - COMARCA; ERVALIA-PJ-UNPJ 3.930,12 2.751,08 0,00 0,00 0,00 0,00 6.681,20 786,01 713,73 0,00 1.499,74 5.181,46 1.550,00 464,38 31/05/2019
291 253400 ANNA FLAVIA LEHMAN BATTAGLIA ANALISTA DO MP ATIVO BELO HORIZONTE - COMARCA; CAO-PATRIMONIO PUBLICO 15.533,57 4.660,07 0,00 0,00 0,00 0,00 20.193,64 2.496,81 3.916,62 0,00 6.413,43 13.780,21 2.357,75 2.578,63 31/05/2019
292 447600 ANNGELUCE ALCANTARA DE CAMPOS OFICIAL DO MP ATIVO DIVINÓPOLIS - COMARCA; DIVINOPOLIS-PJ-SECRETARIA 5.863,71 1.172,74 0,00 0,00 0,00 0,00 7.036,45 803,40 852,81 0,00 1.656,21 5.380,24 1.550,00 267,13 31/05/2019
293 119600 ANSELMO BORGES PARREIRAS OFICIAL DO MP ATIVO BONFIM - COMARCA; BONFIM-PJ-UNPJ 6.455,21 5.164,16 0,00 0,00 0,00 0,00 11.619,37 1.328,23 1.922,34 0,00 3.250,57 8.368,80 1.550,00 455,48 31/05/2019
294 630300 ANTONIA GOMES RAMALHO OFICIAL DO MP ATIVO NOVO CRUZEIRO - COMARCA; NOVO CRUZEIRO-PJ-UNPJ 4.467,49 268,05 0,00 0,00 0,00 0,00 4.735,54 557,12 312,16 0,00 869,28 3.866,26 1.550,00 329,13 31/05/2019
295 332400 ANTONIA MARIA MAMEDE OFICIAL DO MP ATIVO UBERLÂNDIA - COMARCA; COORD REG PP TRIANGULO MINEIRO UBERLANDIA 7.955,66 1.591,13 0,00 0,00 0,00 1.050,15 10.596,94 1.092,00 1.756,01 0,00 2.848,01 7.748,93 1.550,00 422,31 31/05/2019
296 401600 ANTONIO CARLOS GUEDES AROUCA ANALISTA DO MP ATIVO BELO HORIZONTE - COMARCA; COORD EST DEF DIR FAMILIA PESSOA DEFICI IDOSO 10.279,98 1.028,00 0,00 0,00 0,00 0,00 11.307,98 1.294,18 1.898,27 0,00 3.192,45 8.115,53 1.550,00 457,25 31/05/2019
297 7100 ANTONIO DO NASCIMENTO OLIVEIRA ASSESSOR ATIVO BELO HORIZONTE - COMARCA; ASSESS EXECUTIVA DO CONSELHO SUPERIOR DO MP 0,00 2.852,73 2.852,73 0,00 0,00 0,00 5.705,46 642,34 432,49 0,00 1.074,83 4.630,63 1.550,00 223,66 31/05/2019
298 333900 ANTONIO GONCALVES DE SOUZA FILHO OFICIAL DO MP ATIVO BELO HORIZONTE - COMARCA; DIRETORIA DE CONTABILIDADE 7.955,66 1.591,13 0,00 0,00 3.182,26 0,00 12.729,05 1.108,08 2.342,34 0,00 3.450,42 9.278,63 1.550,00 526,63 31/05/2019
299 176100 ANTONIO MARCELO CAMPOS CAMPANELLA OFICIAL DO MP ATIVO BELO HORIZONTE - COMARCA; DIRETORIA-GERAL 13.283,29 5.313,32 0,00 0,00 0,00 0,00 18.596,61 2.133,17 3.682,16 0,00 5.815,33 12.781,28 2.431,88 863,99 31/05/2019
300 321001 ANTONIO OLINTO VIEIRA MACHADO ANALISTA DO MP ATIVO BELO HORIZONTE - COMARCA; CENTRAL DE APOIO TECN-SETOR DE MEIO AMBIENTE 11.685,57 2.337,11 0,00 0,00 0,00 0,00 14.022,68 1.604,71 2.458,42 0,00 4.063,13 9.959,55 1.550,00 565,59 31/05/2019
301 356200 ANTONIO PAULA DA SILVA OFICIAL DO MP ATIVO JUIZ DE FORA - COMARCA; JUIZ DE FORA-PJ-20PJ 7.576,76 2.273,03 0,00 0,00 0,00 0,00 9.849,79 1.129,84 1.541,38 0,00 2.671,22 7.178,57 1.550,00 421,49 31/05/2019
302 119900 ANTONIO RODRIGUES DE PINHO OFICIAL DO MP ATIVO GUANHÃES - COMARCA; GUANHAES-PJ-01PJ 12.065,98 8.446,19 0,00 0,00 0,00 0,00 20.512,17 2.347,58 4.046,72 0,00 6.394,30 14.117,87 8.031,67 1.355,92 31/05/2019
303 373300 ANTONIO SERGIO ANANIAS OFICIAL DO MP ATIVO AIURUOCA - COMARCA; AIURUOCA-PJ-UNPJ 7.106,49 1.421,30 0,00 0,00 0,00 0,00 8.527,79 1.003,25 1.113,54 0,00 2.116,79 6.411,00 1.550,00 592,60 31/05/2019
304 608100 ANTONIO SIDINEY VIEIRA LEMOS ANALISTA DO MP ATIVO PIRAPORA - COMARCA; PIRAPORA-PJ-01PJ 6.882,47 2.752,99 0,00 0,00 0,00 0,00 9.635,46 1.101,45 1.488,92 0,00 2.590,37 7.045,09 1.550,00 377,72 31/05/2019
305 374700 ANTONIO SILVA NETO OFICIAL DO MP ATIVO BELO HORIZONTE - COMARCA; GAECO - SECRETARIA 7.337,85 1.467,57 0,00 0,00 0,00 0,00 8.805,42 1.035,91 1.285,77 0,00 2.321,68 6.483,74 1.550,00 611,92 31/05/2019
306 636700 ANTONIUS VITORIANO FERNANDES OFICIAL DO MP ATIVO BELO HORIZONTE - COMARCA; ASSESSORIA JURIDICA DO PROCON-MG 3.930,12 235,81 0,00 0,00 0,00 0,00 4.165,93 476,22 201,35 0,00 677,57 3.488,36 1.550,00 163,30 31/05/2019
307 413200 ANY PEREIRA SILVA ANALISTA DO MP ATIVO TRÊS PONTAS - COMARCA; TRES PONTAS-PJ-01PJ 10.279,98 2.056,00 0,00 0,00 0,00 0,00 12.335,98 1.443,39 2.097,73 0,00 3.541,12 8.794,86 1.550,00 785,80 31/05/2019
308 151401 APARECIDA DE FATIMA MENDES DE ALMEIDA ASSESSOR ATIVO JUIZ DE FORA - COMARCA; JUIZ DE FORA-PJ-SECRETARIA 0,00 0,00 4.763,08 0,00 0,00 0,00 4.763,08 642,34 566,34 0,00 1.208,68 3.554,40 1.550,00 186,72 31/05/2019
309 329300 APARECIDA MARIA MELO DE ASSIS OFICIAL DO MP ATIVO BELO HORIZONTE - COMARCA; BH-18PJ DIREITOS HUMANOS-SECRETARIA 8.482,22 1.696,44 0,00 0,00 0,00 0,00 10.178,66 1.197,46 1.621,87 0,00 2.819,33 7.359,33 1.550,00 707,46 31/05/2019
310 475300 APARECIDA MARLENE FREIRE ROSA ANALISTA DO MP ATIVO BELO HORIZONTE - COMARCA; BH-02PJ FAMILIA 9.955,90 8.960,31 0,00 0,00 0,00 2.080,78 20.996,99 2.164,91 4.332,60 0,00 6.497,51 14.499,48 1.550,00 849,04 31/05/2019
311 240300 APARECIDA PEREIRA DO NASCIMENTO OFICIAL DO MP ATIVO ITURAMA - COMARCA; ITURAMA-PJ-01PJ 11.317,16 7.922,01 0,00 0,00 0,00 0,00 19.239,17 2.385,62 3.839,43 0,00 6.225,05 13.014,12 1.550,00 2.448,25 31/05/2019
312 653000 APARECIDA ROSA DE LIMA ASSESSOR ATIVO BELO HORIZONTE - COMARCA; SECRETARIA PROCESSOS DISCIPES ADMINISTRATIVOS 0,00 0,00 7.576,76 0,00 0,00 0,00 7.576,76 642,34 1.340,11 0,00 1.982,45 5.594,31 2.026,31 186,72 31/05/2019
313 354500 APARECIDA VIEIRA DE CARVALHO OFICIAL DO MP ATIVO BELO HORIZONTE - COMARCA; DIVISÃO DE EDUCAÇÃO PARA O CONSUMO 6.251,74 1.250,35 0,00 0,00 0,00 0,00 7.502,09 858,60 966,78 0,00 1.825,38 5.676,71 1.550,00 303,35 31/05/2019
314 551000 ARACELES BICALHO FELIX ANALISTA DO MP ATIVO MANHUAÇU - COMARCA; MANHUACU-PJ-02PJ 7.576,76 757,68 0,00 0,00 0,00 0,00 8.334,44 957,21 1.170,49 0,00 2.127,70 6.206,74 2.249,00 367,44 31/05/2019
315 286200 ARACELI MEDRADO DOS SANTOS LIMA OFICIAL DO MP ATIVO PARACATU - COMARCA; PARACATU-PJ-03PJ 5.678,79 1.703,64 0,00 0,00 0,00 0,00 7.382,43 841,46 937,49 0,00 1.778,95 5.603,48 1.550,00 267,13 31/05/2019
316 189000 ARAHY MARQUES SILVA OFICIAL DO MP ATIVO BELO HORIZONTE - COMARCA; BH-13ª PJ JUÍZO DE TÓXICOS-SECRETARIA 5.678,79 1.703,64 0,00 0,00 0,00 0,00 7.382,43 843,91 937,49 0,00 1.781,40 5.601,03 1.550,00 289,39 31/05/2019
317 112200 ARAQUEM AUGUSTO DE MATOS AGENTE DO MP ATIVO BELO HORIZONTE - COMARCA; BH-23PJ CIVEL-SEC EXP CIVEIS 6.054,65 4.843,73 0,00 0,00 0,00 1.198,82 12.097,20 1.282,14 1.971,28 0,00 3.253,42 8.843,78 1.550,00 840,78 31/05/2019
318 280600 ARDUINO FRATTEZI ANALISTA DO MP ATIVO BELO HORIZONTE - COMARCA; CENTRAL DE APOIO TECNICO-SETOR CONTABIL 14.162,21 4.248,66 0,00 0,00 0,00 0,00 18.410,87 2.155,09 3.636,70 0,00 5.791,79 12.619,08 2.286,43 1.248,37 31/05/2019
319 520201 ARIANE DE FATIMA CARVALHO ALMEIDA RODRIGUES ANALISTA DO MP ATIVO VESPASIANO - COMARCA; VESPASIANO-PJ-04PJ 6.882,47 412,95 0,00 0,00 0,00 0,00 7.295,42 858,27 864,06 0,00 1.722,33 5.573,09 2.249,00 507,04 31/05/2019
320 537600 ARIELA FREIRE MONTIJO ANALISTA DO MP ATIVO ARCOS - COMARCA; ARCOS-PJ-01PJ 7.576,76 757,68 0,00 0,00 0,00 0,00 8.334,44 952,73 1.066,22 0,00 2.018,95 6.315,49 2.249,00 326,71 31/05/2019
321 182000 ARILSON ALEXANDRE MARTINS MAGALHAES OFICIAL DO MP ATIVO JOÃO MONLEVADE - COMARCA; JOAO MONLEVADE-PJ-01PJ 12.065,98 4.826,39 0,00 0,00 0,00 0,00 16.892,37 1.987,29 3.160,77 0,00 5.148,06 11.744,31 1.629,18 1.173,87 31/05/2019
322 511000 ARISLANE CAROLINA DA SILVA ANALISTA DO MP ATIVO CAMPINA VERDE - COMARCA; CAMPINA VERDE-PJ-UNPJ 9.337,87 933,79 0,00 0,00 0,00 0,00 10.271,66 1.273,65 1.644,63 0,00 2.918,28 7.353,38 2.948,00 1.306,96 31/05/2019
323 170000 ARLEY BRITES DA SILVA ASSESSOR ATIVO BELO HORIZONTE - COMARCA; EXTINTA - DIVISÃO DE MATERIAL PERMANENTE 0,00 1.905,23 4.763,08 0,00 0,00 0,00 6.668,31 642,34 468,79 0,00 1.111,13 5.557,18 1.550,00 242,73 31/05/2019
324 120400 ARLINDO CASSIO DA CRUZ OFICIAL DO MP ATIVO SÃO GONÇALO DO SAPUCAÍ - COMARCA; SAO GONCALO DO SAPUCAI-PJ-01PJ 17.452,52 13.962,02 0,00 0,00 0,00 0,00 31.414,54 3.487,28 6.662,94 943,50 11.093,72 20.320,82 1.649,60 1.231,48 31/05/2019
325 243700 ARLINDO MARCIO LACERDA OFICIAL DO MP ATIVO CONTAGEM - COMARCA; CONTAGEM-PJ-03PJ 10.279,98 4.111,99 0,00 0,00 0,00 0,00 14.391,97 1.647,00 3.021,64 0,00 4.668,64 9.723,33 1.550,00 1.973,48 31/05/2019
326 392100 ARNALDO DE ANDRADE OFICIAL DO MP ATIVO DIVINÓPOLIS - COMARCA; DIVINOPOLIS-PJ-02PJ 7.337,85 1.467,57 0,00 0,00 0,00 0,00 8.805,42 1.007,67 1.602,20 0,00 2.609,87 6.195,55 2.249,00 1.747,95 31/05/2019
327 642400 ARTANE INARDE DE SIQUEIRA DAMASCENO ANALISTA DO MP ATIVO BELO HORIZONTE - COMARCA; PROC JUST RECURSOS ESP E EXTRAORD CRIMINAIS 6.665,41 399,92 0,00 0,00 0,00 0,00 7.065,33 642,34 896,96 0,00 1.539,30 5.526,03 2.249,00 848,11 31/05/2019
328 302100 AUGUSTO ROUSSEAU DE CASTRO ANALISTA DO MP ATIVO CATAGUASES - COMARCA; CATAGUASES-PJ-02PJ 14.941,94 4.482,58 0,00 0,00 6.474,84 0,00 25.899,36 2.216,96 5.665,37 0,00 7.882,33 18.017,03 1.550,00 738,57 31/05/2019
329 540200 AUREA AVELAR BITTENCOURT OFICIAL DO MP ATIVO BELO HORIZONTE - COMARCA; GRUPO ESP PROM PROC JUST DEF PROB ADM PAT PUB 4.467,49 446,75 0,00 0,00 0,00 0,00 4.914,24 561,76 262,63 0,00 824,39 4.089,85 1.550,00 192,64 31/05/2019
330 183200 AURELIANO MAGELA DE REZENDE COORDENADOR/OFICIAL ATIVO BELO HORIZONTE - COMARCA; COORD DE GABINETE DO PGJ 12.864,49 6.351,12 0,00 0,00 0,00 0,00 19.215,61 1.967,47 3.909,04 0,00 5.876,51 13.339,10 2.318,62 1.330,40 31/05/2019
331 629400 AYESKA DA COSTA VAL MOURA DABIEN OFICIAL DO MP ATIVO BELO HORIZONTE - COMARCA; BH-18PJ VIOLENCIA DOMESTICA-SECRETARIA 4.467,49 268,05 0,00 0,00 0,00 0,00 4.735,54 557,12 312,16 0,00 869,28 3.866,26 1.550,00 329,13 31/05/2019
332 652800 BARBARA JULIANNE MOREIRA CASTRO ASSESSOR ATIVO BELO HORIZONTE - COMARCA; ASSESS TECNICO-JUR JUNTO AS PROC. DE JUST 0,00 0,00 7.576,76 0,00 2.525,59 0,00 10.102,35 642,34 2.034,64 0,00 2.676,98 7.425,37 1.550,00 396,01 31/05/2019
333 663600 BARBARA REGINA PEREIRA DE PINHO MAGALHAES ASSESSOR ATIVO BELO HORIZONTE - COMARCA; CAO-DH APOIO COMUNITARIO-RECEPÇÃO 0,00 0,00 7.576,76 0,00 0,00 0,00 7.576,76 642,34 1.340,11 0,00 1.982,45 5.594,31 1.550,00 0,00 31/05/2019
334 546500 BARBARA ZACARONI GOULART OFICIAL DO MP ATIVO BETIM - COMARCA; BETIM-PJ-08PJ 4.467,49 446,75 0,00 0,00 0,00 0,00 4.914,24 564,40 347,95 0,00 912,35 4.001,89 4.498,54 437,80 31/05/2019
335 316500 BEATRIZ ABILVIA DA SILVA ANALISTA DO MP ATIVO GOVERNADOR VALADARES - COMARCA; GOVERNADOR VALADARES-PJ-07PJ 13.715,83 2.743,17 0,00 0,00 0,00 0,00 16.459,00 1.883,70 3.158,98 0,00 5.042,68 11.416,32 1.550,00 665,55 31/05/2019
336 311800 BEATRIZ APARECIDA SOARES GANEM OFICIAL DO MP ATIVO ITAMBACURI - COMARCA; ITAMBACURI-PJ-02PJ 9.043,46 2.713,04 0,00 0,00 0,00 0,00 11.756,50 1.383,09 1.851,63 0,00 3.234,72 8.521,78 1.550,00 816,97 31/05/2019
337 266800 BEATRIZ AUGUSTA VILACA GOMES DE HUBER OFICIAL DO MP ATIVO BELO HORIZONTE - COMARCA; BH-05PJ-JUÍZO SUCESSÕES-SEC 7.955,66 2.386,70 0,00 0,00 0,00 0,00 10.342,36 1.257,18 1.661,93 0,00 2.919,11 7.423,25 1.550,00 1.448,72 31/05/2019
338 235200 BEATRIZ BOTELHO BATISTA OFICIAL DO MP ATIVO BELO HORIZONTE - COMARCA; BH-21PJ TUTELA FUNDACOES-SECRETARIA 9.337,87 2.801,36 0,00 0,00 0,00 0,00 12.139,23 1.505,23 2.101,72 0,00 3.606,95 8.532,28 1.550,00 1.544,59 31/05/2019
339 182300 BEATRIZ PAULA SOUSA RAMOS OFICIAL DO MP ATIVO MARIANA - COMARCA; MARIANA-PJ-01PJ 12.065,98 4.826,39 0,00 0,00 0,00 0,00 16.892,37 1.987,29 3.160,77 0,00 5.148,06 11.744,31 1.550,00 1.173,87 31/05/2019
340 507000 BELCHIOR FRANKLIN AMARAL LEITE ANALISTA DO MP ATIVO BELO HORIZONTE - COMARCA; CENTRAL DE APOIO TECNICO 9.337,87 933,79 0,00 0,00 3.423,89 0,00 13.695,55 1.273,65 2.429,79 0,00 3.703,44 9.992,11 2.272,30 1.306,96 31/05/2019
341 345100 BENITO ELIAS RODRIGUES ANALISTA DO MP ATIVO BARBACENA - COMARCA; BARBACENA - SECRETARIA DAS PJS CRIMINAIS 13.283,29 2.656,66 0,00 0,00 0,00 0,00 15.939,95 1.828,43 3.031,94 0,00 4.860,37 11.079,58 1.550,00 682,11 31/05/2019
342 207300 BENITO VIEIRA DOS SANTOS ANALISTA DO MP ATIVO BELO HORIZONTE - COMARCA; COMB CRIMES PRAT POR AG POL MUN-ASSESSORIA 17.452,52 6.981,01 0,00 0,00 0,00 2.687,69 27.121,22 2.793,05 4.133,50 0,00 6.926,55 20.194,67 6.628,27 1.511,12 31/05/2019
343 480200 BERNADETE NUNES DOS SANTOS ANALISTA DO MP ATIVO GUANHÃES - COMARCA; GUANHAES-PJ-02PJ 9.337,87 2.801,36 0,00 0,00 0,00 0,00 12.139,23 1.387,67 2.101,72 0,00 3.489,39 8.649,84 1.550,00 475,86 31/05/2019
344 378400 BETANIA FARNESI DE SOUZA E SILVA OFICIAL DO MP ATIVO SETE LAGOAS - COMARCA; SETE LAGOAS-PJ-SEC CRIMINAIS 7.337,85 2.935,14 0,00 0,00 0,00 0,00 10.272,99 1.202,94 1.592,82 0,00 2.795,76 7.477,23 1.550,00 662,90 31/05/2019
345 387400 BETANIA MENDONCA DE ASSIS CARVALHO ANALISTA DO MP ATIVO BELO HORIZONTE - COMARCA; BH-08PJ JUIZADO ESPECIAL-SECRETARIA 11.685,57 2.337,11 0,00 0,00 0,00 0,00 14.022,68 1.655,19 2.562,69 0,00 4.217,88 9.804,80 2.132,50 1.024,60 31/05/2019
346 450300 BIANCA OLIVEIRA DE ALBUQUERQUE ANALISTA DO MP ATIVO BELO HORIZONTE - COMARCA; BH-10PJ EXECUÇÃO PENAL-SECRETARIA 9.337,87 933,79 0,00 0,00 0,00 0,00 10.271,66 1.174,18 1.644,63 0,00 2.818,81 7.452,85 2.249,00 536,87 31/05/2019
347 535400 BIANCA SALOTO ROSSI ANALISTA DO MP ATIVO SANTOS DUMONT - COMARCA; SANTOS DUMONT-PJ-01PJ 7.576,76 757,68 0,00 0,00 0,00 0,00 8.334,44 952,73 1.170,49 0,00 2.123,22 6.211,22 1.550,00 435,61 31/05/2019
348 120800 BRAS MARQUES DE SOUZA ANALISTA DO MP ATIVO BELO HORIZONTE - COMARCA; EXTINTA - SUPERINTENDENCIA ADMINISTRATIVA-SAD 22.030,87 17.624,70 0,00 0,00 0,00 0,00 39.655,57 3.900,84 7.705,75 4.193,35 15.799,94 23.855,63 7.223,95 520,11 31/05/2019
349 460900 BRENO CRISTIANO DE SOUZA REZENDE ANALISTA DO MP ATIVO ITAÚNA - COMARCA; ITAUNA-PJ-02PJ 7.955,66 795,57 0,00 0,00 0,00 0,00 8.751,23 1.015,73 1.272,50 0,00 2.288,23 6.463,00 1.550,00 482,74 31/05/2019
350 239000 BRENO VENANCIO ROMANINI OFICIAL DO MP ATIVO BELO HORIZONTE - COMARCA; BH-20PJ ORD ECON TRIBUTARIA-SECRETARIA 9.043,46 2.713,04 0,00 0,00 0,00 0,00 11.756,50 1.345,52 2.008,04 0,00 3.353,56 8.402,94 5.312,08 820,25 31/05/2019
351 202201 BRIGITTE AMARALINA DE CALDAS LIMA OFICIAL DO MP ATIVO NANUQUE - COMARCA; NANUQUE-PJ-03PJ 8.754,77 3.735,15 0,00 0,00 0,00 0,00 12.489,92 1.537,97 1.961,36 0,00 3.499,33 8.990,59 1.550,00 908,47 31/05/2019
352 642300 BRUNA IZABELITA DE FATIMA OLIVEIRA COSTA OFICIAL DO MP ATIVO BELO HORIZONTE - COMARCA; BH-02PJ FAMILIA-SECRETARIA 4.326,60 259,60 0,00 0,00 0,00 0,00 4.586,20 565,04 282,26 0,00 847,30 3.738,90 1.550,00 550,54 31/05/2019
353 513600 BRUNA KARLA MARTINS CARVALHO ANALISTA DO MP ATIVO GOVERNADOR VALADARES - COMARCA; GOVERNADOR VALADARES-PJ-01PJ 9.337,87 933,79 0,00 0,00 0,00 0,00 10.271,66 1.273,65 1.644,63 0,00 2.918,28 7.353,38 1.550,00 1.306,96 31/05/2019
354 415100 BRUNA MARIA SOARES OLIVEIRA COSTA RAMOS ANALISTA DO MP ATIVO UBÁ - COMARCA; COORD REG BACIA DO RIO PARAIBA DO SUL 11.317,16 2.263,43 0,00 0,00 0,00 0,00 13.580,59 1.552,46 2.454,49 0,00 4.006,95 9.573,64 1.745,20 532,72 31/05/2019
355 470000 BRUNA MORAES MARQUES ANALISTA DO MP ATIVO TOMBOS - COMARCA; TOMBOS-PJ-UNPJ 9.955,90 995,59 0,00 0,00 0,00 0,00 10.951,49 1.253,37 1.654,61 0,00 2.907,98 8.043,51 2.249,00 442,85 31/05/2019
356 614700 BRUNA NATTANY DE LIMA OFICIAL DO MP ATIVO MANTENA - COMARCA; MANTENA-PJ-01PJ 4.467,49 446,75 0,00 0,00 0,00 0,00 4.914,24 581,28 383,73 0,00 965,01 3.949,23 1.550,00 370,19 31/05/2019
357 631800 BRUNA RAPOSO JORGE OFICIAL DO MP ATIVO JUIZ DE FORA - COMARCA; JUIZ DE FORA-PJ-06PJ 4.467,49 268,05 0,00 0,00 0,00 0,00 4.735,54 557,12 312,16 0,00 869,28 3.866,26 1.550,00 329,13 31/05/2019
358 463800 BRUNO ALVES TEIXEIRA ANALISTA DO MP ATIVO UBERLÂNDIA - COMARCA; UBERLANDIA-PJ-04PJ 9.337,87 933,79 0,00 0,00 0,00 0,00 10.271,66 1.174,18 1.644,63 0,00 2.818,81 7.452,85 1.550,00 402,65 31/05/2019
359 538500 BRUNO AUGUSTO DA SILVA OFICIAL DO MP ATIVO SANTA LUZIA - COMARCA; SANTA LUZIA-PJ-03PJ 4.838,22 483,82 0,00 0,00 0,00 0,00 5.322,04 608,37 433,21 0,00 1.041,58 4.280,46 2.249,00 208,63 31/05/2019
360 318200 BRUNO BARROS DE SOUZA OFICIAL DO MP ATIVO UBÁ - COMARCA; UBA-PJ-04PJ 8.482,22 1.696,44 0,00 0,00 0,00 0,00 10.178,66 1.197,46 1.180,54 0,00 2.378,00 7.800,66 1.550,00 707,46 31/05/2019
361 459600 BRUNO CASTELAR LUGAO MENDES OFICIAL DO MP ATIVO GOVERNADOR VALADARES - COMARCA; GOVERNADOR VALADARES-PJ-05PJ 6.882,47 688,25 0,00 0,00 0,00 0,00 7.570,72 938,76 983,57 0,00 1.922,33 5.648,39 1.550,00 963,37 31/05/2019
362 427400 BRUNO CESAR RIBEIRO DE PAIVA ANALISTA DO MP ATIVO BELO HORIZONTE - COMARCA; ASSESS JUR DO CONS SUPERIOR DO MINISTERIO PUB 11.317,16 2.263,43 0,00 0,00 0,00 0,00 13.580,59 1.552,46 2.454,49 0,00 4.006,95 9.573,64 1.550,00 532,72 31/05/2019
363 380900 BRUNO CIRILO ANTUNES OFICIAL DO MP ATIVO VARGINHA - COMARCA; VARGINHA-PJ-05PJ 7.576,76 1.515,35 0,00 0,00 0,00 0,00 9.092,11 1.127,40 1.355,93 0,00 2.483,33 6.608,78 1.550,00 1.156,92 31/05/2019
364 329000 BRUNO DE MELO REIS ANALISTA DO MP ATIVO PATROCÍNIO - COMARCA; PATROCINIO-PJ-02PJ 13.715,83 4.114,75 0,00 0,00 0,00 0,00 17.830,58 2.097,67 3.390,40 0,00 5.488,07 12.342,51 2.249,00 1.239,22 31/05/2019
365 601700 BRUNO DIAS JUNQUEIRA PEREIRA ANALISTA DO MP ATIVO BELO HORIZONTE - COMARCA; ASSESS TECNICO-JUR JUNTO AS PROC. DE JUST 7.576,76 757,68 0,00 0,00 0,00 0,00 8.334,44 1.029,20 1.170,49 0,00 2.199,69 6.134,75 1.550,00 1.021,94 31/05/2019
366 378300 BRUNO HERDY LOPES DE OLIVEIRA ANALISTA DO MP ATIVO MANTENA - COMARCA; MANTENA-PJ-01PJ 11.685,57 2.337,11 0,00 0,00 0,00 0,00 14.022,68 1.649,68 2.562,69 0,00 4.212,37 9.810,31 1.550,00 974,48 31/05/2019
367 529700 BRUNO JOSE BUENO DIAS OFICIAL DO MP ATIVO SÃO SEBASTIÃO DO PARAÍSO - COMARCA; SAO SEBASTIAO DO PARAISO-PJ-02PJ 4.838,22 483,82 0,00 0,00 1.774,01 0,00 7.096,05 608,37 868,93 0,00 1.477,30 5.618,75 1.550,00 208,63 31/05/2019
368 350100 BRUNO LAUD SERRANO DOS REIS OFICIAL DO MP ATIVO UBÁ - COMARCA; UBA-PJ-02PJ 7.823,48 2.347,04 0,00 0,00 0,00 0,00 10.170,52 1.261,12 1.567,74 0,00 2.828,86 7.341,66 1.550,00 1.294,22 31/05/2019
369 373800 BRUNO MARTINO DE ALBUQUERQUE ANALISTA DO MP ATIVO PONTE NOVA - COMARCA; PONTE NOVA-PJ-03PJ 11.685,57 2.337,11 0,00 0,00 0,00 0,00 14.022,68 1.649,68 2.458,42 0,00 4.108,10 9.914,58 1.550,00 974,48 31/05/2019
370 470400 BRUNO NOVAIS CABRAL ANALISTA DO MP ATIVO MUTUM - COMARCA; MUTUM-PJ-UNPJ 9.337,87 933,79 0,00 0,00 0,00 0,00 10.271,66 1.174,18 1.644,63 0,00 2.818,81 7.452,85 1.550,00 402,65 31/05/2019
371 648600 BRUNO RIBEIRO E MELO ASSESSOR ATIVO BELO HORIZONTE - COMARCA; DIRETORIA DE RELACOES PUBLICAS E CERIMONIAL 0,00 0,00 7.576,76 0,00 0,00 0,00 7.576,76 642,34 1.340,11 0,00 1.982,45 5.594,31 1.550,00 297,01 31/05/2019
372 369200 BRUNO ROBERTO DIAS DE OLIVEIRA OFICIAL DO MP ATIVO BELO HORIZONTE - COMARCA; BH-22PJ PES COM DEF E IDOSOS 7.601,06 1.591,13 0,00 0,00 0,00 0,00 9.192,19 1.094,52 1.369,70 0,00 2.464,22 6.727,97 1.550,00 403,30 31/05/2019
373 547700 BRUNO ROBERTO SOUZA GONCALVES ANALISTA DO MP ATIVO PARACATU - COMARCA; PARACATU-PJ-03PJ 7.576,76 757,68 0,00 0,00 0,00 0,00 8.334,44 957,21 1.170,49 0,00 2.127,70 6.206,74 2.353,55 367,44 31/05/2019
374 546100 BRUNO SA VIEIRA ANALISTA DO MP ATIVO ERVÁLIA - COMARCA; ERVALIA-PJ-UNPJ 7.574,43 757,68 0,00 0,00 0,00 0,00 8.332,11 952,73 1.117,72 0,00 2.070,45 6.261,66 1.550,00 326,71 31/05/2019
375 438200 BRUNO SALES PEREIRA ANALISTA DO MP ATIVO BELO HORIZONTE - COMARCA; CENTRAL DE APOIO TECNICO-SETOR CONTABIL 9.955,90 995,59 0,00 0,00 0,00 0,00 10.951,49 1.288,39 1.758,88 0,00 3.047,27 7.904,22 2.948,00 761,13 31/05/2019
376 537400 BRUNO SANT'ANA CESAR ANALISTA DO MP ATIVO CONTAGEM - COMARCA; CONTAGEM-PJ-19PJ 7.576,76 757,68 0,00 0,00 0,00 0,00 8.334,44 952,73 1.170,49 0,00 2.123,22 6.211,22 1.550,00 326,71 31/05/2019
377 405800 CAIO FERNANDO RODRIGUES DE OLIVEIRA ANALISTA DO MP ATIVO BELO HORIZONTE - COMARCA; ASSESS TECNICO-JUR JUNTO AS PROC. DE JUST 11.317,16 2.263,43 0,00 0,00 0,00 0,00 13.580,59 1.552,46 2.454,49 0,00 4.006,95 9.573,64 1.550,00 532,72 31/05/2019
378 530000 CAIO GUEDES DE OLIVEIRA ANALISTA DO MP ATIVO DIAMANTINA - COMARCA; DIAMANTINA-PJ-02PJ 7.576,76 757,68 0,00 0,00 0,00 0,00 8.334,44 952,73 1.118,36 0,00 2.071,09 6.263,35 2.249,00 326,71 31/05/2019
379 491400 CAIO MIRANDA JUNQUEIRA ANALISTA DO MP ATIVO BUENO BRANDAO - COMARCA; BUENO BRANDAO-PJ-UNPJ 8.482,22 848,22 0,00 0,00 0,00 0,00 9.330,44 1.143,16 1.309,99 0,00 2.453,15 6.877,29 2.249,00 1.061,95 31/05/2019
380 415800 CAMILA ALVES DA SILVA ANALISTA DO MP ATIVO CAETÉ - COMARCA; CAETE-PJ-01PJ 11.317,16 2.263,43 0,00 0,00 0,00 0,00 13.580,59 1.668,12 2.454,49 0,00 4.122,61 9.457,98 1.550,00 1.584,17 31/05/2019
381 555800 CAMILA CAROLINE ROCHA CHAVES OFICIAL DO MP ATIVO SALINAS - COMARCA; SALINAS-PJ-01PJ 4.838,22 483,82 0,00 0,00 0,00 0,00 5.322,04 649,06 433,21 0,00 1.082,27 4.239,77 1.550,00 578,58 31/05/2019
382 445200 CAMILA CONDE ROCHA ANALISTA DO MP ATIVO CONTAGEM - COMARCA; CONTAGEM-PJ-08PJ 9.337,87 933,79 0,00 0,00 0,00 0,00 10.271,66 1.174,18 1.644,63 0,00 2.818,81 7.452,85 2.249,00 402,65 31/05/2019
383 419900 CAMILA CUNNINGHAM PIMENTA DE PADUA ANALISTA DO MP ATIVO BELO HORIZONTE - COMARCA; ASSESSORIA PSICOSSOCIAL 11.317,16 2.263,43 0,00 0,00 0,00 0,00 13.580,59 1.552,46 2.454,49 0,00 4.006,95 9.573,64 1.550,00 532,72 31/05/2019
384 507700 CAMILA ELIZABETH RODRIGUES ANALISTA DO MP ATIVO BELO HORIZONTE - COMARCA; BH-02PJ FAMILIA 9.337,87 933,79 0,00 0,00 0,00 0,00 10.271,66 1.331,77 1.773,93 0,00 3.105,70 7.165,96 1.550,00 1.835,26 31/05/2019
385 372700 CAMILA FONSECA LIMONGE ANALISTA DO MP ATIVO BETIM - COMARCA; BETIM-PJ-12PJ 11.685,57 2.337,11 0,00 0,00 0,00 0,00 14.022,68 1.649,68 2.562,69 0,00 4.212,37 9.810,31 2.249,00 974,48 31/05/2019
386 621300 CAMILA GOLFETO DE SOUSA VALENTE OFICIAL DO MP ATIVO ESPERA FELIZ - COMARCA; ESPERA FELIZ-PJ-UNPJ 4.467,49 268,05 0,00 0,00 0,00 0,00 4.735,54 557,12 226,85 0,00 783,97 3.951,57 2.737,04 329,13 31/05/2019
387 409800 CAMILA GONCALVES COSTA RIBEIRO ANALISTA DO MP ATIVO INHAPIM - COMARCA; INHAPIM-PJ-02PJ 9.337,87 1.867,57 0,00 0,00 0,00 0,00 11.205,44 1.276,90 1.821,03 0,00 3.097,93 8.107,51 2.249,00 402,65 31/05/2019
388 335000 CAMILA GONTIJO DE PAIVA ANALISTA DO MP ATIVO BELO HORIZONTE - COMARCA; COORD DE CONTROLE DA CONSTITUCIONALIDADE 13.283,29 2.656,66 0,00 0,00 0,00 0,00 15.939,95 1.875,23 2.979,81 0,00 4.855,04 11.084,91 5.153,86 1.341,51 31/05/2019
389 547800 CAMILA MATTARELLI DE ABREU E SILVA ANALISTA DO MP ATIVO BELO HORIZONTE - COMARCA; COORD DE INCLUSAO E MOBILIZACAO SOCIAIS 7.576,76 757,68 0,00 0,00 0,00 0,00 8.334,44 957,21 1.170,49 0,00 2.127,70 6.206,74 1.550,00 367,44 31/05/2019
390 430000 CANDIDA MARINA COSTA ANALISTA DO MP ATIVO BELO HORIZONTE - COMARCA; DIVISAO DE DOCUMENTACAO JURIDICA 11.317,16 2.263,43 0,00 0,00 4.526,86 0,00 18.107,45 1.792,61 3.976,37 0,00 5.768,98 12.338,47 1.550,00 2.715,89 31/05/2019
391 614300 CARINA CORTIELHA OFICIAL DO MP ATIVO BELO HORIZONTE - COMARCA; BH-23PJ CIVEL-SEC EXP CIVEIS 4.058,04 243,48 0,00 0,00 0,00 0,00 4.301,52 506,05 225,25 0,00 731,30 3.570,22 1.550,00 398,51 31/05/2019
392 380400 CARINA DIAS FACANHA DE SOUZA ANALISTA DO MP ATIVO SANTA RITA DO SAPUCAÍ - COMARCA; SANTA RITA DO SAPUCAI-PJ-SECRETARIA 11.685,57 2.337,11 0,00 0,00 0,00 0,00 14.022,68 1.649,68 2.562,69 0,00 4.212,37 9.810,31 2.249,00 974,48 31/05/2019
393 255000 CARLA ADRIANA DE MENEZES OFICIAL DO MP ATIVO BELO HORIZONTE - COMARCA; CENT DE APOIO TEC-SETOR DEF,IDOSO E INFANC 9.043,46 2.713,04 0,00 0,00 0,00 0,00 11.756,50 1.345,40 2.008,04 0,00 3.353,44 8.403,06 7.193,12 991,56 31/05/2019
394 425100 CARLA ADRIANA DINIZ AMARAL OFICIAL DO MP ATIVO CONTAGEM - COMARCA; CONTAGEM-PJ-08PJ 7.106,49 1.421,30 0,00 0,00 0,00 0,00 8.527,79 972,82 1.217,82 0,00 2.190,64 6.337,15 1.550,00 316,10 31/05/2019
395 508100 CARLA ALESSANDRA FONSECA ANALISTA DO MP ATIVO BELO HORIZONTE - COMARCA; CAO-ORDEM ECONOMICA E TRIBUTARIA-SECRETARIA 9.337,87 933,79 0,00 0,00 0,00 0,00 10.271,66 1.273,65 1.644,63 0,00 2.918,28 7.353,38 1.550,00 1.306,96 31/05/2019
396 607100 CARLA ANGELICA DIAS MIRANDA OFICIAL DO MP ATIVO JABOTICATUBAS - COMARCA; JABOTICATUBAS-PJ-UNPJ 4.838,22 483,82 0,00 0,00 0,00 0,00 5.322,04 649,06 301,64 0,00 950,70 4.371,34 1.550,00 578,58 31/05/2019
397 351500 CARLA APARECIDA MENDES RAMIRIO OFICIAL DO MP ATIVO PASSOS - COMARCA; PASSOS-PJ-01PJ 7.955,66 1.591,13 0,00 0,00 0,00 0,00 9.546,79 1.169,67 1.415,08 0,00 2.584,75 6.962,04 1.550,00 1.086,54 31/05/2019
398 206200 CARLA BORGES DA COSTA ANALISTA DO MP ATIVO BELO HORIZONTE - COMARCA; DIRETORIA DE PROJETOS DE EDIFICACOES 17.452,52 8.726,26 0,00 0,00 0,00 0,00 26.178,78 2.992,56 5.537,90 0,00 8.530,46 17.648,32 6.991,01 1.506,17 31/05/2019
399 442800 CARLA GONCALVES COSTA SOALHEIRO ANALISTA DO MP ATIVO GOVERNADOR VALADARES - COMARCA; GOVERNADOR VALADARES-PJ-11PJ 9.022,05 933,79 0,00 0,00 3.423,89 0,00 13.379,73 1.174,18 2.447,21 0,00 3.621,39 9.758,34 2.249,00 402,65 31/05/2019
400 321500 CARLA GONCALVES MASSOTE OFICIAL DO MP ATIVO CAMPO BELO - COMARCA; CAMPO BELO-PJ-01PJ 8.482,22 1.696,44 0,00 0,00 0,00 0,00 10.178,66 1.197,46 1.621,87 0,00 2.819,33 7.359,33 1.550,00 707,46 31/05/2019
401 429200 CARLA HAUTEQUESTT BECHARA COORDENADOR/ANALISTA ATIVO BELO HORIZONTE - COMARCA; DIRET DE INFORMACAO E CONHECIMENTO-DINC/CEAF 11.317,16 4.755,20 0,00 0,00 0,00 0,00 16.072,36 1.668,12 3.139,73 0,00 4.807,85 11.264,51 1.550,00 1.681,85 31/05/2019
402 247500 CARLA MATILDE GUIMARAES DE OLIVEIRA OFICIAL DO MP ATIVO ITAJUBA - COMARCA; ITAJUBA-PJ-SECRETARIA 9.337,87 2.801,36 0,00 0,00 0,00 0,00 12.139,23 1.390,92 2.049,58 0,00 3.440,50 8.698,73 1.550,00 505,39 31/05/2019
403 226100 CARLA MERLI DA CONCEICAO ANALISTA DO MP ATIVO BELO HORIZONTE - COMARCA; CENTRAL DE APOIO TECNICO-SETOR CONTABIL 17.452,52 5.235,76 0,00 0,00 0,00 0,00 22.688,28 2.593,55 4.631,46 0,00 7.225,01 15.463,27 6.265,54 1.305,35 31/05/2019
404 181401 CARLO MICHEL GAUDENSI COELHO ANALISTA DO MP ATIVO BELO HORIZONTE - COMARCA; BH-08PJ JUIZADO ESPECIAL-SECRETARIA 10.279,98 3.083,99 0,00 0,00 0,00 0,00 13.363,97 1.529,49 2.401,47 0,00 3.930,96 9.433,01 1.550,00 540,39 31/05/2019
405 634000 CARLOS ALBERTO AMORMINO TRIGUEIRO ANALISTA DO MP ATIVO BELO HORIZONTE - COMARCA; DIRET DE APOIO AS PROCURADORIAS DE JUSTICA 6.665,41 399,92 0,00 0,00 0,00 0,00 7.065,33 876,09 807,74 0,00 1.683,83 5.381,50 2.249,00 899,00 31/05/2019
406 637900 CARLOS ALBERTO DE MOURA OFICIAL DO MP ATIVO SETE LAGOAS - COMARCA; SETE LAGOAS-PJ-07PJ 4.326,60 259,60 0,00 0,00 0,00 0,00 4.586,20 525,38 239,60 0,00 764,98 3.821,22 2.249,00 208,90 31/05/2019
407 638700 CARLOS ALBERTO FERREIRA BRAGA ANALISTA DO MP ATIVO RIBEIRÃO DAS NEVES - COMARCA; SEC PJ EXECUCAO PENAL RIBEIRAO NEVES 6.054,65 363,28 0,00 0,00 0,00 0,00 6.417,93 682,12 614,65 0,00 1.296,77 5.121,16 2.249,00 770,46 31/05/2019
408 375801 CARLOS ALBERTO ROCHA ANALISTA DO MP ATIVO ELOI MENDES - COMARCA; ELOI MENDES-PJ-SECRETARIA 8.214,70 821,47 0,00 0,00 0,00 0,00 9.036,17 1.032,94 1.342,24 0,00 2.375,18 6.660,99 1.550,00 354,22 31/05/2019
409 462800 CARLOS ANDREI SOARES FAGUNDES ANALISTA DO MP ATIVO MONTES CLAROS - COMARCA; MONTES CLAROS-PJ-09PJ 9.337,87 933,79 0,00 0,00 0,00 0,00 10.271,66 1.174,18 1.592,49 0,00 2.766,67 7.504,99 2.249,00 402,65 31/05/2019
410 370300 CARLOS AUGUSTO BUENO DIAS ASSESSOR ATIVO BELO HORIZONTE - COMARCA; SUPERINTENDÊNCIA DE ENGENHARIA E ARQUITETURA 0,00 0,00 9.641,94 0,00 0,00 0,00 9.641,94 642,34 1.266,83 0,00 1.909,17 7.732,77 1.550,00 377,97 31/05/2019
411 505100 CARLOS CEZAR CARVALHO ANALISTA DO MP ATIVO RIBEIRÃO DAS NEVES - COMARCA; RIBEIRAO DAS NEVES-PJ-04PJ 8.482,22 3.392,89 0,00 0,00 0,00 0,00 11.875,11 1.454,92 1.932,80 0,00 3.387,72 8.487,39 1.550,00 1.351,57 31/05/2019
412 195900 CARLOS DE SOUZA FERREIRA OFICIAL DO MP ATIVO COROMANDEL - COMARCA; COROMANDEL-PJ-UNPJ 9.337,87 7.470,30 0,00 0,00 5.602,72 0,00 22.410,89 1.917,36 4.785,19 0,00 6.702,55 15.708,34 1.550,00 829,71 31/05/2019
413 196800 CARLOS EDUARDO DE OLIVEIRA MARINHO OFICIAL DO MP ATIVO ALPINÓPOLIS - COMARCA; ALPINOPOLIS-PJ-UNPJ 13.283,29 6.641,65 0,00 0,00 0,00 0,00 19.924,94 2.470,64 3.955,13 0,00 6.425,77 13.499,17 2.347,00 2.608,52 31/05/2019
414 650800 CARLOS EDUARDO NIZA DA SILVA OFICIAL DO MP ATIVO IGARAPÉ - COMARCA; IGARAPE-PJ-01PJ 3.569,91 0,00 0,00 0,00 0,00 0,00 3.569,91 419,98 93,34 0,00 513,32 3.056,59 1.550,00 248,07 31/05/2019
415 491800 CARLOS EDUARDO ROMAN OFICIAL DO MP ATIVO BARBACENA - COMARCA; BARBACENA-PJ-09PJ 6.251,74 1.250,35 0,00 0,00 0,00 0,00 7.502,09 882,58 966,78 0,00 1.849,36 5.652,73 1.550,00 521,33 31/05/2019
416 299300 CARLOS HENRIQUE BICALHO ANALISTA DO MP ATIVO BELO HORIZONTE - COMARCA; BH-17PJ PATRIMONIO PUBLICO-SECRETARIA 14.162,21 5.664,88 0,00 0,00 0,00 0,00 19.827,09 2.332,52 3.983,32 0,00 6.315,84 13.511,25 2.249,00 1.377,67 31/05/2019
417 205100 CARLOS HENRIQUE ESTEVES OFICIAL DO MP ATIVO ITAMBACURI - COMARCA; ITAMBACURI-PJ-01PJ 13.283,29 5.313,32 0,00 0,00 0,00 0,00 18.596,61 2.126,91 3.630,02 0,00 5.756,93 12.839,68 1.550,00 738,96 31/05/2019
418 351600 CARLOS HENRIQUE FELICIO DA FONSECA OFICIAL DO MP ATIVO JUIZ DE FORA - COMARCA; JUIZ DE FORA-PJ-21PJ 7.955,66 2.386,70 0,00 0,00 0,00 0,00 10.342,36 1.200,41 1.609,80 0,00 2.810,21 7.532,15 1.963,69 608,43 31/05/2019
419 85400 CARLOS JOSE VIEIRA OFICIAL DO MP ATIVO BELO HORIZONTE - COMARCA; DIRETORIA DO COLEGIO E DA CAMARA DE PJ 22.030,87 17.624,70 0,00 0,00 0,00 0,00 39.655,57 3.900,84 7.810,02 4.193,35 15.904,21 23.751,36 7.223,95 520,11 31/05/2019
420 229100 CARLOS MERCES DE OLIVEIRA ANALISTA DO MP ATIVO BELO HORIZONTE - COMARCA; CENTRAL DE APOIO TECN-SETOR DE MEIO AMBIENTE 16.787,84 5.036,35 0,00 0,00 0,00 0,00 21.824,19 2.582,61 3.370,09 0,00 5.952,70 15.871,49 1.550,00 1.654,08 31/05/2019
421 538300 CARLOS RANGEL SILVA DE MELO ANALISTA DO MP ATIVO BELO HORIZONTE - COMARCA; DIVISAO DE CONTROLE IMOBILIARIO 7.576,76 2.273,03 0,00 0,00 0,00 0,00 9.849,79 1.221,34 1.541,38 0,00 2.762,72 7.087,07 2.249,00 1.253,32 31/05/2019
422 265100 CARLOS REIFF MIRANDA ANALISTA DO MP ATIVO BELO HORIZONTE - COMARCA; BH-19PJ SAUDE-SECRETARIA 150PJ 13.715,83 4.114,75 0,00 0,00 0,00 0,00 17.830,58 2.034,57 3.494,68 0,00 5.529,25 12.301,33 1.550,00 665,55 31/05/2019
423 305400 CARLOS ROCHA DE SOUZA OFICIAL DO MP ATIVO MONTALVÂNIA - COMARCA; MONTALVANIA-PJ-SECRETARIA 5.678,79 1.703,64 0,00 0,00 0,00 0,00 7.382,43 841,46 728,94 0,00 1.570,40 5.812,03 1.939,27 267,13 31/05/2019
424 365100 CARLOS WAGNER SANDER MORAIS COORDENADOR/OFICIAL ATIVO BELO HORIZONTE - COMARCA; DIRETORIA DE ADMINISTRACAO FINANCEIRA 0,00 2.491,77 12.458,83 0,00 0,00 0,00 14.950,60 1.109,04 2.948,20 0,00 4.057,24 10.893,36 1.550,00 615,00 31/05/2019
425 399900 CARMELITA EVANGELISTA DE SOUZA OFICIAL DO MP ATIVO JOÃO PINHEIRO - COMARCA; JOAO PINHEIRO-PJ-01PJ 6.882,47 688,25 0,00 0,00 0,00 0,00 7.570,72 890,65 983,57 0,00 1.874,22 5.696,50 1.550,00 526,17 31/05/2019
426 202000 CARMEN LUCIA MARIZ DE MACEDO OFICIAL DO MP ATIVO BELO HORIZONTE - COMARCA; EXTINTA - DIRETORIA DE COMPRAS E LICITAÇÕES 12.065,98 8.446,19 0,00 0,00 0,00 0,00 20.512,17 2.336,84 4.046,72 0,00 6.383,56 14.128,61 1.550,00 739,32 31/05/2019
427 228500 CAROLINA CHIARELLA DOS SANTOS RIBEIRO OFICIAL DO MP ATIVO BELO HORIZONTE - COMARCA; GAECO - SECRETARIA 7.106,49 2.131,95 0,00 0,00 0,00 0,00 9.238,44 1.086,85 1.287,47 0,00 2.374,32 6.864,12 1.550,00 641,98 31/05/2019
428 446500 CAROLINA COSTA VAL RODRIGUES ANALISTA DO MP ATIVO CONTAGEM - COMARCA; CONTAGEM-PJ-05PJ 10.279,98 2.056,00 0,00 0,00 0,00 0,00 12.335,98 1.411,84 2.149,87 0,00 3.561,71 8.774,27 1.550,00 498,83 31/05/2019
429 603501 CAROLINA DOMINGOS BRANDAO RABELLO ANALISTA DO MP ATIVO CARATINGA - COMARCA; CARATINGA-PJ-01PJ 7.576,76 757,68 0,00 0,00 0,00 0,00 8.334,44 1.029,20 1.170,49 0,00 2.199,69 6.134,75 1.550,00 1.021,94 31/05/2019
430 404300 CAROLINA DOS SANTOS VIEIRA ANALISTA DO MP ATIVO BELO HORIZONTE - COMARCA; BH-08PJ JUIZADO ESPECIAL-SECRETARIA 11.685,57 2.337,11 0,00 0,00 0,00 0,00 14.022,68 1.640,75 2.458,42 0,00 4.099,17 9.923,51 1.550,00 893,26 31/05/2019
431 551200 CAROLINA LOPES ARANTES MASCARENHAS ANALISTA DO MP ATIVO BELO HORIZONTE - COMARCA; COORD EST DEF DIR FAMILIA PESSOA DEFICI IDOSO 7.576,76 757,68 0,00 0,00 0,00 0,00 8.334,44 957,21 1.066,22 0,00 2.023,43 6.311,01 2.948,00 367,44 31/05/2019
432 622600 CAROLINA LOREDO LOPES CATIZANI OFICIAL DO MP ATIVO RIBEIRÃO DAS NEVES - COMARCA; RIBEIRAO DAS NEVES-PJ-12PJ 4.058,04 243,48 0,00 0,00 0,00 0,00 4.301,52 506,05 225,25 0,00 731,30 3.570,22 1.550,00 298,88 31/05/2019
433 382200 CAROLINA MENDES CHAVES LIN ANALISTA DO MP ATIVO BELO HORIZONTE - COMARCA; BH-12PJ JUIZO CRIMINAL-GAB 088PJ 9.043,46 1.808,69 0,00 0,00 0,00 0,00 10.852,15 1.240,54 1.734,57 0,00 2.975,11 7.877,04 2.948,00 425,41 31/05/2019
434 461900 CAROLINA MURTA TEIXEIRA DIAS ASSESSOR/ANALISTA ATIVO BELO HORIZONTE - COMARCA; PROCURADOR-GERAL DE JUSTIÇA 0,00 1.168,56 11.685,57 0,00 0,00 0,00 12.854,13 1.174,18 2.354,81 0,00 3.528,99 9.325,14 1.751,56 503,89 31/05/2019
435 509600 CAROLINA PINTO DE OLIVEIRA SOUZA ANALISTA DO MP ATIVO MURIAÉ - COMARCA; MURIAE-PJ-01PJ 9.337,87 933,79 0,00 0,00 0,00 0,00 10.271,66 1.273,65 1.488,22 0,00 2.761,87 7.509,79 3.297,00 1.306,96 31/05/2019
436 629100 CAROLINA RODRIGUES AMARAL ANALISTA DO MP ATIVO BELO HORIZONTE - COMARCA; PROC. JUSTICA DIR. DIFUSOS E COLETIVOS-SEC 6.882,47 412,95 0,00 0,00 0,00 0,00 7.295,42 858,27 916,19 0,00 1.774,46 5.520,96 1.550,00 507,04 31/05/2019
437 502600 CAROLINA RODRIGUES RUBEN ANALISTA DO MP ATIVO BELO HORIZONTE - COMARCA; EXTINTA-DEF DIREIT HUM-COMB A VIOL DOMEST-18 9.337,87 933,79 0,00 0,00 0,00 0,00 10.271,66 1.273,65 1.592,49 0,00 2.866,14 7.405,52 2.249,00 1.306,96 31/05/2019
438 529600 CAROLINA VAZ DE MELO MAMBRINI ANALISTA DO MP ATIVO MINAS NOVAS - COMARCA; MINAS NOVAS-PJ-UNPJ 7.576,76 757,68 0,00 0,00 2.778,15 0,00 11.112,59 952,73 1.934,49 0,00 2.887,22 8.225,37 1.550,00 326,71 31/05/2019
439 619100 CAROLINA ZAKHIA NARDELLI RODRIGUES ANALISTA DO MP ATIVO NEPOMUCENO - COMARCA; NEPOMUCENO-PJ-UNPJ 6.882,47 412,95 0,00 0,00 0,00 0,00 7.295,42 858,27 916,19 0,00 1.774,46 5.520,96 1.550,00 507,04 31/05/2019
440 517600 CAROLINE ALVES DE OLIVEIRA MULLER ANALISTA DO MP ATIVO VISCONDE DO RIO BRANCO - COMARCA; VISCONDE DO RIO BRANCO-PJ-01PJ 9.337,87 933,79 0,00 0,00 0,00 0,00 10.271,66 1.273,65 1.592,49 0,00 2.866,14 7.405,52 2.249,00 1.306,96 31/05/2019
441 373200 CAROLINE ANTUNES RIBEIRO OFICIAL DO MP ATIVO JACUI - COMARCA; JACUI-PJ-UNPJ 7.337,85 1.467,57 0,00 0,00 0,00 0,00 8.805,42 1.007,67 1.129,35 0,00 2.137,02 6.668,40 1.550,00 355,16 31/05/2019
442 556800 CAROLINE DE SOUZA CARDOSO DOMINGUES OFICIAL DO MP ATIVO BRASÍLIA DE MINAS - COMARCA; BRASILIA DE MINAS-PJ-02PJ 4.467,49 446,75 0,00 0,00 0,00 0,00 4.914,24 606,86 347,95 0,00 954,81 3.959,43 1.550,00 803,52 31/05/2019
443 499400 CAROLINE MARQUES DE LOURDES MARZULLO OFICIAL DO MP ATIVO JUIZ DE FORA - COMARCA; JUIZ DE FORA-PJ-08PJ 6.251,74 625,17 0,00 0,00 0,00 0,00 6.876,91 809,03 813,76 0,00 1.622,79 5.254,12 2.598,00 477,88 31/05/2019
444 616800 CAROLINE MONTEIRO DE BARROS ANALISTA DO MP ATIVO CONTAGEM - COMARCA; CONTAGEM-PJ-11PJ 6.882,47 412,95 0,00 0,00 0,00 0,00 7.295,42 858,27 916,19 0,00 1.774,46 5.520,96 1.550,00 676,05 31/05/2019
445 618100 CAROLINE VASCONCELOS COSTA LANZA ANALISTA DO MP ATIVO PARAOPEBA - COMARCA; PARAOPEBA-PJ-UNPJ 6.882,47 412,95 0,00 0,00 0,00 0,00 7.295,42 858,27 916,19 0,00 1.774,46 5.520,96 2.948,00 507,04 31/05/2019
446 604000 CASSIA APARECIDA DA SILVA OFICIAL DO MP ATIVO PARACATU - COMARCA; PARACATU-PJ-01PJ 4.467,49 446,75 0,00 0,00 0,00 0,00 4.914,24 606,86 347,95 0,00 954,81 3.959,43 1.550,00 602,64 31/05/2019
447 268800 CASSIA BEATRIZ TEIXEIRA OFICIAL DO MP ATIVO BELO HORIZONTE - COMARCA; COMB CRIMES PRAT POR AG POL MUN-SECRETARIA 10.279,98 3.083,99 0,00 0,00 0,00 0,00 13.363,97 1.564,34 2.401,47 0,00 3.965,81 9.398,16 1.550,00 857,24 31/05/2019
448 500000 CASSIA DE OLIVEIRA COSTA VIANA ANALISTA DO MP ATIVO SETE LAGOAS - COMARCA; SETE LAGOAS-PJ-09PJ 9.337,87 4.668,94 0,00 0,00 0,00 0,00 14.006,81 1.740,46 2.558,81 0,00 4.299,27 9.707,54 1.550,00 1.815,47 31/05/2019
449 368800 CASSIA LUISA BATISTA MENDONCA WEBER OFICIAL DO MP ATIVO BELO HORIZONTE - COMARCA; DIVISÃO DE EDUCAÇÃO PARA O CONSUMO 6.665,41 1.333,08 0,00 0,00 0,00 0,00 7.998,49 917,48 1.088,27 0,00 2.005,75 5.992,74 1.550,00 342,28 31/05/2019
450 622200 CASSIA VAZ DE AZEVEDO LISBOA MARZANO ASSESSOR ATIVO BELO HORIZONTE - COMARCA; CGMP-SECRETARIA DA CORREGEDORIA-GERAL DO MP 0,00 0,00 2.852,73 0,00 0,00 0,00 2.852,73 447,10 85,73 0,00 532,83 2.319,90 2.249,00 111,83 31/05/2019
451 121000 CASSIO HENRIQUE AFONSO DA SILVA OFICIAL DO MP ATIVO BELO HORIZONTE - COMARCA; ASSESS TECNICA DA CORREGEDORIA-GERAL DO MP 14.941,94 10.459,36 0,00 0,00 0,00 0,00 25.401,30 2.907,84 5.243,33 0,00 8.151,17 17.250,13 6.844,58 1.499,35 31/05/2019
452 121100 CASSIO MOREIRA DE MIRANDA AGENTE DO MP ATIVO BELO HORIZONTE - COMARCA; DIVISÃO DE FISCALIZAÇÃO DAS RELAÇÕES DE CONSU 4.058,04 3.246,43 0,00 0,00 0,00 803,49 8.107,96 834,99 796,82 0,00 1.631,81 6.476,15 1.550,00 2.058,81 31/05/2019
453 512001 CATARINA NATALINO CALIXTO COORDENADOR/ANALISTA ATIVO BELO HORIZONTE - COMARCA; EXTINTA - DIVISÃO DE APOIO À LICITAÇÃO 0,00 747,53 12.458,83 0,00 0,00 0,00 13.206,36 861,95 2.533,73 0,00 3.395,68 9.810,68 1.550,00 455,43 31/05/2019
454 606200 CATARINE DE SIQUEIRA DE QUADROS ANALISTA DO MP ATIVO RIBEIRÃO DAS NEVES - COMARCA; RIBEIRAO DAS NEVES-PJ-09PJ 6.882,47 688,25 0,00 0,00 0,00 0,00 7.570,72 934,90 931,44 0,00 1.866,34 5.704,38 2.249,00 928,33 31/05/2019
455 622300 CECILIA APARECIDA PEREIRA ASSUNCAO OFICIAL DO MP ATIVO TRÊS PONTAS - COMARCA; TRES PONTAS-PJ-SECRETARIA 4.467,49 268,05 0,00 0,00 0,00 0,00 4.735,54 557,12 269,50 0,00 826,62 3.908,92 2.249,00 329,13 31/05/2019
456 538000 CECILIA FONTES DE MATOS PIMENTEL ANALISTA DO MP ATIVO PALMA - COMARCA; PALMA-PJ-UNPJ 7.576,76 757,68 0,00 0,00 0,00 0,00 8.334,44 952,73 1.170,49 0,00 2.123,22 6.211,22 2.249,00 326,71 31/05/2019
457 261300 CECILIO ANTONIO CAMPOS DOS REIS ANALISTA DO MP ATIVO BELO HORIZONTE - COMARCA; AUDITORIA INTERNA 15.533,57 4.660,07 0,00 0,00 0,00 0,00 20.193,64 2.496,81 4.073,03 0,00 6.569,84 13.623,80 7.905,50 3.022,89 31/05/2019
458 386400 CEFAS AMORELI DE FIGUEIREDO OFICIAL DO MP ATIVO CABO VERDE - COMARCA; CABO VERDE-PJ-SECRETARIA 5.678,79 1.135,76 0,00 0,00 0,00 0,00 6.814,55 778,99 798,50 0,00 1.577,49 5.237,06 1.550,00 267,13 31/05/2019
459 149000 CELIA MAGALHAES CLAROS SOSSI OFICIAL DO MP ATIVO GOVERNADOR VALADARES - COMARCA; GOVERNADOR VALADARES-PJ-01PJ 13.715,83 6.857,91 0,00 0,00 0,00 0,00 20.573,74 2.354,62 4.166,06 0,00 6.520,68 14.053,06 2.573,63 1.176,21 31/05/2019
460 113100 CELIA MARIA ALVES PINTO OFICIAL DO MP ATIVO BELO HORIZONTE - COMARCA; DIVISÃO DE EDUCAÇÃO PARA O CONSUMO 9.337,87 7.470,30 0,00 0,00 0,00 1.848,90 18.657,07 1.977,39 3.752,89 0,00 5.730,28 12.926,79 1.550,00 1.296,52 31/05/2019
461 421000 CELINA BENEDITA DE SOUZA ALMEIDA OFICIAL DO MP ATIVO CAMBUÍ - COMARCA; CAMBUI-PJ-01PJ 7.106,49 3.553,25 0,00 0,00 0,00 0,00 10.659,74 1.219,98 1.687,47 0,00 2.907,45 7.752,29 1.550,00 431,04 31/05/2019
462 252900 CELIO DE MELO CASTOR ANALISTA DO MP ATIVO BELO HORIZONTE - COMARCA; BH-20PJ ORD ECON TRIBUTARIA-SECRETARIA 15.533,57 4.660,07 0,00 0,00 0,00 0,00 20.193,64 2.496,81 4.073,03 0,00 6.569,84 13.623,80 1.550,00 2.504,59 31/05/2019
463 395700 CELIO FERREIRA LIMA OFICIAL DO MP ATIVO CONTAGEM - COMARCA; CONTAGEM-PJ-07PJ 7.576,76 1.515,35 0,00 0,00 0,00 0,00 9.092,11 1.127,40 1.303,80 0,00 2.431,20 6.660,91 2.249,00 1.156,92 31/05/2019
464 281300 CELMA REGINA PEREIRA SANTOS ANALISTA DO MP ATIVO BELO HORIZONTE - COMARCA; DIVISAO DE DOCUMENTACAO JURIDICA 14.941,94 4.482,58 0,00 0,00 0,00 0,00 19.424,52 2.216,96 3.884,79 0,00 6.101,75 13.322,77 1.550,00 729,65 31/05/2019
465 535600 CELSO MEDEIROS DE PAIVA OFICIAL DO MP ATIVO RIO PRETO - COMARCA; RIO PRETO-PJ-SECRETARIA 4.467,49 446,75 0,00 0,00 0,00 0,00 4.914,24 561,76 305,29 0,00 867,05 4.047,19 1.550,00 192,64 31/05/2019
466 367000 CESAR NARVAES DE AVELAR COORDENADOR/OFICIAL ATIVO BELO HORIZONTE - COMARCA; DIVISAO DE MEMORIA INSTITUCIONAL 0,00 2.192,05 10.960,26 0,00 0,00 0,00 13.152,31 1.094,52 2.457,85 0,00 3.552,37 9.599,94 1.550,00 515,58 31/05/2019
467 226500 CESAR SILVEIRA BARROUIN OFICIAL DO MP ATIVO BELO HORIZONTE - COMARCA; DIRETORIA DE ADMINISTRACAO FINANCEIRA 10.279,98 4.111,99 0,00 0,00 0,00 0,00 14.391,97 1.647,00 2.653,07 0,00 4.300,07 10.091,90 1.550,00 580,69 31/05/2019
468 121400 CEZAR MORENO CONCEICAO TAVARES OFICIAL DO MP ATIVO ALMENARA - COMARCA; COORD REG INCLUSAO MOBILIZ VALE JEQUITINHONHA 13.382,73 9.601,08 0,00 0,00 0,00 0,00 22.983,81 2.743,13 4.745,85 0,00 7.488,98 15.494,83 6.213,38 2.048,00 31/05/2019
469 243800 CHARLES MARTINS MUNIZ OFICIAL DO MP ATIVO BELO HORIZONTE - COMARCA; LAB TECNOLOGIA CONTRA LAVAGEM DINHEIRO 10.279,98 3.083,99 0,00 0,00 0,00 0,00 13.363,97 1.529,49 2.401,47 0,00 3.930,96 9.433,01 1.100,00 540,39 31/05/2019
470 193500 CHARLIN CESAR KOURLY OFICIAL DO MP ATIVO ARAGUARI - COMARCA; ARAGUARI-PJ-07PJ 13.283,29 3.984,99 0,00 0,00 0,00 0,00 17.268,28 2.141,23 3.357,05 0,00 5.498,28 11.770,00 1.550,00 2.197,40 31/05/2019
471 385500 CHILLEN PEIXOTO DE MOURA OFICIAL DO MP ATIVO BELO HORIZONTE - COMARCA; DIVISÃO DE FISCALIZAÇÃO DAS RELAÇÕES DE CONSU 7.576,76 1.515,35 0,00 0,00 0,00 0,00 9.092,11 1.127,40 1.724,50 0,00 2.851,90 6.240,21 1.550,00 2.549,71 31/05/2019
472 534500 CHRISTIAN DOUGLAS BRITO RUAS OFICIAL DO MP ATIVO SÃO JOÃO DA PONTE - COMARCA; SAO JOAO DA PONTE-PJ-SECRETARIA 4.838,22 483,82 0,00 0,00 0,00 0,00 5.322,04 608,37 433,21 0,00 1.041,58 4.280,46 1.550,00 278,17 31/05/2019
473 370600 CHRISTIAN KARINE FELIX PRATES ASSESSOR ATIVO BELO HORIZONTE - COMARCA; SUPRIN DE PLANEJAMENTO E COORDENACAO 0,00 0,00 9.641,94 0,00 0,00 0,00 9.641,94 642,34 1.908,03 0,00 2.550,37 7.091,57 1.550,00 377,97 31/05/2019
474 435800 CHRISTIANA BAHIA ANDRADE PINA ANALISTA DO MP ATIVO BELO HORIZONTE - COMARCA; LAB TECNOLOGIA CONTRA LAVAGEM DINHEIRO 11.317,16 1.131,72 0,00 0,00 0,00 0,00 12.448,88 1.543,64 2.177,50 0,00 3.721,14 8.727,74 2.249,00 1.584,17 31/05/2019
475 516800 CHRISTIANE FERREIRA DO NASCIMENTO ANALISTA DO MP ATIVO ESTRELA DO SUL - COMARCA; ESTRELA DO SUL-PJ-UNPJ 9.337,87 933,79 0,00 0,00 0,00 0,00 10.271,66 1.273,65 1.644,63 0,00 2.918,28 7.353,38 1.550,00 1.306,96 31/05/2019
476 176000 CHRISTIANE JUNQUEIRA PULITI ANDRADE DE BARROS ASSESSOR ATIVO BELO HORIZONTE - COMARCA; SUPRIN DE FORMACAO E APERFEICOAMENTO-SFA/CEAF 0,00 8.491,73 10.614,65 0,00 0,00 2.101,70 21.208,08 2.179,51 4.384,89 0,00 6.564,40 14.643,68 2.388,39 855,24 31/05/2019
477 319200 CHRISTIANE MARIA DE ASSIS RUSSO OFICIAL DO MP ATIVO BELO HORIZONTE - COMARCA; CAO-ORDEM ECONOMICA E TRIBUTARIA-SECRETARIA 9.641,94 1.928,39 0,00 0,00 0,00 0,00 11.570,33 1.350,55 1.910,34 0,00 3.260,89 8.309,44 2.249,00 707,46 31/05/2019
478 510300 CHRISTIANE MARY DE CARVALHO FERREIRA ANALISTA DO MP ATIVO BELO HORIZONTE - COMARCA; DIRETORIA DE SISTEMAS DE INFORMACAO 9.337,87 933,79 0,00 0,00 0,00 0,00 10.271,66 1.273,65 1.592,49 0,00 2.866,14 7.405,52 1.550,00 1.306,96 31/05/2019
479 424900 CHRISTIANE PEREIRA TURNER DE ARAUJO OFICIAL DO MP ATIVO BELO HORIZONTE - COMARCA; CAO-PATRIMONIO PUBLICO 7.106,49 1.421,30 0,00 0,00 0,00 0,00 8.527,79 997,82 1.113,54 0,00 2.111,36 6.416,43 2.948,00 543,22 31/05/2019
480 513700 CHRISTIANE VIEIRA SOARES PEDERSOLI ASSESSOR/ANALISTA ATIVO BELO HORIZONTE - COMARCA; ASSESSORIA JURIDICA DO PROCON-MG 0,00 1.061,47 10.614,65 0,00 0,00 0,00 11.676,12 1.273,65 2.030,86 0,00 3.304,51 8.371,61 2.249,00 1.306,96 31/05/2019
481 412300 CHRYSTIAN MACHADO RIBEIRO ANALISTA DO MP ATIVO VARGINHA - COMARCA; VARGINHA-PJ-04PJ 11.317,16 2.263,43 0,00 0,00 0,00 0,00 13.580,59 1.552,46 2.454,49 0,00 4.006,95 9.573,64 1.550,00 532,72 31/05/2019
482 513800 CHRYSTIANE DO NASCIMENTO DE MAGALHAES OFICIAL DO MP ATIVO UBERLÂNDIA - COMARCA; UBERLANDIA-PJ-10PJ 6.054,65 605,47 0,00 0,00 0,00 0,00 6.660,12 762,24 656,43 0,00 1.418,67 5.241,45 2.249,00 269,31 31/05/2019
483 497900 CIBELE DE FREITAS SANCHES DIAS ANALISTA DO MP ATIVO SABARÁ - COMARCA; SABARA-PJ-03PJ 8.482,22 848,22 0,00 0,00 0,00 0,00 9.330,44 1.143,16 1.414,26 0,00 2.557,42 6.773,02 1.550,00 1.061,95 31/05/2019
484 500900 CIBELLE SILVA PRADO ALVARENGA ANALISTA DO MP ATIVO ITANHANDU - COMARCA; ITANHANDU-PJ-UNPJ 9.337,87 933,79 0,00 0,00 3.423,89 0,00 13.695,55 1.273,65 2.586,20 0,00 3.859,85 9.835,70 2.249,00 1.742,62 31/05/2019
485 296400 CINTIA APARECIDA MOREIRA NAVES E RODRIGUES ANALISTA DO MP ATIVO CAMPO BELO - COMARCA; CAMPO BELO-PJ-02PJ 14.162,21 4.248,66 0,00 0,00 0,00 0,00 18.410,87 2.155,09 3.636,70 0,00 5.791,79 12.619,08 2.249,00 1.180,86 31/05/2019
486 407900 CINTIA NETO COMELLI ANALISTA DO MP ATIVO BELO HORIZONTE - COMARCA; CENTRAL DE APOIO TECNICO-SETOR CONTABIL 11.317,16 2.263,43 0,00 0,00 0,00 0,00 13.580,59 1.552,46 2.402,35 0,00 3.954,81 9.625,78 2.249,00 532,72 31/05/2019
487 304700 CINTIA QUEIROZ OFICIAL DO MP ATIVO BELO HORIZONTE - COMARCA; DIR GESTAO SISTEMAS ATIVIDADE-FIM 9.043,46 2.713,04 0,00 0,00 0,00 0,00 11.756,50 1.376,18 2.008,04 0,00 3.384,22 8.372,28 1.550,00 754,14 31/05/2019
488 286100 CIRO CANGUSSU CORDEIRO OFICIAL DO MP ATIVO IPATINGA - COMARCA; IPATINGA-PJ-09PJ 6.251,74 1.875,52 0,00 0,00 0,00 0,00 8.127,26 951,35 1.067,65 0,00 2.019,00 6.108,26 1.550,00 521,33 31/05/2019
489 412500 CLARICE GOMES MAROTTA ANALISTA DO MP ATIVO BELO HORIZONTE - COMARCA; PROMOT ESTADUAL DE DEF PATRI CULT E TUR DE MG 11.317,16 3.395,15 0,00 0,00 0,00 0,00 14.712,31 1.824,30 2.731,48 0,00 4.555,78 10.156,53 1.550,00 1.872,19 31/05/2019
490 605300 CLARISSA AZEVEDO ROCHA OFICIAL DO MP ATIVO BELO HORIZONTE - COMARCA; ASSESSORIA PSICOSSOCIAL 4.838,22 483,82 0,00 0,00 0,00 0,00 5.322,04 649,06 433,21 0,00 1.082,27 4.239,77 1.550,00 578,58 31/05/2019
491 308100 CLARISSA DUARTE BELLONI DIRETOR/ANALISTA ATIVO BELO HORIZONTE - COMARCA; DIRETORIA-GERAL 0,00 6.870,93 22.903,10 0,00 0,00 0,00 29.774,03 2.407,02 7.253,78 0,00 9.660,80 20.113,23 2.770,38 3.367,69 31/05/2019
492 497100 CLARISSA ROCHA GUIDI ANALISTA DO MP ATIVO BELO HORIZONTE - COMARCA; BH-02PJ FAMILIA 9.337,87 933,79 0,00 0,00 0,00 0,00 10.271,66 1.273,65 1.592,49 0,00 2.866,14 7.405,52 2.249,00 1.306,96 31/05/2019
493 641800 CLARISSE TAVARES GONCALVES OFICIAL DO MP ATIVO BELO HORIZONTE - COMARCA; BH-07PJ 01 TRIBUNAL DO JURI 3.930,12 235,81 0,00 0,00 0,00 0,00 4.165,93 513,26 201,35 0,00 714,61 3.451,32 1.550,00 500,15 31/05/2019
494 463700 CLAUDIA ADRIANA FERRAO DIAS ANALISTA DO MP ATIVO SETE LAGOAS - COMARCA; SETE LAGOAS-PJ-06PJ 9.337,87 933,79 0,00 0,00 0,00 0,00 10.271,66 1.174,18 1.592,49 0,00 2.766,67 7.504,99 1.550,00 402,65 31/05/2019
495 415400 CLAUDIA ALMEIDA DE VASCONCELLOS BARROS ASSESSOR/OFICIAL ATIVO BELO HORIZONTE - COMARCA; EXTINTA - DIVISAO DE SERVICOS GERAIS 0,00 1.928,39 9.641,94 0,00 0,00 0,00 11.570,33 1.321,47 1.961,66 0,00 3.283,13 8.287,20 1.550,00 415,77 31/05/2019
496 207000 CLAUDIA APARECIDA VILELA MACHADO ANALISTA DO MP ATIVO BELO HORIZONTE - COMARCA; CENTRAL DE APOIO TECNICO-SETOR CONTABIL 17.452,52 6.981,01 0,00 0,00 0,00 0,00 24.433,53 2.793,05 4.954,33 0,00 7.747,38 16.686,15 7.414,05 1.495,35 31/05/2019
497 365700 CLAUDIA BREGUEZ CUNHA ANALISTA DO MP ATIVO VARGINHA - COMARCA; VARGINHA-PJ-07PJ 12.065,98 2.413,20 0,00 0,00 0,00 0,00 14.479,18 1.657,12 2.674,42 0,00 4.331,54 10.147,64 2.249,00 585,48 31/05/2019
498 430500 CLAUDIA CECILIA SANTANA VENCESLAU OFICIAL DO MP ATIVO BELO HORIZONTE - COMARCA; DIR ANALISES TECNOLOGIA INTELIGENCIA 7.106,49 710,65 0,00 0,00 0,00 0,00 7.817,14 921,12 983,89 0,00 1.905,01 5.912,13 2.249,00 537,23 31/05/2019
499 112400 CLAUDIA CRISTINA FIUZA DE AVELAR AGENTE DO MP ATIVO BELO HORIZONTE - COMARCA; SERVICO MEDICO-DEPTO PERIC MEDICA SAUDE OCUP 8.758,36 6.130,85 0,00 0,00 0,00 0,00 14.889,21 1.707,21 2.774,78 0,00 4.481,99 10.407,22 1.550,00 646,59 31/05/2019
500 480400 CLAUDIA GOULART DE SOUZA OFICIAL DO MP ATIVO PASSOS - COMARCA; PASSOS-PJ-06PJ 6.251,74 1.250,35 0,00 0,00 0,00 0,00 7.502,09 858,60 966,78 0,00 1.825,38 5.676,71 1.550,00 303,35 31/05/2019
501 519800 CLAUDIA HELENA CORREA DE ALMEIDA ANALISTA DO MP ATIVO BELO HORIZONTE - COMARCA; BH-12PJ JUIZO CRIMINAL-GAB 102PJ 8.482,22 848,22 0,00 0,00 0,00 0,00 9.330,44 1.066,59 1.414,26 0,00 2.480,85 6.849,59 1.550,00 365,76 31/05/2019
502 422100 CLAUDIA IACOMINI CABRAL ANALISTA DO MP ATIVO BELO HORIZONTE - COMARCA; CENT DE APOIO TEC-SETOR DEF,IDOSO E INFANC 11.317,16 5.658,58 0,00 0,00 0,00 0,00 16.975,74 2.104,95 3.285,45 0,00 5.390,40 11.585,34 1.550,00 2.160,22 31/05/2019
503 258200 CLAUDIA LAGE MICHALAROS ANALISTA DO MP ATIVO BELO HORIZONTE - COMARCA; CENTRAL DE APOIO TECN-SETOR DE MEIO AMBIENTE 15.533,57 10.873,50 0,00 0,00 0,00 2.904,78 29.311,85 3.265,06 6.340,45 0,00 9.605,51 19.706,34 6.831,41 4.087,59 31/05/2019
504 284600 CLAUDIA LENI DE ABREU OFICIAL DO MP ATIVO CONTAGEM - COMARCA; CONTAGEM-PJ-22PJ 5.678,79 2.271,52 0,00 0,00 0,00 0,00 7.950,31 908,81 1.076,48 0,00 1.985,29 5.965,02 1.550,00 311,65 31/05/2019
505 433600 CLAUDIA LUIZA SANTIAGO FELICIO ANALISTA DO MP ATIVO BELO HORIZONTE - COMARCA; CENT DE APOIO TEC-SETOR DEF,IDOSO E INFANC 11.317,16 1.131,72 0,00 0,00 0,00 0,00 12.448,88 1.543,64 2.073,23 0,00 3.616,87 8.832,01 1.550,00 1.584,17 31/05/2019
506 317000 CLAUDIA MACHADO ALVES ASSESSOR/OFICIAL ATIVO BELO HORIZONTE - COMARCA; DIRETORIA DE SISTEMAS DE INFORMACAO 0,00 1.928,39 9.641,94 0,00 0,00 0,00 11.570,33 1.004,86 2.045,94 0,00 3.050,80 8.519,53 1.550,00 453,56 31/05/2019
507 155300 CLAUDIA MACIEL MIRANDA E BELO OFICIAL DO MP ATIVO CONGONHAS - COMARCA; CONGONHAS-PJ-02PJ 13.715,83 6.857,92 0,00 0,00 0,00 0,00 20.573,75 2.420,40 4.061,79 0,00 6.482,19 14.091,56 1.550,00 1.429,88 31/05/2019
508 242200 CLAUDIA MICHELLE DIAS MUNIZ BALEEIRO OFICIAL DO MP ATIVO MONTE AZUL - COMARCA; MONTE AZUL-PJ-SECRETARIA 10.279,98 4.111,99 0,00 0,00 0,00 0,00 14.391,97 1.693,13 2.600,94 0,00 4.294,07 10.097,90 1.550,00 1.000,10 31/05/2019
509 623000 CLAUDIA PATRICIA SILVA RODRIGUES RAPOSEIRAS OFICIAL DO MP ATIVO BELO HORIZONTE - COMARCA; DIVISÃO DE EDUCAÇÃO PARA O CONSUMO 4.058,04 243,48 0,00 0,00 0,00 0,00 4.301,52 506,05 191,01 0,00 697,06 3.604,46 2.249,00 298,88 31/05/2019
510 418400 CLAUDIA REGINA MARTINS BONIFACIO OFICIAL DO MP ATIVO ITUIUTABA - COMARCA; ITUIUTABA-PJ-06PJ 7.106,49 1.421,30 0,00 0,00 0,00 0,00 8.527,79 972,82 1.113,54 0,00 2.086,36 6.441,43 1.550,00 316,10 31/05/2019
511 498300 CLAUDIA SOUTO FARIAS BRAUN OFICIAL DO MP ATIVO TEÓFILO OTONI - COMARCA; TEOFILO OTONI-PJ-SECRETARIA 5.499,78 549,98 0,00 0,00 0,00 0,00 6.049,76 750,15 507,05 0,00 1.257,20 4.792,56 1.550,00 769,89 31/05/2019
512 206500 CLAUDIA VALERIA FONSECA ANDRADE ANALISTA DO MP ATIVO BELO HORIZONTE - COMARCA; BH-23PJ INF-FISC MED SOC FEC 17.452,52 8.726,26 0,00 0,00 0,00 0,00 26.178,78 2.992,56 5.537,90 0,00 8.530,46 17.648,32 6.991,01 1.506,17 31/05/2019
513 277500 CLAUDIO ANTONIO BORGES BRUNSWICK ALVARES OFICIAL DO MP ATIVO BELO HORIZONTE - COMARCA; EXTINTA - DIVISAO DE MATERIAL DE CONSUMO 9.337,87 2.801,36 0,00 0,00 0,00 0,00 12.139,23 1.492,16 2.101,72 0,00 3.593,88 8.545,35 1.550,00 1.425,78 31/05/2019
514 444800 CLAUDIO ARESIO DO CARMO ANALISTA DO MP ATIVO SETE LAGOAS - COMARCA; SETE LAGOAS-PJ-01PJ 9.337,87 3.735,15 0,00 0,00 0,00 0,00 13.073,02 1.593,10 2.506,67 0,00 4.099,77 8.973,25 1.736,76 1.426,77 31/05/2019
515 541600 CLAUDIO DE OLIVEIRA MELO OFICIAL DO MP ATIVO CANÁPOLIS - COMARCA; CANAPOLIS-PJ-UNPJ 4.058,04 243,48 0,00 0,00 0,00 0,00 4.301,52 491,72 162,58 0,00 654,30 3.647,22 2.249,00 168,62 31/05/2019
516 545100 CLAUDIO HENRIQUE MACEDO DE SOUZA FRANSOZO ANALISTA DO MP ATIVO OURO PRETO - COMARCA; OURO PRETO-PJ-01PJ 7.576,76 757,68 0,00 0,00 0,00 0,00 8.334,44 952,73 1.170,49 0,00 2.123,22 6.211,22 1.550,00 326,71 31/05/2019
517 353500 CLAUDIO HENRIQUE PEDRO DA ROCHA OFICIAL DO MP ATIVO BELO HORIZONTE - COMARCA; DIRETORIA DE GESTAO DOCUMENTAL 7.955,66 1.591,13 0,00 0,00 0,00 0,00 9.546,79 1.108,08 1.362,94 0,00 2.471,02 7.075,77 1.550,00 526,63 31/05/2019
518 265800 CLAUDIO KUPIDLOWSKY FERNANDES OFICIAL DO MP ATIVO BELO HORIZONTE - COMARCA; SECRETARIA DO PROCON-MG 9.337,87 2.801,36 0,00 0,00 0,00 0,00 12.139,23 1.559,61 1.202,23 0,00 2.761,84 9.377,39 1.550,00 1.544,59 31/05/2019
519 193600 CLAUDIO LEITE FONTES OFICIAL DO MP ATIVO ITUIUTABA - COMARCA; ITUIUTABA-PJ-02PJ 7.955,66 3.182,26 0,00 0,00 0,00 0,00 11.137,92 1.364,61 1.582,20 0,00 2.946,81 8.191,11 1.550,00 1.267,63 31/05/2019
520 329400 CLAUDIO MARCIO BERNARDES OFICIAL DO MP ATIVO ITAÚNA - COMARCA; ITAUNA-PJ-03PJ 8.482,22 5.937,55 0,00 0,00 0,00 0,00 14.419,77 1.696,41 2.607,74 0,00 4.304,15 10.115,62 1.550,00 1.002,22 31/05/2019
521 270200 CLAUDIO RABELO ALVES OFICIAL DO MP ATIVO FORMIGA - COMARCA; FORMIGA-PJ-03PJ 9.337,87 2.801,36 0,00 0,00 0,00 0,00 12.139,23 1.428,12 1.893,17 0,00 3.321,29 8.817,94 1.550,00 843,58 31/05/2019
522 264700 CLAUDIO ROBERTO KFURI DE ARAUJO ANALISTA DO MP ATIVO BELO HORIZONTE - COMARCA; CENTRAL DE APOIO TECNICO-SETOR DE INFORMATICA 15.533,57 4.660,07 0,00 0,00 0,00 0,00 20.193,64 2.475,61 3.968,76 0,00 6.444,37 13.749,27 1.550,00 2.311,93 31/05/2019
523 188600 CLAUDIO SALES OFICIAL DO MP ATIVO NEPOMUCENO - COMARCA; NEPOMUCENO-PJ-SECRETARIA 12.065,98 8.446,18 0,00 0,00 0,00 0,00 20.512,16 2.413,14 4.150,99 0,00 6.564,13 13.948,03 1.550,00 1.425,41 31/05/2019
524 543300 CLAUDIO SILVA DE CARVALHO ANALISTA DO MP ATIVO CAMPO BELO - COMARCA; CAMPO BELO-PJ-04PJ 6.882,47 688,25 0,00 0,00 0,00 0,00 7.570,72 864,24 931,44 0,00 1.795,68 5.775,04 1.550,00 285,99 31/05/2019
525 160700 CLAUDIO VICENTE HESS ASSESSOR ATIVO BELO HORIZONTE - COMARCA; CENTRAL DE APOIO TECNICO-SETOR DE INFORMATICA 0,00 4.983,53 12.458,83 0,00 0,00 0,00 17.442,36 642,34 3.948,87 0,00 4.591,21 12.851,15 4.340,78 1.131,02 31/05/2019
526 312900 CLAUDIO VIEIRA FIRPE OFICIAL DO MP ATIVO BELO HORIZONTE - COMARCA; DIRETORIA DE RELACOES PUBLICAS E CERIMONIAL 8.758,36 1.751,67 0,00 0,00 0,00 0,00 10.510,03 1.205,57 1.702,97 0,00 2.908,54 7.601,49 2.249,00 449,76 31/05/2019
527 634100 CLEA CRISTINA GUERRA DE FREITAS COSTA OFICIAL DO MP ATIVO BELO HORIZONTE - COMARCA; BH-18PJ VIOLENCIA DOMESTICA-SECRETARIA 4.326,60 259,60 0,00 0,00 0,00 0,00 4.586,20 568,68 239,60 0,00 808,28 3.777,92 2.249,00 583,57 31/05/2019
528 653100 CLEBER SOUZA SCALIONI ASSESSOR ATIVO BELO HORIZONTE - COMARCA; CENTRAL DE APOIO TECNICO-SETOR CONTABIL 0,00 0,00 7.576,76 0,00 0,00 0,00 7.576,76 642,34 1.340,11 0,00 1.982,45 5.594,31 1.550,00 297,01 31/05/2019
529 459200 CLEIA ZILLE PEREIRA ANALISTA DO MP ATIVO BELO HORIZONTE - COMARCA; ASSESS TECNICO-JUR JUNTO AS PROC. DE JUST 9.337,87 933,79 0,00 0,00 0,00 0,00 10.271,66 1.174,18 1.644,63 0,00 2.818,81 7.452,85 1.550,00 402,65 31/05/2019
530 481800 CLEIDE CARDOSO DA SILVA ANALISTA DO MP ATIVO MANHUAÇU - COMARCA; MANHUACU-PJ-04PJ 9.337,87 933,79 0,00 0,00 0,00 0,00 10.271,66 1.174,18 1.540,36 0,00 2.714,54 7.557,12 1.550,00 402,65 31/05/2019
531 347600 CLEIDIMAR DE OLIVEIRA SILVA OFICIAL DO MP ATIVO PATOS DE MINAS - COMARCA; COORD REG BACIAS PARACATU,URUCUIA E ABAETE 7.823,48 2.347,04 0,00 0,00 0,00 0,00 10.170,52 1.196,51 1.411,33 0,00 2.607,84 7.562,68 1.550,00 706,83 31/05/2019
532 396500 CLEIDISON BATISTA DE ANDRADE OFICIAL DO MP ATIVO RESPLENDOR - COMARCA; RESPLENDOR-PJ-UNPJ 5.863,71 1.172,74 0,00 0,00 0,00 0,00 7.036,45 803,40 696,40 0,00 1.499,80 5.536,65 2.249,00 267,13 31/05/2019
533 535100 CLEISON ALVES DA SILVA ANALISTA DO MP ATIVO BOA ESPERANÇA - COMARCA; BOA ESPERANCA-PJ-01PJ 7.576,76 757,68 0,00 0,00 0,00 0,00 8.334,44 952,73 1.066,22 0,00 2.018,95 6.315,49 2.249,00 326,71 31/05/2019
534 298100 CLEONICE AUGUSTA BARROS DE OLIVEIRA ANALISTA DO MP ATIVO JUIZ DE FORA - COMARCA; JUIZ DE FORA-PJ-08PJ 14.941,94 4.482,58 0,00 0,00 0,00 0,00 19.424,52 2.286,19 3.884,79 0,00 6.170,98 13.253,54 1.550,00 1.358,97 31/05/2019
535 114300 CLERES PEREIRA DA SILVA JUNIOR ASSESSOR ATIVO BELO HORIZONTE - COMARCA; GAECO - SECRETARIA 0,00 2.381,54 4.763,08 0,00 0,00 0,00 7.144,62 642,34 1.064,86 0,00 1.707,20 5.437,42 1.550,00 280,08 31/05/2019
536 264100 CLETO HENRIQUE ANDRADE SILVA ANALISTA DO MP ATIVO BELO HORIZONTE - COMARCA; DIRETORIA DE SISTEMAS DE INFORMACAO 15.533,57 4.660,07 0,00 0,00 0,00 0,00 20.193,64 2.475,61 3.968,76 0,00 6.444,37 13.749,27 7.204,22 2.830,23 31/05/2019
537 334400 CLEUBA DE OLIVEIRA BARCELOS GONCALVES OFICIAL DO MP ATIVO DIVINÓPOLIS - COMARCA; COORD REG SAUDE MACRORREGIAO SANITARIA OESTE 8.482,22 1.696,44 0,00 0,00 0,00 0,00 10.178,66 1.197,46 1.517,59 0,00 2.715,05 7.463,61 1.550,00 707,46 31/05/2019
538 347500 CLEUSA CORDEIRO DA MATA PIMENTA OFICIAL DO MP ATIVO CAMPO BELO - COMARCA; CAMPO BELO-PJ-02PJ 8.214,70 6.571,76 0,00 0,00 0,00 1.626,51 16.412,97 1.739,55 3.092,64 0,00 4.832,19 11.580,78 7.464,58 1.682,84 31/05/2019
539 510200 CLEZIO SALES SILVA OFICIAL DO MP ATIVO BRASÓPOLIS - COMARCA; BRASOPOLIS-PJ-UNPJ 4.995,72 499,57 0,00 0,00 0,00 0,00 5.495,29 672,67 475,61 0,00 1.148,28 4.347,01 2.249,00 619,94 31/05/2019
540 323000 CLOTILDE DE PADUA VIEIRA OFICIAL DO MP ATIVO BELO HORIZONTE - COMARCA; CGMP-DIVISAO DE APOIO ADMINISTRATIVO 6.054,65 1.210,93 0,00 0,00 0,00 0,00 7.265,58 854,76 908,89 0,00 1.763,65 5.501,93 1.550,00 504,97 31/05/2019
541 285200 CLOVIS ANDRE LUDTKE OFICIAL DO MP ATIVO BELO HORIZONTE - COMARCA; DIVISAO DE MANUTENCAO PREDIAL 9.043,46 2.713,04 0,00 0,00 0,00 0,00 11.756,50 1.341,50 2.008,04 0,00 3.349,54 8.406,96 1.550,00 438,82 31/05/2019
542 381100 CONCEICAO APARECIDA TEIXEIRA ARANTES ANALISTA DO MP ATIVO BELO HORIZONTE - COMARCA; BH-23PJ INFRACIONAL-ASS JURIDICA 11.317,16 2.263,43 0,00 0,00 0,00 0,00 13.580,59 1.633,95 2.573,29 0,00 4.207,24 9.373,35 2.249,00 1.273,54 31/05/2019
543 249900 CONSTANTINO CEZAR GOMES MOTA OFICIAL DO MP ATIVO MONTES CLAROS - COMARCA; COORD REG BACIA RIOS VERDE GRANDE E PARDO 8.214,70 2.464,41 0,00 0,00 0,00 0,00 10.679,11 1.308,39 1.640,08 0,00 2.948,47 7.730,64 2.249,00 1.215,40 31/05/2019
544 481000 CRISHMA ANALIA LOMBELLO ANALISTA DO MP ATIVO JUIZ DE FORA - COMARCA; JUIZ DE FORA-PJ-13PJ 9.337,87 933,79 0,00 0,00 0,00 0,00 10.271,66 1.174,18 1.592,49 0,00 2.766,67 7.504,99 1.550,00 402,65 31/05/2019
545 523900 CRISTHYANE BAZOLI COSTA GUEDES COUTO OFICIAL DO MP ATIVO BELO HORIZONTE - COMARCA; EXTINTA-04ª PJ JUÍZO REG PÚBLICOS-SECRETARIA 6.054,65 605,47 0,00 0,00 0,00 0,00 6.660,12 783,53 760,71 0,00 1.544,24 5.115,88 1.550,00 462,90 31/05/2019
546 187000 CRISTIAN DAYVSON EVANGELISTA OFICIAL DO MP ATIVO JUIZ DE FORA - COMARCA; JUIZ DE FORA-PJ-13PJ 12.065,98 3.619,79 0,00 0,00 0,00 0,00 15.685,77 1.845,34 2.917,60 0,00 4.762,94 10.922,83 1.550,00 1.090,02 31/05/2019
547 319800 CRISTIANA GONCALVES DOS SANTOS GUSMAO OFICIAL DO MP ATIVO SETE LAGOAS - COMARCA; SETE LAGOAS-PJ-10PJ 8.214,70 1.642,94 0,00 0,00 0,00 0,00 9.857,64 1.159,70 1.543,30 0,00 2.703,00 7.154,64 1.550,00 685,08 31/05/2019
548 520600 CRISTIANA JANAINA BARBOZA JUVENCIO DOS SANTOS ANALISTA DO MP ATIVO BELO HORIZONTE - COMARCA; BH-02PJ FAMILIA 8.482,22 848,22 0,00 0,00 0,00 0,00 9.330,44 1.066,59 1.414,26 0,00 2.480,85 6.849,59 1.550,00 365,76 31/05/2019
549 195600 CRISTIANA SOARES HALABI OFICIAL DO MP ATIVO UBERABA - COMARCA; UBERABA-PJ-01PJ 12.864,49 3.859,35 0,00 0,00 0,00 0,00 16.723,84 1.967,47 3.223,80 0,00 5.191,27 11.532,57 1.550,00 1.549,68 31/05/2019
550 218900 CRISTIANE ALVES BELLES OFICIAL DO MP ATIVO JUIZ DE FORA - COMARCA; JUIZ DE FORA-PJ-10PJ 5.678,79 1.703,64 0,00 0,00 0,00 0,00 7.382,43 843,91 833,21 0,00 1.677,12 5.705,31 2.598,00 289,39 31/05/2019
551 263600 CRISTIANE CARVALHO COUTINHO OFICIAL DO MP ATIVO BELO HORIZONTE - COMARCA; BH-23PJ INFRACIONAL-SEC EXP 9.043,46 2.713,04 0,00 0,00 0,00 0,00 11.756,50 1.345,52 1.955,90 0,00 3.301,42 8.455,08 1.550,00 475,39 31/05/2019
552 541000 CRISTIANE COELHO ALVES OFICIAL DO MP ATIVO ITABIRA - COMARCA; ITABIRA-PJ-03PJ 4.467,49 446,75 0,00 0,00 0,00 0,00 4.914,24 561,76 305,29 0,00 867,05 4.047,19 1.550,00 192,64 31/05/2019
553 441700 CRISTIANE CORRADO DE ANDRADE ANALISTA DO MP ATIVO BELO HORIZONTE - COMARCA; DIRETORIA DE SISTEMAS DE INFORMACAO 11.317,16 1.131,72 0,00 0,00 0,00 0,00 12.448,88 1.543,64 2.177,50 0,00 3.721,14 8.727,74 1.550,00 1.584,17 31/05/2019
554 375100 CRISTIANE DAS DORES ERCIO DE LIMA OFICIAL DO MP ATIVO GOVERNADOR VALADARES - COMARCA; COOR REG INCLUSAO MOBILIZ VALE DO RIO DOCE 6.882,47 1.376,49 0,00 0,00 0,00 0,00 8.258,96 945,14 1.152,02 0,00 2.097,16 6.161,80 1.550,00 333,12 31/05/2019
555 178800 CRISTIANE DE LIMA HOSKEN OFICIAL DO MP ATIVO BELO HORIZONTE - COMARCA; BH-14PJ DEFESA CONSUMIDOR-GAB 110PJ 13.283,29 3.984,99 0,00 0,00 0,00 0,00 17.268,28 2.141,23 3.200,64 0,00 5.341,87 11.926,41 1.550,00 2.197,40 31/05/2019
556 494000 CRISTIANE DE MELO MARQUEZ OLIVEIRA ANALISTA DO MP ATIVO UBERLÂNDIA - COMARCA; UBERLANDIA-PJ-06PJ 9.641,94 964,19 0,00 0,00 0,00 0,00 10.606,13 1.310,44 1.726,49 0,00 3.036,93 7.569,20 2.948,00 1.306,96 31/05/2019
557 266100 CRISTIANE DE OLIVEIRA CASTRO OFICIAL DO MP ATIVO BELO HORIZONTE - COMARCA; BH-14PJ DEFESA CONSUMIDOR-SECRETARIA 10.279,98 3.083,99 0,00 0,00 0,00 0,00 13.363,97 1.572,19 2.665,77 0,00 4.237,96 9.126,01 1.550,00 2.321,45 31/05/2019
558 329500 CRISTIANE DOS REIS SILVA OFICIAL DO MP ATIVO ARAXÁ - COMARCA; ARAXA-PJ-04PJ 8.214,70 1.642,94 0,00 0,00 0,00 0,00 9.857,64 1.207,75 1.439,02 0,00 2.646,77 7.210,87 1.550,00 1.121,91 31/05/2019
559 301600 CRISTIANE GODINHO PIRES ANALISTA DO MP ATIVO BETIM - COMARCA; BETIM-PJ-07PJ 14.372,91 4.311,87 0,00 0,00 0,00 0,00 18.684,78 2.267,91 3.703,74 0,00 5.971,65 12.713,13 1.550,00 1.932,47 31/05/2019
560 406100 CRISTIANE GONCALVES CHAVES ANALISTA DO MP ATIVO BELO HORIZONTE - COMARCA; BH-14PJ DEFESA CONSUMIDOR-GAB 112PJ 11.685,57 3.505,67 0,00 0,00 0,00 0,00 15.191,24 1.787,16 2.848,70 0,00 4.635,86 10.555,38 1.550,00 1.055,67 31/05/2019
561 487600 CRISTIANE LOPES DE OLIVEIRA OFICIAL DO MP ATIVO DIVINÓPOLIS - COMARCA; DIVINOPOLIS-PJ-03PJ 5.499,78 549,98 0,00 0,00 0,00 0,00 6.049,76 750,15 611,32 0,00 1.361,47 4.688,29 1.550,00 769,89 31/05/2019
562 502500 CRISTIANE MACIEL DE OLIVEIRA GOMES CRUZ REIS ANALISTA DO MP ATIVO JUIZ DE FORA - COMARCA; JUIZ DE FORA-PJ-05PJ 9.337,87 933,79 0,00 0,00 0,00 0,00 10.271,66 1.273,65 1.644,63 0,00 2.918,28 7.353,38 2.249,00 1.306,96 31/05/2019
563 285500 CRISTIANE MAGALHAES LOURENCO ANALISTA DO MP ATIVO BELO HORIZONTE - COMARCA; CENTRAL DE APOIO TECNICO-SETOR CONTABIL 14.162,21 4.248,66 0,00 0,00 0,00 0,00 18.410,87 2.155,09 3.532,42 0,00 5.687,51 12.723,36 2.286,43 1.248,37 31/05/2019
564 536500 CRISTIANE MICHELE DE SOUZA ANALISTA DO MP ATIVO BARÃO DE COCAIS - COMARCA; BARAO DE COCAIS-PJ-UNPJ 7.576,76 757,68 0,00 0,00 0,00 0,00 8.334,44 952,73 1.066,22 0,00 2.018,95 6.315,49 2.249,00 326,71 31/05/2019
565 346600 CRISTIANE NOGUEIRA ANDRADE ANALISTA DO MP ATIVO BELO HORIZONTE - COMARCA; CENTRAL DE APOIO TECNICO-SETOR CONTABIL 13.283,29 2.656,66 0,00 0,00 0,00 0,00 15.939,95 1.828,43 3.031,94 0,00 4.860,37 11.079,58 1.550,00 682,11 31/05/2019
566 234000 CRISTIANE OLIVEIRA TOSTES OFICIAL DO MP ATIVO JUIZ DE FORA - COMARCA; JUIZ DE FORA-PJ-08PJ 11.685,57 3.505,67 0,00 0,00 0,00 0,00 15.191,24 1.787,16 2.848,70 0,00 4.635,86 10.555,38 2.249,00 1.055,67 31/05/2019
567 445800 CRISTIANE ORZIL COSTA OFICIAL DO MP ATIVO SANTA LUZIA - COMARCA; SANTA LUZIA-PJ-05PJ 5.678,79 567,88 0,00 0,00 0,00 0,00 6.246,67 714,07 659,51 0,00 1.373,58 4.873,09 2.249,00 244,87 31/05/2019
568 616100 CRISTIANE PAES RODRIGUES MARCICANO ANALISTA DO MP ATIVO CATAGUASES - COMARCA; CATAGUASES-PJ-05PJ 6.251,74 375,10 0,00 0,00 2.208,95 0,00 8.835,79 823,96 1.360,02 0,00 2.183,98 6.651,81 2.948,00 870,47 31/05/2019
569 612300 CRISTIANE RIBEIRO DOS REIS ARCANJO ASSESSOR/OFICIAL ATIVO BELO HORIZONTE - COMARCA; EXTINTA - DIVISAO DE TRANSPORTES 0,00 757,68 7.559,98 0,00 0,00 0,00 8.317,66 937,21 1.113,74 0,00 2.050,95 6.266,71 2.249,00 314,83 31/05/2019
570 257700 CRISTIANE RODRIGUES PAES NUNES ANALISTA DO MP ATIVO BELO HORIZONTE - COMARCA; BH-22PJ PES COM DEF E IDOSOS-ORIENTACAO PSIC 14.941,94 4.482,58 0,00 0,00 0,00 0,00 19.424,52 2.223,40 3.832,65 0,00 6.056,05 13.368,47 2.280,53 788,22 31/05/2019
571 510800 CRISTIANE SANTOS FERNANDES ORNELES ANALISTA DO MP ATIVO BELO HORIZONTE - COMARCA; COORD ESTADUAL DAS PJS DE HAB. E URBANISMO 9.337,87 933,79 0,00 0,00 0,00 0,00 10.271,66 1.273,65 1.592,49 0,00 2.866,14 7.405,52 1.550,00 1.306,96 31/05/2019
572 535701 CRISTIANE SANTOS MIRANDA ANALISTA DO MP ATIVO BETIM - COMARCA; BETIM-PJ-01PJ 6.054,65 0,00 0,00 0,00 0,00 0,00 6.054,65 712,29 560,38 0,00 1.272,67 4.781,98 1.550,00 420,81 31/05/2019
573 536200 CRISTIANO DE OLIVEIRA ANALISTA DO MP ATIVO CONCEIÇÃO DO MATO DENTRO - COMARCA; CONCEICAO DO MATO DENTRO-PJ-UNPJ 8.214,70 821,47 0,00 0,00 0,00 0,00 9.036,17 1.032,94 1.342,24 0,00 2.375,18 6.660,99 1.550,00 354,22 31/05/2019
574 477400 CRISTIANO SOARES ELEUTERIO ANALISTA DO MP ATIVO BELO HORIZONTE - COMARCA; BH-17PJ PATRIMONIO PUBLICO 9.641,94 964,19 0,00 0,00 0,00 0,00 10.606,13 1.247,76 1.726,49 0,00 2.974,25 7.631,88 1.550,00 737,13 31/05/2019
575 449400 CRISTIANO TEIXEIRA RODRIGUES LANA ANALISTA DO MP ATIVO BELO HORIZONTE - COMARCA; ASSESS TECNICO-JUR JUNTO AS PROC. DE JUST 9.337,87 933,79 0,00 0,00 0,00 0,00 10.271,66 1.174,18 1.644,63 0,00 2.818,81 7.452,85 1.550,00 402,65 31/05/2019
576 239400 CRISTINA DE FATIMA CRUZ E SILVA OFICIAL DO MP ATIVO MONTE SANTO DE MINAS - COMARCA; MONTE SANTO DE MINAS-PJ-SECRETARIA 10.279,98 3.083,99 0,00 0,00 0,00 0,00 13.363,97 1.572,19 2.401,47 0,00 3.973,66 9.390,31 1.550,00 928,66 31/05/2019
577 544000 CRISTINA DE OLIVEIRA TERRA ANALISTA DO MP ATIVO MATOZINHOS - COMARCA; MATOZINHOS-PJ-01PJ 7.576,76 757,68 0,00 0,00 0,00 0,00 8.334,44 952,73 1.170,49 0,00 2.123,22 6.211,22 1.550,00 326,71 31/05/2019
578 356800 CRISTINA DE PINHO BARROSO OFICIAL DO MP ATIVO SABINÓPOLIS - COMARCA; SABINOPOLIS-PJ-UNPJ 6.665,41 1.999,62 0,00 0,00 0,00 0,00 8.665,03 1.019,40 1.147,13 0,00 2.166,53 6.498,50 2.249,00 602,23 31/05/2019
579 649500 CRISTINA DO DIVINO ESPIRITO SANTOS OFICIAL DO MP ATIVO DIVINÓPOLIS - COMARCA; DIVINOPOLIS-PJ-12PJ 3.930,12 0,00 0,00 0,00 0,00 0,00 3.930,12 462,36 141,43 0,00 603,79 3.326,33 1.550,00 273,16 31/05/2019
580 348201 CRISTINA MARIA DA SILVA ANALISTA DO MP ATIVO PATOS DE MINAS - COMARCA; PATOS DE MINAS-PJ-02PJ 9.337,87 933,79 0,00 0,00 0,00 0,00 10.271,66 1.174,18 1.644,63 0,00 2.818,81 7.452,85 1.550,00 402,65 31/05/2019
581 434900 CRISTINA MELO DE MADUREIRA ANALISTA DO MP ATIVO BELO HORIZONTE - COMARCA; BH-07PJ 01 TRIBUNAL DO JURI 11.317,16 1.131,72 0,00 0,00 0,00 0,00 12.448,88 1.543,64 2.177,50 0,00 3.721,14 8.727,74 1.550,00 1.584,17 31/05/2019
582 307700 CRISTINA TEIXEIRA MARQUES OFICIAL DO MP ATIVO BELO HORIZONTE - COMARCA; CENTRAL DE APOIO TECNICO-SETOR CONTABIL 7.337,85 1.467,57 0,00 0,00 0,00 0,00 8.805,42 1.007,77 1.285,77 0,00 2.293,54 6.511,88 1.550,00 356,06 31/05/2019
583 265300 CRISTOVAO SANCHES DE MEDEIROS ANALISTA DO MP ATIVO BELO HORIZONTE - COMARCA; DIRETORIA DE CONTABILIDADE 13.715,83 4.114,75 0,00 0,00 0,00 0,00 17.830,58 2.034,57 3.494,68 0,00 5.529,25 12.301,33 1.550,00 665,55 31/05/2019
584 349800 CROZEIR LUIZ DA SILVA OFICIAL DO MP ATIVO UNAÍ - COMARCA; UNAI-PJ-SECRETARIA 7.823,48 1.564,70 0,00 0,00 0,00 0,00 9.388,18 1.104,47 1.376,26 0,00 2.480,73 6.907,45 1.550,00 652,46 31/05/2019
585 490500 CYNTHIA CRISTINA DE SOUZA OLIVEIRA VALENTE ANALISTA DO MP ATIVO BELO HORIZONTE - COMARCA; BH-09PJ AUDITORIA MILITAR 9.337,87 933,79 0,00 0,00 0,00 0,00 10.271,66 1.273,65 1.644,63 0,00 2.918,28 7.353,38 1.550,00 1.306,96 31/05/2019
586 389800 CYNTHIA GARIGLIO DOS SANTOS OFICIAL DO MP ATIVO PERDIZES - COMARCA; PERDIZES-PJ-SECRETARIA 5.678,79 1.135,76 0,00 0,00 0,00 0,00 6.814,55 778,99 642,09 0,00 1.421,08 5.393,47 2.249,00 267,13 31/05/2019
587 335101 CYNTHIA GONTIJO D ASSUNCAO ANALISTA DO MP ATIVO BELO HORIZONTE - COMARCA; PROC. JUSTICA DIR. DIFUSOS E COLETIVOS-SEC 9.337,87 933,79 0,00 0,00 0,00 0,00 10.271,66 1.174,18 1.644,63 0,00 2.818,81 7.452,85 2.249,00 402,65 31/05/2019
588 154000 CYNTHIA LOPES DOS SANTOS LAGES ASSESSOR ATIVO BELO HORIZONTE - COMARCA; PROCURADOR-GERAL DE JUSTICA- GABINETE 0,00 8.721,18 12.458,83 0,00 0,00 2.329,80 23.509,81 2.465,89 4.955,14 0,00 7.421,03 16.088,78 2.596,46 1.483,57 31/05/2019
589 269700 CYNTIA ROCHA CAVALCANTI OFICIAL DO MP ATIVO UBERLÂNDIA - COMARCA; UBERLANDIA-PJ-06PJ 10.279,98 3.083,99 0,00 0,00 0,00 0,00 13.363,97 1.564,34 2.401,47 0,00 3.965,81 9.398,16 2.249,00 857,24 31/05/2019
590 278000 DAIRTON LOPES MARTINS FILHO COORDENADOR/ANALISTA ATIVO BELO HORIZONTE - COMARCA; DIRETORIA DE SISTEMAS DE INFORMACAO 0,00 3.737,65 12.458,83 0,00 0,00 0,00 16.196,48 1.383,64 3.217,46 0,00 4.601,10 11.595,38 1.550,00 586,07 31/05/2019
591 392700 DALIANA CHAVES SILVA OFICIAL DO MP ATIVO ITAÚNA - COMARCA; ITAUNA-PJ-04PJ 6.251,74 625,17 0,00 0,00 0,00 0,00 6.876,91 786,12 813,76 0,00 1.599,88 5.277,03 1.550,00 269,58 31/05/2019
592 558101 DALLEY TASSIA SILVA ANALISTA DO MP ATIVO MORADA NOVA DE MINAS - COMARCA; MORADA NOVA DE MINAS-PJ-UNPJ 6.882,47 688,25 0,00 0,00 0,00 0,00 7.570,72 864,24 879,30 0,00 1.743,54 5.827,18 2.249,00 381,32 31/05/2019
593 476700 DALTON DAUD ANALISTA DO MP ATIVO ARAGUARI - COMARCA; ARAGUARI-PJ-05PJ 9.337,87 933,79 0,00 0,00 0,00 0,00 10.271,66 1.174,18 1.540,36 0,00 2.714,54 7.557,12 1.550,00 402,65 31/05/2019
594 426900 DANIEL ALVES DA SILVA OFICIAL DO MP ATIVO BELO HORIZONTE - COMARCA; DIRETORIA DE GESTAO DOCUMENTAL 5.678,79 1.135,76 0,00 0,00 0,00 0,00 6.814,55 776,54 694,23 0,00 1.470,77 5.343,78 1.550,00 244,87 31/05/2019
595 122000 DANIEL ANTONIO VIEIRA OFICIAL DO MP ATIVO ENTRE-RIOS DE MINAS - COMARCA; ENTRE RIOS DE MINAS-PJ-SECRETARIA 9.337,87 6.536,51 0,00 0,00 0,00 0,00 15.874,38 1.814,64 2.807,35 0,00 4.621,99 11.252,39 1.550,00 622,28 31/05/2019
596 411000 DANIEL FERREIRA DA SILVA ANALISTA DO MP ATIVO GOVERNADOR VALADARES - COMARCA; GOVERNADOR VALADARES-PJ-15PJ 10.279,98 3.083,99 0,00 0,00 0,00 0,00 13.363,97 1.529,35 2.245,06 0,00 3.774,41 9.589,56 2.249,00 539,12 31/05/2019
597 309000 DANIEL GOMES DOS SANTOS ANALISTA DO MP ATIVO POÇOS DE CALDAS - COMARCA; POCOS DE CALDAS-PJ-03PJ 14.162,21 2.832,44 0,00 0,00 0,00 0,00 16.994,65 1.999,30 3.290,08 0,00 5.289,38 11.705,27 1.550,00 1.180,86 31/05/2019
598 554500 DANIEL GOMES PEREIRA OFICIAL DO MP ATIVO NANUQUE - COMARCA; NANUQUE-PJ-02PJ 4.838,22 483,82 0,00 0,00 0,00 0,00 5.322,04 649,06 433,21 0,00 1.082,27 4.239,77 1.550,00 578,58 31/05/2019
599 453000 DANIEL GONCALVES PEREIRA ANALISTA DO MP ATIVO UNAÍ - COMARCA; UNAI-PJ-02PJ 9.337,87 933,79 0,00 0,00 0,00 0,00 10.271,66 1.174,18 1.644,63 0,00 2.818,81 7.452,85 2.598,00 402,65 31/05/2019
600 495500 DANIEL GUIMARAES CABRAL OFICIAL DO MP ATIVO BELO HORIZONTE - COMARCA; BH-17PJ PATRIMONIO PUBLICO-SECRETARIA 5.499,78 549,98 0,00 0,00 0,00 0,00 6.049,76 750,15 611,32 0,00 1.361,47 4.688,29 1.550,00 769,89 31/05/2019
601 442900 DANIEL GUIMARAES GONCALVES ANALISTA DO MP ATIVO UBERLÂNDIA - COMARCA; UBERLANDIA-PJ-03PJ 10.279,98 1.028,00 0,00 0,00 0,00 0,00 11.307,98 1.294,18 1.898,27 0,00 3.192,45 8.115,53 1.550,00 457,25 31/05/2019
602 655900 DANIEL LUIZ DA SILVA ASSESSOR ATIVO BELO HORIZONTE - COMARCA; EXTINTA - DIVISAO DE SERVICOS GERAIS 0,00 0,00 2.852,73 0,00 0,00 0,00 2.852,73 447,10 171,04 0,00 618,14 2.234,59 1.550,00 111,83 31/05/2019
603 464600 DANIEL PIACENTINI STIVANIN ANALISTA DO MP ATIVO ANDRADAS - COMARCA; ANDRADAS-PJ-02PJ 9.337,87 933,79 0,00 0,00 0,00 0,00 10.271,66 1.174,18 1.644,63 0,00 2.818,81 7.452,85 1.550,00 402,65 31/05/2019
604 417000 DANIEL QUEIROZ FERREIRA ANALISTA DO MP ATIVO SÃO SEBASTIÃO DO PARAÍSO - COMARCA; SAO SEBASTIAO DO PARAISO-PJ-05PJ 10.279,98 2.056,00 0,00 0,00 0,00 0,00 12.335,98 1.443,39 2.149,87 0,00 3.593,26 8.742,72 1.550,00 785,80 31/05/2019
605 396700 DANIEL SILVA CARNEVALLI ASSESSOR/ANALISTA ATIVO BELO HORIZONTE - COMARCA; PROCURADORIA-GERAL ADJUNTA ADMINISTRATIVA 11.685,57 4.674,22 0,00 0,00 0,00 0,00 16.359,79 1.654,56 3.205,40 0,00 4.859,96 11.499,83 2.264,97 1.110,46 31/05/2019
606 489300 DANIEL TABOZA ROCHA ANALISTA DO MP ATIVO IPATINGA - COMARCA; IPATINGA-PJ-08PJ 9.337,87 933,79 0,00 0,00 0,00 0,00 10.271,66 1.273,65 1.644,63 0,00 2.918,28 7.353,38 2.249,00 1.306,96 31/05/2019
607 414100 DANIEL TARDELI VALADAO ANALISTA DO MP ATIVO TRÊS CORACOES - COMARCA; TRES CORACOES-PJ-02PJ 10.279,98 2.056,00 0,00 0,00 0,00 0,00 12.335,98 1.407,26 1.941,32 0,00 3.348,58 8.987,40 3.647,00 457,25 31/05/2019
608 446601 DANIEL VIEIRA BUENO ANALISTA DO MP ATIVO SÃO DOMINGOS DO PRATA - COMARCA; SAO DOMINGOS DO PRATA-PJ-UNPJ 7.310,69 440,27 0,00 0,00 0,00 0,00 7.750,96 958,30 1.026,87 0,00 1.985,17 5.765,79 1.550,00 1.244,97 31/05/2019
609 253200 DANIELA BATISTA LIMA BARBOSA ASSESSOR ATIVO BELO HORIZONTE - COMARCA; CENTRAL DE APOIO TECN-SETOR DE MEIO AMBIENTE 0,00 1.428,92 4.763,08 0,00 0,00 0,00 6.192,00 642,34 959,30 0,00 1.601,64 4.590,36 1.550,00 242,73 31/05/2019
610 505800 DANIELA BORGES DE MATTOS RESENDE ANALISTA DO MP ATIVO JUIZ DE FORA - COMARCA; JUIZ DE FORA-PJ-20PJ 9.337,87 933,79 0,00 0,00 0,00 0,00 10.271,66 1.273,65 1.644,63 0,00 2.918,28 7.353,38 2.249,00 1.306,96 31/05/2019
611 478000 DANIELA CARVALHO SOARES ANALISTA DO MP ATIVO SÃO JOÃO DEL REI - COMARCA; SAO JOAO DEL REI-PJ-01PJ 9.253,09 933,79 0,00 0,00 0,00 0,00 10.186,88 1.174,18 1.621,32 0,00 2.795,50 7.391,38 1.550,00 402,65 31/05/2019
612 275900 DANIELA CHAGAS SODRE ANALISTA DO MP ATIVO BELO HORIZONTE - COMARCA; CENTRAL DE APOIO TECNICO-SETOR CONTABIL 14.162,21 4.248,66 0,00 0,00 0,00 0,00 18.410,87 2.155,09 3.584,56 0,00 5.739,65 12.671,22 1.597,24 1.180,86 31/05/2019
613 234301 DANIELA CRUZ SOARES ANALISTA DO MP ATIVO BELO HORIZONTE - COMARCA; DIR ANALISES TECNOLOGIA INTELIGENCIA 15.533,57 4.660,07 0,00 0,00 0,00 0,00 20.193,64 2.496,81 4.073,03 0,00 6.569,84 13.623,80 2.357,75 2.578,63 31/05/2019
614 638000 DANIELA DE ALMEIDA BATISTA ANALISTA DO MP ATIVO ANDRELÂNDIA - COMARCA; ANDRELANDIA-PJ-UNPJ 6.665,41 399,92 0,00 0,00 0,00 0,00 7.065,33 642,34 896,96 0,00 1.539,30 5.526,03 2.249,00 321,82 31/05/2019
615 301000 DANIELA DE ALMEIDA E OLIVEIRA ANALISTA DO MP ATIVO BELO HORIZONTE - COMARCA; DIRETORIA DE SISTEMAS DE INFORMACAO 14.162,21 4.248,66 0,00 0,00 0,00 0,00 18.410,87 2.155,09 3.636,70 0,00 5.791,79 12.619,08 1.550,00 1.180,86 31/05/2019
616 296000 DANIELA DE AZEVEDO SILVA ANALISTA DO MP ATIVO ITAJUBA - COMARCA; ITAJUBA-PJ-05PJ 14.372,91 4.311,87 0,00 0,00 0,00 0,00 18.684,78 2.285,61 3.703,74 0,00 5.989,35 12.695,43 6.781,74 2.573,09 31/05/2019
617 453500 DANIELA DE CASTRO SOUSA BARBOSA ANALISTA DO MP ATIVO BELO HORIZONTE - COMARCA; BH-08PJ JUIZADO ESPECIAL-SECRETARIA 9.337,87 933,79 0,00 0,00 0,00 0,00 10.271,66 1.234,58 1.773,93 0,00 3.008,51 7.263,15 1.550,00 951,66 31/05/2019
618 506000 DANIELA DE OLIVEIRA CAVALIERI ANALISTA DO MP ATIVO BELO HORIZONTE - COMARCA; BH-14PJ DEFESA CONSUMIDOR-GAB 005PJ 7.823,48 782,35 0,00 0,00 0,00 0,00 8.605,83 1.067,09 1.236,92 0,00 2.304,01 6.301,82 1.550,00 1.095,12 31/05/2019
619 546200 DANIELA DE VILHENA LEMES GONCALVES OFICIAL DO MP ATIVO TRÊS CORACOES - COMARCA; TRES CORACOES-PJ-05PJ 4.838,22 483,82 0,00 0,00 0,00 0,00 5.322,04 607,53 344,29 0,00 951,82 4.370,22 1.550,00 201,04 31/05/2019
620 356400 DANIELA LEAL FERRAZ ANALISTA DO MP ATIVO MONTES CLAROS - COMARCA; COORD REG PJ DEF EDUC DIR CRIANCA ADOL NORTE 12.065,98 2.413,20 0,00 0,00 0,00 0,00 14.479,18 1.703,39 2.674,42 0,00 4.377,81 10.101,37 2.129,17 1.059,27 31/05/2019
621 501000 DANIELA LOURENCO SANTOS DA SILVA GUIMARAES ANALISTA DO MP ATIVO BELO HORIZONTE - COMARCA; BH-12PJ JUIZO CRIMINAL-GAB 095PJ 9.337,87 933,79 0,00 0,00 0,00 0,00 10.271,66 1.273,65 1.592,49 0,00 2.866,14 7.405,52 2.249,00 1.306,96 31/05/2019
622 195801 DANIELA MARIA DE OLIVEIRA QUEIROZ ANALISTA DO MP ATIVO ARAGUARI - COMARCA; ARAGUARI-PJ-06PJ 11.317,16 3.395,15 0,00 0,00 0,00 0,00 14.712,31 1.824,30 2.731,48 0,00 4.555,78 10.156,53 1.550,00 1.872,19 31/05/2019
623 511400 DANIELA MARIA LARA DE OLIVEIRA ANALISTA DO MP ATIVO BOA ESPERANÇA - COMARCA; BOA ESPERANCA-PJ-02PJ 9.337,87 933,79 0,00 0,00 0,00 0,00 10.271,66 1.273,65 1.592,49 0,00 2.866,14 7.405,52 2.249,00 1.306,96 31/05/2019
624 252101 DANIELA PAULA ALVES PENA ANALISTA DO MP ATIVO CONTAGEM - COMARCA; CONTAGEM-PJ-APO TECNICO 11.685,57 4.674,23 0,00 0,00 0,00 0,00 16.359,80 1.867,15 3.134,70 0,00 5.001,85 11.357,95 1.555,26 614,27 31/05/2019
625 604700 DANIELA PEIXOTO NOGUEIRA COORDENADOR/OFICIAL ATIVO BELO HORIZONTE - COMARCA; DIRET DE FORMACAO, APERFEIC. E POS-GRADUACAO 0,00 1.096,03 10.960,26 0,00 0,00 0,00 12.056,29 653,13 2.272,12 0,00 2.925,25 9.131,04 1.550,00 455,43 31/05/2019
626 429600 DANIELA PIMENTA NUNES MACHADO ANALISTA DO MP ATIVO BELO HORIZONTE - COMARCA; BH-05PJ JUÍZO DE SUCESSÕES 11.317,16 2.263,43 0,00 0,00 0,00 0,00 13.580,59 1.792,61 2.679,34 0,00 4.471,95 9.108,64 2.475,34 2.736,64 31/05/2019
627 662000 DANIELA RIBAS DE AVILA ASSESSOR I ATIVO BELO HORIZONTE - COMARCA; DIRETORIA DE GESTAO DOCUMENTAL 0,00 0,00 7.576,76 0,00 0,00 0,00 7.576,76 642,34 1.340,11 0,00 1.982,45 5.594,31 1.550,00 227,71 31/05/2019
628 462000 DANIELA SOUSA GOMES DO AMARAL ANALISTA DO MP ATIVO BETIM - COMARCA; BETIM-PJ-04PJ 9.337,87 933,79 0,00 0,00 0,00 0,00 10.271,66 1.174,18 1.644,63 0,00 2.818,81 7.452,85 1.550,00 402,65 31/05/2019
629 427000 DANIELA TEIXEIRA DINIZ ANDRADE ANALISTA DO MP ATIVO BELO HORIZONTE - COMARCA; DIRETORIA DE PROJETOS DE EDIFICACOES 9.337,87 1.867,57 0,00 0,00 0,00 0,00 11.205,44 1.276,90 1.821,03 0,00 3.097,93 8.107,51 1.550,00 402,65 31/05/2019
630 337200 DANIELA TOLEDO SENIUK ANALISTA DO MP ATIVO BELO HORIZONTE - COMARCA; GABINETE DE PROCURADOR DE JUSTIÇA - SALA 412 10.960,26 2.192,05 0,00 0,00 0,00 0,00 13.152,31 1.505,25 2.349,67 0,00 3.854,92 9.297,39 1.550,00 531,84 31/05/2019
631 605600 DANIELE ALZIRA SILVA CABRAL MOREIRA OFICIAL DO MP ATIVO BELO HORIZONTE - COMARCA; BH-10PJ EXECUÇÃO PENAL 4.838,22 483,82 0,00 0,00 0,00 0,00 5.322,04 649,06 433,21 0,00 1.082,27 4.239,77 2.249,00 578,58 31/05/2019
632 195500 DANIELE CHAVES FONSECA OFICIAL DO MP ATIVO BELO HORIZONTE - COMARCA; ASSESSORIA ESPECIAL DO PGJ 12.864,49 3.859,35 0,00 0,00 0,00 0,00 16.723,84 1.914,00 3.223,80 0,00 5.137,80 11.586,04 1.550,83 676,25 31/05/2019
633 323400 DANIELE MEGALE SANTINI OFICIAL DO MP ATIVO BELO HORIZONTE - COMARCA; ASSESS TECNICO-JUR JUNTO AS PROC. DE JUST 8.758,36 1.751,67 0,00 0,00 0,00 0,00 10.510,03 1.303,23 1.650,83 0,00 2.954,06 7.555,97 1.550,00 1.337,48 31/05/2019
634 357900 DANIELE REJANE PINTO VERSIEUX OFICIAL DO MP ATIVO PEDRO LEOPOLDO - COMARCA; PEDRO LEOPOLDO-PJ-03PJ 7.955,66 1.591,13 0,00 0,00 0,00 0,00 9.546,79 1.169,67 1.467,22 0,00 2.636,89 6.909,90 1.550,00 1.086,54 31/05/2019
635 389500 DANIELE VASCONCELOS AMORIM OFICIAL DO MP ATIVO SÃO SEBASTIÃO DO PARAÍSO - COMARCA; SAO SEBASTIAO DO PARAISO-PJ-04PJ 7.337,85 1.467,57 0,00 0,00 0,00 0,00 8.805,42 1.035,91 1.285,77 0,00 2.321,68 6.483,74 1.550,00 611,92 31/05/2019
636 629700 DANIELLA BASTOS MARTINS BICALHO OFICIAL DO MP ATIVO GOVERNADOR VALADARES - COMARCA; GOVERNADOR VALADARES-PJ-16PJ 4.467,49 268,05 0,00 0,00 0,00 0,00 4.735,54 601,54 312,16 0,00 913,70 3.821,84 1.550,00 732,91 31/05/2019
637 265000 DANIELLE CASTANHEIRA SCALABRINI OFICIAL DO MP ATIVO BELO HORIZONTE - COMARCA; JUNTA RECURSAL DO PROCON ESTADUAL 9.043,46 2.713,04 0,00 0,00 0,00 0,00 11.756,50 1.341,50 1.903,77 0,00 3.245,27 8.511,23 1.553,76 438,82 31/05/2019
638 490100 DANIELLE DE AVILA SILVA LOPES ANALISTA DO MP ATIVO BELO HORIZONTE - COMARCA; PROC. JUSTICA DIR. DIFUSOS E COLETIVOS-SEC 9.337,87 2.801,36 0,00 0,00 0,00 0,00 12.139,23 1.492,16 2.101,72 0,00 3.593,88 8.545,35 2.948,00 1.425,78 31/05/2019
639 549600 DANIELLE GOMES LOPES RODRIGUES OFICIAL DO MP ATIVO VESPASIANO - COMARCA; VESPASIANO-PJ-02PJ 4.838,22 483,82 0,00 0,00 0,00 0,00 5.322,04 610,89 433,21 0,00 1.044,10 4.277,94 1.550,00 231,62 31/05/2019
640 613000 DANIELLE SILVA OLIVEIRA FRANKLIN ASSESSOR/OFICIAL ATIVO BELO HORIZONTE - COMARCA; DIRETORIA DE ORCAMENTO-DIOR/SPC 0,00 757,68 7.576,76 0,00 2.778,15 0,00 11.112,59 560,99 2.037,95 0,00 2.598,94 8.513,65 2.948,00 314,83 31/05/2019
641 380800 DANILLO RIBEIRO ANTUNES ANALISTA DO MP ATIVO MONTES CLAROS - COMARCA; MONTES CLAROS-PJ-SECRETARIA 11.685,57 2.337,11 0,00 0,00 0,00 0,00 14.022,68 1.649,68 2.510,56 0,00 4.160,24 9.862,44 1.550,00 974,48 31/05/2019
642 453700 DANILO BOTELHO DE CARVALHO ASSESSOR/ANALISTA ATIVO BELO HORIZONTE - COMARCA; SUPERINTENDENCIA DE FINANCAS 0,00 2.290,31 22.903,10 0,00 0,00 0,00 25.193,41 1.331,92 5.705,54 0,00 7.037,46 18.155,95 3.059,41 696,33 31/05/2019
643 391200 DANILO D'AVILA MENDES ANALISTA DO MP ATIVO SÃO ROMÃO - COMARCA; SAO ROMAO-PJ-UNPJ 11.685,57 2.337,11 0,00 0,00 0,00 0,00 14.022,68 1.649,68 2.562,69 0,00 4.212,37 9.810,31 2.249,00 974,48 31/05/2019
644 494900 DANILO GAVIAO AVELINO DE MELLO ANALISTA DO MP ATIVO POUSO ALEGRE - COMARCA; GAECO REGIONAL DE POUSO ALEGRE 9.337,87 933,79 0,00 0,00 0,00 0,00 10.271,66 1.273,65 1.644,63 0,00 2.918,28 7.353,38 2.249,00 1.306,96 31/05/2019
645 604300 DANILO NASCIMENTO SALGADO ANALISTA DO MP ATIVO JANAÚBA - COMARCA; JANAUBA-PJ-01PJ 7.576,76 757,68 0,00 0,00 0,00 0,00 8.334,44 1.029,20 1.170,49 0,00 2.199,69 6.134,75 1.550,00 1.021,94 31/05/2019
646 550800 DANTE MENDES BIANCHETTI FILHO ANALISTA DO MP ATIVO BARBACENA - COMARCA; BARBACENA-PJ-SECRETARIA 7.576,76 757,68 0,00 0,00 0,00 0,00 8.334,44 957,21 1.170,49 0,00 2.127,70 6.206,74 1.550,00 367,44 31/05/2019
647 298300 DANUZA MONICA DE SOUZA DINIZ ANALISTA DO MP ATIVO BELO HORIZONTE - COMARCA; SUPERINTENDENCIA DE RECURSOS HUMANOS 11.317,16 3.395,15 0,00 0,00 0,00 0,00 14.712,31 1.678,76 2.679,34 0,00 4.358,10 10.354,21 1.553,36 549,16 31/05/2019
648 398700 DARCY LUIZ MILEO GREGATTI OFICIAL DO MP ATIVO LAMBARI - COMARCA; LAMBARI-PJ-SECRETARIA 7.576,76 1.515,35 0,00 0,00 0,00 0,00 9.092,11 1.130,37 1.355,93 0,00 2.486,30 6.605,81 1.550,00 1.192,89 31/05/2019
649 406200 DARIANA AUGUSTA DE TOLEDO PATROCINIO COORDENADOR/OFICIAL ATIVO BELO HORIZONTE - COMARCA; EXTINTA - DIRETORIA DE COMPRAS E LICITAÇÕES 0,00 2.491,77 12.458,83 0,00 0,00 0,00 14.950,60 1.034,50 2.966,84 0,00 4.001,34 10.949,26 1.550,00 537,23 31/05/2019
650 586901 DARIO VITORINO DE CARVALHO SILVA ASSESSOR ATIVO BELO HORIZONTE - COMARCA; GABINETE DE SEGURANCA E INTELIGENCIA 0,00 0,00 16.148,50 0,00 0,00 0,00 16.148,50 642,34 3.645,20 0,00 4.287,54 11.860,96 1.550,00 0,00 31/05/2019
651 305000 DARLI LEITE DE OLIVEIRA OFICIAL DO MP ATIVO ARAÇUAÍ - COMARCA; ARACUAI-PJ-01PJ 5.678,79 1.135,76 0,00 0,00 0,00 0,00 6.814,55 778,99 642,09 0,00 1.421,08 5.393,47 1.550,00 267,13 31/05/2019
652 122200 DAVID RIBEIRO DOS SANTOS ANALISTA DO MP ATIVO BORDA DA MATA - COMARCA; BORDA DA MATA-PJ-UNPJ 17.452,52 13.962,02 0,00 0,00 0,00 3.455,60 34.870,14 3.487,28 7.769,64 943,50 12.200,42 22.669,72 6.773,37 1.572,95 31/05/2019
653 389400 DAWSON CANEDO MARQUES OFICIAL DO MP ATIVO TRÊS CORACOES - COMARCA; TRES CORACOES-PJ-02PJ 7.337,85 1.467,57 0,00 0,00 0,00 0,00 8.805,42 1.007,67 627,09 0,00 1.634,76 7.170,66 2.249,00 355,16 31/05/2019
654 256100 DAYSE ROSALY PEREIRA BATISTA OFICIAL DO MP ATIVO BELO HORIZONTE - COMARCA; BH-08PJ JUIZADO ESPECIAL-SECRETARIA 8.758,36 2.627,51 0,00 0,00 0,00 0,00 11.385,87 1.339,49 1.917,33 0,00 3.256,82 8.129,05 1.550,00 791,23 31/05/2019
655 311901 DEBORA APARECIDA DA SILVA ASSESSOR ATIVO BELO HORIZONTE - COMARCA; BH-23PJ CIVEL-SETOR ATEND PUB 0,00 0,00 2.852,73 0,00 0,00 0,00 2.852,73 447,10 171,04 0,00 618,14 2.234,59 1.550,00 111,83 31/05/2019
656 194301 DEBORA APARECIDA DOS SANTOS ANALISTA DO MP ATIVO UBERLÂNDIA - COMARCA; UBERLANDIA-PJ-SEC FAMILIA 14.941,94 4.482,58 0,00 0,00 0,00 0,00 19.424,52 2.298,64 3.832,65 0,00 6.131,29 13.293,23 6.988,87 1.970,77 31/05/2019
657 518800 DEBORA CARVALHO FIORATTO COORDENADOR/OFICIAL ATIVO BELO HORIZONTE - COMARCA; EXTINTA - DIRETORIA SERVIÇOS GERAIS E TRANS 0,00 1.245,88 12.458,83 0,00 0,00 0,00 13.704,71 762,24 2.697,72 0,00 3.459,96 10.244,75 2.249,00 415,77 31/05/2019
658 444900 DEBORA CLAUDIA PEREIRA ALVES ANALISTA DO MP ATIVO BELO HORIZONTE - COMARCA; BH-08PJ JUIZADO ESPECIAL-SECRETARIA 9.337,87 933,79 0,00 0,00 0,00 0,00 10.271,66 1.234,58 1.773,93 0,00 3.008,51 7.263,15 1.550,00 951,66 31/05/2019
659 617700 DEBORA COMANDUCI SCHREIDER ANALISTA DO MP ATIVO BICAS - COMARCA; BICAS-PJ-UNPJ 6.882,47 412,95 0,00 0,00 0,00 0,00 7.295,42 926,70 864,06 0,00 1.790,76 5.504,66 1.550,00 1.129,06 31/05/2019
660 555700 DEBORA CRISTINA BUITRAGO PEREIRA ANALISTA DO MP ATIVO BELO HORIZONTE - COMARCA; EXTINTA - DIRETORIA DE CONTRATOS E CONVÊNIOS 7.576,76 757,68 0,00 0,00 0,00 0,00 8.334,44 1.029,20 1.170,49 0,00 2.199,69 6.134,75 2.948,00 1.021,94 31/05/2019
661 513100 DEBORA CRISTINA PEREIRA DE OLIVEIRA ANALISTA DO MP ATIVO BELO HORIZONTE - COMARCA; BH-23PJ CIVEL-SETOR JURIDICO 9.337,87 933,79 0,00 0,00 0,00 0,00 10.271,66 1.281,05 1.644,63 0,00 2.925,68 7.345,98 2.412,10 1.374,18 31/05/2019
662 612100 DEBORA DUARTE SILVA DE SOUZA OFICIAL DO MP ATIVO RIBEIRÃO DAS NEVES - COMARCA; RIBEIRAO DAS NEVES-PJ-06PJ 4.467,49 1.340,25 0,00 0,00 0,00 0,00 5.807,74 663,89 447,81 0,00 1.111,70 4.696,04 1.550,00 227,67 31/05/2019
663 539700 DEBORA SALES CARVALHO ANALISTA DO MP ATIVO PATOS DE MINAS - COMARCA; COORD REG PJ DEF EDU DIR CRI ADO AL PAR NOROE 7.576,76 757,68 0,00 0,00 0,00 0,00 8.334,44 952,73 1.170,49 0,00 2.123,22 6.211,22 1.550,00 326,71 31/05/2019
664 424100 DEBORA SANTOS E ALVES ANALISTA DO MP ATIVO JANUÁRIA - COMARCA; JANUARIA-PJ-01PJ 11.317,16 2.263,43 0,00 0,00 0,00 0,00 13.580,59 1.552,46 2.454,49 0,00 4.006,95 9.573,64 2.249,00 547,63 31/05/2019
665 426301 DEBORA SCUCATO MACHADO SOARES OFICIAL DO MP ATIVO ITABIRITO - COMARCA; ITABIRITO-PJ-01PJ 4.838,22 967,64 0,00 0,00 0,00 0,00 5.805,86 661,59 551,63 0,00 1.213,22 4.592,64 2.948,00 208,63 31/05/2019
666 550200 DEBORA TRINDADE LEITE ANALISTA DO MP ATIVO MANHUAÇU - COMARCA; MANHUACU-PJ-05PJ 7.576,76 757,68 0,00 0,00 0,00 0,00 8.334,44 957,21 1.066,22 0,00 2.023,43 6.311,01 1.550,00 367,44 31/05/2019
667 438000 DEBORAH COSTA LAGE ANALISTA DO MP ATIVO BELO HORIZONTE - COMARCA; ASSESS TECNICO-JUR JUNTO AS PROC. DE JUST 11.317,16 1.131,72 0,00 0,00 0,00 0,00 12.448,88 1.543,64 2.177,50 0,00 3.721,14 8.727,74 1.550,00 1.584,17 31/05/2019
668 475700 DEBORAH LOBAO LACERDA ASSESSOR/OFICIAL ATIVO BELO HORIZONTE - COMARCA; BH-17PJ PATRIMONIO PUBLICO-SECRETARIA 0,00 757,68 7.576,76 0,00 0,00 0,00 8.334,44 738,03 1.226,83 0,00 1.964,86 6.369,58 1.680,69 326,71 31/05/2019
669 613700 DEISER MARIA FERREIRA ROSCOE OFICIAL DO MP ATIVO BELO HORIZONTE - COMARCA; DIRETORIA DE PAGAMENTO DE PESSOAL-DPAG 4.467,49 446,75 0,00 0,00 0,00 0,00 4.914,24 560,99 347,95 0,00 908,94 4.005,30 1.550,00 185,64 31/05/2019
670 551900 DEISY ROCHA DA SILVA ANALISTA DO MP ATIVO JOÃO PINHEIRO - COMARCA; JOAO PINHEIRO-PJ-01PJ 7.576,76 757,68 0,00 0,00 0,00 0,00 8.334,44 1.029,20 1.170,49 0,00 2.199,69 6.134,75 1.550,00 1.021,94 31/05/2019
671 501900 DELI RAQUEL RODRIGUES ANALISTA DO MP ATIVO ITUIUTABA - COMARCA; ITUIUTABA-PJ-04PJ 9.337,87 933,79 0,00 0,00 0,00 0,00 10.271,66 1.273,65 1.644,63 0,00 2.918,28 7.353,38 1.550,00 1.306,96 31/05/2019
672 378600 DELIANE LOPES VIEIRA BREIJAO NEVES ANALISTA DO MP ATIVO JUIZ DE FORA - COMARCA; JUIZ DE FORA-PJ-12PJ 11.685,57 2.337,11 0,00 0,00 0,00 0,00 14.022,68 1.649,68 2.510,56 0,00 4.160,24 9.862,44 2.249,00 974,48 31/05/2019
673 487700 DENIA FERREIRA MAIA SILVA OFICIAL DO MP ATIVO TRÊS CORACOES - COMARCA; TRES CORACOES-PJ-01PJ 5.499,78 549,98 0,00 0,00 0,00 0,00 6.049,76 750,15 507,05 0,00 1.257,20 4.792,56 2.249,00 769,89 31/05/2019
674 424800 DENIS APARECIDO CAMPOS DELFINO ANALISTA DO MP ATIVO LUZ - COMARCA; LUZ-PJ-UNPJ 10.279,98 2.056,00 0,00 0,00 0,00 0,00 12.335,98 1.443,39 1.941,32 0,00 3.384,71 8.951,27 2.249,00 785,80 31/05/2019
675 381400 DENISE ANGELICA MELLO DE PAULA OFICIAL DO MP ATIVO BELO HORIZONTE - COMARCA; BH-18PJ DIREITOS HUMANOS-SECRETARIA 7.337,85 1.467,57 0,00 0,00 0,00 0,00 8.805,42 1.007,67 1.285,77 0,00 2.293,44 6.511,98 2.249,00 358,49 31/05/2019
676 196300 DENISE DE ALMEIDA VILELA FURTADO OFICIAL DO MP ATIVO BELO HORIZONTE - COMARCA; CENTRAL DE APOIO TECNICO-SECRETARIA 9.955,90 2.986,77 0,00 0,00 0,00 0,00 12.942,67 1.522,64 2.246,22 0,00 3.768,86 9.173,81 1.550,00 899,51 31/05/2019
677 336900 DENISE DE SOUSA MORAES SILVA OFICIAL DO MP ATIVO MATEUS LEME - COMARCA; MATEUS LEME-PJ-02PJ 5.678,79 1.135,76 0,00 0,00 0,00 0,00 6.814,55 778,99 798,50 0,00 1.577,49 5.237,06 1.550,00 267,13 31/05/2019
678 271100 DENISE ELOY PEIXOTO OFICIAL DO MP ATIVO BELO HORIZONTE - COMARCA; SUPERINTENDENCIA DE SEGURANCA E INTELIGENCIA 10.279,98 3.083,99 0,00 0,00 0,00 0,00 13.363,97 1.564,34 2.401,47 0,00 3.965,81 9.398,16 1.550,00 857,24 31/05/2019
679 385400 DENISE FREITAS DE ASSIS OFICIAL DO MP ATIVO CARATINGA - COMARCA; CARATINGA-PJ-05PJ 7.106,49 1.421,30 0,00 0,00 0,00 0,00 8.527,79 1.003,25 1.217,82 0,00 2.221,07 6.306,72 1.550,00 592,60 31/05/2019
680 437100 DENISE NOGUEIRA MAGRI MENDES ANALISTA DO MP ATIVO BELO HORIZONTE - COMARCA; LAB TECNOLOGIA CONTRA LAVAGEM DINHEIRO 11.317,16 3.395,15 0,00 0,00 0,00 0,00 14.712,31 1.824,30 2.575,07 0,00 4.399,37 10.312,94 1.550,00 1.872,19 31/05/2019
681 524700 DENISE RAMOS GUIMARAES OFICIAL DO MP ATIVO BELO HORIZONTE - COMARCA; BH-07PJ 01 TRIBUNAL JURI-SECRETARIA 4.995,72 499,57 0,00 0,00 0,00 0,00 5.495,29 628,17 475,61 0,00 1.103,78 4.391,51 1.550,00 215,42 31/05/2019
682 239100 DENISE RIBEIRO DOS SANTOS CAETANO OFICIAL DO MP ATIVO ITANHANDU - COMARCA; ITANHANDU-PJ-SECRETARIA 10.279,98 3.083,99 0,00 0,00 0,00 0,00 13.363,97 1.572,19 2.349,33 0,00 3.921,52 9.442,45 1.550,00 928,66 31/05/2019
683 325500 DENISE ROSA TORRES ASSESSOR/OFICIAL ATIVO BELO HORIZONTE - COMARCA; DIRETORIA DE PESSOAL ADMINISTRATIVO - DPAD 0,00 2.122,93 10.614,65 0,00 0,00 0,00 12.737,58 1.197,46 2.315,86 0,00 3.513,32 9.224,26 1.550,00 499,32 31/05/2019
684 437200 DENISE VIVIANE DOS SANTOS ANALISTA DO MP ATIVO BELO HORIZONTE - COMARCA; ASSESS TECNICA DA CORREGEDORIA-GERAL DO MP 9.641,94 964,19 0,00 0,00 3.535,38 0,00 14.141,51 1.210,97 2.594,45 0,00 3.805,42 10.336,09 2.598,00 536,87 31/05/2019
685 267900 DENISIA DE ALMEIDA SALES OFICIAL DO MP ATIVO BELO HORIZONTE - COMARCA; CAO-CRIMINAL-SECRETARIA 8.214,70 2.464,41 0,00 0,00 0,00 0,00 10.679,11 1.298,11 1.692,22 0,00 2.990,33 7.688,78 1.550,00 1.121,91 31/05/2019
686 480300 DESIREE ARANTES FERREIRA GOUVEA OFICIAL DO MP ATIVO PRATÁPOLIS - COMARCA; PRATAPOLIS-PJ-UNPJ 5.158,42 515,84 0,00 0,00 0,00 0,00 5.674,26 667,55 519,41 0,00 1.186,96 4.487,30 1.550,00 394,39 31/05/2019
687 355300 DEYSE CRISTINA MORAIS OFICIAL DO MP ATIVO PASSOS - COMARCA; PASSOS-PJ-02PJ 7.823,48 1.564,70 0,00 0,00 0,00 0,00 9.388,18 1.074,46 1.428,40 0,00 2.502,86 6.885,32 1.550,00 379,63 31/05/2019
688 523700 DIANA CAMPOS RESENDE OFICIAL DO MP ATIVO SÃO JOÃO DEL REI - COMARCA; SAO JOAO DEL REI-PJ-04PJ 6.054,65 3.027,33 0,00 0,00 0,00 0,00 9.081,98 1.068,45 1.301,32 0,00 2.369,77 6.712,21 1.550,00 631,21 31/05/2019
689 241900 DIANA CARDOSO MARTINS OFICIAL DO MP ATIVO BELO HORIZONTE - COMARCA; BH-18PJ DIREITOS HUMANOS-SECRETARIA 7.955,66 2.386,70 0,00 0,00 0,00 0,00 10.342,36 1.185,72 1.661,93 0,00 2.847,65 7.494,71 1.550,00 436,91 31/05/2019
690 410100 DIANA GORDILHO SILVEIRA SENA ANALISTA DO MP ATIVO BELO HORIZONTE - COMARCA; ASSESS TECNICO-JUR JUNTO AS PROC. DE JUST 11.317,16 2.263,43 0,00 0,00 0,00 0,00 13.580,59 1.552,46 2.454,49 0,00 4.006,95 9.573,64 1.550,00 532,72 31/05/2019
691 553000 DIANA MARIA MARQUES ANALISTA DO MP ATIVO BETIM - COMARCA; BETIM-PJ-13PJ 6.882,47 688,25 0,00 0,00 0,00 0,00 7.570,72 869,50 931,44 0,00 1.800,94 5.769,78 1.550,00 333,78 31/05/2019
692 520000 DIARLE TOSTE DOS SANTOS ANALISTA DO MP ATIVO RIO POMBA - COMARCA; RIO POMBA-PJ-UNPJ 9.337,87 933,79 0,00 0,00 0,00 0,00 10.271,66 1.273,65 1.043,59 0,00 2.317,24 7.954,42 1.550,00 1.306,96 31/05/2019
693 539800 DIEGO CAMARGOS RODRIGUES OFICIAL DO MP ATIVO CONTAGEM - COMARCA; CONTAGEM-PJ-19PJ 4.838,22 483,82 0,00 0,00 0,00 0,00 5.322,04 651,46 433,21 0,00 1.084,67 4.237,37 1.550,00 600,41 31/05/2019
694 607300 DIEGO CERVEIRA DE SOUZA ANALISTA DO MP ATIVO PATOS DE MINAS - COMARCA; COORD REG BACIAS PARACATU,URUCUIA E ABAETE 7.576,76 757,68 0,00 0,00 0,00 0,00 8.334,44 1.029,20 1.170,49 0,00 2.199,69 6.134,75 1.550,00 1.021,94 31/05/2019
695 446900 DIEGO DE FREITAS OFICIAL DO MP ATIVO UBERABA - COMARCA; UBERABA-PJ-06PJ 6.665,41 666,54 0,00 0,00 0,00 0,00 7.331,95 862,57 925,14 0,00 1.787,71 5.544,24 1.550,00 509,58 31/05/2019
696 288800 DILENE NEPOMUCENO ALVES OFICIAL DO MP ATIVO BELO HORIZONTE - COMARCA; DIRETORIA DE PESSOAL ADMINISTRATIVO - DPAD 9.337,87 2.801,36 0,00 0,00 0,00 0,00 12.139,23 1.492,16 2.101,72 0,00 3.593,88 8.545,35 1.550,00 1.425,78 31/05/2019
697 270101 DILSON DO AMARAL ANALISTA DO MP ATIVO RIO CASCA - COMARCA; RIO CASCA-PJ-UNPJ 7.576,76 757,68 0,00 0,00 0,00 0,00 8.334,44 952,73 1.170,49 0,00 2.123,22 6.211,22 1.550,00 326,71 31/05/2019
698 466000 DIMITRI GUDE MARCIAL ANALISTA DO MP ATIVO NANUQUE - COMARCA; NANUQUE-PJ-02PJ 8.758,36 875,84 0,00 0,00 0,00 0,00 9.634,20 1.133,41 1.384,34 0,00 2.517,75 7.116,45 2.249,00 669,50 31/05/2019
699 516300 DINORA APARECIDA MACEDO BRANDAO ANALISTA DO MP ATIVO BELO HORIZONTE - COMARCA; ASSESS JUR DO CONS SUPERIOR DO MINISTERIO PUB 7.823,48 782,35 0,00 0,00 0,00 0,00 8.605,83 1.067,09 1.236,92 0,00 2.304,01 6.301,82 1.550,00 1.095,12 31/05/2019
700 511700 DIOGENES HENRIQUES PEREIRA LOURENCO ANALISTA DO MP ATIVO CONTAGEM - COMARCA; CONTAGEM-PJ-13PJ 9.337,87 933,79 0,00 0,00 0,00 0,00 10.271,66 1.273,65 1.644,63 0,00 2.918,28 7.353,38 1.550,00 1.306,96 31/05/2019
701 604100 DIOGO CESAR DE OLIVEIRA HONORIO ASSESSOR ATIVO PIUMHI - COMARCA; PIUMHI-PJ-02PJ 0,00 0,00 4.763,08 0,00 0,00 0,00 4.763,08 642,34 566,34 0,00 1.208,68 3.554,40 1.550,00 186,72 31/05/2019
702 387800 DIOGO FELIX DA SILVA OFICIAL DO MP ATIVO CONSELHEIRO PENA - COMARCA; CONSELHEIRO PENA-PJ-01PJ 6.665,41 1.333,08 0,00 0,00 0,00 0,00 7.998,49 940,99 1.088,27 0,00 2.029,26 5.969,23 1.875,36 555,91 31/05/2019
703 259600 DIOGO MESQUITA MAIA ANALISTA DO MP ATIVO BELO HORIZONTE - COMARCA; DIRET DE APOIO AS PROCURADORIAS DE JUSTICA 13.715,83 10.972,66 0,00 0,00 0,00 0,00 24.688,49 2.825,54 5.121,01 0,00 7.946,55 16.741,94 6.693,47 1.450,95 31/05/2019
704 386700 DIRCIMAR FERNANDES CARNEIRO OFICIAL DO MP ATIVO VISCONDE DO RIO BRANCO - COMARCA; VISCONDE DO RIO BRANCO-PJ-03PJ 7.337,85 5.136,51 0,00 0,00 0,00 0,00 12.474,36 1.456,31 2.183,74 0,00 3.640,05 8.834,31 1.608,10 764,90 31/05/2019
705 113800 DIRSON APARECIDO GUIMARAES ASSESSOR ATIVO BELO HORIZONTE - COMARCA; DIVISAO DE MANUTENCAO PREDIAL 0,00 4.286,77 4.763,08 0,00 0,00 0,00 9.049,85 642,34 1.745,21 0,00 2.387,55 6.662,30 1.550,00 354,77 31/05/2019
706 216700 DOMICIO VALDETE PEREIRA OFICIAL DO MP ATIVO TEÓFILO OTONI - COMARCA; COORD REG PJ DEF EDU DIR CRIAN ADOL JEQUI MUC 12.065,98 3.619,79 0,00 0,00 0,00 0,00 15.685,77 1.845,34 2.865,46 0,00 4.710,80 10.974,97 1.550,00 1.090,02 31/05/2019
707 192701 DONIZETTI APARECIDO AMORIM ANALISTA DO MP ATIVO PRATÁPOLIS - COMARCA; PRATAPOLIS-PJ-UNPJ 7.955,66 2.386,70 0,00 0,00 0,00 0,00 10.342,36 1.200,41 1.609,80 0,00 2.810,21 7.532,15 2.260,36 798,61 31/05/2019
708 558700 DORCILIA FATIMA DE OLIVEIRA OFICIAL DO MP ATIVO DIVINÓPOLIS - COMARCA; DIVINOPOLIS-PJ-02PJ 4.838,22 483,82 0,00 0,00 0,00 0,00 5.322,04 649,06 386,95 0,00 1.036,01 4.286,03 1.550,00 578,58 31/05/2019
709 555300 DOUGLAS CUNHA DE SOUZA ANALISTA DO MP ATIVO VARZEA DA PALMA - COMARCA; VARZEA DA PALMA-PJ-01PJ 7.576,76 757,68 0,00 0,00 0,00 0,00 8.334,44 1.029,20 1.170,49 0,00 2.199,69 6.134,75 1.550,00 1.021,94 31/05/2019
710 265900 DOUGLAS GOMES MOREIRA ANALISTA DO MP ATIVO BELO HORIZONTE - COMARCA; CENTRAL DE APOIO TECNICO-SETOR DE ENGENHARIA 14.941,94 4.482,58 0,00 0,00 0,00 0,00 19.424,52 2.216,96 3.884,79 0,00 6.101,75 13.322,77 1.550,00 729,65 31/05/2019
711 241000 DOUGLAS MEIRELLES DE CASTRO OFICIAL DO MP ATIVO CONCEIÇÃO DO RIO VERDE - COMARCA; CONCEICAO DO RIO VERDE-PJ-UNPJ 10.279,98 4.111,99 0,00 0,00 0,00 0,00 14.391,97 1.642,57 2.548,80 0,00 4.191,37 10.200,60 1.550,00 540,39 31/05/2019
712 534900 DOUGLAS SILVA E SOUZA ANALISTA DO MP ATIVO CAMPOS GERAIS - COMARCA; CAMPOS GERAIS-PJ-SECRETARIA 7.576,76 757,68 0,00 0,00 0,00 0,00 8.334,44 952,73 1.118,36 0,00 2.071,09 6.263,35 1.550,00 435,61 31/05/2019
713 630700 DOUGLAS TAVEIRA LEMOS DE OLIVEIRA ANALISTA DO MP ATIVO BELO HORIZONTE - COMARCA; BH-18PJ VIOLENCIA DOMESTICA 6.882,47 412,95 0,00 0,00 0,00 0,00 7.295,42 858,27 916,19 0,00 1.774,46 5.520,96 1.550,00 507,04 31/05/2019
714 638900 DOUGLAS WALLAS CONCEICAO NEVES OFICIAL DO MP ATIVO RIBEIRÃO DAS NEVES - COMARCA; RIBEIRAO DAS NEVES-PJ-SEC CIVEL 3.930,12 235,81 0,00 0,00 0,00 0,00 4.165,93 513,26 201,35 0,00 714,61 3.451,32 1.550,00 500,15 31/05/2019
715 146800 DUCINALVA AMARAL LOPES REIS OFICIAL DO MP ATIVO PARAISÓPOLIS - COMARCA; PARAISOPOLIS-PJ-UNPJ 14.941,94 10.459,36 0,00 0,00 0,00 0,00 25.401,30 3.005,92 5.243,33 0,00 8.249,25 17.152,05 1.550,00 1.925,19 31/05/2019
716 122500 DUILIO CARLOS FERREIRA UTSCH OFICIAL DO MP ATIVO CONCEIÇÃO DO MATO DENTRO - COMARCA; CONCEICAO DO MATO DENTRO-PJ-UNPJ 12.065,98 9.652,78 0,00 0,00 0,00 0,00 21.718,76 2.555,09 4.446,31 0,00 7.001,40 14.717,36 1.550,00 1.509,26 31/05/2019
717 201800 DULCINEIA ANDRE DE SOUZA OFICIAL DO MP ATIVO JEQUITINHONHA - COMARCA; JEQUITINHONHA-PJ-SECRETARIA 12.065,98 3.619,79 0,00 0,00 0,00 0,00 15.685,77 1.845,34 2.761,18 0,00 4.606,52 11.079,25 1.550,00 1.090,02 31/05/2019
718 395800 DUVIDIER MEDIRCIO JUNIOR ANALISTA DO MP ATIVO BELO HORIZONTE - COMARCA; CENTRAL DE APOIO TECNICO-SETOR DE ENGENHARIA 12.458,83 2.491,77 0,00 0,00 0,00 0,00 14.950,60 1.714,45 2.789,80 0,00 4.504,25 10.446,35 1.550,00 635,30 31/05/2019
719 604800 ECIA RAMILIS ISSA DE ABREU ANALISTA DO MP ATIVO BOCAIÚVA - COMARCA; BOCAIUVA-PJ-02PJ 7.576,76 757,68 0,00 0,00 0,00 0,00 8.334,44 1.099,86 1.170,49 0,00 2.270,35 6.064,09 1.550,00 1.664,28 31/05/2019
720 273000 EDELFINA APARECIDA GUIMARAES OFICIAL DO MP ATIVO CACHOEIRA DE MINAS - COMARCA; CACHOEIRA DE MINAS-PJ-UNPJ 9.043,46 6.330,43 0,00 0,00 5.124,63 0,00 20.498,52 1.759,27 4.250,54 0,00 6.009,81 14.488,71 1.550,00 619,42 31/05/2019
721 523300 EDER DOS SANTOS PATRICIO ANALISTA DO MP ATIVO NOVA SERRANA - COMARCA; NOVA SERRANA-PJ-03PJ 8.482,22 848,22 0,00 0,00 0,00 0,00 9.330,44 1.066,59 1.414,26 0,00 2.480,85 6.849,59 1.550,00 365,76 31/05/2019
722 356700 EDER JOSE PACHECO OFICIAL DO MP ATIVO CAMPO BELO - COMARCA; CAMPO BELO-PJ-SECRETARIA 7.955,66 1.591,13 0,00 0,00 0,00 0,00 9.546,79 1.091,32 1.362,94 0,00 2.454,26 7.092,53 2.717,95 374,24 31/05/2019
723 507900 EDERSON SILVA LOPES OFICIAL DO MP ATIVO BELO HORIZONTE - COMARCA; DIR ANALISES TECNOLOGIA INTELIGENCIA 5.499,78 549,98 0,00 0,00 0,00 0,00 6.049,76 750,15 507,05 0,00 1.257,20 4.792,56 2.249,00 769,89 31/05/2019
724 296200 EDGARD GOULART MATOSINHO DE LAET JR ANALISTA DO MP ATIVO GOVERNADOR VALADARES - COMARCA; GAECO REGIONAL DE GOVERNADOR VALADARES 13.715,83 4.114,75 0,00 0,00 0,00 0,00 17.830,58 2.034,57 3.338,26 0,00 5.372,83 12.457,75 1.756,46 665,55 31/05/2019
725 295000 EDILA MARIA DA SILVEIRA OFICIAL DO MP ATIVO FORMIGA - COMARCA; FORMIGA-PJ-04PJ 7.337,85 2.201,36 0,00 0,00 0,00 0,00 9.539,21 1.116,62 1.465,36 0,00 2.581,98 6.957,23 1.550,00 815,89 31/05/2019
726 332300 EDILA MARILAC MIRANDA PRADO OFICIAL DO MP ATIVO DIAMANTINA - COMARCA; COORD REG BACIAS RIOS JEQUITINHONHA E MUCURI 8.758,36 4.379,18 0,00 0,00 0,00 0,00 13.137,54 1.616,78 2.241,78 0,00 3.858,56 9.278,98 2.948,00 1.560,40 31/05/2019
727 376600 EDILANE CONSOLACAO ROSA NAZARETH ANALISTA DO MP ATIVO BETIM - COMARCA; BETIM-PJ-10PJ 11.685,57 2.337,11 0,00 0,00 4.674,23 0,00 18.696,91 1.649,68 3.848,11 0,00 5.497,79 13.199,12 1.550,00 974,48 31/05/2019
728 301500 EDILENE APARECIDA DE CARVALHO ANALISTA DO MP ATIVO BELO HORIZONTE - COMARCA; DIRETORIA DE ADMINISTRACAO FINANCEIRA 13.715,83 4.114,75 0,00 0,00 0,00 0,00 17.830,58 2.034,57 3.442,54 0,00 5.477,11 12.353,47 1.550,81 665,55 31/05/2019
729 309800 EDILZA DOS REIS OFICIAL DO MP ATIVO UBERLÂNDIA - COMARCA; UBERLANDIA-PJ-03PJ 9.043,46 1.808,69 0,00 0,00 0,00 0,00 10.852,15 1.276,70 1.786,70 0,00 3.063,40 7.788,75 1.550,00 754,14 31/05/2019
730 200500 EDINEIA MARIA DE OLIVEIRA ANTUNES OFICIAL DO MP ATIVO MONTES CLAROS - COMARCA; MONTES CLAROS-PJ-10PJ 12.065,98 4.826,39 0,00 0,00 0,00 0,00 16.892,37 1.933,30 3.265,05 0,00 5.198,35 11.694,02 4.359,57 930,82 31/05/2019
731 427700 EDISANGELA SOARES LOPES OFICIAL DO MP ATIVO PIRAPORA - COMARCA; PIRAPORA-PJ-02PJ 5.678,79 1.135,76 0,00 0,00 0,00 0,00 6.814,55 776,54 798,50 0,00 1.575,04 5.239,51 1.550,00 244,87 31/05/2019
732 555400 EDISON MONTEIRO SAMPAIO NETO ANALISTA DO MP ATIVO BELO HORIZONTE - COMARCA; BH-12PJ JUIZO CRIMINAL-GAB 094PJ 7.576,76 757,68 0,00 0,00 0,00 0,00 8.334,44 1.029,20 1.170,49 0,00 2.199,69 6.134,75 1.550,00 1.021,94 31/05/2019
733 517700 EDMILSON TADEU FERNANDES OFICIAL DO MP ATIVO POUSO ALEGRE - COMARCA; POUSO ALEGRE-PJ-SECRETARIA 5.863,71 586,37 0,00 0,00 0,00 0,00 6.450,08 779,63 709,30 0,00 1.488,93 4.961,15 1.550,00 637,48 31/05/2019
734 358400 EDNA APARECIDA SILVA FERREIRA OFICIAL DO MP ATIVO CORONEL FABRICIANO - COMARCA; CORONEL FABRICIANO-PJ-02PJ 7.955,66 1.591,13 0,00 0,00 0,00 0,00 9.546,79 1.169,67 1.467,22 0,00 2.636,89 6.909,90 1.550,00 1.086,54 31/05/2019
735 331800 EDNA MARCIA CAMILO DA SILVA OFICIAL DO MP ATIVO SETE LAGOAS - COMARCA; SETE LAGOAS-PJ-SEC CRIMINAIS 8.482,22 1.696,44 0,00 0,00 0,00 0,00 10.178,66 1.197,46 1.569,73 0,00 2.767,19 7.411,47 1.550,00 707,46 31/05/2019
736 422800 EDNILSON DE SOUZA FERREIRA ASSESSOR ATIVO BELO HORIZONTE - COMARCA; EXTINTA - DIVISAO DE TRANSPORTES 0,00 0,00 2.852,73 0,00 0,00 0,00 2.852,73 447,10 114,17 0,00 561,27 2.291,46 1.550,00 111,83 31/05/2019
737 327900 EDRIEL SANTANA PEREIRA OFICIAL DO MP ATIVO TUPACIGUARA - COMARCA; TUPACIGUARA-PJ-UNPJ 8.482,22 1.696,44 0,00 0,00 0,00 0,00 10.178,66 1.197,46 1.621,87 0,00 2.819,33 7.359,33 3.048,24 707,46 31/05/2019
738 482400 EDSON GARCIA OFICIAL DO MP ATIVO MACHADO - COMARCA; MACHADO-PJ-02PJ 4.995,72 499,57 0,00 0,00 0,00 0,00 5.495,29 628,17 378,99 0,00 1.007,16 4.488,13 2.249,00 215,42 31/05/2019
739 225601 EDSON LABRE FILHO ANALISTA DO MP ATIVO VARGINHA - COMARCA; VARGINHA-PJ-01PJ 13.715,83 4.114,75 0,00 0,00 0,00 0,00 17.830,58 2.040,66 3.442,54 0,00 5.483,20 12.347,38 1.550,88 721,01 31/05/2019
740 602700 EDSON NOGUEIRA BUENO OFICIAL DO MP ATIVO PITANGUI - COMARCA; PITANGUI-PJ-01PJ 4.467,49 446,75 0,00 0,00 0,00 0,00 4.914,24 606,86 347,95 0,00 954,81 3.959,43 1.550,00 602,64 31/05/2019
741 414400 EDUARDO ABRANTES CAMPOS ANALISTA DO MP ATIVO SÃO JOÃO DEL REI - COMARCA; SAO JOAO DEL REI-PJ-02PJ 11.317,16 2.263,43 0,00 0,00 4.526,86 0,00 18.107,45 1.552,46 3.699,38 0,00 5.251,84 12.855,61 1.550,00 532,72 31/05/2019
742 476800 EDUARDO ALVES DE MOURA ANALISTA DO MP ATIVO UBERLÂNDIA - COMARCA; UBERLANDIA-PJ-05PJ 9.337,87 933,79 0,00 0,00 0,00 0,00 10.271,66 1.174,18 1.488,22 0,00 2.662,40 7.609,26 2.249,00 402,65 31/05/2019
743 390800 EDUARDO AMORIM PETTERSEN OFICIAL DO MP ATIVO CARANGOLA - COMARCA; CARANGOLA-PJ-03PJ 7.106,49 1.421,30 0,00 0,00 0,00 0,00 8.527,79 1.003,25 1.217,82 0,00 2.221,07 6.306,72 2.249,00 592,60 31/05/2019
744 461600 EDUARDO ANTONIO DE ASSIS FARIA ASSESSOR ATIVO BELO HORIZONTE - COMARCA; ASSESS EXECUTIVA DO CONSELHO SUPERIOR DO MP 0,00 0,00 7.576,76 0,00 0,00 0,00 7.576,76 642,34 1.235,83 0,00 1.878,17 5.698,59 2.249,00 186,72 31/05/2019
745 248800 EDUARDO DE CASTRO AMORIM ANALISTA DO MP ATIVO BELO HORIZONTE - COMARCA; SUPERINTENDENCIA DE RECURSOS HUMANOS 16.148,50 4.844,55 0,00 0,00 0,00 0,00 20.993,05 2.484,25 4.268,69 0,00 6.752,94 14.240,11 1.613,63 1.591,02 31/05/2019
746 209100 EDUARDO DE SOUZA MAIA ANALISTA DO MP ATIVO BELO HORIZONTE - COMARCA; ASSESS TECNICO-JUR JUNTO AS PROC. DE JUST 17.452,52 5.235,76 0,00 0,00 0,00 0,00 22.688,28 2.593,55 4.527,19 0,00 7.120,74 15.567,54 1.550,00 889,40 31/05/2019
747 633900 EDUARDO GONCALVES PIRES OFICIAL DO MP ATIVO BELO HORIZONTE - COMARCA; BH-19PJ SAUDE-SECRETARIA 150PJ 4.763,08 1.428,92 0,00 0,00 0,00 0,00 6.192,00 707,82 646,13 0,00 1.353,95 4.838,05 1.550,00 242,73 31/05/2019
748 350500 EDUARDO GONCALVES RIBEIRO OFICIAL DO MP ATIVO VESPASIANO - COMARCA; VESPASIANO-PJ-04PJ 7.337,85 1.467,57 0,00 0,00 0,00 0,00 8.805,42 1.007,77 1.285,77 0,00 2.293,54 6.511,88 1.550,00 356,06 31/05/2019
749 115800 EDUARDO HENRIQUE DE CAMPOS MAIA OFICIAL DO MP ATIVO BELO HORIZONTE - COMARCA; EXTINTA - DIVISAO DE SERVICOS GERAIS 13.715,83 6.857,91 0,00 0,00 0,00 0,00 20.573,74 2.420,40 4.009,65 0,00 6.430,05 14.143,69 2.430,14 1.505,31 31/05/2019
750 392600 EDUARDO HENRIQUE DOS SANTOS COSTA ELIAZAR OFICIAL DO MP ATIVO MATOZINHOS - COMARCA; MATOZINHOS-PJ-01PJ 6.882,47 1.376,49 0,00 0,00 0,00 0,00 8.258,96 947,10 995,61 0,00 1.942,71 6.316,25 2.249,00 350,96 31/05/2019
751 122900 EDUARDO JOSE COSTA SILVA OFICIAL DO MP ATIVO SETE LAGOAS - COMARCA; SETE LAGOAS-PJ-04PJ 17.452,52 13.962,02 0,00 0,00 0,00 0,00 31.414,54 3.487,28 6.819,35 943,50 11.250,13 20.164,41 6.773,37 1.541,27 31/05/2019
752 407500 EDUARDO MASCARENHAS CURI AZEVEDO ANALISTA DO MP ATIVO BELO HORIZONTE - COMARCA; DIRETORIA DE IMPRENSA 9.337,87 1.867,57 0,00 0,00 0,00 0,00 11.205,44 1.276,90 1.873,17 0,00 3.150,07 8.055,37 1.550,00 402,65 31/05/2019
753 601300 EDUARDO TRAD VIEIRA OFICIAL DO MP ATIVO IBIRITÉ - COMARCA; IBIRITE-PJ-03PJ 4.467,49 268,05 0,00 0,00 0,00 0,00 4.735,54 601,54 312,16 0,00 913,70 3.821,84 1.550,00 732,90 31/05/2019
754 257600 EDUARDO VALADARES CABRAL ANALISTA DO MP ATIVO BELO HORIZONTE - COMARCA; PROC. JUSTICA DIR. DIFUSOS E COLETIVOS-SEC 12.864,49 3.859,35 0,00 0,00 0,00 0,00 16.723,84 2.073,71 3.223,80 0,00 5.297,51 11.426,33 1.550,00 2.128,07 31/05/2019
755 545700 EDVAIR FERREIRA DE CARVALHO OFICIAL DO MP ATIVO ARAGUARI - COMARCA; ARAGUARI-PJ-06PJ 4.467,49 446,75 0,00 0,00 0,00 0,00 4.914,24 561,76 262,63 0,00 824,39 4.089,85 1.550,00 192,64 31/05/2019
756 401700 EDWANIA AMORIM DO CARMO OFICIAL DO MP ATIVO RIBEIRÃO DAS NEVES - COMARCA; RIBEIRAO DAS NEVES-PJ-03PJ 7.337,85 1.467,57 0,00 0,00 0,00 0,00 8.805,42 1.030,29 1.285,77 0,00 2.316,06 6.489,36 1.550,00 560,93 31/05/2019
757 303600 EFIGENIO SARAIVA LOPES ANALISTA DO MP ATIVO BELO HORIZONTE - COMARCA; DIRETORIA DE PAGAMENTO DE PESSOAL-DPAG 14.941,94 4.482,58 0,00 0,00 0,00 0,00 19.424,52 2.216,96 3.780,52 0,00 5.997,48 13.427,04 6.988,87 1.228,21 31/05/2019
758 312000 ELAINE APARECIDA DE ARAUJO RODRIGUES OFICIAL DO MP ATIVO DIVINÓPOLIS - COMARCA; DIVINOPOLIS-PJ-02PJ 8.214,70 6.571,76 0,00 0,00 0,00 1.626,51 16.412,97 1.733,27 3.196,92 0,00 4.930,19 11.482,78 1.550,00 1.077,30 31/05/2019
759 286000 ELAINE APARECIDA SILVA BERZOINI OFICIAL DO MP ATIVO JUIZ DE FORA - COMARCA; JUIZ DE FORA-PJ-07PJ 9.337,87 2.801,36 0,00 0,00 0,00 0,00 12.139,23 1.492,16 2.101,72 0,00 3.593,88 8.545,35 1.550,00 1.425,78 31/05/2019
760 509000 ELAINE CANDIDA PONTES OFICIAL DO MP ATIVO BELO HORIZONTE - COMARCA; BH-02PJ FAMILIA-SECRETARIA 5.863,71 586,37 0,00 0,00 0,00 0,00 6.450,08 794,19 709,30 0,00 1.503,49 4.946,59 1.550,00 769,89 31/05/2019
761 283601 ELAINE CRISTINA MEQUELINO DUARTE ANALISTA DO MP ATIVO ALFENAS - COMARCA; ALFENAS-PJ-04PJ 11.685,57 2.337,11 0,00 0,00 0,00 0,00 14.022,68 1.649,68 2.458,42 0,00 4.108,10 9.914,58 2.249,00 974,48 31/05/2019
762 535500 ELAINE DE OLIVEIRA CAMPOS REIS OFICIAL DO MP ATIVO RIBEIRÃO DAS NEVES - COMARCA; SEC PJ EXECUCAO PENAL RIBEIRAO NEVES 4.838,22 483,82 0,00 0,00 0,00 0,00 5.322,04 608,37 433,21 0,00 1.041,58 4.280,46 1.550,00 278,17 31/05/2019
763 455700 ELAINE DE OLIVEIRA CASTRO ANALISTA DO MP ATIVO POMPÉU - COMARCA; POMPEU-PJ-UNPJ 8.758,36 875,84 0,00 0,00 0,00 0,00 9.634,20 1.133,41 1.436,47 0,00 2.569,88 7.064,32 2.249,00 669,50 31/05/2019
764 367200 ELAINE MUNIZ BARBOSA ANALISTA DO MP ATIVO BELO HORIZONTE - COMARCA; DIRETORIA DE SISTEMAS DE INFORMACAO 12.065,98 2.413,20 0,00 0,00 0,00 0,00 14.479,18 1.657,12 2.674,42 0,00 4.331,54 10.147,64 2.249,00 585,48 31/05/2019
765 176900 ELAINE RIBEIRO TAVEIRA OFICIAL DO MP ATIVO BELO HORIZONTE - COMARCA; DIRETORIA DE PESSOAL ADMINISTRATIVO - DPAD 10.614,65 4.245,86 0,00 0,00 0,00 0,00 14.860,51 1.696,04 2.767,75 0,00 4.463,79 10.396,72 1.550,00 557,99 31/05/2019
766 496200 ELAINE SABRINA MOREIRA SCHUWARTEN ANALISTA DO MP ATIVO CORONEL FABRICIANO - COMARCA; CORONEL FABRICIANO-PJ-03PJ 9.337,87 933,79 0,00 0,00 0,00 0,00 10.271,66 1.273,65 1.644,63 0,00 2.918,28 7.353,38 1.550,00 1.306,96 31/05/2019
767 489200 ELAINE VICENTINO GARCIA ANALISTA DO MP ATIVO BELO HORIZONTE - COMARCA; CENTRAL DE APOIO TECNICO-SETOR CONTABIL 9.337,87 2.801,36 0,00 0,00 0,00 0,00 12.139,23 1.505,23 1.997,44 0,00 3.502,67 8.636,56 1.550,00 1.544,59 31/05/2019
768 244500 ELCI ALVES DE SOUZA ASSESSOR ATIVO BELO HORIZONTE - COMARCA; CAO-CONFLITOS AGRARIOS-SECRETARIA 0,00 1.428,92 4.763,08 0,00 0,00 0,00 6.192,00 642,34 907,16 0,00 1.549,50 4.642,50 1.550,00 242,73 31/05/2019
769 472500 ELCI VAZ DE OLIVEIRA FILHO ANALISTA DO MP ATIVO PIUMHI - COMARCA; PIUMHI-PJ-02PJ 9.337,87 4.668,94 0,00 0,00 0,00 0,00 14.006,81 1.597,13 2.558,81 0,00 4.155,94 9.850,87 1.550,00 512,47 31/05/2019
770 385200 ELCI VIANA REIS OFICIAL DO MP ATIVO RIO PARDO DE MINAS - COMARCA; RIO PARDO DE MINAS-PJ-SECRETARIA 7.337,85 2.935,14 0,00 0,00 0,00 0,00 10.272,99 1.175,73 1.644,95 0,00 2.820,68 7.452,31 1.550,00 415,41 31/05/2019
771 289801 ELCIO JOSE DOS SANTOS ASSESSOR/ANALISTA ATIVO BELO HORIZONTE - COMARCA; EXTINTA - DIRETORIA SERVIÇOS GERAIS E TRANS 0,00 1.168,56 11.685,57 0,00 0,00 0,00 12.854,13 1.174,18 2.354,81 0,00 3.528,99 9.325,14 1.550,00 503,89 31/05/2019
772 319600 ELEN TULER DE ALBERGARIA ANALISTA DO MP ATIVO BELO HORIZONTE - COMARCA; BH-19PJ SAUDE 12.065,98 4.826,39 0,00 0,00 0,00 0,00 16.892,37 2.077,72 3.265,05 0,00 5.342,77 11.549,60 2.249,00 1.995,96 31/05/2019
773 151000 ELI LOURENCO RIBEIRO AGENTE DO MP ATIVO BELO HORIZONTE - COMARCA; BH-19PJ SAUDE 9.641,94 4.820,97 0,00 0,00 0,00 0,00 14.462,91 1.647,30 2.084,27 0,00 3.731,57 10.731,34 1.550,00 512,47 31/05/2019
774 205500 ELIANA ALVES DE SOUSA OFICIAL DO MP ATIVO GOVERNADOR VALADARES - COMARCA; GOVERNADOR VALADARES-PJ-07PJ 8.214,70 2.464,41 0,00 0,00 0,00 0,00 10.679,11 1.222,20 1.744,35 0,00 2.966,55 7.712,56 1.550,00 431,83 31/05/2019
775 628800 ELIANA APARECIDA PEREIRA ANALISTA DO MP ATIVO CAMBUÍ - COMARCA; CAMBUI-PJ-02PJ 6.251,74 375,10 0,00 0,00 0,00 0,00 6.626,84 779,61 700,42 0,00 1.480,03 5.146,81 1.550,00 460,50 31/05/2019
776 301700 ELIANA DA SILVEIRA ANALISTA DO MP ATIVO BELO HORIZONTE - COMARCA; ASSESS TECNICO-JUR JUNTO AS PROC. DE JUST 13.283,29 3.984,99 0,00 0,00 0,00 0,00 17.268,28 2.122,63 3.357,05 0,00 5.479,68 11.788,60 2.117,94 2.028,36 31/05/2019
777 103400 ELIANA DE FARIA MORAIS JOTTA OFICIAL DO MP ATIVO BELO HORIZONTE - COMARCA; DIRET DE PESSOAL DO MINISTERIO PUBLICO - DPMP 22.903,10 11.451,55 0,00 0,00 0,00 0,00 34.354,65 3.779,01 7.486,80 0,00 11.265,81 23.088,84 7.046,74 503,87 31/05/2019
778 251500 ELIANA DE LIMA MILAGRES FONSECA ANALISTA DO MP ATIVO CONTAGEM - COMARCA; CONTAGEM-PJ-21PJ 13.283,29 3.984,99 0,00 0,00 0,00 0,00 17.268,28 2.031,51 3.252,78 0,00 5.284,29 11.983,99 1.550,00 1.200,04 31/05/2019
779 503900 ELIANA DIAS DUTRA FERREIRA OFICIAL DO MP ATIVO GOVERNADOR VALADARES - COMARCA; GOVERNADOR VALADARES-PJ-10PJ 6.251,74 625,17 0,00 0,00 0,00 0,00 6.876,91 809,03 709,49 0,00 1.518,52 5.358,39 0,00 477,88 31/05/2019
780 413900 ELIANA PINTO DE OLIVEIRA NEVES ANALISTA DO MP ATIVO CAMPO BELO - COMARCA; CAMPO BELO-PJ-03PJ 10.279,98 2.056,00 0,00 0,00 0,00 0,00 12.335,98 1.443,39 2.149,87 0,00 3.593,26 8.742,72 2.249,00 785,80 31/05/2019
781 228200 ELIANA RODRIGUES DA CUNHA PINHEIRO OFICIAL DO MP ATIVO BELO HORIZONTE - COMARCA; DIVISAO DE CONTROLE IMOBILIARIO 10.279,98 3.083,99 0,00 0,00 0,00 1.470,04 14.834,01 1.572,19 2.805,73 0,00 4.377,92 10.456,09 1.550,00 1.030,81 31/05/2019
782 386600 ELIANA SABINO CHAVES PESSOA ANALISTA DO MP ATIVO CARATINGA - COMARCA; CARATINGA-PJ-06PJ 11.317,16 7.922,02 0,00 0,00 0,00 0,00 19.239,18 2.196,22 3.787,29 0,00 5.983,51 13.255,67 7.162,33 1.220,26 31/05/2019
783 297400 ELIANE AUGUSTA RIBEIRO COSTA ANALISTA DO MP ATIVO CONSELHEIRO LAFAIETE - COMARCA; CONSELHEIRO LAFAIETE-PJ-05PJ 14.162,21 4.248,66 0,00 0,00 0,00 0,00 18.410,87 2.155,09 3.480,29 0,00 5.635,38 12.775,49 1.550,00 1.180,86 31/05/2019
784 510600 ELIANE CAROLINA MAIA ANALISTA DO MP ATIVO IGARAPÉ - COMARCA; IGARAPE-PJ-02PJ 9.337,87 933,79 0,00 0,00 0,00 0,00 10.271,66 1.273,65 1.488,22 0,00 2.761,87 7.509,79 1.550,00 1.306,96 31/05/2019
785 269300 ELIANE EDLAMAR ROCHA OFICIAL DO MP ATIVO PEDRO LEOPOLDO - COMARCA; PEDRO LEOPOLDO-PJ-02PJ 8.482,22 1.696,44 0,00 0,00 0,00 0,00 10.178,66 1.164,93 1.569,73 0,00 2.734,66 7.444,00 2.249,00 411,59 31/05/2019
786 262600 ELIANE FERREIRA SOARES ASSESSOR ATIVO BELO HORIZONTE - COMARCA; BH-18PJ DIREITOS HUMANOS-SECRETARIA 0,00 1.905,23 4.763,08 0,00 2.222,77 0,00 8.891,08 642,34 1.649,41 0,00 2.291,75 6.599,33 1.550,00 242,73 31/05/2019
787 204400 ELIANE GLAUCE DE QUEIROS MAIA OFICIAL DO MP ATIVO GUANHÃES - COMARCA; GUANHAES-PJ-02PJ 12.065,98 3.619,79 0,00 0,00 0,00 0,00 15.685,77 1.845,34 2.969,73 0,00 4.815,07 10.870,70 2.249,00 1.090,02 31/05/2019
788 91800 ELIANE KAPLER ALVES OFICIAL DO MP ATIVO BELO HORIZONTE - COMARCA; DIVISAO DE CONTROLE IMOBILIARIO 16.787,84 8.393,92 0,00 0,00 0,00 0,00 25.181,76 2.878,58 5.189,60 0,00 8.068,18 17.113,58 6.783,78 1.448,82 31/05/2019
789 334200 ELIANE MARCIA DE OLIVEIRA BRITO OFICIAL DO MP ATIVO BELO HORIZONTE - COMARCA; BH-08PJ JUIZADO ESPECIAL-SECRETARIA 5.678,79 1.135,76 0,00 0,00 0,00 0,00 6.814,55 778,99 798,50 0,00 1.577,49 5.237,06 1.550,00 267,13 31/05/2019
790 365900 ELIANE MARIA DE OLIVEIRA FERREIRA OFICIAL DO MP ATIVO SETE LAGOAS - COMARCA; SETE LAGOAS-PJ-SEC CRIMINAIS 8.214,70 4.107,35 0,00 0,00 0,00 0,00 12.322,05 1.443,35 2.146,46 0,00 3.589,81 8.732,24 1.550,00 799,26 31/05/2019
791 320600 ELIANE STADLER DE SOUZA OFICIAL DO MP ATIVO FRANCISCO SÁ - COMARCA; FRANCISCO SA-PJ-SECRETARIA 7.637,43 1.591,13 0,00 0,00 0,00 0,00 9.228,56 1.094,52 1.327,57 0,00 2.422,09 6.806,47 1.550,00 403,30 31/05/2019
792 448900 ELIAS PEREIRA OTONI ASSESSOR ATIVO BELO HORIZONTE - COMARCA; BH-18PJ DIREITOS HUMANOS 0,00 0,00 4.763,08 0,00 0,00 0,00 4.763,08 642,34 462,07 0,00 1.104,41 3.658,67 1.550,00 186,72 31/05/2019
793 495400 ELICA SOUZA GASPARONI MATTOS OFICIAL DO MP ATIVO UBÁ - COMARCA; UBA-PJ-06PJ 6.251,74 625,17 0,00 0,00 0,00 0,00 6.876,91 809,03 813,76 0,00 1.622,79 5.254,12 1.550,00 477,88 31/05/2019
794 86600 ELIENE FERREIRA DA SILVA OFICIAL DO MP ATIVO BELO HORIZONTE - COMARCA; BH-22PJ PES COM DEF E IDOSOS 19.608,56 13.725,99 0,00 0,00 0,00 0,00 33.334,55 3.666,80 7.132,86 0,00 10.799,66 22.534,89 6.883,53 488,91 31/05/2019
795 183800 ELIENE MARIA CUNHA OFICIAL DO MP ATIVO BELO HORIZONTE - COMARCA; DIRETORIA DE PESSOAL ADMINISTRATIVO - DPAD 13.283,29 3.984,99 0,00 0,00 0,00 0,00 17.268,28 2.141,23 3.304,91 0,00 5.446,14 11.822,14 1.550,00 2.197,40 31/05/2019
796 172300 ELINA APARECIDA SILVA ASSESSOR ATIVO BELO HORIZONTE - COMARCA; BH-19PJ SAUDE-SECRETARIA 130PJ 0,00 1.141,09 2.852,73 0,00 0,00 0,00 3.993,82 576,31 294,99 0,00 871,30 3.122,52 1.550,00 145,38 31/05/2019
797 492501 ELINE CAMPOS DA FONSECA CUNHA ANALISTA DO MP ATIVO PONTE NOVA - COMARCA; PONTE NOVA-PJ-02PJ 7.576,76 757,68 0,00 0,00 0,00 0,00 8.334,44 980,50 1.170,49 0,00 2.150,99 6.183,45 1.550,00 579,23 31/05/2019
798 618900 ELISA MOURA VIEIRA MARCATTI OFICIAL DO MP ATIVO BELO HORIZONTE - COMARCA; BH-23PJ CIVEL-SEC EXP CIVEIS 4.467,49 268,05 0,00 0,00 0,00 0,00 4.735,54 557,12 312,16 0,00 869,28 3.866,26 1.550,00 329,13 31/05/2019
799 256500 ELISABETE NOGUEIRA ANALISTA DO MP ATIVO RIBEIRÃO DAS NEVES - COMARCA; SEC PJ EXECUCAO PENAL RIBEIRAO NEVES 12.864,49 6.432,25 0,00 0,00 6.432,25 0,00 25.728,99 2.374,74 5.465,97 0,00 7.840,71 17.888,28 1.550,00 2.291,78 31/05/2019
800 355000 ELISANGELA DARLANTONI RIBEIRO OFICIAL DO MP ATIVO ARAXÁ - COMARCA; ARAXA-PJ-05PJ 7.576,76 1.515,35 0,00 0,00 0,00 0,00 9.092,11 1.127,40 1.303,80 0,00 2.431,20 6.660,91 2.249,00 1.156,92 31/05/2019
801 604400 ELISANGELA DEMASI FERREIRA MOREIRA ANALISTA DO MP ATIVO POÇOS DE CALDAS - COMARCA; POCOS DE CALDAS-PJ-06PJ 7.576,76 757,68 0,00 0,00 0,00 0,00 8.334,44 1.029,20 1.170,49 0,00 2.199,69 6.134,75 2.249,00 1.021,94 31/05/2019
802 323800 ELISANGELA GONCALVES DE JESUS OFICIAL DO MP ATIVO BELO HORIZONTE - COMARCA; BH-09PJ AUDITORIA MILITAR-SECRETARIA 8.214,70 1.642,94 0,00 0,00 0,00 0,00 9.857,64 1.207,75 1.491,16 0,00 2.698,91 7.158,73 2.249,00 1.121,91 31/05/2019
803 507400 ELISANGELA MIGUEL DA ROCHA SILVA ASSESSOR ATIVO BELO HORIZONTE - COMARCA; CGMP-DIVIS DE APOIO FISC ORIENTACAO FUNCIONAL 0,00 0,00 2.852,73 0,00 0,00 0,00 2.852,73 447,10 142,61 0,00 589,71 2.263,02 2.249,00 111,83 31/05/2019
804 261400 ELISANGELA REZENDE MENDES OFICIAL DO MP ATIVO POUSO ALEGRE - COMARCA; POUSO ALEGRE-PJ-05PJ 8.758,36 2.627,51 0,00 0,00 0,00 0,00 11.385,87 1.415,27 1.917,33 0,00 3.332,60 8.053,27 1.550,00 1.480,13 31/05/2019
805 534100 ELISANGELA ROSINE SILVA OFICIAL DO MP ATIVO UBERABA - COMARCA; UBERABA-PJ-06PJ 4.467,49 446,75 0,00 0,00 0,00 0,00 4.914,24 561,76 347,95 0,00 909,71 4.004,53 1.550,00 192,64 31/05/2019
806 634300 ELIUDE GRACA DAMASIO ROSARIO FRANCELINO OFICIAL DO MP ATIVO BELO HORIZONTE - COMARCA; EXTINTA-DEF DIREIT HUM-COMB A VIOL DOMEST-18 3.930,12 235,81 0,00 0,00 0,00 0,00 4.165,93 476,22 201,35 0,00 677,57 3.488,36 2.249,00 163,30 31/05/2019
807 461700 ELIZABETH ALEIXO DA PAZ ANALISTA DO MP ATIVO JUIZ DE FORA - COMARCA; JUIZ DE FORA-PJ-24PJ 9.337,87 933,79 0,00 0,00 0,00 0,00 10.271,66 1.174,18 1.644,63 0,00 2.818,81 7.452,85 1.550,00 402,65 31/05/2019
808 227300 ELIZABETH COIMBRA FELIX ASSESSOR/OFICIAL ATIVO BELO HORIZONTE - COMARCA; DIRETORIA DE PAGAMENTO DE PESSOAL-DPAG 11.317,16 6.863,97 0,00 0,00 0,00 0,00 18.181,13 1.817,20 3.546,90 0,00 5.364,10 12.817,03 1.552,28 786,58 31/05/2019
809 354800 ELIZABETH DOS REIS OFICIAL DO MP ATIVO BELO HORIZONTE - COMARCA; EXTINTA - DIVISÃO DE MATERIAL PERMANENTE 8.214,70 1.642,94 0,00 0,00 0,00 0,00 9.857,64 1.159,70 1.491,16 0,00 2.650,86 7.206,78 1.550,00 685,08 31/05/2019
810 612000 ELIZABETH MARIA DE QUEIROZ TANIGUCHI OFICIAL DO MP ATIVO BELO HORIZONTE - COMARCA; SUPERINTENDENCIA DE RECURSOS HUMANOS 4.058,04 405,80 0,00 0,00 0,00 0,00 4.463,84 509,57 257,75 0,00 767,32 3.696,52 1.550,00 168,62 31/05/2019
811 452800 ELIZANGELA MARIA DAVI OFICIAL DO MP ATIVO ARCOS - COMARCA; ARCOS-PJ-01PJ 5.158,42 515,84 0,00 0,00 0,00 0,00 5.674,26 667,55 467,28 0,00 1.134,83 4.539,43 1.550,00 394,39 31/05/2019
812 496300 ELIZANGELA MARQUES PINTO COELHO OFICIAL DO MP ATIVO BELO HORIZONTE - COMARCA; DIRETORIA DE PESSOAL ADMINISTRATIVO - DPAD 6.251,74 625,17 0,00 0,00 0,00 0,00 6.876,91 809,03 813,76 0,00 1.622,79 5.254,12 1.550,00 477,88 31/05/2019
813 422500 ELIZETE FORTES DA CUNHA ANALISTA DO MP ATIVO RIBEIRÃO DAS NEVES - COMARCA; RIBEIRAO DAS NEVES-PJ-07PJ 11.317,16 2.263,43 0,00 0,00 0,00 0,00 13.580,59 1.668,12 2.402,35 0,00 4.070,47 9.510,12 1.550,00 1.584,17 31/05/2019
814 506100 ELLEM CRISTINA ROCHA FONSECA BOWEN ANALISTA DO MP ATIVO GOVERNADOR VALADARES - COMARCA; COORD REG PJ DEF EDU DIR CRIANCA ADOL RIODOCE 9.337,87 933,79 0,00 0,00 0,00 0,00 10.271,66 1.273,65 1.644,63 0,00 2.918,28 7.353,38 2.249,00 1.306,96 31/05/2019
815 468200 ELLEN CRISTINA BERNARDES DARE ANALISTA DO MP ATIVO TRÊS PONTAS - COMARCA; TRES PONTAS-PJ-02PJ 9.337,87 933,79 0,00 0,00 0,00 0,00 10.271,66 1.174,18 1.592,49 0,00 2.766,67 7.504,99 2.249,00 402,65 31/05/2019
816 418800 ELLEN CRISTINA DE QUEIROZ FERREIRA ANALISTA DO MP ATIVO BELO HORIZONTE - COMARCA; CENTRAL DE APOIO TECNICO-SETOR CONTABIL 10.279,98 2.056,00 0,00 0,00 0,00 0,00 12.335,98 1.407,26 2.149,87 0,00 3.557,13 8.778,85 2.249,00 457,25 31/05/2019
817 328401 ELLEN CRISTINA FERREIRA MORAIS MONTEIRO ANALISTA DO MP ATIVO CAMANDUCAIA - COMARCA; CAMANDUCAIA-PJ-UNPJ 10.279,98 2.056,00 0,00 0,00 0,00 0,00 12.335,98 1.407,26 2.045,60 0,00 3.452,86 8.883,12 1.550,00 457,25 31/05/2019
818 556100 ELLEN CRISTINE BIANCHIN DA SILVA OFICIAL DO MP ATIVO SÃO GONÇALO DO SAPUCAÍ - COMARCA; SAO GONCALO DO SAPUCAI-PJ-02PJ 4.467,49 446,75 0,00 0,00 0,00 0,00 4.914,24 606,86 305,29 0,00 912,15 4.002,09 1.550,00 803,52 31/05/2019
819 447100 ELLEN ROSANA DE MACEDO BORGES OFICIAL DO MP ATIVO UBERLÂNDIA - COMARCA; UBERLANDIA-PJ-17PJ 6.882,47 688,25 0,00 0,00 0,00 0,00 7.570,72 868,42 983,57 0,00 1.851,99 5.718,73 1.550,00 323,98 31/05/2019
820 477700 ELMA JACOB OFICIAL DO MP ATIVO BELO HORIZONTE - COMARCA; COORD DE GABINETE DO PGJ 6.251,74 4.376,22 0,00 0,00 0,00 1.169,08 11.797,04 1.216,35 2.053,33 0,00 3.269,68 8.527,36 1.550,00 477,02 31/05/2019
821 123300 ELMA PAULA DOS SANTOS COELHO OFICIAL DO MP ATIVO BELO HORIZONTE - COMARCA; BH-19PJ SAUDE-SECRETARIA 130PJ 14.941,94 13.447,75 0,00 0,00 0,00 3.122,87 31.512,56 3.249,94 6.937,80 0,00 10.187,74 21.324,82 1.550,00 1.282,33 31/05/2019
822 356500 ELOISA CARDOSO SILVA FRANCA OFICIAL DO MP ATIVO PEÇANHA - COMARCA; PECANHA-PJ-SECRETARIA 5.678,79 1.135,76 0,00 0,00 0,00 0,00 6.814,55 778,99 642,09 0,00 1.421,08 5.393,47 1.550,00 267,13 31/05/2019
823 251901 ELOISA COSTA E SILVA ANALISTA DO MP ATIVO SANTOS DUMONT - COMARCA; SANTOS DUMONT-PJ-02PJ 9.337,87 2.801,36 0,00 0,00 0,00 0,00 12.139,23 1.505,23 2.049,58 0,00 3.554,81 8.584,42 2.249,00 1.544,59 31/05/2019
824 400400 ELOIZA MARIA FERRI PIRES DA SILVA OFICIAL DO MP ATIVO BELO HORIZONTE - COMARCA; ASSESSORIA TECNICA DO PROCON-MG 6.882,47 1.376,49 0,00 0,00 0,00 0,00 8.258,96 1.014,47 1.099,88 0,00 2.114,35 6.144,61 4.853,58 1.266,20 31/05/2019
825 258000 ELSO CECIANO PALMEIRA COORDENADOR/OFICIAL ATIVO BELO HORIZONTE - COMARCA; DIRET DE PESSOAL DO MINISTERIO PUBLICO - DPMP 9.955,90 9.599,59 0,00 0,00 0,00 0,00 19.555,49 1.936,76 3.996,42 0,00 5.933,18 13.622,31 2.332,22 856,76 31/05/2019
826 206900 ELVIRA RITA DOS SANTOS ANALISTA DO MP ATIVO BELO HORIZONTE - COMARCA; CENTRAL DE APOIO TECNICO-SETOR CONTABIL 17.452,52 5.235,76 0,00 0,00 0,00 2.495,71 25.183,99 2.593,55 5.369,92 0,00 7.963,47 17.220,52 1.727,88 987,24 31/05/2019
827 506800 ELVIS FERREIRA DA SILVA ANALISTA DO MP ATIVO BELO HORIZONTE - COMARCA; DIRETORIA DE SISTEMAS DE INFORMACAO 9.337,87 933,79 0,00 0,00 0,00 0,00 10.271,66 1.273,65 1.540,36 0,00 2.814,01 7.457,65 2.295,60 1.306,96 31/05/2019
828 602400 ELZA MARIA MOREIRA MUNIZ ANALISTA DO MP ATIVO CARMO DO PARANAÍBA - COMARCA; CARMO DO PARANAIBA-PJ-02PJ 7.576,76 757,68 0,00 0,00 0,00 0,00 8.334,44 1.029,20 1.066,22 0,00 2.095,42 6.239,02 1.550,00 1.021,94 31/05/2019
829 368401 ELZIRA SIMOES DOS SANTOS ASSESSOR ATIVO BELO HORIZONTE - COMARCA; SUPERINTENDENCIA DE COMUNICACAO INTEGRADA 0,00 3.184,40 10.614,65 0,00 0,00 0,00 13.799,05 642,34 3.051,24 0,00 3.693,58 10.105,47 1.550,00 540,93 31/05/2019
830 437400 EMANOELLE DA SILVA RODRIGUES OFICIAL DO MP ATIVO UNAÍ - COMARCA; UNAI-PJ-03PJ 6.251,74 625,17 0,00 0,00 0,00 0,00 6.876,91 787,06 761,63 0,00 1.548,69 5.328,22 2.948,00 278,08 31/05/2019
831 458900 EMANUELLE CONRAD SILVA FREDERICO NAVES ANALISTA DO MP ATIVO ALFENAS - COMARCA; ALFENAS-PJ-05PJ 10.279,98 1.028,00 0,00 0,00 0,00 0,00 11.307,98 1.330,31 1.846,13 0,00 3.176,44 8.131,54 2.249,00 785,80 31/05/2019
832 284100 EMERSON MAGNO ALMEIDA PEDROSA DA FONSECA ANALISTA DO MP ATIVO BELO HORIZONTE - COMARCA; CENTRAL DE APOIO TECNICO-SETOR CONTABIL 14.162,21 4.248,66 0,00 0,00 0,00 0,00 18.410,87 2.155,09 2.498,20 0,00 4.653,29 13.757,58 6.893,98 1.653,41 31/05/2019
833 179900 EMERSON MORAIS DIAS OFICIAL DO MP ATIVO BELO HORIZONTE - COMARCA; DIRETORIA DE PROJETOS DE EDIFICACOES 13.283,29 5.313,32 0,00 0,00 0,00 0,00 18.596,61 2.126,91 3.682,16 0,00 5.809,07 12.787,54 2.296,34 807,15 31/05/2019
834 488700 EMERSON SIQUEIRA DE SOUSA TEIXEIRA ANALISTA DO MP ATIVO TARUMIRIM - COMARCA; TARUMIRIM-PJ-UNPJ 9.337,87 933,79 0,00 0,00 0,00 0,00 10.271,66 1.273,65 1.488,22 0,00 2.761,87 7.509,79 1.550,00 1.306,96 31/05/2019
835 194200 EMILIA ALVES FERREIRA RAMOS OFICIAL DO MP ATIVO UBERLÂNDIA - COMARCA; UBERLANDIA-PJ-SEC FAMILIA 8.214,70 2.464,41 0,00 0,00 0,00 0,00 10.679,11 1.308,39 1.640,08 0,00 2.948,47 7.730,64 1.550,00 1.215,40 31/05/2019
836 123400 EMILIO CARLOS MARTINS OFICIAL DO MP ATIVO AREADO - COMARCA; AREADO-PJ-UNPJ 15.533,57 12.426,86 0,00 0,00 0,00 3.075,65 31.036,08 3.457,12 6.767,62 0,00 10.224,74 20.811,34 1.550,00 3.807,02 31/05/2019
837 620700 EMILY FONTANA DE SIQUEIRA ANALISTA DO MP ATIVO BELO HORIZONTE - COMARCA; BH-18PJ VIOLENCIA DOMESTICA 6.882,47 412,95 0,00 0,00 0,00 0,00 7.295,42 858,27 864,06 0,00 1.722,33 5.573,09 2.249,00 507,04 31/05/2019
838 297000 ENEIDA SOARES COSTA MELO ANALISTA DO MP ATIVO PIUMHI - COMARCA; PIUMHI-PJ-01PJ 14.162,21 4.248,66 0,00 0,00 0,00 0,00 18.410,87 2.155,09 3.636,70 0,00 5.791,79 12.619,08 1.550,00 1.180,86 31/05/2019
839 276000 ENEZIO RODRIGUES DE SOUZA FILHO OFICIAL DO MP ATIVO UBERLÂNDIA - COMARCA; UBERLANDIA-PJ-01PJ 8.482,22 2.544,67 0,00 0,00 0,00 0,00 11.026,89 1.256,86 1.829,47 0,00 3.086,33 7.940,56 1.550,00 399,01 31/05/2019
840 387700 ENI MARIA DOS REIS OFICIAL DO MP ATIVO POUSO ALEGRE - COMARCA; POUSO ALEGRE-PJ-04PJ 7.337,85 1.467,57 0,00 0,00 0,00 0,00 8.805,42 1.035,91 1.285,77 0,00 2.321,68 6.483,74 1.550,00 611,92 31/05/2019
841 605100 ENIA MAIA ASSESSOR/OFICIAL ATIVO BELO HORIZONTE - COMARCA; DIRETORIA DE ORCAMENTO-DIOR/SPC 0,00 964,19 9.641,94 0,00 0,00 0,00 10.606,13 653,40 1.873,26 0,00 2.526,66 8.079,47 1.550,00 400,65 31/05/2019
842 612200 ENILDO GOMES MEIRA FILHO ANALISTA DO MP ATIVO BUENÓPOLIS - COMARCA; BUENOPOLIS-PJ-UNPJ 6.882,47 688,25 0,00 0,00 0,00 0,00 7.570,72 864,24 827,16 0,00 1.691,40 5.879,32 2.249,00 285,99 31/05/2019
843 553700 ENIVALDO NOVATO PUBLIO ANALISTA DO MP ATIVO DIVINÓPOLIS - COMARCA; DIVINOPOLIS-PJ-09PJ 7.576,76 757,68 0,00 0,00 0,00 0,00 8.334,44 1.029,20 1.118,36 0,00 2.147,56 6.186,88 1.550,00 1.021,94 31/05/2019
844 417300 ERIC BARATTI DA SILVA ANALISTA DO MP ATIVO PRATA - COMARCA; PRATA-PJ-UNPJ 9.337,87 933,79 0,00 0,00 0,00 0,00 10.271,66 1.174,18 1.644,63 0,00 2.818,81 7.452,85 1.550,00 402,65 31/05/2019
845 637600 ERIC DA ROCHA CHEHUEN ANALISTA DO MP ATIVO LIMA DUARTE - COMARCA; LIMA DUARTE-PJ-UNPJ 6.665,41 399,92 0,00 0,00 0,00 0,00 7.065,33 642,34 896,96 0,00 1.539,30 5.526,03 1.550,00 276,97 31/05/2019
846 398900 ERIC TEIXEIRA SILVA OFICIAL DO MP ATIVO UBERLÂNDIA - COMARCA; UBERLANDIA-PJ-SEC CIVEIS CRIMINAIS 7.576,76 1.515,35 0,00 0,00 0,00 0,00 9.092,11 1.130,37 1.355,93 0,00 2.486,30 6.605,81 1.550,00 1.192,89 31/05/2019
847 274200 ERICA DE SOUZA ANDRADE OFICIAL DO MP ATIVO CURVELO - COMARCA; CURVELO-PJ-03PJ 9.043,46 2.713,04 0,00 0,00 0,00 0,00 11.756,50 1.341,50 1.955,90 0,00 3.297,40 8.459,10 1.550,00 438,82 31/05/2019
848 225700 ERICA GOMES DO COUTO OFICIAL DO MP ATIVO BELO HORIZONTE - COMARCA; BH-21PJ TUTELA DAS FUNDACOES 11.685,57 3.505,67 0,00 0,00 0,00 0,00 15.191,24 1.787,16 2.848,70 0,00 4.635,86 10.555,38 2.249,00 1.055,67 31/05/2019
849 632600 ERICA LEONOR MARTINS OFICIAL DO MP ATIVO RESENDE COSTA - COMARCA; RESENDE COSTA-PJ-UNPJ 4.326,60 259,60 0,00 0,00 0,00 0,00 4.586,20 524,26 282,26 0,00 806,52 3.779,68 1.550,00 179,79 31/05/2019
850 524800 ERICA MACHADO DA COSTA E SOUZA ANALISTA DO MP ATIVO BELO HORIZONTE - COMARCA; PROC JUST RECURSOS ESP E EXTRAORD CRIMINAIS 8.482,22 848,22 0,00 0,00 0,00 0,00 9.330,44 1.068,66 1.414,26 0,00 2.482,92 6.847,52 1.550,00 384,57 31/05/2019
851 249500 ERICA RODRIGUES ANDRADE OFICIAL DO MP ATIVO SÃO FRANCISCO - COMARCA; SAO FRANCISCO-PJ-02PJ 7.576,76 2.273,03 0,00 0,00 0,00 0,00 9.849,79 1.127,19 1.489,24 0,00 2.616,43 7.233,36 2.249,00 397,35 31/05/2019
852 260800 ERICA VIANA GIARDINI DE OLIVEIRA OFICIAL DO MP ATIVO BELO HORIZONTE - COMARCA; EXTINTA - DIRETORIA DE COMPRAS E LICITAÇÕES 9.337,87 2.801,36 0,00 0,00 0,00 0,00 12.139,23 1.428,12 2.101,72 0,00 3.529,84 8.609,39 1.550,00 843,58 31/05/2019
853 299800 ERICH DOUGLAS RIBEIRO GARCIA ANALISTA DO MP ATIVO BELO HORIZONTE - COMARCA; CENTRAL DE APOIO TECNICO-SETOR CONTABIL 13.715,83 4.114,75 0,00 0,00 0,00 0,00 17.830,58 2.034,57 3.494,68 0,00 5.529,25 12.301,33 1.557,32 665,55 31/05/2019
854 365000 ERICK EDUARDO JOSE DA SILVA OFICIAL DO MP ATIVO SANTOS DUMONT - COMARCA; SANTOS DUMONT-PJ-02PJ 5.678,79 1.135,76 0,00 0,00 0,00 0,00 6.814,55 778,99 798,50 0,00 1.577,49 5.237,06 1.550,00 267,13 31/05/2019
855 227400 ERIKA DE LAET GOULART BOECHAT ASSESSOR/OFICIAL ATIVO BELO HORIZONTE - COMARCA; ASSESSORIA ESPECIAL DO PGJ 11.685,57 5.842,78 0,00 0,00 0,00 0,00 17.528,35 1.787,16 3.439,26 0,00 5.226,42 12.301,93 5.053,54 1.404,37 31/05/2019
856 285100 ERIKA FERREIRA DA SILVA OFICIAL DO MP ATIVO JUIZ DE FORA - COMARCA; JUIZ DE FORA-PJ-11PJ 9.043,46 2.713,04 0,00 0,00 0,00 0,00 11.756,50 1.341,50 2.008,04 0,00 3.349,54 8.406,96 1.550,00 438,82 31/05/2019
857 420100 ERIKA JEANINE VERSIANI DE CASTRO ANALISTA DO MP ATIVO BELO HORIZONTE - COMARCA; COORD ESTADUAL DE DEFESA DA EDUCACAO 11.317,16 2.263,43 0,00 0,00 0,00 0,00 13.580,59 1.552,46 2.454,49 0,00 4.006,95 9.573,64 1.550,00 532,72 31/05/2019
858 606900 ERIKA MARIA BARBOSA ANALISTA DO MP ATIVO BELO HORIZONTE - COMARCA; CAO-SAUDE 6.881,48 688,25 0,00 0,00 0,00 0,00 7.569,73 934,90 931,16 0,00 1.866,06 5.703,67 1.550,00 928,33 31/05/2019
859 491000 ERIKA ROCHA PEREIRA E SILVA COORDENADOR/ANALISTA ATIVO BELO HORIZONTE - COMARCA; DIR GOVERNANCA TECNOLOGIA INFORMACAO 0,00 1.245,88 12.458,83 0,00 0,00 0,00 13.704,71 1.273,64 2.560,25 0,00 3.833,89 9.870,82 1.550,00 537,23 31/05/2019
860 283201 ERIKA STEHLING COORDENADOR/ANALISTA ATIVO BELO HORIZONTE - COMARCA; CENTRAL DE APOIO TECNICO-SETOR DE ENGENHARIA 9.337,87 3.125,84 0,00 0,00 0,00 0,00 12.463,71 1.273,64 2.218,98 0,00 3.492,62 8.971,09 1.550,00 472,61 31/05/2019
861 254000 ERLANDIA DA SILVA MENDES OFICIAL DO MP ATIVO IPATINGA - COMARCA; IPATINGA-PJ-03PJ 10.279,98 4.111,99 0,00 0,00 0,00 0,00 14.391,97 1.693,13 2.496,66 0,00 4.189,79 10.202,18 1.550,00 1.000,10 31/05/2019
862 208600 ERNANE JOSE DA COSTA ANALISTA DO MP ATIVO BELO HORIZONTE - COMARCA; CENTRAL DE APOIO TECNICO-SETOR MEDICO 17.452,52 12.216,76 0,00 0,00 0,00 0,00 29.669,28 3.391,56 6.392,20 0,00 9.783,76 19.885,52 1.550,00 1.163,06 31/05/2019
863 260600 ERNANI CALDEIRA DE ANDRADE ANALISTA DO MP ATIVO BELO HORIZONTE - COMARCA; CENTRAL DE APOIO TECNICO-SETOR CONTABIL 15.533,57 4.660,07 0,00 0,00 0,00 0,00 20.193,64 2.389,66 4.073,03 0,00 6.462,69 13.730,95 1.550,00 1.530,57 31/05/2019
864 348500 ERNILANDIA DE OLIVEIRA DIAS OFICIAL DO MP ATIVO MONTES CLAROS - COMARCA; MONTES CLAROS-PJ-16PJ 7.337,85 1.467,57 0,00 0,00 0,00 0,00 8.805,42 1.035,91 1.285,77 0,00 2.321,68 6.483,74 1.550,00 611,92 31/05/2019
865 199300 ERTON PORTINARI DE ANDRADE OFICIAL DO MP ATIVO SETE LAGOAS - COMARCA; SETE LAGOAS-PJ-05PJ 12.065,98 4.826,39 0,00 0,00 0,00 0,00 16.892,37 1.987,29 3.160,77 0,00 5.148,06 11.744,31 1.550,00 1.173,87 31/05/2019
866 618800 ESLY DE CARLA AYALLA BARBOSA MENDES OFICIAL DO MP ATIVO NOVA LIMA - COMARCA; NOVA LIMA-PJ-SECRETARIA 4.058,04 243,48 0,00 0,00 0,00 0,00 4.301,52 506,05 225,25 0,00 731,30 3.570,22 1.550,00 298,88 31/05/2019
867 537000 ESTANISLAU CORREIA ALMEIDA JUNIOR OFICIAL DO MP ATIVO UBERLÂNDIA - COMARCA; UBERLANDIA-PJ-25PJ 4.838,22 483,82 0,00 0,00 0,00 0,00 5.322,04 651,46 433,21 0,00 1.084,67 4.237,37 1.550,00 600,41 31/05/2019
868 326900 ESTER ALICE PIMENTA OFICIAL DO MP ATIVO BELO HORIZONTE - COMARCA; COORD DE INCLUSAO E MOBILIZACAO SOCIAIS 8.482,22 1.696,44 0,00 0,00 0,00 0,00 10.178,66 1.197,46 1.569,73 0,00 2.767,19 7.411,47 1.550,00 707,46 31/05/2019
869 503700 ESTHER GONCALVES FONSECA ANALISTA DO MP ATIVO BELO HORIZONTE - COMARCA; DIRETORIA DE PUBLICIDADE INSTITUCIONAL 7.823,48 782,35 0,00 0,00 2.868,61 0,00 11.474,44 1.067,09 2.025,79 0,00 3.092,88 8.381,56 1.550,00 1.095,12 31/05/2019
870 475600 ETIENE DE FATIMA OLIVEIRA PEREIRA ANALISTA DO MP ATIVO PATROCÍNIO - COMARCA; PATROCINIO-PJ-04PJ 9.337,87 933,79 0,00 0,00 0,00 0,00 10.271,66 1.174,18 1.540,36 0,00 2.714,54 7.557,12 2.249,00 402,65 31/05/2019
871 428800 EUGENIA RODRIGUES TRAJANO BORGES ANALISTA DO MP ATIVO UBERABA - COMARCA; UBERABA-PJ-08PJ 10.279,98 2.056,00 0,00 0,00 0,00 0,00 12.335,98 1.407,26 2.149,87 0,00 3.557,13 8.778,85 1.550,00 461,91 31/05/2019
872 272700 EUGENIO DE BARCELOS FILHO OFICIAL DO MP ATIVO FRUTAL - COMARCA; FRUTAL-PJ-02PJ 7.337,85 2.201,36 0,00 0,00 0,00 0,00 9.539,21 1.116,62 1.413,23 0,00 2.529,85 7.009,36 1.550,00 611,92 31/05/2019
873 254100 EULALIA ALVES MIRANDA LUCAS OFICIAL DO MP ATIVO ALMENARA - COMARCA; ALMENARA-PJ-02PJ 9.955,90 2.986,77 0,00 0,00 0,00 0,00 12.942,67 1.481,26 2.194,09 0,00 3.675,35 9.267,32 1.550,00 523,36 31/05/2019
874 615500 EUNICE BARBOSA PINTO OFICIAL DO MP ATIVO OURO PRETO - COMARCA; OURO PRETO-PJ-04PJ 4.467,49 893,50 0,00 0,00 0,00 0,00 5.360,99 630,70 442,74 0,00 1.073,44 4.287,55 1.550,00 372,59 31/05/2019
875 641200 EUNICE ELVIRA DA SILVA MATOS OFICIAL DO MP ATIVO BELO HORIZONTE - COMARCA; BH-14PJ DEFESA CONSUMIDOR-SECRETARIA 3.930,12 235,81 0,00 0,00 0,00 0,00 4.165,93 513,26 201,35 0,00 714,61 3.451,32 1.550,00 500,15 31/05/2019
876 557900 EURIPEDES JOSUE PERES OFICIAL DO MP ATIVO IBIÁ - COMARCA; IBIA-PJ-UNPJ 4.467,49 446,75 0,00 0,00 0,00 0,00 4.914,24 606,86 347,95 0,00 954,81 3.959,43 1.550,00 602,64 31/05/2019
877 225800 EURO CESAR VIEIRA BARBOSA ANALISTA DO MP ATIVO BELO HORIZONTE - COMARCA; BH-17PJ PATRIMONIO PUBLICO 17.452,52 5.235,76 0,00 0,00 0,00 0,00 22.688,28 2.593,55 4.579,32 0,00 7.172,87 15.515,41 6.265,54 1.305,35 31/05/2019
878 199400 EUSTAQUIO ADAILTON LIMA E SILVA OFICIAL DO MP ATIVO MANGA - COMARCA; MANGA-PJ-01PJ 12.065,98 6.032,99 0,00 0,00 0,00 0,00 18.098,97 2.071,39 3.351,81 0,00 5.423,20 12.675,77 1.550,00 731,86 31/05/2019
879 548000 EVA VILMA LEAO REIS JULIO OFICIAL DO MP ATIVO BELO HORIZONTE - COMARCA; BH-07PJ 01 TRIBUNAL JURI-SECRETARIA 4.838,22 1.451,47 0,00 0,00 0,00 0,00 6.289,69 721,07 670,04 0,00 1.391,11 4.898,58 1.550,00 265,45 31/05/2019
880 517000 EVALDO SENA COSTA FILHO ANALISTA DO MP ATIVO CONTAGEM - COMARCA; CONTAGEM-PJ-15PJ 9.337,87 2.801,36 0,00 0,00 0,00 0,00 12.139,23 1.505,23 1.945,30 0,00 3.450,53 8.688,70 1.550,00 1.544,59 31/05/2019
881 217500 EVELANGE LEAO RABELO ASSESSOR ATIVO BELO HORIZONTE - COMARCA; COORD EST DEF DIR FAMILIA PESSOA DEFICI IDOSO 0,00 855,82 2.852,73 0,00 0,00 0,00 3.708,55 544,93 323,18 0,00 868,11 2.840,44 1.550,00 145,38 31/05/2019
882 540400 EVIE SARAMELLA DE RESENDE OFICIAL DO MP ATIVO BARBACENA - COMARCA; BARBACENA-PJ-05PJ 4.838,22 483,82 0,00 0,00 0,00 0,00 5.322,04 608,37 433,21 0,00 1.041,58 4.280,46 1.550,00 208,63 31/05/2019
883 469000 EWERTON CARDOSO DE SA RODRIGUES ANALISTA DO MP ATIVO CAMPO BELO - COMARCA; CAMPO BELO-PJ-01PJ 9.337,87 933,79 0,00 0,00 0,00 0,00 10.271,66 1.174,18 1.540,36 0,00 2.714,54 7.557,12 2.249,00 402,65 31/05/2019
884 368900 FABIANA BARBOSA SIQUEIRA OFICIAL DO MP ATIVO BELO HORIZONTE - COMARCA; CAO-ORDEM ECONOMICA E TRIBUTARIA-SECRETARIA 7.955,66 1.591,13 0,00 0,00 0,00 0,00 9.546,79 1.094,52 1.415,08 0,00 2.509,60 7.037,19 1.550,00 403,30 31/05/2019
885 273800 FABIANA CARNEIRO AMORIM COORDENADOR/OFICIAL ATIVO BELO HORIZONTE - COMARCA; BH-23PJ CIVEL-COORD ADM CIVEL 9.641,94 5.084,63 0,00 0,00 0,00 0,00 14.726,57 1.502,69 2.675,40 0,00 4.178,09 10.548,48 1.550,00 515,58 31/05/2019
886 519300 FABIANA DE OLIVEIRA LOUREIRO ANALISTA DO MP ATIVO BELO HORIZONTE - COMARCA; BH-09PJ AUDITORIA MILITAR 9.337,87 933,79 0,00 0,00 0,00 0,00 10.271,66 1.273,65 1.644,63 0,00 2.918,28 7.353,38 2.249,00 1.306,96 31/05/2019
887 363400 FABIANA DOURADO DUPIN VIEGAS ANALISTA DO MP ATIVO BELO HORIZONTE - COMARCA; GABINETE DE PROCURADOR DE JUSTIÇA - SALA 705 13.283,29 2.656,66 0,00 0,00 0,00 0,00 15.939,95 1.976,51 2.979,81 0,00 4.956,32 10.983,63 2.249,00 2.028,36 31/05/2019
888 410800 FABIANA DUARTE QUITITE ANALISTA DO MP ATIVO BELO HORIZONTE - COMARCA; EXTINTA-MEIO AMB PATRIM HIST CULTURAL-15PJGAB 11.317,16 2.263,43 0,00 0,00 0,00 0,00 13.580,59 1.629,29 2.625,42 0,00 4.254,71 9.325,88 1.555,37 1.246,03 31/05/2019
889 419500 FABIANA EULALIA DOS SANTOS ANALISTA DO MP ATIVO SÃO JOÃO DEL REI - COMARCA; SAO JOAO DEL REI-PJ-01PJ 11.317,16 2.263,43 0,00 0,00 0,00 0,00 13.580,59 1.668,12 2.454,49 0,00 4.122,61 9.457,98 1.550,00 1.584,17 31/05/2019
890 376300 FABIANA MATTOSO LEMOS ANALISTA DO MP ATIVO BELO HORIZONTE - COMARCA; BH-21PJ TUTELA FUNDACOES-SECRETARIA 11.685,57 2.337,11 0,00 0,00 0,00 0,00 14.022,68 1.604,71 2.562,69 0,00 4.167,40 9.855,28 1.550,00 565,59 31/05/2019
891 331500 FABIANA PACHECO OFICIAL DO MP ATIVO GUAXUPÉ - COMARCA; GUAXUPE-PJ-01PJ 8.214,70 1.642,94 0,00 0,00 0,00 0,00 9.857,64 1.159,70 1.439,02 0,00 2.598,72 7.258,92 2.249,00 685,08 31/05/2019
892 510700 FABIANA PEREIRA SANTOS BORGES ANALISTA DO MP ATIVO BELO HORIZONTE - COMARCA; DIRETORIA DE SISTEMAS DE INFORMACAO 9.337,87 933,79 0,00 0,00 0,00 0,00 10.271,66 1.273,65 1.592,49 0,00 2.866,14 7.405,52 2.249,00 1.306,96 31/05/2019
893 181700 FABIANA SOUZA FERREIRA OFICIAL DO MP ATIVO BELO HORIZONTE - COMARCA; BH-19PJ SAUDE-SECRETARIA 150PJ 5.678,79 1.703,64 0,00 0,00 0,00 0,00 7.382,43 843,91 833,21 0,00 1.677,12 5.705,31 1.550,00 289,39 31/05/2019
894 272900 FABIANA STOCKLER LEITE OFICIAL DO MP ATIVO LAJINHA - COMARCA; LAJINHA-PJ-SECRETARIA 9.043,46 3.617,38 0,00 0,00 0,00 0,00 12.660,84 1.489,48 2.125,11 0,00 3.614,59 9.046,25 2.249,00 879,81 31/05/2019
895 225500 FABIANE DE FATIMA PORTELLA ANALISTA DO MP ATIVO BELO HORIZONTE - COMARCA; BH-18PJ DIREITOS HUMANOS 17.452,52 5.235,76 0,00 0,00 0,00 0,00 22.688,28 2.857,19 4.683,60 0,00 7.540,79 15.147,49 1.550,00 3.262,53 31/05/2019
896 433800 FABIANE DINIZ MATTOS ANALISTA DO MP ATIVO BELO HORIZONTE - COMARCA; BH-23PJ INFRACIONAL-ASS JURIDICA 11.317,16 1.131,72 0,00 0,00 0,00 0,00 12.448,88 1.614,07 2.334,21 0,00 3.948,28 8.500,60 2.948,00 2.224,43 31/05/2019
897 455000 FABIANO CARVALHO DA SILVA ANALISTA DO MP ATIVO LAVRAS - COMARCA; COORD REG DO MA DA BACIA DO RIO GRANDE 9.337,87 933,79 0,00 0,00 0,00 0,00 10.271,66 1.174,18 1.644,63 0,00 2.818,81 7.452,85 1.550,00 402,65 31/05/2019
898 498800 FABIANO FURTADO PESSOA COELHO ANALISTA DO MP ATIVO BELO HORIZONTE - COMARCA; DIRETORIA DE REDES E BANCOS DE DADOS 9.337,87 933,79 0,00 0,00 0,00 0,00 10.271,66 1.273,65 1.592,49 0,00 2.866,14 7.405,52 1.550,00 1.306,96 31/05/2019
899 663000 FABIANO MARQUES CORREA ASSESSOR ATIVO BELO HORIZONTE - COMARCA; DIRETORIA DE SUPORTE E MANUTENCAO 0,00 0,00 4.763,08 0,00 0,00 0,00 4.763,08 642,34 566,34 0,00 1.208,68 3.554,40 1.550,00 0,00 31/05/2019
900 394600 FABIANO PALHARES SILVA ANALISTA DO MP ATIVO BELO HORIZONTE - COMARCA; CENTRAL DE APOIO TECN-SETOR DE MEIO AMBIENTE 11.685,57 2.337,11 0,00 0,00 0,00 0,00 14.022,68 1.649,68 2.510,56 0,00 4.160,24 9.862,44 7.159,07 1.488,64 31/05/2019
901 444400 FABIANO SARAIVA MEDEIROS ANALISTA DO MP ATIVO BETIM - COMARCA; BETIM-PJ-11PJ 10.279,98 1.028,00 0,00 0,00 0,00 0,00 11.307,98 1.330,31 1.793,99 0,00 3.124,30 8.183,68 2.249,00 785,80 31/05/2019
902 408700 FABIANO SOARES PORTILHO ANALISTA DO MP ATIVO VIÇOSA - COMARCA; VICOSA-PJ-02PJ 11.317,16 2.263,43 0,00 0,00 0,00 0,00 13.580,59 1.668,12 2.454,49 0,00 4.122,61 9.457,98 1.550,00 1.584,17 31/05/2019
903 442600 FABIO CARVALHO VIEIRA ANALISTA DO MP ATIVO MONTES CLAROS - COMARCA; MONTES CLAROS-PJ-06PJ 7.955,66 795,57 0,00 0,00 0,00 0,00 8.751,23 1.000,38 1.272,50 0,00 2.272,88 6.478,35 1.550,00 343,06 31/05/2019
904 240101 FABIO JUNQUEIRA DE ASSIS FONSECA OFICIAL DO MP ATIVO BELO HORIZONTE - COMARCA; BH-17PJ PATRIMONIO PUBLICO-SECRETARIA 6.665,41 1.333,08 0,00 0,00 0,00 0,00 7.998,49 940,99 1.088,27 0,00 2.029,26 5.969,23 1.550,00 555,91 31/05/2019
905 271500 FABIO LUIZ VIEIRA OFICIAL DO MP ATIVO SANTA VITÓRIA - COMARCA; SANTA VITORIA-PJ-UNPJ 8.758,36 2.627,51 0,00 0,00 0,00 0,00 11.385,87 1.299,20 1.813,06 0,00 3.112,26 8.273,61 1.844,56 424,99 31/05/2019
906 213100 FABIO PRATES GONCALVES ASSESSOR ATIVO BELO HORIZONTE - COMARCA; DIRETORIA DE RELACOES PUBLICAS E CERIMONIAL 0,00 2.892,58 9.641,94 0,00 0,00 0,00 12.534,52 642,34 2.547,08 0,00 3.189,42 9.345,10 2.249,00 491,36 31/05/2019
907 436700 FABIO SANTIAGO DE CARVALHO OFICIAL DO MP ATIVO POÇO FUNDO - COMARCA; POCO FUNDO-PJ-UNPJ 7.106,49 710,65 0,00 0,00 0,00 0,00 7.817,14 919,65 1.043,88 0,00 1.963,53 5.853,61 1.550,00 543,22 31/05/2019
908 208400 FABIOLA DE SOUSA CARDOSO ASSESSOR/ANALISTA ATIVO BELO HORIZONTE - COMARCA; ASSESS TECNICA DA CORREGEDORIA-GERAL DO MP 17.452,52 7.572,87 0,00 0,00 0,00 0,00 25.025,39 2.593,55 5.326,30 0,00 7.919,85 17.105,54 6.751,28 1.439,82 31/05/2019
909 392200 FABIOLA LEROY COSTA ANALISTA DO MP ATIVO ESMERALDAS - COMARCA; ESMERALDAS-PJ-01PJ 9.337,87 1.867,57 0,00 0,00 0,00 0,00 11.205,44 1.280,92 1.873,17 0,00 3.154,09 8.051,35 1.550,00 439,26 31/05/2019
910 409000 FABIOLA MONTEIRO DE CARVALHO CASTRO ANALISTA DO MP ATIVO BOM SUCESSO - COMARCA; BOM SUCESSO-PJ-UNPJ 9.641,94 1.928,39 0,00 0,00 0,00 0,00 11.570,33 1.353,83 1.962,48 0,00 3.316,31 8.254,02 1.550,00 737,13 31/05/2019
911 227900 FABIOLA PIMENTA DE CARVALHO OFICIAL DO MP ATIVO MONTES CLAROS - COMARCA; COORD REG BACIA RIOS VERDE GRANDE E PARDO 9.043,46 2.713,04 0,00 0,00 0,00 0,00 11.756,50 1.383,09 2.008,04 0,00 3.391,13 8.365,37 1.550,00 816,97 31/05/2019
912 525800 FABRICIA ALVES DANTAS OFICIAL DO MP ATIVO MONTES CLAROS - COMARCA; MONTES CLAROS-PJ-01PJ 6.054,65 605,47 0,00 0,00 0,00 0,00 6.660,12 783,53 656,43 0,00 1.439,96 5.220,16 1.550,00 462,90 31/05/2019
913 263400 FABRICIA PINTO TEIXEIRA SANTIAGO OFICIAL DO MP ATIVO BELO HORIZONTE - COMARCA; CAO-TS-TERCEIRO SETOR-SECRETARIA 10.279,98 3.083,99 0,00 0,00 0,00 0,00 13.363,97 1.567,90 2.297,20 0,00 3.865,10 9.498,87 1.553,89 889,65 31/05/2019
914 420800 FABRICIO BERNARDES DE OLIVEIRA OFICIAL DO MP ATIVO ITURAMA - COMARCA; ITURAMA-PJ-02PJ 7.106,49 1.421,30 0,00 0,00 0,00 0,00 8.527,79 997,82 1.165,68 0,00 2.163,50 6.364,29 1.615,26 543,22 31/05/2019
915 474000 FABRICIO DE FREITAS SALES ANALISTA DO MP ATIVO MONTES CLAROS - COMARCA; COORD REG PATRI PUB ORD TRIB-NORTE MINAS 9.337,87 933,79 0,00 0,00 0,00 0,00 10.271,66 1.174,18 1.644,63 0,00 2.818,81 7.452,85 1.550,00 402,65 31/05/2019
916 510100 FABRICIO FURTADO ASSIS DO CARMO ANALISTA DO MP ATIVO BELO HORIZONTE - COMARCA; SERVICO MEDICO-DEPTO PERIC MEDICA SAUDE OCUP 9.337,87 933,79 0,00 0,00 0,00 0,00 10.271,66 1.273,65 1.890,34 0,00 3.163,99 7.107,67 1.550,00 2.235,49 31/05/2019
917 519600 FABRICIO GONTIJO SALVATI ANALISTA DO MP ATIVO JUIZ DE FORA - COMARCA; JUIZ DE FORA-CAO ESPECIALIZADO-SECRETARIA 9.337,87 933,79 0,00 0,00 0,00 0,00 10.271,66 1.273,65 1.644,63 0,00 2.918,28 7.353,38 1.550,00 1.306,96 31/05/2019
918 637400 FABRICIO HENRIQUE DA SILVA PASSOS ASSESSOR/ANALISTA ATIVO BELO HORIZONTE - COMARCA; DIRETORIA DE PUBLICIDADE INSTITUCIONAL 0,00 578,52 9.641,94 0,00 3.406,82 0,00 13.627,28 889,13 2.642,85 0,00 3.531,98 10.095,30 1.550,00 400,65 31/05/2019
919 428200 FABRICIO ORZIL VIANA ANALISTA DO MP ATIVO SANTA LUZIA - COMARCA; SANTA LUZIA-PJ-04PJ 9.337,87 1.867,57 0,00 0,00 0,00 0,00 11.205,44 1.276,90 1.873,17 0,00 3.150,07 8.055,37 1.550,00 402,65 31/05/2019
920 455600 FABRICIO PAIVA DA ROCHA ANALISTA DO MP ATIVO SÃO JOÃO DEL REI - COMARCA; SAO JOAO DEL REI-PJ-06PJ 9.337,87 933,79 0,00 0,00 3.423,89 0,00 13.695,55 1.174,18 2.534,06 0,00 3.708,24 9.987,31 2.249,00 402,65 31/05/2019
921 511500 FABRICIO RENE CARDOSO DE PADUA ANALISTA DO MP ATIVO SÃO SEBASTIÃO DO PARAÍSO - COMARCA; SAO SEBASTIAO DO PARAISO-PJ-03PJ 9.337,87 933,79 0,00 0,00 0,00 0,00 10.271,66 1.273,65 1.644,63 0,00 2.918,28 7.353,38 1.550,00 1.742,62 31/05/2019
922 496100 FABRICIO RESENDE GONCALVES OFICIAL DO MP ATIVO ENTRE-RIOS DE MINAS - COMARCA; ENTRE RIOS DE MINAS-PJ-UNPJ 6.054,65 605,47 0,00 0,00 0,00 0,00 6.660,12 783,53 760,71 0,00 1.544,24 5.115,88 2.249,00 462,90 31/05/2019
923 650300 FABRICIO ROBERTO AZEVEDO OFICIAL DO MP ATIVO NOVA SERRANA - COMARCA; NOVA SERRANA-PJ-04PJ 3.569,91 0,00 0,00 0,00 0,00 0,00 3.569,91 419,98 121,78 0,00 541,76 3.028,15 1.550,00 248,07 31/05/2019
924 514900 FADUA MARIA DRUMOND CHEQUER FIGUEIREDO ANALISTA DO MP ATIVO CONTAGEM - COMARCA; CONTAGEM-PJ-01PJ 9.337,87 933,79 0,00 0,00 0,00 0,00 10.271,66 1.273,65 1.540,36 0,00 2.814,01 7.457,65 2.948,00 1.306,96 31/05/2019
925 282500 FANNY FERREIRA MELO FAVERO DE FRAVET OFICIAL DO MP ATIVO ARAXÁ - COMARCA; ARAXA-PJ-03PJ 7.823,48 2.347,04 0,00 0,00 0,00 0,00 10.170,52 1.250,17 1.619,87 0,00 2.870,04 7.300,48 1.550,00 1.194,67 31/05/2019
926 540100 FATIMA CRISTINA POVOA DA COSTA ASSESSOR/OFICIAL ATIVO BELO HORIZONTE - COMARCA; BH-18PJ VIOLENCIA DOMESTICA-SECRETARIA 0,00 2.892,58 9.641,94 0,00 0,00 0,00 12.534,52 718,99 2.387,37 0,00 3.106,36 9.428,16 1.550,00 491,36 31/05/2019
927 382800 FATIMA DE OLIVEIRA COELHO E SILVA OFICIAL DO MP ATIVO BELO HORIZONTE - COMARCA; DIRETORIA DE ADMINISTRACAO FINANCEIRA 5.863,71 1.759,11 0,00 0,00 0,00 0,00 7.622,82 872,34 944,19 0,00 1.816,53 5.806,29 1.550,00 307,52 31/05/2019
928 398601 FELIPE ANTONIO HORTA DE PAULA ANALISTA DO MP ATIVO BELO HORIZONTE - COMARCA; PROC. JUSTICA DIR. DIFUSOS E COLETIVOS-SEC 7.576,76 757,68 0,00 0,00 0,00 0,00 8.334,44 957,21 1.170,49 0,00 2.127,70 6.206,74 1.550,00 371,40 31/05/2019
929 430900 FELIPE BOY VIEIRA ANALISTA DO MP ATIVO BELO HORIZONTE - COMARCA; GABINETE DE SEGURANCA E INTELIGENCIA 9.955,90 995,59 0,00 0,00 0,00 0,00 10.951,49 1.253,37 1.811,02 0,00 3.064,39 7.887,10 1.550,00 533,29 31/05/2019
930 631700 FELIPE DE MORAIS SIMOES COELHO ANALISTA DO MP ATIVO BELO HORIZONTE - COMARCA; BH-18PJ VIOLENCIA DOMESTICA 6.251,74 375,10 0,00 0,00 0,00 0,00 6.626,84 779,61 752,56 0,00 1.532,17 5.094,67 1.550,00 460,50 31/05/2019
931 549100 FELIPE FERNANDES ALVIM ANALISTA DO MP ATIVO LAJINHA - COMARCA; LAJINHA-PJ-UNPJ 7.576,76 757,68 0,00 0,00 0,00 0,00 8.334,44 957,21 1.170,49 0,00 2.127,70 6.206,74 1.550,00 367,44 31/05/2019
932 487300 FELIPE FERNANDES SILVEIRA ASSESSOR ATIVO BELO HORIZONTE - COMARCA; DIVISAO DE MANUTENCAO PREDIAL 0,00 0,00 2.852,73 0,00 0,00 0,00 2.852,73 447,10 171,04 0,00 618,14 2.234,59 1.550,00 216,21 31/05/2019
933 620100 FELIPE GOMES DE AZEVEDO OFICIAL DO MP ATIVO BELO HORIZONTE - COMARCA; BH-18PJ VIOLENCIA DOMESTICA-SECRETARIA 4.058,04 243,48 0,00 0,00 0,00 0,00 4.301,52 506,05 225,25 0,00 731,30 3.570,22 1.550,00 298,88 31/05/2019
934 601600 FELIPE RODRIGUES DE SIQUEIRA ANALISTA DO MP ATIVO BELO HORIZONTE - COMARCA; BH-02PJ FAMILIA 7.576,76 757,68 0,00 0,00 0,00 0,00 8.334,44 1.076,36 1.275,42 0,00 2.351,78 5.982,66 1.550,00 1.791,29 31/05/2019
935 628900 FELIX FERNANDO JUNIO VIEIRA ANALISTA DO MP ATIVO CAETÉ - COMARCA; CAETE-PJ-02PJ 6.882,47 412,95 0,00 0,00 0,00 0,00 7.295,42 858,27 864,06 0,00 1.722,33 5.573,09 1.550,00 507,04 31/05/2019
936 544500 FELLIPE LEMOS MARCONDES BUENO ANALISTA DO MP ATIVO SÃO SEBASTIÃO DO PARAÍSO - COMARCA; SAO SEBASTIAO DO PARAISO-PJ-04PJ 7.576,76 757,68 0,00 0,00 0,00 0,00 8.334,44 952,73 1.170,49 0,00 2.123,22 6.211,22 1.550,00 326,71 31/05/2019
937 612600 FERNANDA ADRIANA DE PAULA GUIDO ANALISTA DO MP ATIVO PARACATU - COMARCA; PARACATU-PJ-02PJ 6.882,47 688,25 0,00 0,00 0,00 0,00 7.570,72 864,24 983,57 0,00 1.847,81 5.722,91 1.550,00 285,99 31/05/2019
938 508400 FERNANDA AGANETTI MATTOS DE OLIVEIRA ANALISTA DO MP ATIVO BELO HORIZONTE - COMARCA; BH-07PJ 02 TRIBUNAL DO JURI 9.337,87 933,79 0,00 0,00 0,00 0,00 10.271,66 1.273,65 1.644,63 0,00 2.918,28 7.353,38 2.249,00 1.306,96 31/05/2019
939 453600 FERNANDA ALBERNAZ RABELO ANALISTA DO MP ATIVO BELO HORIZONTE - COMARCA; GABINETE DE PROCURADOR DE JUSTIÇA - SALA 616 9.337,87 933,79 0,00 0,00 0,00 0,00 10.271,66 1.174,18 1.644,63 0,00 2.818,81 7.452,85 1.550,00 536,87 31/05/2019
940 255600 FERNANDA ALINA DE ALMEIDA ANDRADE OFICIAL DO MP ATIVO BELO HORIZONTE - COMARCA; NUCLEO DE INFORMACOES E INTELIGENCIA 8.214,70 2.464,41 0,00 0,00 0,00 0,00 10.679,11 1.222,09 1.744,35 0,00 2.966,44 7.712,67 1.550,00 434,88 31/05/2019
941 443200 FERNANDA ALMEIDA LOPES ANALISTA DO MP ATIVO CONTAGEM - COMARCA; CONTAGEM-PJ-23PJ 10.279,98 1.028,00 0,00 0,00 0,00 0,00 11.307,98 1.294,18 1.846,13 0,00 3.140,31 8.167,67 2.262,42 457,25 31/05/2019
942 281100 FERNANDA ANANIAS MEIRA ANALISTA DO MP ATIVO BELO HORIZONTE - COMARCA; BH-23PJ INFRACIONAL-ASS JURIDICA 13.715,83 4.114,75 0,00 0,00 0,00 0,00 17.830,58 2.034,57 3.494,68 0,00 5.529,25 12.301,33 1.550,00 665,55 31/05/2019
943 539000 FERNANDA BARBOSA ALVES ANALISTA DO MP ATIVO CANÁPOLIS - COMARCA; CANAPOLIS-PJ-SECRETARIA 7.576,76 757,68 0,00 0,00 0,00 0,00 8.334,44 952,73 1.170,49 0,00 2.123,22 6.211,22 2.249,00 435,61 31/05/2019
944 451200 FERNANDA BLOISE PRADO OFICIAL DO MP ATIVO BELO HORIZONTE - COMARCA; COORD ESTADUAL DE DEFESA DA FAUNA 6.665,41 666,54 0,00 0,00 0,00 0,00 7.331,95 862,57 925,14 0,00 1.787,71 5.544,24 1.550,00 509,58 31/05/2019
945 427900 FERNANDA BRAGA CARNEIRO BICALHO ANALISTA DO MP ATIVO PEÇANHA - COMARCA; PECANHA-PJ-SECRETARIA 9.337,87 1.867,57 0,00 0,00 0,00 0,00 11.205,44 1.276,90 1.821,03 0,00 3.097,93 8.107,51 2.249,00 402,65 31/05/2019
946 507100 FERNANDA CABRINI VAZ MOTA ANALISTA DO MP ATIVO BELO HORIZONTE - COMARCA; BH-14PJ DEFESA CONSUMIDOR-GAB 005PJ 9.337,87 933,79 0,00 0,00 0,00 0,00 10.271,66 1.273,65 1.644,63 0,00 2.918,28 7.353,38 2.249,00 1.306,96 31/05/2019
947 259800 FERNANDA CALZAVARA DE SOUSA COORDENADOR/OFICIAL ATIVO BELO HORIZONTE - COMARCA; DIRET DE FORMACAO, APERFEIC. E POS-GRADUACAO 0,00 3.737,65 12.458,83 0,00 0,00 0,00 16.196,48 1.571,60 3.115,69 0,00 4.687,29 11.509,19 2.249,00 634,91 31/05/2019
948 494400 FERNANDA CAMPOS BARATA OFICIAL DO MP ATIVO JUIZ DE FORA - COMARCA; JUIZ DE FORA-PJ-08PJ 4.995,72 499,57 0,00 0,00 0,00 0,00 5.495,29 672,67 475,61 0,00 1.148,28 4.347,01 1.550,00 619,94 31/05/2019
949 555600 FERNANDA CAROLINE RIBEIRO ASSESSOR/ANALISTA ATIVO BELO HORIZONTE - COMARCA; EXTINTA - DIRETORIA DE CONTRATOS E CONVÊNIOS 0,00 964,19 9.641,94 0,00 0,00 0,00 10.606,13 1.029,20 1.795,21 0,00 2.824,41 7.781,72 1.550,00 1.021,94 31/05/2019
950 294500 FERNANDA COSTA FLORES OFICIAL DO MP ATIVO PARÁ DE MINAS - COMARCA; PARA DE MINAS-PJ-04PJ 9.043,46 2.713,04 0,00 0,00 0,00 0,00 11.756,50 1.341,50 2.008,04 0,00 3.349,54 8.406,96 1.550,00 438,82 31/05/2019
951 344500 FERNANDA CRISTINA DE SOUZA PAZ ASSESSOR ATIVO BELO HORIZONTE - COMARCA; CENTRAL DE APOIO TECN-SETOR DE MEIO AMBIENTE 0,00 0,00 4.763,08 0,00 0,00 0,00 4.763,08 642,34 462,07 0,00 1.104,41 3.658,67 1.550,00 186,72 31/05/2019
952 538100 FERNANDA CRISTINA DOS SANTOS ROSA MOREIRA OFICIAL DO MP ATIVO RIBEIRÃO DAS NEVES - COMARCA; RIBEIRAO DAS NEVES-PJ-09PJ 4.838,22 1.451,47 0,00 0,00 2.096,56 0,00 8.386,25 718,99 1.246,59 0,00 1.965,58 6.420,67 1.550,00 246,56 31/05/2019
953 337800 FERNANDA CRISTINA ROLAND CLIMACO MENDES COORDENADOR/OFICIAL ATIVO BELO HORIZONTE - COMARCA; DIRETORIA DE PAGAMENTO DE PESSOAL-DPAG 0,00 2.491,77 12.458,83 0,00 0,00 0,00 14.950,60 1.421,25 2.862,53 0,00 4.283,78 10.666,82 1.550,00 586,07 31/05/2019
954 545400 FERNANDA CUNHA GUIMARAES ANALISTA DO MP ATIVO BELO HORIZONTE - COMARCA; COORD EST DEF DIR FAMILIA PESSOA DEFICI IDOSO 7.576,76 757,68 0,00 0,00 0,00 0,00 8.334,44 952,73 1.170,49 0,00 2.123,22 6.211,22 1.550,00 326,71 31/05/2019
955 429801 FERNANDA CUNHA PINHEIRO DA SILVA ANALISTA DO MP ATIVO BELO HORIZONTE - COMARCA; SUPERINTENDENCIA DE COMUNICACAO INTEGRADA 9.337,87 933,79 0,00 0,00 0,00 0,00 10.271,66 1.273,65 1.592,49 0,00 2.866,14 7.405,52 1.550,00 1.306,96 31/05/2019
956 408000 FERNANDA DAS NEVES RAMOS ANALISTA DO MP ATIVO BELO HORIZONTE - COMARCA; CENTRAL DE APOIO TECNICO-SETOR CONTABIL 11.317,16 2.263,43 0,00 0,00 0,00 0,00 13.580,59 1.668,12 2.454,49 0,00 4.122,61 9.457,98 2.249,00 1.584,17 31/05/2019
957 496000 FERNANDA DE ALMEIDA VIANA ANALISTA DO MP ATIVO BELO HORIZONTE - COMARCA; PROC JUST RECURSOS ESP E EXTRAORD CRIMINAIS 9.337,87 933,79 0,00 0,00 0,00 0,00 10.271,66 1.273,64 1.616,16 0,00 2.889,80 7.381,86 1.550,00 415,77 31/05/2019
958 266700 FERNANDA DE CASTRO LUCAS COORDENADOR/OFICIAL ATIVO BELO HORIZONTE - COMARCA; DIRET DE DESENV DE RECURSOS HUMANOS-DDRH 0,00 3.737,65 12.458,83 0,00 0,00 0,00 16.196,48 1.564,34 3.128,27 0,00 4.692,61 11.503,87 2.249,00 857,24 31/05/2019
959 433200 FERNANDA DE FIGUEIREDO NORTE ANALISTA DO MP ATIVO BELO HORIZONTE - COMARCA; ASSESS JUR DO CONS SUPERIOR DO MINISTERIO PUB 11.317,16 1.131,72 0,00 0,00 0,00 0,00 12.448,88 1.543,64 2.073,23 0,00 3.616,87 8.832,01 2.924,70 1.584,17 31/05/2019
960 419200 FERNANDA DE MIRANDA MARTINS SIMOES ANALISTA DO MP ATIVO UBERLÂNDIA - COMARCA; UBERLANDIA-PJ-26PJ 11.317,16 2.263,43 0,00 0,00 0,00 0,00 13.580,59 1.552,46 2.454,49 0,00 4.006,95 9.573,64 2.249,00 532,72 31/05/2019
961 441400 FERNANDA DE MORAIS PINTO ANALISTA DO MP ATIVO BELO HORIZONTE - COMARCA; PROC. JUSTICA DIR. DIFUSOS E COLETIVOS-SEC 10.279,98 1.028,00 0,00 0,00 0,00 0,00 11.307,98 1.330,31 1.898,27 0,00 3.228,58 8.079,40 1.550,00 785,80 31/05/2019
962 432200 FERNANDA DE MOURA GUIMARAES ANALISTA DO MP ATIVO BELO HORIZONTE - COMARCA; ASSESS TECNICO-JUR JUNTO AS PROC. DE JUST 10.279,98 1.028,00 0,00 0,00 0,00 0,00 11.307,98 1.294,18 1.898,27 0,00 3.192,45 8.115,53 2.249,00 457,25 31/05/2019
963 461800 FERNANDA DE OLIVEIRA SANTOS ANALISTA DO MP ATIVO JUIZ DE FORA - COMARCA; JUIZ DE FORA-PJ-21PJ 9.337,87 933,79 0,00 0,00 0,00 0,00 10.271,66 1.174,18 1.644,63 0,00 2.818,81 7.452,85 2.948,00 402,65 31/05/2019
964 432500 FERNANDA DE PAULA PINTO ANALISTA DO MP ATIVO BELO HORIZONTE - COMARCA; PROC JUST RECURSOS ESP E EXTRAORD CRIMINAIS 10.279,98 1.028,00 0,00 0,00 0,00 0,00 11.307,98 1.330,31 1.898,27 0,00 3.228,58 8.079,40 1.550,00 785,80 31/05/2019
965 431600 FERNANDA DIAS BARBOSA PEREIRA ANALISTA DO MP ATIVO OURO BRANCO - COMARCA; OURO BRANCO-PJ-UNPJ 10.279,98 1.028,00 0,00 0,00 0,00 0,00 11.307,98 1.294,18 1.793,99 0,00 3.088,17 8.219,81 2.948,56 457,25 31/05/2019
966 162200 FERNANDA FERNANDES MONTEIRO ASSESSOR ATIVO BELO HORIZONTE - COMARCA; BH-12PJ JUIZO CRIMINAL-SECRETARIA 0,00 1.905,23 4.763,08 0,00 0,00 0,00 6.668,31 642,34 1.038,14 0,00 1.680,48 4.987,83 1.550,00 261,41 31/05/2019
967 512800 FERNANDA FERREIRA BARBOSA MOREIRA ANALISTA DO MP ATIVO IPATINGA - COMARCA; IPATINGA-PJ-01PJ 9.337,87 933,79 0,00 0,00 0,00 0,00 10.271,66 1.273,65 1.644,63 0,00 2.918,28 7.353,38 2.948,00 1.306,96 31/05/2019
968 329200 FERNANDA GABRIEL GUZELLA OFICIAL DO MP ATIVO BELO HORIZONTE - COMARCA; DIRET DE PLANOS PROJETOS E PROGRAMAS INST 7.955,66 1.591,13 0,00 0,00 0,00 0,00 9.546,79 1.092,00 1.467,22 0,00 2.559,22 6.987,57 1.550,00 380,46 31/05/2019
969 324200 FERNANDA GEORGIA NEVES ZAHAN OFICIAL DO MP ATIVO IPANEMA - COMARCA; IPANEMA-PJ-SECRETARIA 7.106,49 4.974,55 0,00 0,00 0,00 0,00 12.081,04 1.421,26 2.087,48 0,00 3.508,74 8.572,30 1.550,00 839,52 31/05/2019
970 548200 FERNANDA GONCALVES DE CARVALHO ZUZA OFICIAL DO MP ATIVO TUPACIGUARA - COMARCA; TUPACIGUARA-PJ-UNPJ 4.467,49 446,75 0,00 0,00 0,00 0,00 4.914,24 564,40 347,95 0,00 912,35 4.001,89 1.550,00 216,66 31/05/2019
971 355400 FERNANDA HELENA BASQUES OFICIAL DO MP ATIVO SABARÁ - COMARCA; SABARA-PJ-01PJ 7.955,66 1.591,13 0,00 0,00 0,00 0,00 9.546,79 1.094,52 1.467,22 0,00 2.561,74 6.985,05 1.550,00 403,30 31/05/2019
972 454800 FERNANDA IATAROLA BARBOSA DIAS ANALISTA DO MP ATIVO BARBACENA - COMARCA; BARBACENA-PJ-05PJ 9.337,87 933,79 0,00 0,00 0,00 0,00 10.271,66 1.174,18 1.592,49 0,00 2.766,67 7.504,99 1.550,00 402,65 31/05/2019
973 515500 FERNANDA LILIANE MARUGEIRO ANALISTA DO MP ATIVO BELO HORIZONTE - COMARCA; BH-18PJ VIOLENCIA DOMESTICA-SECRETARIA 9.337,87 933,79 0,00 0,00 0,00 0,00 10.271,66 1.273,65 1.592,49 0,00 2.866,14 7.405,52 2.249,00 1.306,96 31/05/2019
974 392900 FERNANDA MAGALHAES SILVA ANALISTA DO MP ATIVO BELO HORIZONTE - COMARCA; DIRETORIA DE IMPRENSA 11.685,57 2.337,11 0,00 0,00 0,00 0,00 14.022,68 1.604,71 2.562,69 0,00 4.167,40 9.855,28 1.550,00 748,82 31/05/2019
975 409200 FERNANDA MAIA SANTIAGO CARDOSO ANALISTA DO MP ATIVO PIRAPORA - COMARCA; PIRAPORA-PJ-02PJ 9.043,46 1.808,69 0,00 0,00 0,00 0,00 10.852,15 1.269,79 1.786,70 0,00 3.056,49 7.795,66 2.249,00 691,28 31/05/2019
976 556500 FERNANDA OTERO COSTA ANALISTA DO MP ATIVO BELO HORIZONTE - COMARCA; ASSESS TECNICO-JUR JUNTO AS PROC. DE JUST 8.214,70 821,47 0,00 0,00 0,00 0,00 9.036,17 1.102,99 1.342,24 0,00 2.445,23 6.590,94 1.550,00 991,02 31/05/2019
977 615300 FERNANDA PATRICIA RIBEIRO MOTA OFICIAL DO MP ATIVO UBERABA - COMARCA; UBERABA-PJ-05PJ 4.058,04 405,80 0,00 0,00 0,00 0,00 4.463,84 528,02 290,26 0,00 818,28 3.645,56 1.550,00 336,26 31/05/2019
978 619800 FERNANDA PINTO PEREIRA ANALISTA DO MP ATIVO UBERLÂNDIA - COMARCA; UBERLANDIA-PJ-20PJ 6.882,47 412,95 0,00 0,00 0,00 0,00 7.295,42 858,27 864,06 0,00 1.722,33 5.573,09 2.249,00 507,04 31/05/2019
979 412900 FERNANDA PORTELA ROSA ANALISTA DO MP ATIVO BELO HORIZONTE - COMARCA; BH-08PJ JUIZADO ESPECIAL-SECRETARIA 11.317,16 2.263,43 0,00 0,00 0,00 0,00 13.580,59 1.632,05 2.625,42 0,00 4.257,47 9.323,12 2.249,00 1.256,22 31/05/2019
980 274301 FERNANDA QUEIROZ PARREIRA ANALISTA DO MP ATIVO PATOS DE MINAS - COMARCA; COORD REG PJ DEF EDU DIR CRI ADO AL PAR NOROE 9.337,03 933,79 0,00 0,00 0,00 0,00 10.270,82 1.273,65 1.644,40 0,00 2.918,05 7.352,77 1.550,00 1.304,65 31/05/2019
981 467900 FERNANDA QUEIROZ SIMOES GANNAM ANALISTA DO MP ATIVO SÃO LOURENÇO - COMARCA; SAO LOURENCO-PJ-02PJ 9.337,87 933,79 0,00 0,00 0,00 0,00 10.271,66 1.174,18 1.592,49 0,00 2.766,67 7.504,99 2.249,00 402,65 31/05/2019
982 255500 FERNANDA SIMOES LOPES MENDES ANALISTA DO MP ATIVO BELO HORIZONTE - COMARCA; BH-17PJ PATRIMONIO PUBLICO-SECRETARIA 15.533,57 4.660,07 0,00 0,00 0,00 0,00 20.193,64 2.496,81 3.968,76 0,00 6.465,57 13.728,07 1.550,00 2.504,59 31/05/2019
983 481700 FERNANDA VIANA FROES DA SILVA OFICIAL DO MP ATIVO GOVERNADOR VALADARES - COMARCA; GOVERNADOR VALADARES-PJ-09PJ 6.251,74 625,17 0,00 0,00 0,00 0,00 6.876,91 787,06 813,76 0,00 1.600,82 5.276,09 2.249,00 278,08 31/05/2019
984 123900 FERNANDO ANTONIO FARIA DE ABREU DIRETOR/ANALISTA ATIVO BELO HORIZONTE - COMARCA; SUPERINTENDÊNCIA DE ENGENHARIA E ARQUITETURA 24.547,70 26.614,51 0,00 0,00 0,00 3.900,84 55.063,05 3.900,84 8.882,75 15.699,99 28.483,58 26.579,47 7.223,95 520,11 31/05/2019
985 416900 FERNANDO APARECIDO DA SILVA ANALISTA DO MP ATIVO BOM DESPACHO - COMARCA; BOM DESPACHO-PJ-02PJ 10.279,98 5.139,99 0,00 0,00 0,00 0,00 15.419,97 1.814,06 2.800,40 0,00 4.614,46 10.805,51 1.550,00 1.071,54 31/05/2019
986 380500 FERNANDO BONES COSTA OFICIAL DO MP ATIVO BELO HORIZONTE - COMARCA; EXTINTA - DIVISÃO DE MATERIAL PERMANENTE 5.678,79 1.135,76 0,00 0,00 0,00 0,00 6.814,55 778,99 798,50 0,00 1.577,49 5.237,06 1.550,00 267,13 31/05/2019
987 500100 FERNANDO CEZAR PINTO COORDENADOR/OFICIAL ATIVO BELO HORIZONTE - COMARCA; EXTINTA - DIVISÃO DE MATERIAL PERMANENTE 0,00 1.096,03 10.960,26 0,00 0,00 0,00 12.056,29 809,34 2.179,31 0,00 2.988,65 9.067,64 1.550,00 415,77 31/05/2019
988 346100 FERNANDO EUSTAQUIO CAMPOS UTSCH MOREIRA ANALISTA DO MP ATIVO BELO HORIZONTE - COMARCA; DIRETORIA DE SISTEMAS DE INFORMACAO 13.283,29 2.656,66 0,00 0,00 0,00 0,00 15.939,95 1.828,43 2.927,67 0,00 4.756,10 11.183,85 1.749,95 701,20 31/05/2019
989 103500 FERNANDO LUIZ DA SILVA JUNIOR OFICIAL DO MP ATIVO BELO HORIZONTE - COMARCA; DIVISAO DE ATENDIMENTO E CONSULTA JURIDICA 17.452,52 8.726,26 0,00 0,00 0,00 0,00 26.178,78 2.992,56 5.537,90 0,00 8.530,46 17.648,32 6.991,01 1.506,17 31/05/2019
990 287300 FERNANDO MARCIO ALVES MARTINS OFICIAL DO MP ATIVO LEOPOLDINA - COMARCA; LEOPOLDINA-PJ-01PJ 7.106,49 2.131,95 0,00 0,00 0,00 0,00 9.238,44 1.081,42 1.235,34 0,00 2.316,76 6.921,68 1.550,00 592,60 31/05/2019
991 262200 FERNANDO MARCIO RESENDE PEREIRA OFICIAL DO MP ATIVO BELO HORIZONTE - COMARCA; DIR ESTRUTURA E PROCESSOS ORGANIZACIONAIS 8.758,36 2.627,51 0,00 0,00 0,00 0,00 11.385,87 1.306,76 1.917,33 0,00 3.224,09 8.161,78 1.550,00 505,09 31/05/2019
992 472900 FERNANDO RODRIGUES DE FREITAS ANALISTA DO MP ATIVO BELO HORIZONTE - COMARCA; BH-15PJ M AMB PAT HIST CULT-ASS TECNICA 9.337,87 933,79 0,00 0,00 0,00 0,00 10.271,66 1.174,18 1.644,63 0,00 2.818,81 7.452,85 1.550,00 536,87 31/05/2019
993 421400 FERNANDO TEODORO MACIEL ANALISTA DO MP ATIVO SANTA VITÓRIA - COMARCA; SANTA VITORIA-PJ-UNPJ 9.641,94 1.928,39 0,00 0,00 0,00 0,00 11.570,33 1.353,83 1.858,20 0,00 3.212,03 8.358,30 2.249,00 737,13 31/05/2019
994 446300 FERNANDO VITOR DE OLIVEIRA ANALISTA DO MP ATIVO MONTES CLAROS - COMARCA; COORD REG BACIA RIOS VERDE GRANDE E PARDO 10.279,98 1.028,00 0,00 0,00 0,00 0,00 11.307,98 1.294,18 1.898,27 0,00 3.192,45 8.115,53 2.454,64 540,18 31/05/2019
995 639300 FILIPE ALMEIDA RODRIGUES ANALISTA DO MP ATIVO TIMÓTEO - COMARCA; TIMOTEO-PJ-04PJ 6.665,41 399,92 0,00 0,00 0,00 0,00 7.065,33 870,48 859,88 0,00 1.730,36 5.334,97 1.550,00 848,11 31/05/2019
996 398400 FLAVIA ALVARES GUIMARAES COORDENADOR/OFICIAL ATIVO BELO HORIZONTE - COMARCA; CGMP-DIVIS DE APOIO FISC ORIENTACAO FUNCIONAL 0,00 2.192,05 10.960,26 0,00 0,00 0,00 13.152,31 1.124,12 2.397,35 0,00 3.521,47 9.630,84 1.550,00 558,54 31/05/2019
997 398200 FLAVIA ALVES DE ASSUNCAO RODRIGUES ANALISTA DO MP ATIVO DIVINÓPOLIS - COMARCA; COORD REG DO MA DA BACIA DO ALTO SAO FRANC 10.279,98 2.056,00 0,00 0,00 0,00 0,00 12.335,98 1.416,13 2.097,73 0,00 3.513,86 8.822,12 2.253,84 537,85 31/05/2019
998 318500 FLAVIA BEATRIZ NUNES CRUZ VIEIRA ANALISTA DO MP ATIVO BARBACENA - COMARCA; BARBACENA-PJ-SECRETARIA 13.715,83 2.743,17 0,00 0,00 0,00 0,00 16.459,00 1.936,33 3.054,71 0,00 4.991,04 11.467,96 2.615,04 1.143,90 31/05/2019
999 496500 FLAVIA CARAM BORLIDO ANALISTA DO MP ATIVO BELO HORIZONTE - COMARCA; EXTINTA - DIVISAO DE SERVICOS GERAIS 9.955,90 995,59 0,00 0,00 0,00 0,00 10.951,49 1.288,39 1.811,02 0,00 3.099,41 7.852,08 1.550,00 761,13 31/05/2019
1000 534800 FLAVIA CONDE SOARES ANALISTA DO MP ATIVO BELO HORIZONTE - COMARCA; BH-13PJ JUÍZO DE TÓXICOS-ASSESSORIA JURIDICA 7.576,76 757,68 0,00 0,00 0,00 0,00 8.334,44 952,73 1.170,49 0,00 2.123,22 6.211,22 1.550,00 326,71 31/05/2019
1001 219500 FLAVIA CRISTINA ANCELMO OFICIAL DO MP ATIVO BELO HORIZONTE - COMARCA; CAO-DIREITOS HUMANOS E APOIO COMUNITARIO 8.758,36 2.627,51 0,00 0,00 0,00 0,00 11.385,87 1.339,49 1.917,33 0,00 3.256,82 8.129,05 1.550,00 791,23 31/05/2019
1002 329600 FLAVIA CRISTINA DE MATOS XAVIER ANALISTA DO MP ATIVO UBERABA - COMARCA; UBERABA-PJ-15PJ 13.715,83 4.114,75 0,00 0,00 0,00 0,00 17.830,58 2.097,67 3.390,40 0,00 5.488,07 12.342,51 1.550,00 1.239,22 31/05/2019
1003 207600 FLAVIA DE ANDRADE MANCINI ANALISTA DO MP ATIVO BELO HORIZONTE - COMARCA; ASSESSORIA JURIDICO-ADMINISTRATIVA 17.452,52 5.235,76 0,00 0,00 0,00 0,00 22.688,28 2.593,55 4.527,19 0,00 7.120,74 15.567,54 7.173,07 1.388,54 31/05/2019
1004 402801 FLAVIA MARIA DE RESENDE NASCIMENTO ANALISTA DO MP ATIVO SÃO JOÃO DEL REI - COMARCA; SAO JOAO DEL REI-PJ-04PJ 9.337,87 933,79 0,00 0,00 0,00 0,00 10.271,66 1.273,65 1.644,63 0,00 2.918,28 7.353,38 1.550,00 1.306,96 31/05/2019
1005 437500 FLAVIA MARIA TORRES MARCHETTI ANALISTA DO MP ATIVO BELO HORIZONTE - COMARCA; BH-18PJ VIOLENCIA DOMESTICA 9.641,94 964,19 0,00 0,00 0,00 0,00 10.606,13 1.210,97 1.622,22 0,00 2.833,19 7.772,94 2.948,00 402,65 31/05/2019
1006 386000 FLAVIA NEVES BRIGIDO ASSESSOR/OFICIAL ATIVO BELO HORIZONTE - COMARCA; PROMOT ESTADUAL DE DEF PATRI CULT E TUR DE MG 0,00 1.928,39 9.641,94 0,00 0,00 0,00 11.570,33 1.111,83 2.016,52 0,00 3.128,35 8.441,98 1.550,00 453,56 31/05/2019
1007 488600 FLAVIA PEREIRA COSTA ANALISTA DO MP ATIVO BELO HORIZONTE - COMARCA; CENTRAL DE APOIO TECNICO 9.337,87 933,79 0,00 0,00 0,00 0,00 10.271,66 1.273,65 1.644,63 0,00 2.918,28 7.353,38 7.590,26 1.796,58 31/05/2019
1008 365400 FLAVIA PEREIRA DA SILVA OFICIAL DO MP ATIVO BELO HORIZONTE - COMARCA; BH-15PJ M AMB PAT HIST CULT-GAB 115PJ 7.955,66 1.591,13 0,00 0,00 0,00 0,00 9.546,79 1.108,08 1.467,22 0,00 2.575,30 6.971,49 1.550,00 526,63 31/05/2019
1009 515400 FLAVIA RODRIGUES DE OLIVEIRA E SILVA PAIVA ANALISTA DO MP ATIVO CARATINGA - COMARCA; CARATINGA-PJ-05PJ 9.337,87 933,79 0,00 0,00 0,00 0,00 10.271,66 1.273,65 1.488,22 0,00 2.761,87 7.509,79 1.550,00 1.306,96 31/05/2019
1010 621600 FLAVIA SARMENTO RODRIGUES ANALISTA DO MP ATIVO BELO HORIZONTE - COMARCA; EXTINTA - DIVISAO DE SERVICOS GERAIS 6.882,47 412,95 0,00 0,00 0,00 0,00 7.295,42 858,27 916,19 0,00 1.774,46 5.520,96 1.550,00 507,04 31/05/2019
1011 535800 FLAVIA SILVA VALADAO OFICIAL DO MP ATIVO TRÊS CORACOES - COMARCA; TRES CORACOES-PJ-04PJ 4.467,49 446,75 0,00 0,00 0,00 0,00 4.914,24 561,76 305,29 0,00 867,05 4.047,19 2.249,00 192,64 31/05/2019
1012 515300 FLAVIA VIEIRA OLIVEIRA GOMES ANALISTA DO MP ATIVO BELO HORIZONTE - COMARCA; ASSESS TECNICO-JUR JUNTO AS PROC. DE JUST 9.337,87 933,79 0,00 0,00 3.423,89 0,00 13.695,55 1.273,65 2.586,20 0,00 3.859,85 9.835,70 1.550,00 1.306,96 31/05/2019
1013 377500 FLAVIANA GONCALVES DE OLIVEIRA ANALISTA DO MP ATIVO IPATINGA - COMARCA; IPATINGA-PJ-02PJ 11.685,57 2.337,11 0,00 0,00 0,00 0,00 14.022,68 1.649,68 2.562,69 0,00 4.212,37 9.810,31 1.550,00 974,48 31/05/2019
1014 273100 FLAVIANE DOS SANTOS CASTRO OFICIAL DO MP ATIVO CAXAMBU - COMARCA; CAXAMBU-PJ-SECRETARIA 8.758,36 2.627,51 0,00 0,00 0,00 0,00 11.385,87 1.299,20 1.813,06 0,00 3.112,26 8.273,61 1.550,00 424,99 31/05/2019
1015 310600 FLAVIANE NAVES ALCANTARA OFICIAL DO MP ATIVO BELO HORIZONTE - COMARCA; COMB CRIMES PRAT POR AG POL MUN-SECRETARIA 9.641,94 1.928,39 0,00 0,00 0,00 0,00 11.570,33 1.480,93 1.949,76 0,00 3.430,69 8.139,64 2.249,00 1.472,30 31/05/2019
1016 378201 FLAVIANE RIBEIRO BORGES OFICIAL DO MP ATIVO SÃO GONÇALO DO SAPUCAÍ - COMARCA; SAO GONCALO DO SAPUCAI-PJ-02PJ 4.763,08 476,31 0,00 0,00 0,00 0,00 5.239,39 598,92 413,06 0,00 1.011,98 4.227,41 1.550,00 205,39 31/05/2019
1017 455800 FLAVIO ANTONIO RIBEIRO OFICIAL DO MP ATIVO BELO HORIZONTE - COMARCA; GRUPO ESP PROM PROC JUST DEF PROB ADM PAT PUB 5.158,42 515,84 0,00 0,00 0,00 0,00 5.674,26 667,55 519,41 0,00 1.186,96 4.487,30 1.550,00 394,39 31/05/2019
1018 458200 FLAVIO AUGUSTO BRAGA SOARES ANALISTA DO MP ATIVO BELO HORIZONTE - COMARCA; DIVISAO DE CONTROLE IMOBILIARIO 10.279,98 1.028,00 0,00 0,00 0,00 0,00 11.307,98 1.330,31 1.898,27 0,00 3.228,58 8.079,40 1.550,00 785,80 31/05/2019
1019 516500 FLAVIO AUGUSTO RODRIGUES CORREA ANALISTA DO MP ATIVO BELO HORIZONTE - COMARCA; COORD REG BACIAS RIO VELHAS E PARAOPEBA 9.337,87 933,79 0,00 0,00 0,00 0,00 10.271,66 1.273,65 1.644,63 0,00 2.918,28 7.353,38 1.550,00 1.306,96 31/05/2019
1020 84300 FLAVIO DE FARIA BELTRAO OFICIAL DO MP ATIVO BELO HORIZONTE - COMARCA; DIRETORIA DE ADMINISTRACAO FINANCEIRA 22.030,87 17.624,70 0,00 0,00 0,00 0,00 39.655,57 3.900,84 7.810,02 4.193,35 15.904,21 23.751,36 1.550,00 0,00 31/05/2019
1021 266600 FLAVIO GUIMARAES LANA ANALISTA DO MP ATIVO BELO HORIZONTE - COMARCA; CENTRAL DE APOIO TECN-SETOR DE MEIO AMBIENTE 11.685,57 3.505,67 0,00 0,00 0,00 0,00 15.191,24 1.733,42 2.848,70 0,00 4.582,12 10.609,12 1.550,00 750,26 31/05/2019
1022 552600 FLAVIO HENRIQUE EVARISTO GOMES ASSESSOR/ANALISTA ATIVO BELO HORIZONTE - COMARCA; DIRETORIA DE SUPORTE E MANUTENCAO 0,00 964,19 9.641,94 0,00 0,00 0,00 10.606,13 957,56 1.794,34 0,00 2.751,90 7.854,23 1.550,00 435,93 31/05/2019
1023 640000 FLAVIO HENRIQUE PEREIRA VELOSO OFICIAL DO MP ATIVO BELO HORIZONTE - COMARCA; DIVISÃO DE FISCALIZAÇÃO DAS RELAÇÕES DE CONSU 3.930,12 235,81 0,00 0,00 0,00 0,00 4.165,93 513,26 518,82 0,00 1.032,08 3.133,85 1.550,00 1.892,94 31/05/2019
1024 241500 FLAVIO HENRIQUE SILVA MARTINS LAGE OFICIAL DO MP ATIVO BELO HORIZONTE - COMARCA; CAO-CRIANCAS E ADOLESCENTES-SECRETARIA 9.043,46 3.617,38 0,00 0,00 0,00 0,00 12.660,84 1.448,89 2.229,38 0,00 3.678,27 8.982,57 1.550,00 510,84 31/05/2019
1025 86700 FLAVIO LUCAS TOMAZ AGENTE DO MP ATIVO BELO HORIZONTE - COMARCA; SECRETARIA DO PROCON-MG 7.576,76 5.303,73 0,00 0,00 0,00 0,00 12.880,49 1.597,14 1.655,96 0,00 3.253,10 9.627,39 1.550,00 1.638,97 31/05/2019
1026 407200 FLAVIO LUCIO MONTEIRO PENA ANALISTA DO MP ATIVO BELO HORIZONTE - COMARCA; DIRETORIA DE IMPRENSA 9.337,87 1.867,57 0,00 0,00 0,00 0,00 11.205,44 1.276,90 2.381,49 0,00 3.658,39 7.547,05 2.249,00 2.251,07 31/05/2019
1027 451700 FLAVIO MAGALHAES PEREIRA ANALISTA DO MP ATIVO BELO HORIZONTE - COMARCA; BH-12PJ JUIZO CRIMINAL-GAB 098PJ 9.337,87 933,79 0,00 0,00 0,00 0,00 10.271,66 1.174,18 1.644,63 0,00 2.818,81 7.452,85 2.249,00 402,65 31/05/2019
1028 481500 FLAVIO NEVES GUELBER DE MACEDO OFICIAL DO MP ATIVO SÃO JOÃO NEPOMUCENO - COMARCA; SAO JOAO NEPOMUCENO-PJ-02PJ 5.678,79 567,88 0,00 0,00 0,00 0,00 6.246,67 734,87 659,51 0,00 1.394,38 4.852,29 1.550,00 434,06 31/05/2019
1029 547500 FRANCELINO MOREIRA DA SILVA ANALISTA DO MP ATIVO BELO HORIZONTE - COMARCA; BH-10PJ EXECUÇÃO PENAL-SECRETARIA 7.576,76 757,68 0,00 0,00 0,00 0,00 8.334,44 957,21 1.170,49 0,00 2.127,70 6.206,74 3.297,00 367,44 31/05/2019
1030 278100 FRANCIANE MARY DE SOUZA ANALISTA DO MP ATIVO BELO HORIZONTE - COMARCA; BH-12PJ JUIZO CRIMINAL-GAB 083PJ 14.941,94 4.482,58 0,00 0,00 0,00 0,00 19.424,52 2.286,19 3.832,65 0,00 6.118,84 13.305,68 1.930,50 1.358,97 31/05/2019
1031 646500 FRANCIELLE CAROLINE PEREIRA DOS SANTOS ASSESSOR ATIVO BELO HORIZONTE - COMARCA; CENT DE ATENDIMENTO E ORIENTACAO DE PESSOAL 0,00 0,00 2.852,73 0,00 0,00 0,00 2.852,73 447,10 142,61 0,00 589,71 2.263,02 1.550,00 111,83 31/05/2019
1032 192501 FRANCIELLE REIS DE OLIVEIRA ANALISTA DO MP ATIVO PASSOS - COMARCA; PASSOS-PJ-04PJ 14.162,21 4.248,66 0,00 0,00 0,00 0,00 18.410,87 2.155,09 3.532,42 0,00 5.687,51 12.723,36 5.232,17 1.518,39 31/05/2019
1033 645100 FRANCIELY CRISTINA COSTA TARQUINIO RIBEIRO ASSESSOR ATIVO BELO HORIZONTE - COMARCA; CHEFIA DE GABINETE 0,00 0,00 4.763,08 0,00 0,00 0,00 4.763,08 642,34 566,34 0,00 1.208,68 3.554,40 1.550,00 186,72 31/05/2019
1034 523600 FRANCINE MOURA LIMIRIO OFICIAL DO MP ATIVO UBERABA - COMARCA; UBERABA-PJ-02PJ 6.054,65 605,47 0,00 0,00 0,00 0,00 6.660,12 783,53 760,71 0,00 1.544,24 5.115,88 1.550,00 462,90 31/05/2019
1035 467200 FRANCINI RENNO ANALISTA DO MP ATIVO CASSIA - COMARCA; CASSIA-PJ-01PJ 9.337,87 933,79 0,00 0,00 0,00 0,00 10.271,66 1.174,18 1.644,63 0,00 2.818,81 7.452,85 1.550,00 402,65 31/05/2019
1036 189300 FRANCIS BERNARDO DO NASCIMENTO OFICIAL DO MP ATIVO VARGINHA - COMARCA; VARGINHA-PJ-05PJ 13.283,29 5.313,32 0,00 0,00 0,00 0,00 18.596,61 2.287,35 3.577,89 0,00 5.865,24 12.731,37 2.992,86 2.265,59 31/05/2019
1037 207800 FRANCISCO CAMPOS PIRES DE MORAIS ANALISTA DO MP ATIVO BELO HORIZONTE - COMARCA; CENTRAL DE APOIO TECN-SETOR DE MEIO AMBIENTE 17.452,52 5.235,76 0,00 0,00 0,00 0,00 22.688,28 2.593,55 4.579,32 0,00 7.172,87 15.515,41 6.265,54 1.305,35 31/05/2019
1038 204600 FRANCISCO FERREIRA NOVAIS OFICIAL DO MP ATIVO IPATINGA - COMARCA; IPATINGA-PJ-08PJ 10.279,98 4.111,99 0,00 0,00 0,00 0,00 14.391,97 1.647,14 2.548,80 0,00 4.195,94 10.196,03 1.550,00 581,96 31/05/2019
1039 411600 FRANCISCO PAIVA BRITO ANALISTA DO MP ATIVO BELO HORIZONTE - COMARCA; BH-07PJ 01 TRIBUNAL DO JURI 9.337,87 1.867,57 0,00 0,00 0,00 0,00 11.205,44 1.276,90 1.873,17 0,00 3.150,07 8.055,37 1.550,00 536,87 31/05/2019
1040 515800 FRANCISCO RAFAEL DA SILVA NETO ANALISTA DO MP ATIVO SACRAMENTO - COMARCA; SACRAMENTO-PJ-01PJ 7.823,48 782,35 0,00 0,00 0,00 0,00 8.605,83 1.067,09 1.132,64 0,00 2.199,73 6.406,10 1.550,00 1.095,12 31/05/2019
1041 515200 FRANCISLEI ELIAS GONCALVES OFICIAL DO MP ATIVO PASSOS - COMARCA; PASSOS-PJ-07PJ 5.499,78 1.649,93 0,00 0,00 0,00 0,00 7.149,71 886,55 724,12 0,00 1.610,67 5.539,04 1.550,00 909,87 31/05/2019
1042 443600 FRANCISLEI MARTINS DE SOUSA ANALISTA DO MP ATIVO TIMÓTEO - COMARCA; TIMOTEO-PJ-01PJ 9.337,87 933,79 0,00 0,00 0,00 0,00 10.271,66 1.174,18 1.644,63 0,00 2.818,81 7.452,85 2.948,00 402,65 31/05/2019
1043 424500 FREDERICO AUGUSTO COBRA MULLER ANALISTA DO MP ATIVO POUSO ALEGRE - COMARCA; POUSO ALEGRE-PJ-02PJ 9.337,87 1.867,57 0,00 0,00 0,00 0,00 11.205,44 1.276,90 1.873,17 0,00 3.150,07 8.055,37 1.550,00 402,65 31/05/2019
1044 473100 FREDERICO AUGUSTO LIMA FELICIO ANALISTA DO MP ATIVO CONCEIÇÃO DO MATO DENTRO - COMARCA; CONCEICAO DO MATO DENTRO-PJ-UNPJ 9.337,87 933,79 0,00 0,00 0,00 0,00 10.271,66 1.174,18 1.644,63 0,00 2.818,81 7.452,85 1.550,00 402,65 31/05/2019
1045 124200 FREDERICO DE SOUZA ROCHA OFICIAL DO MP ATIVO ESPINOSA - COMARCA; ESPINOSA-PJ-SECRETARIA 14.372,91 11.498,32 0,00 0,00 0,00 2.845,84 28.717,07 3.164,70 6.140,95 0,00 9.305,65 19.411,42 7.753,86 3.687,57 31/05/2019
1046 177100 FREDERICO FERNANDES DE ANDRADE OFICIAL DO MP ATIVO BELO HORIZONTE - COMARCA; SUPERINTENDENCIA DE TECNOLOGIA DA INFORMACAO 11.317,16 3.395,15 0,00 0,00 0,00 0,00 14.712,31 1.687,60 2.731,48 0,00 4.419,08 10.293,23 1.550,00 629,58 31/05/2019
1047 456200 FREDERICO FERNANDES PASSOS ANALISTA DO MP ATIVO BELO HORIZONTE - COMARCA; DIRETORIA DE REDES E BANCOS DE DADOS 10.279,98 1.028,00 0,00 0,00 0,00 0,00 11.307,98 1.330,31 1.898,27 0,00 3.228,58 8.079,40 2.249,00 785,80 31/05/2019
1048 400900 FREDERICO LUCIANO BORGES REIS ANALISTA DO MP ATIVO BELO HORIZONTE - COMARCA; DIRETORIA DE SISTEMAS DE INFORMACAO 11.317,16 2.263,43 0,00 0,00 0,00 0,00 13.580,59 1.552,46 2.350,22 0,00 3.902,68 9.677,91 2.249,00 532,72 31/05/2019
1049 466200 FREDERICO LUIS FERNANDES ANALISTA DO MP ATIVO BELO HORIZONTE - COMARCA; BH-12PJ JUIZO CRIMINAL-GAB 097PJ 9.337,87 933,79 0,00 0,00 3.423,89 0,00 13.695,55 1.174,18 2.534,06 0,00 3.708,24 9.987,31 1.550,00 402,65 31/05/2019
1050 419700 FREDERICO MECKLER SANTOS ANALISTA DO MP ATIVO CLÁUDIO - COMARCA; CLAUDIO-PJ-UNPJ 10.279,98 2.056,00 0,00 0,00 0,00 0,00 12.335,98 1.407,26 2.097,73 0,00 3.504,99 8.830,99 1.550,00 457,25 31/05/2019
1051 621700 GABRIEL ANDRADE SOUZA GROSSI RIBEIRO OFICIAL DO MP ATIVO BETIM - COMARCA; BETIM-PJ-SECRETARIA 4.058,04 243,48 0,00 0,00 0,00 0,00 4.301,52 506,05 225,25 0,00 731,30 3.570,22 1.550,00 298,88 31/05/2019
1052 613600 GABRIEL BASTOS MEIRELES ANALISTA DO MP ATIVO BELO HORIZONTE - COMARCA; BH-16PJ HABITACAO E URBANISMO 6.251,74 625,17 0,00 0,00 0,00 0,00 6.876,91 785,04 813,76 0,00 1.598,80 5.278,11 1.550,00 259,77 31/05/2019
1053 629500 GABRIEL TEIXEIRA DE OLIVEIRA ANALISTA DO MP ATIVO UBERLÂNDIA - COMARCA; UBERLANDIA-PJ-02PJ 6.882,47 412,95 0,00 0,00 0,00 0,00 7.295,42 858,27 916,19 0,00 1.774,46 5.520,96 1.550,00 507,04 31/05/2019
1054 617900 GABRIELA CIRILA ROQUE ANALISTA DO MP ATIVO ITABIRA - COMARCA; ITABIRA-PJ-04PJ 6.882,47 412,95 0,00 0,00 0,00 0,00 7.295,42 858,27 916,19 0,00 1.774,46 5.520,96 2.249,00 507,04 31/05/2019
1055 386800 GABRIELA SIMOES CHAVES ANALISTA DO MP ATIVO BELO HORIZONTE - COMARCA; EXTINTA - DIVISÃO DE COMPRAS 11.685,57 2.337,11 0,00 0,00 0,00 0,00 14.022,68 1.649,68 2.562,69 0,00 4.212,37 9.810,31 2.948,00 974,48 31/05/2019
1056 449700 GABRIELE COSTA FERREIRA OFICIAL DO MP ATIVO BELO HORIZONTE - COMARCA; DIRETORIA DE ADMINISTRACAO FINANCEIRA 6.054,65 605,47 0,00 0,00 0,00 0,00 6.660,12 783,53 760,71 0,00 1.544,24 5.115,88 1.550,00 462,90 31/05/2019
1057 357600 GABRIELLA CRUZ EMRICH OFICIAL DO MP ATIVO OLIVEIRA - COMARCA; OLIVEIRA-PJ-SECRETARIA 5.678,79 1.135,76 0,00 0,00 0,00 0,00 6.814,55 778,99 798,50 0,00 1.577,49 5.237,06 1.550,00 267,13 31/05/2019
1058 470600 GABRIELLA SPIRANDELLI COIMBRA ANALISTA DO MP ATIVO UBERLÂNDIA - COMARCA; UBERLANDIA-PJ-18PJ 9.337,87 933,79 0,00 0,00 0,00 0,00 10.271,66 1.174,18 1.644,63 0,00 2.818,81 7.452,85 1.550,00 402,65 31/05/2019
1059 86000 GASPAR GOMES DE SOUSA AGENTE DO MP ATIVO BELO HORIZONTE - COMARCA; BH-15PJ M AMB PAT HIST CULT-RECEPCAO 22.030,87 19.827,79 0,00 0,00 0,00 3.900,84 45.759,50 3.900,84 8.882,75 6.396,44 19.180,03 26.579,47 7.223,96 520,12 31/05/2019
1060 183100 GECIELLE FERNANDA SILVA OFICIAL DO MP ATIVO PITANGUI - COMARCA; PITANGUI-PJ-02PJ 13.283,29 3.984,99 0,00 0,00 5.756,09 0,00 23.024,37 2.141,23 4.939,98 0,00 7.081,21 15.943,16 1.550,00 2.197,40 31/05/2019
1061 387300 GEOFFREY GIULLIANO OLIVEIRA ALMEIDA ANALISTA DO MP ATIVO MONTALVÂNIA - COMARCA; MONTALVANIA-PJ-UNPJ 9.337,87 1.867,57 0,00 0,00 0,00 0,00 11.205,44 1.280,92 1.873,17 0,00 3.154,09 8.051,35 1.550,00 439,26 31/05/2019
1062 277700 GEORGIA CRISTINA BASILIO MEDRADO ANALISTA DO MP ATIVO BELO HORIZONTE - COMARCA; SERVICO MEDICO-DEPTO PERIC MEDICA SAUDE OCUP 14.162,21 4.248,66 0,00 0,00 0,00 0,00 18.410,87 2.155,09 3.830,27 0,00 5.985,36 12.425,51 2.322,17 2.180,17 31/05/2019
1063 618000 GEOVANE BUENO GUERRA ANALISTA DO MP ATIVO BELO HORIZONTE - COMARCA; CAO-SAUDE 6.251,74 375,10 0,00 0,00 0,00 0,00 6.626,84 779,61 752,56 0,00 1.532,17 5.094,67 1.550,00 460,50 31/05/2019
1064 605200 GEOVANI PREZOTI TONUSSI ANALISTA DO MP ATIVO SANTOS DUMONT - COMARCA; SANTOS DUMONT-PJ-03PJ 7.576,76 757,68 0,00 0,00 0,00 0,00 8.334,44 1.029,20 1.170,49 0,00 2.199,69 6.134,75 1.550,00 1.021,94 31/05/2019
1065 512100 GEOVANI VICENTIN ANALISTA DO MP ATIVO SANTA RITA DE CALDAS - COMARCA; SANTA RITA DE CALDAS-PJ-UNPJ 9.337,87 933,79 0,00 0,00 0,00 0,00 10.271,66 1.273,65 1.644,63 0,00 2.918,28 7.353,38 2.249,00 1.742,62 31/05/2019
1066 116300 GEOVANNA DAS GRACAS ROSA REQUEIJO AGENTE DO MP ATIVO SANTA LUZIA - COMARCA; SANTA LUZIA-PJ-01PJ 17.452,52 8.726,26 0,00 0,00 0,00 0,00 26.178,78 2.992,56 5.433,62 0,00 8.426,18 17.752,60 6.991,01 1.506,17 31/05/2019
1067 274901 GERALDO ANDRE DE OLIVEIRA ANALISTA DO MP ATIVO CONTAGEM - COMARCA; CONTAGEM-PJ-18PJ 8.482,22 2.544,67 0,00 0,00 0,00 0,00 11.026,89 1.351,01 1.829,47 0,00 3.180,48 7.846,41 2.249,00 1.255,04 31/05/2019
1068 270900 GERALDO BATISTA BRITES OFICIAL DO MP ATIVO BOM DESPACHO - COMARCA; BOM DESPACHO-PJ-02PJ 9.043,46 2.713,04 0,00 0,00 0,00 0,00 11.756,50 1.345,52 1.851,63 0,00 3.197,15 8.559,35 1.550,58 475,39 31/05/2019
1069 204200 GERALDO CELIO ARAUJO SOARES OFICIAL DO MP ATIVO GOVERNADOR VALADARES - COMARCA; GOVERNADOR VALADARES-PJ-04PJ 13.283,29 5.313,32 0,00 0,00 0,00 0,00 18.596,61 2.300,74 3.630,02 0,00 5.930,76 12.665,85 2.293,86 2.387,32 31/05/2019
1070 66900 GERALDO DIAS CYRINO OFICIAL DO MP ATIVO BELO HORIZONTE - COMARCA; DIVISAO DE ATENDIMENTO E CONSULTA JURIDICA 17.452,52 13.962,02 0,00 0,00 0,00 3.455,60 34.870,14 3.487,28 7.769,64 943,50 12.200,42 22.669,72 6.773,37 1.572,95 31/05/2019
1071 366500 GERALDO LEVY ROMUALDO DA SILVA OFICIAL DO MP ATIVO RIO POMBA - COMARCA; RIO POMBA-PJ-SECRETARIA 5.678,79 1.135,76 0,00 0,00 0,00 0,00 6.814,55 778,99 746,36 0,00 1.525,35 5.289,20 1.550,00 267,13 31/05/2019
1072 124400 GERALDO MAURICIO DE FARIA ROCHA OFICIAL DO MP ATIVO BELO HORIZONTE - COMARCA; BH-13ª PJ JUÍXO DE TÓXICOS 9.337,87 7.470,30 0,00 0,00 0,00 0,00 16.808,17 1.921,39 3.244,44 0,00 5.165,83 11.642,34 1.550,00 658,88 31/05/2019
1073 472800 GERALDO MONTEIRO CAMARGO JUNIOR ANALISTA DO MP ATIVO ESPINOSA - COMARCA; ESPINOSA-PJ-UNPJ 8.758,36 2.627,51 0,00 0,00 0,00 0,00 11.385,87 1.429,99 1.865,19 0,00 3.295,18 8.090,69 1.550,00 1.614,01 31/05/2019
1074 124500 GERALDO ROGERIO GOMES SILVEIRA ASSESSOR/OFICIAL ATIVO BELO HORIZONTE - COMARCA; SUPERINTENDENCIA DE RECURSOS HUMANOS 14.372,91 15.696,93 0,00 0,00 0,00 2.845,84 32.915,68 2.957,40 7.347,71 0,00 10.305,11 22.610,57 6.549,77 1.731,34 31/05/2019
1075 445900 GERALDO T